<?xml version="1.0" encoding="UTF-8" standalone="no" ?>
<gpx xmlns="http://www.topografix.com/GPX/1/1" xmlns:xsi="http://www.w3.org/2001/XMLSchema-instance" xsi:schemaLocation="http://www.topografix.com/GPX/1/1 http://www.topografix.com/GPX/1/1/gpx.xsd" version="1.1" creator="VisuGPX - https://www.visugpx.com">
  <metadata>
    <name>Roadillon au soleil</name>
    <desc><![CDATA[Balade a moto au depart de toulouse. Arrivée toulouse.
350 km de bonheur!]]></desc>
  </metadata>
  <trk>
    <name><![CDATA[26-MAI-13 21:45:39]]></name>
    <trkseg>
      <trkpt lat="43.55073" lon="1.50424">
        <ele>75.6</ele>
        <time>2013-05-26T08:30:34Z</time>
      </trkpt>
      <trkpt lat="43.55034" lon="1.50389">
        <ele>149.14</ele>
        <time>2013-05-26T08:37:02Z</time>
      </trkpt>
      <trkpt lat="43.54988" lon="1.50444">
        <ele>148.18</ele>
        <time>2013-05-26T08:37:20Z</time>
      </trkpt>
      <trkpt lat="43.54956" lon="1.50561">
        <ele>148.66</ele>
        <time>2013-05-26T08:37:33Z</time>
      </trkpt>
      <trkpt lat="43.5488" lon="1.50643">
        <ele>150.1</ele>
        <time>2013-05-26T08:37:47Z</time>
      </trkpt>
      <trkpt lat="43.54789" lon="1.50694">
        <ele>151.54</ele>
        <time>2013-05-26T08:37:58Z</time>
      </trkpt>
      <trkpt lat="43.54691" lon="1.50686">
        <ele>150.58</ele>
        <time>2013-05-26T08:38:07Z</time>
      </trkpt>
      <trkpt lat="43.54595" lon="1.50662">
        <ele>149.14</ele>
        <time>2013-05-26T08:38:17Z</time>
      </trkpt>
      <trkpt lat="43.5454" lon="1.50565">
        <ele>149.14</ele>
        <time>2013-05-26T08:38:28Z</time>
      </trkpt>
      <trkpt lat="43.5449" lon="1.5045">
        <ele>149.14</ele>
        <time>2013-05-26T08:38:39Z</time>
      </trkpt>
      <trkpt lat="43.54443" lon="1.50358">
        <ele>148.66</ele>
        <time>2013-05-26T08:38:51Z</time>
      </trkpt>
      <trkpt lat="43.54361" lon="1.50446">
        <ele>152.03</ele>
        <time>2013-05-26T08:39:00Z</time>
      </trkpt>
      <trkpt lat="43.54276" lon="1.50528">
        <ele>154.91</ele>
        <time>2013-05-26T08:39:07Z</time>
      </trkpt>
      <trkpt lat="43.54199" lon="1.50604">
        <ele>158.27</ele>
        <time>2013-05-26T08:39:12Z</time>
      </trkpt>
      <trkpt lat="43.54119" lon="1.50686">
        <ele>159.72</ele>
        <time>2013-05-26T08:39:17Z</time>
      </trkpt>
      <trkpt lat="43.54037" lon="1.50769">
        <ele>156.35</ele>
        <time>2013-05-26T08:39:22Z</time>
      </trkpt>
      <trkpt lat="43.53956" lon="1.50848">
        <ele>156.83</ele>
        <time>2013-05-26T08:39:27Z</time>
      </trkpt>
      <trkpt lat="43.53893" lon="1.50936">
        <ele>154.91</ele>
        <time>2013-05-26T08:39:33Z</time>
      </trkpt>
      <trkpt lat="43.53822" lon="1.51022">
        <ele>153.95</ele>
        <time>2013-05-26T08:39:43Z</time>
      </trkpt>
      <trkpt lat="43.53741" lon="1.51091">
        <ele>156.35</ele>
        <time>2013-05-26T08:39:52Z</time>
      </trkpt>
      <trkpt lat="43.53653" lon="1.51138">
        <ele>155.87</ele>
        <time>2013-05-26T08:39:58Z</time>
      </trkpt>
      <trkpt lat="43.53579" lon="1.5121">
        <ele>157.31</ele>
        <time>2013-05-26T08:40:03Z</time>
      </trkpt>
      <trkpt lat="43.53493" lon="1.51294">
        <ele>156.83</ele>
        <time>2013-05-26T08:40:09Z</time>
      </trkpt>
      <trkpt lat="43.53419" lon="1.51371">
        <ele>155.39</ele>
        <time>2013-05-26T08:40:14Z</time>
      </trkpt>
      <trkpt lat="43.5335" lon="1.51452">
        <ele>156.83</ele>
        <time>2013-05-26T08:40:19Z</time>
      </trkpt>
      <trkpt lat="43.53285" lon="1.51545">
        <ele>157.79</ele>
        <time>2013-05-26T08:40:24Z</time>
      </trkpt>
      <trkpt lat="43.53226" lon="1.51643">
        <ele>157.31</ele>
        <time>2013-05-26T08:40:29Z</time>
      </trkpt>
      <trkpt lat="43.53167" lon="1.51754">
        <ele>156.83</ele>
        <time>2013-05-26T08:40:35Z</time>
      </trkpt>
      <trkpt lat="43.53107" lon="1.51869">
        <ele>155.39</ele>
        <time>2013-05-26T08:40:41Z</time>
      </trkpt>
      <trkpt lat="43.5305" lon="1.51979">
        <ele>153.47</ele>
        <time>2013-05-26T08:40:48Z</time>
      </trkpt>
      <trkpt lat="43.52989" lon="1.5206">
        <ele>153.95</ele>
        <time>2013-05-26T08:40:59Z</time>
      </trkpt>
      <trkpt lat="43.5293" lon="1.52151">
        <ele>156.83</ele>
        <time>2013-05-26T08:41:08Z</time>
      </trkpt>
      <trkpt lat="43.52829" lon="1.52145">
        <ele>159.72</ele>
        <time>2013-05-26T08:41:14Z</time>
      </trkpt>
      <trkpt lat="43.52737" lon="1.52127">
        <ele>160.68</ele>
        <time>2013-05-26T08:41:19Z</time>
      </trkpt>
      <trkpt lat="43.52647" lon="1.52153">
        <ele>162.6</ele>
        <time>2013-05-26T08:41:24Z</time>
      </trkpt>
      <trkpt lat="43.52563" lon="1.52223">
        <ele>162.12</ele>
        <time>2013-05-26T08:41:29Z</time>
      </trkpt>
      <trkpt lat="43.52488" lon="1.5231">
        <ele>157.31</ele>
        <time>2013-05-26T08:41:33Z</time>
      </trkpt>
      <trkpt lat="43.52399" lon="1.52402">
        <ele>158.75</ele>
        <time>2013-05-26T08:41:37Z</time>
      </trkpt>
      <trkpt lat="43.52321" lon="1.52493">
        <ele>158.27</ele>
        <time>2013-05-26T08:41:41Z</time>
      </trkpt>
      <trkpt lat="43.52247" lon="1.52576">
        <ele>157.79</ele>
        <time>2013-05-26T08:41:45Z</time>
      </trkpt>
      <trkpt lat="43.52172" lon="1.5266">
        <ele>155.87</ele>
        <time>2013-05-26T08:41:49Z</time>
      </trkpt>
      <trkpt lat="43.52096" lon="1.52744">
        <ele>155.39</ele>
        <time>2013-05-26T08:41:53Z</time>
      </trkpt>
      <trkpt lat="43.52022" lon="1.52828">
        <ele>154.91</ele>
        <time>2013-05-26T08:41:57Z</time>
      </trkpt>
      <trkpt lat="43.5195" lon="1.52909">
        <ele>154.91</ele>
        <time>2013-05-26T08:42:01Z</time>
      </trkpt>
      <trkpt lat="43.51878" lon="1.52989">
        <ele>155.87</ele>
        <time>2013-05-26T08:42:05Z</time>
      </trkpt>
      <trkpt lat="43.51807" lon="1.53069">
        <ele>156.35</ele>
        <time>2013-05-26T08:42:09Z</time>
      </trkpt>
      <trkpt lat="43.5172" lon="1.53166">
        <ele>155.39</ele>
        <time>2013-05-26T08:42:14Z</time>
      </trkpt>
      <trkpt lat="43.51641" lon="1.53266">
        <ele>154.43</ele>
        <time>2013-05-26T08:42:19Z</time>
      </trkpt>
      <trkpt lat="43.51594" lon="1.53378">
        <ele>153.95</ele>
        <time>2013-05-26T08:42:24Z</time>
      </trkpt>
      <trkpt lat="43.51526" lon="1.53454">
        <ele>156.35</ele>
        <time>2013-05-26T08:42:34Z</time>
      </trkpt>
      <trkpt lat="43.51463" lon="1.53357">
        <ele>156.83</ele>
        <time>2013-05-26T08:42:43Z</time>
      </trkpt>
      <trkpt lat="43.5142" lon="1.53233">
        <ele>158.27</ele>
        <time>2013-05-26T08:42:50Z</time>
      </trkpt>
      <trkpt lat="43.51411" lon="1.53087">
        <ele>157.79</ele>
        <time>2013-05-26T08:42:56Z</time>
      </trkpt>
      <trkpt lat="43.51413" lon="1.52958">
        <ele>157.31</ele>
        <time>2013-05-26T08:43:01Z</time>
      </trkpt>
      <trkpt lat="43.51404" lon="1.52826">
        <ele>158.75</ele>
        <time>2013-05-26T08:43:06Z</time>
      </trkpt>
      <trkpt lat="43.51363" lon="1.52712">
        <ele>164.04</ele>
        <time>2013-05-26T08:43:11Z</time>
      </trkpt>
      <trkpt lat="43.51312" lon="1.52585">
        <ele>162.6</ele>
        <time>2013-05-26T08:43:17Z</time>
      </trkpt>
      <trkpt lat="43.5127" lon="1.52462">
        <ele>156.35</ele>
        <time>2013-05-26T08:43:25Z</time>
      </trkpt>
      <trkpt lat="43.51242" lon="1.52336">
        <ele>154.91</ele>
        <time>2013-05-26T08:43:33Z</time>
      </trkpt>
      <trkpt lat="43.51187" lon="1.52224">
        <ele>155.87</ele>
        <time>2013-05-26T08:43:41Z</time>
      </trkpt>
      <trkpt lat="43.51143" lon="1.5211">
        <ele>158.27</ele>
        <time>2013-05-26T08:43:49Z</time>
      </trkpt>
      <trkpt lat="43.51152" lon="1.51975">
        <ele>160.68</ele>
        <time>2013-05-26T08:43:57Z</time>
      </trkpt>
      <trkpt lat="43.51144" lon="1.51838">
        <ele>161.64</ele>
        <time>2013-05-26T08:44:05Z</time>
      </trkpt>
      <trkpt lat="43.5112" lon="1.51717">
        <ele>160.68</ele>
        <time>2013-05-26T08:44:21Z</time>
      </trkpt>
      <trkpt lat="43.51067" lon="1.51609">
        <ele>160.68</ele>
        <time>2013-05-26T08:44:33Z</time>
      </trkpt>
      <trkpt lat="43.50994" lon="1.51528">
        <ele>158.27</ele>
        <time>2013-05-26T08:44:42Z</time>
      </trkpt>
      <trkpt lat="43.50924" lon="1.51471">
        <ele>157.31</ele>
        <time>2013-05-26T08:44:57Z</time>
      </trkpt>
      <trkpt lat="43.50834" lon="1.51461">
        <ele>156.83</ele>
        <time>2013-05-26T08:45:08Z</time>
      </trkpt>
      <trkpt lat="43.50741" lon="1.51483">
        <ele>158.27</ele>
        <time>2013-05-26T08:45:21Z</time>
      </trkpt>
      <trkpt lat="43.50649" lon="1.51498">
        <ele>159.24</ele>
        <time>2013-05-26T08:45:31Z</time>
      </trkpt>
      <trkpt lat="43.50571" lon="1.51489">
        <ele>159.24</ele>
        <time>2013-05-26T08:45:41Z</time>
      </trkpt>
      <trkpt lat="43.50513" lon="1.51396">
        <ele>159.72</ele>
        <time>2013-05-26T08:45:51Z</time>
      </trkpt>
      <trkpt lat="43.50435" lon="1.51314">
        <ele>161.16</ele>
        <time>2013-05-26T08:46:00Z</time>
      </trkpt>
      <trkpt lat="43.50372" lon="1.51223">
        <ele>161.16</ele>
        <time>2013-05-26T08:46:09Z</time>
      </trkpt>
      <trkpt lat="43.50311" lon="1.51131">
        <ele>164.04</ele>
        <time>2013-05-26T08:46:21Z</time>
      </trkpt>
      <trkpt lat="43.50236" lon="1.51183">
        <ele>165.96</ele>
        <time>2013-05-26T08:46:38Z</time>
      </trkpt>
      <trkpt lat="43.50161" lon="1.51267">
        <ele>168.37</ele>
        <time>2013-05-26T08:46:45Z</time>
      </trkpt>
      <trkpt lat="43.50091" lon="1.51345">
        <ele>168.85</ele>
        <time>2013-05-26T08:46:51Z</time>
      </trkpt>
      <trkpt lat="43.50013" lon="1.5143">
        <ele>168.37</ele>
        <time>2013-05-26T08:46:57Z</time>
      </trkpt>
      <trkpt lat="43.49937" lon="1.51518">
        <ele>170.77</ele>
        <time>2013-05-26T08:47:03Z</time>
      </trkpt>
      <trkpt lat="43.49862" lon="1.51608">
        <ele>168.85</ele>
        <time>2013-05-26T08:47:09Z</time>
      </trkpt>
      <trkpt lat="43.49788" lon="1.51695">
        <ele>168.85</ele>
        <time>2013-05-26T08:47:15Z</time>
      </trkpt>
      <trkpt lat="43.4971" lon="1.51786">
        <ele>167.89</ele>
        <time>2013-05-26T08:47:23Z</time>
      </trkpt>
      <trkpt lat="43.49637" lon="1.51876">
        <ele>170.29</ele>
        <time>2013-05-26T08:47:31Z</time>
      </trkpt>
      <trkpt lat="43.49563" lon="1.51961">
        <ele>170.77</ele>
        <time>2013-05-26T08:47:39Z</time>
      </trkpt>
      <trkpt lat="43.49489" lon="1.52051">
        <ele>168.37</ele>
        <time>2013-05-26T08:47:48Z</time>
      </trkpt>
      <trkpt lat="43.49417" lon="1.52072">
        <ele>166.93</ele>
        <time>2013-05-26T08:48:02Z</time>
      </trkpt>
      <trkpt lat="43.49327" lon="1.52097">
        <ele>168.85</ele>
        <time>2013-05-26T08:48:14Z</time>
      </trkpt>
      <trkpt lat="43.4923" lon="1.52102">
        <ele>170.29</ele>
        <time>2013-05-26T08:48:22Z</time>
      </trkpt>
      <trkpt lat="43.49139" lon="1.52105">
        <ele>175.58</ele>
        <time>2013-05-26T08:48:29Z</time>
      </trkpt>
      <trkpt lat="43.49048" lon="1.52103">
        <ele>179.9</ele>
        <time>2013-05-26T08:48:36Z</time>
      </trkpt>
      <trkpt lat="43.48948" lon="1.52102">
        <ele>184.23</ele>
        <time>2013-05-26T08:48:44Z</time>
      </trkpt>
      <trkpt lat="43.48854" lon="1.52123">
        <ele>187.59</ele>
        <time>2013-05-26T08:48:51Z</time>
      </trkpt>
      <trkpt lat="43.48773" lon="1.52203">
        <ele>193.84</ele>
        <time>2013-05-26T08:48:57Z</time>
      </trkpt>
      <trkpt lat="43.48696" lon="1.52286">
        <ele>196.73</ele>
        <time>2013-05-26T08:49:04Z</time>
      </trkpt>
      <trkpt lat="43.48619" lon="1.52376">
        <ele>200.09</ele>
        <time>2013-05-26T08:49:12Z</time>
      </trkpt>
      <trkpt lat="43.48552" lon="1.52464">
        <ele>202.01</ele>
        <time>2013-05-26T08:49:21Z</time>
      </trkpt>
      <trkpt lat="43.48482" lon="1.52554">
        <ele>205.86</ele>
        <time>2013-05-26T08:49:30Z</time>
      </trkpt>
      <trkpt lat="43.48397" lon="1.52627">
        <ele>210.19</ele>
        <time>2013-05-26T08:49:39Z</time>
      </trkpt>
      <trkpt lat="43.48305" lon="1.5263">
        <ele>218.36</ele>
        <time>2013-05-26T08:49:49Z</time>
      </trkpt>
      <trkpt lat="43.48212" lon="1.52586">
        <ele>220.76</ele>
        <time>2013-05-26T08:50:01Z</time>
      </trkpt>
      <trkpt lat="43.48115" lon="1.52602">
        <ele>227.01</ele>
        <time>2013-05-26T08:50:10Z</time>
      </trkpt>
      <trkpt lat="43.48027" lon="1.5263">
        <ele>233.26</ele>
        <time>2013-05-26T08:50:18Z</time>
      </trkpt>
      <trkpt lat="43.47934" lon="1.52608">
        <ele>232.78</ele>
        <time>2013-05-26T08:50:29Z</time>
      </trkpt>
      <trkpt lat="43.47843" lon="1.52576">
        <ele>234.7</ele>
        <time>2013-05-26T08:50:42Z</time>
      </trkpt>
      <trkpt lat="43.47761" lon="1.52514">
        <ele>239.99</ele>
        <time>2013-05-26T08:50:53Z</time>
      </trkpt>
      <trkpt lat="43.47662" lon="1.52498">
        <ele>240.47</ele>
        <time>2013-05-26T08:51:02Z</time>
      </trkpt>
      <trkpt lat="43.47562" lon="1.52483">
        <ele>241.43</ele>
        <time>2013-05-26T08:51:10Z</time>
      </trkpt>
      <trkpt lat="43.47464" lon="1.52478">
        <ele>239.02</ele>
        <time>2013-05-26T08:51:17Z</time>
      </trkpt>
      <trkpt lat="43.47368" lon="1.52528">
        <ele>237.58</ele>
        <time>2013-05-26T08:51:24Z</time>
      </trkpt>
      <trkpt lat="43.47267" lon="1.52517">
        <ele>235.66</ele>
        <time>2013-05-26T08:51:30Z</time>
      </trkpt>
      <trkpt lat="43.47175" lon="1.52463">
        <ele>237.58</ele>
        <time>2013-05-26T08:51:36Z</time>
      </trkpt>
      <trkpt lat="43.47078" lon="1.52437">
        <ele>241.43</ele>
        <time>2013-05-26T08:51:43Z</time>
      </trkpt>
      <trkpt lat="43.46996" lon="1.52392">
        <ele>241.43</ele>
        <time>2013-05-26T08:51:49Z</time>
      </trkpt>
      <trkpt lat="43.46951" lon="1.52286">
        <ele>248.64</ele>
        <time>2013-05-26T08:51:54Z</time>
      </trkpt>
      <trkpt lat="43.46881" lon="1.52187">
        <ele>257.77</ele>
        <time>2013-05-26T08:52:00Z</time>
      </trkpt>
      <trkpt lat="43.4679" lon="1.52168">
        <ele>257.29</ele>
        <time>2013-05-26T08:52:06Z</time>
      </trkpt>
      <trkpt lat="43.46695" lon="1.52237">
        <ele>268.35</ele>
        <time>2013-05-26T08:52:12Z</time>
      </trkpt>
      <trkpt lat="43.46627" lon="1.52216">
        <ele>270.75</ele>
        <time>2013-05-26T08:52:21Z</time>
      </trkpt>
      <trkpt lat="43.466" lon="1.52085">
        <ele>268.35</ele>
        <time>2013-05-26T08:52:28Z</time>
      </trkpt>
      <trkpt lat="43.46542" lon="1.51976">
        <ele>266.42</ele>
        <time>2013-05-26T08:52:34Z</time>
      </trkpt>
      <trkpt lat="43.46456" lon="1.51892">
        <ele>267.38</ele>
        <time>2013-05-26T08:52:40Z</time>
      </trkpt>
      <trkpt lat="43.46383" lon="1.51792">
        <ele>262.1</ele>
        <time>2013-05-26T08:52:46Z</time>
      </trkpt>
      <trkpt lat="43.46297" lon="1.51711">
        <ele>258.73</ele>
        <time>2013-05-26T08:52:52Z</time>
      </trkpt>
      <trkpt lat="43.46207" lon="1.51633">
        <ele>268.83</ele>
        <time>2013-05-26T08:52:58Z</time>
      </trkpt>
      <trkpt lat="43.46126" lon="1.51547">
        <ele>276.04</ele>
        <time>2013-05-26T08:53:04Z</time>
      </trkpt>
      <trkpt lat="43.46078" lon="1.51419">
        <ele>278.92</ele>
        <time>2013-05-26T08:53:10Z</time>
      </trkpt>
      <trkpt lat="43.46059" lon="1.51284">
        <ele>286.13</ele>
        <time>2013-05-26T08:53:17Z</time>
      </trkpt>
      <trkpt lat="43.45995" lon="1.51278">
        <ele>295.26</ele>
        <time>2013-05-26T08:53:40Z</time>
      </trkpt>
      <trkpt lat="43.4596" lon="1.51407">
        <ele>300.07</ele>
        <time>2013-05-26T08:53:48Z</time>
      </trkpt>
      <trkpt lat="43.45924" lon="1.51544">
        <ele>302.95</ele>
        <time>2013-05-26T08:53:54Z</time>
      </trkpt>
      <trkpt lat="43.45905" lon="1.51672">
        <ele>301.51</ele>
        <time>2013-05-26T08:53:59Z</time>
      </trkpt>
      <trkpt lat="43.45894" lon="1.51796">
        <ele>298.63</ele>
        <time>2013-05-26T08:54:04Z</time>
      </trkpt>
      <trkpt lat="43.45878" lon="1.51931">
        <ele>291.9</ele>
        <time>2013-05-26T08:54:12Z</time>
      </trkpt>
      <trkpt lat="43.4583" lon="1.52043">
        <ele>286.13</ele>
        <time>2013-05-26T08:54:22Z</time>
      </trkpt>
      <trkpt lat="43.45757" lon="1.52115">
        <ele>283.73</ele>
        <time>2013-05-26T08:54:33Z</time>
      </trkpt>
      <trkpt lat="43.45671" lon="1.52154">
        <ele>281.8</ele>
        <time>2013-05-26T08:54:47Z</time>
      </trkpt>
      <trkpt lat="43.456" lon="1.52215">
        <ele>282.28</ele>
        <time>2013-05-26T08:54:59Z</time>
      </trkpt>
      <trkpt lat="43.45553" lon="1.52329">
        <ele>281.32</ele>
        <time>2013-05-26T08:55:07Z</time>
      </trkpt>
      <trkpt lat="43.45497" lon="1.52428">
        <ele>279.88</ele>
        <time>2013-05-26T08:55:14Z</time>
      </trkpt>
      <trkpt lat="43.45431" lon="1.5253">
        <ele>283.73</ele>
        <time>2013-05-26T08:55:21Z</time>
      </trkpt>
      <trkpt lat="43.45371" lon="1.52643">
        <ele>284.69</ele>
        <time>2013-05-26T08:55:27Z</time>
      </trkpt>
      <trkpt lat="43.45309" lon="1.52735">
        <ele>286.13</ele>
        <time>2013-05-26T08:55:32Z</time>
      </trkpt>
      <trkpt lat="43.45251" lon="1.5283">
        <ele>286.61</ele>
        <time>2013-05-26T08:55:37Z</time>
      </trkpt>
      <trkpt lat="43.45203" lon="1.52945">
        <ele>289.01</ele>
        <time>2013-05-26T08:55:42Z</time>
      </trkpt>
      <trkpt lat="43.45156" lon="1.53062">
        <ele>289.49</ele>
        <time>2013-05-26T08:55:47Z</time>
      </trkpt>
      <trkpt lat="43.45105" lon="1.53173">
        <ele>288.53</ele>
        <time>2013-05-26T08:55:52Z</time>
      </trkpt>
      <trkpt lat="43.45042" lon="1.53278">
        <ele>286.61</ele>
        <time>2013-05-26T08:55:58Z</time>
      </trkpt>
      <trkpt lat="43.44984" lon="1.53376">
        <ele>290.94</ele>
        <time>2013-05-26T08:56:05Z</time>
      </trkpt>
      <trkpt lat="43.44922" lon="1.53477">
        <ele>289.97</ele>
        <time>2013-05-26T08:56:12Z</time>
      </trkpt>
      <trkpt lat="43.44867" lon="1.53599">
        <ele>288.53</ele>
        <time>2013-05-26T08:56:18Z</time>
      </trkpt>
      <trkpt lat="43.44818" lon="1.53711">
        <ele>286.13</ele>
        <time>2013-05-26T08:56:23Z</time>
      </trkpt>
      <trkpt lat="43.44767" lon="1.53828">
        <ele>283.25</ele>
        <time>2013-05-26T08:56:28Z</time>
      </trkpt>
      <trkpt lat="43.44714" lon="1.53948">
        <ele>283.25</ele>
        <time>2013-05-26T08:56:33Z</time>
      </trkpt>
      <trkpt lat="43.44663" lon="1.54065">
        <ele>285.17</ele>
        <time>2013-05-26T08:56:38Z</time>
      </trkpt>
      <trkpt lat="43.44608" lon="1.54185">
        <ele>287.09</ele>
        <time>2013-05-26T08:56:43Z</time>
      </trkpt>
      <trkpt lat="43.44556" lon="1.54294">
        <ele>281.8</ele>
        <time>2013-05-26T08:56:48Z</time>
      </trkpt>
      <trkpt lat="43.44495" lon="1.54387">
        <ele>279.88</ele>
        <time>2013-05-26T08:56:53Z</time>
      </trkpt>
      <trkpt lat="43.44407" lon="1.54451">
        <ele>277.48</ele>
        <time>2013-05-26T08:56:59Z</time>
      </trkpt>
      <trkpt lat="43.44317" lon="1.54493">
        <ele>276.52</ele>
        <time>2013-05-26T08:57:07Z</time>
      </trkpt>
      <trkpt lat="43.44234" lon="1.54549">
        <ele>275.07</ele>
        <time>2013-05-26T08:57:15Z</time>
      </trkpt>
      <trkpt lat="43.44156" lon="1.54635">
        <ele>275.07</ele>
        <time>2013-05-26T08:57:24Z</time>
      </trkpt>
      <trkpt lat="43.44076" lon="1.54733">
        <ele>274.11</ele>
        <time>2013-05-26T08:57:30Z</time>
      </trkpt>
      <trkpt lat="43.44017" lon="1.54841">
        <ele>273.63</ele>
        <time>2013-05-26T08:57:35Z</time>
      </trkpt>
      <trkpt lat="43.43967" lon="1.54953">
        <ele>275.07</ele>
        <time>2013-05-26T08:57:40Z</time>
      </trkpt>
      <trkpt lat="43.43911" lon="1.55053">
        <ele>273.63</ele>
        <time>2013-05-26T08:57:45Z</time>
      </trkpt>
      <trkpt lat="43.43844" lon="1.55146">
        <ele>270.75</ele>
        <time>2013-05-26T08:57:50Z</time>
      </trkpt>
      <trkpt lat="43.43763" lon="1.5524">
        <ele>268.83</ele>
        <time>2013-05-26T08:57:56Z</time>
      </trkpt>
      <trkpt lat="43.43682" lon="1.55321">
        <ele>269.79</ele>
        <time>2013-05-26T08:58:02Z</time>
      </trkpt>
      <trkpt lat="43.43601" lon="1.55384">
        <ele>275.07</ele>
        <time>2013-05-26T08:58:07Z</time>
      </trkpt>
      <trkpt lat="43.43519" lon="1.55445">
        <ele>273.63</ele>
        <time>2013-05-26T08:58:12Z</time>
      </trkpt>
      <trkpt lat="43.43425" lon="1.55512">
        <ele>277</ele>
        <time>2013-05-26T08:58:18Z</time>
      </trkpt>
      <trkpt lat="43.43356" lon="1.5561">
        <ele>278.92</ele>
        <time>2013-05-26T08:58:23Z</time>
      </trkpt>
      <trkpt lat="43.43285" lon="1.5571">
        <ele>280.36</ele>
        <time>2013-05-26T08:58:28Z</time>
      </trkpt>
      <trkpt lat="43.43215" lon="1.55811">
        <ele>274.59</ele>
        <time>2013-05-26T08:58:33Z</time>
      </trkpt>
      <trkpt lat="43.43154" lon="1.55928">
        <ele>277</ele>
        <time>2013-05-26T08:58:38Z</time>
      </trkpt>
      <trkpt lat="43.43102" lon="1.56045">
        <ele>279.88</ele>
        <time>2013-05-26T08:58:43Z</time>
      </trkpt>
      <trkpt lat="43.43051" lon="1.56162">
        <ele>280.36</ele>
        <time>2013-05-26T08:58:48Z</time>
      </trkpt>
      <trkpt lat="43.42999" lon="1.56281">
        <ele>279.88</ele>
        <time>2013-05-26T08:58:54Z</time>
      </trkpt>
      <trkpt lat="43.42948" lon="1.56397">
        <ele>277</ele>
        <time>2013-05-26T08:59:02Z</time>
      </trkpt>
      <trkpt lat="43.42872" lon="1.56427">
        <ele>271.71</ele>
        <time>2013-05-26T08:59:20Z</time>
      </trkpt>
      <trkpt lat="43.42778" lon="1.56406">
        <ele>268.83</ele>
        <time>2013-05-26T08:59:28Z</time>
      </trkpt>
      <trkpt lat="43.42671" lon="1.56383">
        <ele>266.42</ele>
        <time>2013-05-26T08:59:34Z</time>
      </trkpt>
      <trkpt lat="43.42577" lon="1.56394">
        <ele>266.42</ele>
        <time>2013-05-26T08:59:39Z</time>
      </trkpt>
      <trkpt lat="43.42496" lon="1.56453">
        <ele>275.56</ele>
        <time>2013-05-26T08:59:44Z</time>
      </trkpt>
      <trkpt lat="43.42404" lon="1.56488">
        <ele>276.52</ele>
        <time>2013-05-26T08:59:49Z</time>
      </trkpt>
      <trkpt lat="43.42308" lon="1.56516">
        <ele>275.56</ele>
        <time>2013-05-26T08:59:54Z</time>
      </trkpt>
      <trkpt lat="43.42208" lon="1.56544">
        <ele>271.23</ele>
        <time>2013-05-26T08:59:59Z</time>
      </trkpt>
      <trkpt lat="43.42104" lon="1.56572">
        <ele>276.52</ele>
        <time>2013-05-26T09:00:04Z</time>
      </trkpt>
      <trkpt lat="43.4201" lon="1.56603">
        <ele>276.04</ele>
        <time>2013-05-26T09:00:09Z</time>
      </trkpt>
      <trkpt lat="43.41914" lon="1.56652">
        <ele>274.11</ele>
        <time>2013-05-26T09:00:14Z</time>
      </trkpt>
      <trkpt lat="43.41817" lon="1.56702">
        <ele>274.11</ele>
        <time>2013-05-26T09:00:19Z</time>
      </trkpt>
      <trkpt lat="43.41718" lon="1.56752">
        <ele>270.75</ele>
        <time>2013-05-26T09:00:24Z</time>
      </trkpt>
      <trkpt lat="43.41619" lon="1.56802">
        <ele>273.15</ele>
        <time>2013-05-26T09:00:29Z</time>
      </trkpt>
      <trkpt lat="43.41518" lon="1.56853">
        <ele>268.35</ele>
        <time>2013-05-26T09:00:34Z</time>
      </trkpt>
      <trkpt lat="43.41416" lon="1.56903">
        <ele>270.27</ele>
        <time>2013-05-26T09:00:39Z</time>
      </trkpt>
      <trkpt lat="43.41319" lon="1.56966">
        <ele>271.71</ele>
        <time>2013-05-26T09:00:44Z</time>
      </trkpt>
      <trkpt lat="43.41225" lon="1.57031">
        <ele>274.11</ele>
        <time>2013-05-26T09:00:49Z</time>
      </trkpt>
      <trkpt lat="43.41129" lon="1.57098">
        <ele>272.19</ele>
        <time>2013-05-26T09:00:54Z</time>
      </trkpt>
      <trkpt lat="43.41034" lon="1.57164">
        <ele>270.27</ele>
        <time>2013-05-26T09:00:59Z</time>
      </trkpt>
      <trkpt lat="43.40937" lon="1.57231">
        <ele>266.42</ele>
        <time>2013-05-26T09:01:04Z</time>
      </trkpt>
      <trkpt lat="43.40846" lon="1.57293">
        <ele>264.5</ele>
        <time>2013-05-26T09:01:09Z</time>
      </trkpt>
      <trkpt lat="43.40758" lon="1.57355">
        <ele>262.58</ele>
        <time>2013-05-26T09:01:14Z</time>
      </trkpt>
      <trkpt lat="43.40659" lon="1.57386">
        <ele>264.02</ele>
        <time>2013-05-26T09:01:20Z</time>
      </trkpt>
      <trkpt lat="43.4057" lon="1.5734">
        <ele>266.42</ele>
        <time>2013-05-26T09:01:26Z</time>
      </trkpt>
      <trkpt lat="43.40496" lon="1.57267">
        <ele>273.63</ele>
        <time>2013-05-26T09:01:33Z</time>
      </trkpt>
      <trkpt lat="43.40436" lon="1.57206">
        <ele>274.11</ele>
        <time>2013-05-26T09:01:46Z</time>
      </trkpt>
      <trkpt lat="43.40449" lon="1.57337">
        <ele>277.96</ele>
        <time>2013-05-26T09:01:56Z</time>
      </trkpt>
      <trkpt lat="43.40438" lon="1.5748">
        <ele>277</ele>
        <time>2013-05-26T09:02:03Z</time>
      </trkpt>
      <trkpt lat="43.40415" lon="1.57618">
        <ele>277.96</ele>
        <time>2013-05-26T09:02:09Z</time>
      </trkpt>
      <trkpt lat="43.40386" lon="1.57747">
        <ele>279.4</ele>
        <time>2013-05-26T09:02:15Z</time>
      </trkpt>
      <trkpt lat="43.40338" lon="1.57865">
        <ele>279.4</ele>
        <time>2013-05-26T09:02:21Z</time>
      </trkpt>
      <trkpt lat="43.40267" lon="1.57962">
        <ele>282.28</ele>
        <time>2013-05-26T09:02:27Z</time>
      </trkpt>
      <trkpt lat="43.40192" lon="1.5806">
        <ele>281.32</ele>
        <time>2013-05-26T09:02:33Z</time>
      </trkpt>
      <trkpt lat="43.40117" lon="1.58157">
        <ele>279.4</ele>
        <time>2013-05-26T09:02:39Z</time>
      </trkpt>
      <trkpt lat="43.40042" lon="1.58257">
        <ele>276.52</ele>
        <time>2013-05-26T09:02:45Z</time>
      </trkpt>
      <trkpt lat="43.39971" lon="1.58351">
        <ele>274.11</ele>
        <time>2013-05-26T09:02:50Z</time>
      </trkpt>
      <trkpt lat="43.39897" lon="1.58449">
        <ele>275.56</ele>
        <time>2013-05-26T09:02:55Z</time>
      </trkpt>
      <trkpt lat="43.39825" lon="1.58546">
        <ele>276.04</ele>
        <time>2013-05-26T09:03:00Z</time>
      </trkpt>
      <trkpt lat="43.39751" lon="1.58641">
        <ele>279.4</ele>
        <time>2013-05-26T09:03:05Z</time>
      </trkpt>
      <trkpt lat="43.39665" lon="1.58723">
        <ele>282.28</ele>
        <time>2013-05-26T09:03:10Z</time>
      </trkpt>
      <trkpt lat="43.3959" lon="1.58791">
        <ele>281.32</ele>
        <time>2013-05-26T09:03:15Z</time>
      </trkpt>
      <trkpt lat="43.39501" lon="1.58872">
        <ele>278.92</ele>
        <time>2013-05-26T09:03:21Z</time>
      </trkpt>
      <trkpt lat="43.39412" lon="1.58955">
        <ele>278.92</ele>
        <time>2013-05-26T09:03:27Z</time>
      </trkpt>
      <trkpt lat="43.39325" lon="1.59036">
        <ele>280.36</ele>
        <time>2013-05-26T09:03:33Z</time>
      </trkpt>
      <trkpt lat="43.3924" lon="1.59116">
        <ele>281.32</ele>
        <time>2013-05-26T09:03:39Z</time>
      </trkpt>
      <trkpt lat="43.39158" lon="1.59202">
        <ele>287.57</ele>
        <time>2013-05-26T09:03:45Z</time>
      </trkpt>
      <trkpt lat="43.39077" lon="1.5929">
        <ele>285.65</ele>
        <time>2013-05-26T09:03:51Z</time>
      </trkpt>
      <trkpt lat="43.38993" lon="1.59382">
        <ele>289.01</ele>
        <time>2013-05-26T09:03:57Z</time>
      </trkpt>
      <trkpt lat="43.38921" lon="1.59466">
        <ele>289.97</ele>
        <time>2013-05-26T09:04:02Z</time>
      </trkpt>
      <trkpt lat="43.38864" lon="1.59578">
        <ele>287.57</ele>
        <time>2013-05-26T09:04:07Z</time>
      </trkpt>
      <trkpt lat="43.3882" lon="1.59708">
        <ele>287.09</ele>
        <time>2013-05-26T09:04:12Z</time>
      </trkpt>
      <trkpt lat="43.38785" lon="1.59839">
        <ele>287.57</ele>
        <time>2013-05-26T09:04:17Z</time>
      </trkpt>
      <trkpt lat="43.38761" lon="1.59978">
        <ele>286.13</ele>
        <time>2013-05-26T09:04:22Z</time>
      </trkpt>
      <trkpt lat="43.38758" lon="1.60124">
        <ele>287.57</ele>
        <time>2013-05-26T09:04:27Z</time>
      </trkpt>
      <trkpt lat="43.38771" lon="1.60264">
        <ele>288.05</ele>
        <time>2013-05-26T09:04:32Z</time>
      </trkpt>
      <trkpt lat="43.38793" lon="1.60398">
        <ele>292.38</ele>
        <time>2013-05-26T09:04:37Z</time>
      </trkpt>
      <trkpt lat="43.38784" lon="1.60535">
        <ele>296.22</ele>
        <time>2013-05-26T09:04:42Z</time>
      </trkpt>
      <trkpt lat="43.38747" lon="1.60655">
        <ele>295.26</ele>
        <time>2013-05-26T09:04:47Z</time>
      </trkpt>
      <trkpt lat="43.38682" lon="1.60763">
        <ele>291.42</ele>
        <time>2013-05-26T09:04:53Z</time>
      </trkpt>
      <trkpt lat="43.38621" lon="1.60849">
        <ele>286.61</ele>
        <time>2013-05-26T09:05:03Z</time>
      </trkpt>
      <trkpt lat="43.38556" lon="1.60956">
        <ele>289.01</ele>
        <time>2013-05-26T09:05:12Z</time>
      </trkpt>
      <trkpt lat="43.38481" lon="1.61053">
        <ele>288.05</ele>
        <time>2013-05-26T09:05:19Z</time>
      </trkpt>
      <trkpt lat="43.38388" lon="1.61105">
        <ele>284.69</ele>
        <time>2013-05-26T09:05:25Z</time>
      </trkpt>
      <trkpt lat="43.38297" lon="1.61181">
        <ele>280.36</ele>
        <time>2013-05-26T09:05:31Z</time>
      </trkpt>
      <trkpt lat="43.38228" lon="1.61269">
        <ele>278.44</ele>
        <time>2013-05-26T09:05:36Z</time>
      </trkpt>
      <trkpt lat="43.38154" lon="1.61362">
        <ele>276.04</ele>
        <time>2013-05-26T09:05:42Z</time>
      </trkpt>
      <trkpt lat="43.38084" lon="1.61445">
        <ele>277.48</ele>
        <time>2013-05-26T09:05:50Z</time>
      </trkpt>
      <trkpt lat="43.38011" lon="1.61527">
        <ele>279.4</ele>
        <time>2013-05-26T09:06:01Z</time>
      </trkpt>
      <trkpt lat="43.37924" lon="1.61594">
        <ele>279.88</ele>
        <time>2013-05-26T09:06:08Z</time>
      </trkpt>
      <trkpt lat="43.37825" lon="1.61655">
        <ele>279.4</ele>
        <time>2013-05-26T09:06:14Z</time>
      </trkpt>
      <trkpt lat="43.37733" lon="1.61695">
        <ele>277.96</ele>
        <time>2013-05-26T09:06:19Z</time>
      </trkpt>
      <trkpt lat="43.37642" lon="1.61739">
        <ele>281.32</ele>
        <time>2013-05-26T09:06:24Z</time>
      </trkpt>
      <trkpt lat="43.37555" lon="1.61808">
        <ele>289.49</ele>
        <time>2013-05-26T09:06:29Z</time>
      </trkpt>
      <trkpt lat="43.37466" lon="1.61882">
        <ele>289.49</ele>
        <time>2013-05-26T09:06:34Z</time>
      </trkpt>
      <trkpt lat="43.37377" lon="1.61954">
        <ele>290.46</ele>
        <time>2013-05-26T09:06:39Z</time>
      </trkpt>
      <trkpt lat="43.37299" lon="1.62046">
        <ele>283.73</ele>
        <time>2013-05-26T09:06:44Z</time>
      </trkpt>
      <trkpt lat="43.37226" lon="1.62148">
        <ele>279.4</ele>
        <time>2013-05-26T09:06:50Z</time>
      </trkpt>
      <trkpt lat="43.37141" lon="1.62222">
        <ele>278.92</ele>
        <time>2013-05-26T09:06:56Z</time>
      </trkpt>
      <trkpt lat="43.37053" lon="1.62282">
        <ele>283.73</ele>
        <time>2013-05-26T09:07:02Z</time>
      </trkpt>
      <trkpt lat="43.36962" lon="1.62346">
        <ele>284.69</ele>
        <time>2013-05-26T09:07:08Z</time>
      </trkpt>
      <trkpt lat="43.36868" lon="1.62408">
        <ele>281.32</ele>
        <time>2013-05-26T09:07:14Z</time>
      </trkpt>
      <trkpt lat="43.36776" lon="1.62457">
        <ele>281.8</ele>
        <time>2013-05-26T09:07:20Z</time>
      </trkpt>
      <trkpt lat="43.36686" lon="1.62505">
        <ele>283.25</ele>
        <time>2013-05-26T09:07:27Z</time>
      </trkpt>
      <trkpt lat="43.36597" lon="1.62538">
        <ele>284.21</ele>
        <time>2013-05-26T09:07:38Z</time>
      </trkpt>
      <trkpt lat="43.36503" lon="1.62541">
        <ele>282.77</ele>
        <time>2013-05-26T09:07:49Z</time>
      </trkpt>
      <trkpt lat="43.36411" lon="1.62492">
        <ele>280.84</ele>
        <time>2013-05-26T09:07:57Z</time>
      </trkpt>
      <trkpt lat="43.36327" lon="1.62424">
        <ele>283.73</ele>
        <time>2013-05-26T09:08:05Z</time>
      </trkpt>
      <trkpt lat="43.36237" lon="1.62366">
        <ele>287.09</ele>
        <time>2013-05-26T09:08:13Z</time>
      </trkpt>
      <trkpt lat="43.36146" lon="1.6238">
        <ele>289.49</ele>
        <time>2013-05-26T09:08:20Z</time>
      </trkpt>
      <trkpt lat="43.36051" lon="1.62397">
        <ele>288.53</ele>
        <time>2013-05-26T09:08:29Z</time>
      </trkpt>
      <trkpt lat="43.35959" lon="1.6239">
        <ele>287.09</ele>
        <time>2013-05-26T09:08:39Z</time>
      </trkpt>
      <trkpt lat="43.35868" lon="1.62368">
        <ele>282.77</ele>
        <time>2013-05-26T09:08:49Z</time>
      </trkpt>
      <trkpt lat="43.35779" lon="1.62344">
        <ele>281.8</ele>
        <time>2013-05-26T09:08:59Z</time>
      </trkpt>
      <trkpt lat="43.35683" lon="1.62332">
        <ele>285.65</ele>
        <time>2013-05-26T09:09:10Z</time>
      </trkpt>
      <trkpt lat="43.35593" lon="1.62327">
        <ele>287.57</ele>
        <time>2013-05-26T09:09:40Z</time>
      </trkpt>
      <trkpt lat="43.35513" lon="1.62385">
        <ele>283.25</ele>
        <time>2013-05-26T09:09:59Z</time>
      </trkpt>
      <trkpt lat="43.35423" lon="1.62428">
        <ele>280.84</ele>
        <time>2013-05-26T09:10:14Z</time>
      </trkpt>
      <trkpt lat="43.35339" lon="1.6247">
        <ele>279.88</ele>
        <time>2013-05-26T09:10:26Z</time>
      </trkpt>
      <trkpt lat="43.35254" lon="1.62519">
        <ele>277.48</ele>
        <time>2013-05-26T09:10:35Z</time>
      </trkpt>
      <trkpt lat="43.35158" lon="1.62507">
        <ele>275.56</ele>
        <time>2013-05-26T09:10:43Z</time>
      </trkpt>
      <trkpt lat="43.35064" lon="1.62507">
        <ele>280.36</ele>
        <time>2013-05-26T09:10:51Z</time>
      </trkpt>
      <trkpt lat="43.34976" lon="1.62548">
        <ele>281.32</ele>
        <time>2013-05-26T09:10:58Z</time>
      </trkpt>
      <trkpt lat="43.34881" lon="1.62595">
        <ele>286.13</ele>
        <time>2013-05-26T09:11:05Z</time>
      </trkpt>
      <trkpt lat="43.34809" lon="1.62688">
        <ele>292.86</ele>
        <time>2013-05-26T09:11:12Z</time>
      </trkpt>
      <trkpt lat="43.34739" lon="1.62778">
        <ele>294.3</ele>
        <time>2013-05-26T09:11:18Z</time>
      </trkpt>
      <trkpt lat="43.34655" lon="1.62846">
        <ele>287.57</ele>
        <time>2013-05-26T09:11:24Z</time>
      </trkpt>
      <trkpt lat="43.34564" lon="1.62913">
        <ele>289.97</ele>
        <time>2013-05-26T09:11:30Z</time>
      </trkpt>
      <trkpt lat="43.34481" lon="1.62972">
        <ele>290.94</ele>
        <time>2013-05-26T09:11:35Z</time>
      </trkpt>
      <trkpt lat="43.344" lon="1.63033">
        <ele>290.46</ele>
        <time>2013-05-26T09:11:40Z</time>
      </trkpt>
      <trkpt lat="43.34319" lon="1.63109">
        <ele>289.49</ele>
        <time>2013-05-26T09:11:45Z</time>
      </trkpt>
      <trkpt lat="43.34237" lon="1.63173">
        <ele>288.05</ele>
        <time>2013-05-26T09:11:50Z</time>
      </trkpt>
      <trkpt lat="43.34143" lon="1.632">
        <ele>282.77</ele>
        <time>2013-05-26T09:11:56Z</time>
      </trkpt>
      <trkpt lat="43.34058" lon="1.6319">
        <ele>283.25</ele>
        <time>2013-05-26T09:12:04Z</time>
      </trkpt>
      <trkpt lat="43.33979" lon="1.63256">
        <ele>289.49</ele>
        <time>2013-05-26T09:12:12Z</time>
      </trkpt>
      <trkpt lat="43.33898" lon="1.63324">
        <ele>293.82</ele>
        <time>2013-05-26T09:12:20Z</time>
      </trkpt>
      <trkpt lat="43.33818" lon="1.63387">
        <ele>293.82</ele>
        <time>2013-05-26T09:12:30Z</time>
      </trkpt>
      <trkpt lat="43.33734" lon="1.63456">
        <ele>292.86</ele>
        <time>2013-05-26T09:12:41Z</time>
      </trkpt>
      <trkpt lat="43.33646" lon="1.63524">
        <ele>293.34</ele>
        <time>2013-05-26T09:12:50Z</time>
      </trkpt>
      <trkpt lat="43.33591" lon="1.63627">
        <ele>295.74</ele>
        <time>2013-05-26T09:12:58Z</time>
      </trkpt>
      <trkpt lat="43.33553" lon="1.63738">
        <ele>295.26</ele>
        <time>2013-05-26T09:13:05Z</time>
      </trkpt>
      <trkpt lat="43.3351" lon="1.63863">
        <ele>294.3</ele>
        <time>2013-05-26T09:13:11Z</time>
      </trkpt>
      <trkpt lat="43.33453" lon="1.63962">
        <ele>293.82</ele>
        <time>2013-05-26T09:13:17Z</time>
      </trkpt>
      <trkpt lat="43.33375" lon="1.64037">
        <ele>296.22</ele>
        <time>2013-05-26T09:13:23Z</time>
      </trkpt>
      <trkpt lat="43.33298" lon="1.64116">
        <ele>292.86</ele>
        <time>2013-05-26T09:13:29Z</time>
      </trkpt>
      <trkpt lat="43.33234" lon="1.64233">
        <ele>285.17</ele>
        <time>2013-05-26T09:13:34Z</time>
      </trkpt>
      <trkpt lat="43.33177" lon="1.64337">
        <ele>287.09</ele>
        <time>2013-05-26T09:13:38Z</time>
      </trkpt>
      <trkpt lat="43.33122" lon="1.64441">
        <ele>284.69</ele>
        <time>2013-05-26T09:13:42Z</time>
      </trkpt>
      <trkpt lat="43.33059" lon="1.64561">
        <ele>285.65</ele>
        <time>2013-05-26T09:13:47Z</time>
      </trkpt>
      <trkpt lat="43.32996" lon="1.64687">
        <ele>284.21</ele>
        <time>2013-05-26T09:13:52Z</time>
      </trkpt>
      <trkpt lat="43.32937" lon="1.64814">
        <ele>287.09</ele>
        <time>2013-05-26T09:13:57Z</time>
      </trkpt>
      <trkpt lat="43.32876" lon="1.64909">
        <ele>290.94</ele>
        <time>2013-05-26T09:14:01Z</time>
      </trkpt>
      <trkpt lat="43.32809" lon="1.64993">
        <ele>289.97</ele>
        <time>2013-05-26T09:14:05Z</time>
      </trkpt>
      <trkpt lat="43.32728" lon="1.65096">
        <ele>300.07</ele>
        <time>2013-05-26T09:14:10Z</time>
      </trkpt>
      <trkpt lat="43.32658" lon="1.65176">
        <ele>300.55</ele>
        <time>2013-05-26T09:14:14Z</time>
      </trkpt>
      <trkpt lat="43.32572" lon="1.65268">
        <ele>299.59</ele>
        <time>2013-05-26T09:14:19Z</time>
      </trkpt>
      <trkpt lat="43.32509" lon="1.65369">
        <ele>294.78</ele>
        <time>2013-05-26T09:14:24Z</time>
      </trkpt>
      <trkpt lat="43.32468" lon="1.65505">
        <ele>298.63</ele>
        <time>2013-05-26T09:14:29Z</time>
      </trkpt>
      <trkpt lat="43.32427" lon="1.65641">
        <ele>301.51</ele>
        <time>2013-05-26T09:14:34Z</time>
      </trkpt>
      <trkpt lat="43.32383" lon="1.65786">
        <ele>301.99</ele>
        <time>2013-05-26T09:14:39Z</time>
      </trkpt>
      <trkpt lat="43.32349" lon="1.659">
        <ele>305.84</ele>
        <time>2013-05-26T09:14:43Z</time>
      </trkpt>
      <trkpt lat="43.32295" lon="1.66015">
        <ele>303.91</ele>
        <time>2013-05-26T09:14:48Z</time>
      </trkpt>
      <trkpt lat="43.32221" lon="1.66105">
        <ele>299.59</ele>
        <time>2013-05-26T09:14:53Z</time>
      </trkpt>
      <trkpt lat="43.32162" lon="1.66222">
        <ele>295.26</ele>
        <time>2013-05-26T09:14:58Z</time>
      </trkpt>
      <trkpt lat="43.32114" lon="1.66353">
        <ele>292.86</ele>
        <time>2013-05-26T09:15:03Z</time>
      </trkpt>
      <trkpt lat="43.32053" lon="1.66461">
        <ele>291.42</ele>
        <time>2013-05-26T09:15:08Z</time>
      </trkpt>
      <trkpt lat="43.31958" lon="1.66528">
        <ele>289.01</ele>
        <time>2013-05-26T09:15:13Z</time>
      </trkpt>
      <trkpt lat="43.31879" lon="1.66597">
        <ele>288.53</ele>
        <time>2013-05-26T09:15:18Z</time>
      </trkpt>
      <trkpt lat="43.31821" lon="1.66708">
        <ele>298.15</ele>
        <time>2013-05-26T09:15:23Z</time>
      </trkpt>
      <trkpt lat="43.31757" lon="1.66813">
        <ele>300.07</ele>
        <time>2013-05-26T09:15:28Z</time>
      </trkpt>
      <trkpt lat="43.31688" lon="1.66915">
        <ele>301.03</ele>
        <time>2013-05-26T09:15:33Z</time>
      </trkpt>
      <trkpt lat="43.31625" lon="1.67033">
        <ele>301.99</ele>
        <time>2013-05-26T09:15:38Z</time>
      </trkpt>
      <trkpt lat="43.31557" lon="1.67146">
        <ele>300.55</ele>
        <time>2013-05-26T09:15:43Z</time>
      </trkpt>
      <trkpt lat="43.31482" lon="1.67258">
        <ele>300.07</ele>
        <time>2013-05-26T09:15:48Z</time>
      </trkpt>
      <trkpt lat="43.31411" lon="1.67373">
        <ele>299.59</ele>
        <time>2013-05-26T09:15:53Z</time>
      </trkpt>
      <trkpt lat="43.31339" lon="1.67486">
        <ele>301.99</ele>
        <time>2013-05-26T09:15:58Z</time>
      </trkpt>
      <trkpt lat="43.31277" lon="1.67607">
        <ele>308.24</ele>
        <time>2013-05-26T09:16:03Z</time>
      </trkpt>
      <trkpt lat="43.31228" lon="1.67743">
        <ele>305.84</ele>
        <time>2013-05-26T09:16:08Z</time>
      </trkpt>
      <trkpt lat="43.31174" lon="1.67866">
        <ele>305.84</ele>
        <time>2013-05-26T09:16:13Z</time>
      </trkpt>
      <trkpt lat="43.31117" lon="1.6799">
        <ele>309.2</ele>
        <time>2013-05-26T09:16:18Z</time>
      </trkpt>
      <trkpt lat="43.31063" lon="1.68122">
        <ele>309.68</ele>
        <time>2013-05-26T09:16:23Z</time>
      </trkpt>
      <trkpt lat="43.31009" lon="1.68254">
        <ele>306.32</ele>
        <time>2013-05-26T09:16:28Z</time>
      </trkpt>
      <trkpt lat="43.30943" lon="1.68372">
        <ele>308.24</ele>
        <time>2013-05-26T09:16:33Z</time>
      </trkpt>
      <trkpt lat="43.30869" lon="1.68478">
        <ele>310.64</ele>
        <time>2013-05-26T09:16:38Z</time>
      </trkpt>
      <trkpt lat="43.30796" lon="1.68589">
        <ele>318.33</ele>
        <time>2013-05-26T09:16:43Z</time>
      </trkpt>
      <trkpt lat="43.30724" lon="1.68698">
        <ele>320.26</ele>
        <time>2013-05-26T09:16:48Z</time>
      </trkpt>
      <trkpt lat="43.30664" lon="1.68792">
        <ele>315.93</ele>
        <time>2013-05-26T09:16:53Z</time>
      </trkpt>
      <trkpt lat="43.30603" lon="1.68898">
        <ele>319.3</ele>
        <time>2013-05-26T09:16:59Z</time>
      </trkpt>
      <trkpt lat="43.3055" lon="1.69009">
        <ele>315.45</ele>
        <time>2013-05-26T09:17:06Z</time>
      </trkpt>
      <trkpt lat="43.30463" lon="1.69067">
        <ele>310.64</ele>
        <time>2013-05-26T09:17:17Z</time>
      </trkpt>
      <trkpt lat="43.30367" lon="1.69086">
        <ele>314.49</ele>
        <time>2013-05-26T09:17:24Z</time>
      </trkpt>
      <trkpt lat="43.30265" lon="1.69114">
        <ele>313.53</ele>
        <time>2013-05-26T09:17:30Z</time>
      </trkpt>
      <trkpt lat="43.3017" lon="1.69134">
        <ele>314.01</ele>
        <time>2013-05-26T09:17:36Z</time>
      </trkpt>
      <trkpt lat="43.30097" lon="1.69057">
        <ele>314.97</ele>
        <time>2013-05-26T09:17:43Z</time>
      </trkpt>
      <trkpt lat="43.30071" lon="1.68928">
        <ele>318.33</ele>
        <time>2013-05-26T09:17:50Z</time>
      </trkpt>
      <trkpt lat="43.29999" lon="1.68838">
        <ele>325.06</ele>
        <time>2013-05-26T09:17:58Z</time>
      </trkpt>
      <trkpt lat="43.2996" lon="1.68719">
        <ele>319.3</ele>
        <time>2013-05-26T09:18:04Z</time>
      </trkpt>
      <trkpt lat="43.29899" lon="1.68625">
        <ele>314.49</ele>
        <time>2013-05-26T09:18:11Z</time>
      </trkpt>
      <trkpt lat="43.29805" lon="1.68659">
        <ele>320.74</ele>
        <time>2013-05-26T09:18:17Z</time>
      </trkpt>
      <trkpt lat="43.29713" lon="1.68699">
        <ele>328.91</ele>
        <time>2013-05-26T09:18:23Z</time>
      </trkpt>
      <trkpt lat="43.29614" lon="1.68736">
        <ele>337.56</ele>
        <time>2013-05-26T09:18:29Z</time>
      </trkpt>
      <trkpt lat="43.29536" lon="1.68799">
        <ele>341.89</ele>
        <time>2013-05-26T09:18:34Z</time>
      </trkpt>
      <trkpt lat="43.29454" lon="1.68893">
        <ele>340.92</ele>
        <time>2013-05-26T09:18:40Z</time>
      </trkpt>
      <trkpt lat="43.29391" lon="1.69008">
        <ele>337.56</ele>
        <time>2013-05-26T09:18:46Z</time>
      </trkpt>
      <trkpt lat="43.29328" lon="1.6911">
        <ele>334.2</ele>
        <time>2013-05-26T09:18:51Z</time>
      </trkpt>
      <trkpt lat="43.29246" lon="1.69196">
        <ele>324.1</ele>
        <time>2013-05-26T09:18:58Z</time>
      </trkpt>
      <trkpt lat="43.29196" lon="1.69299">
        <ele>322.18</ele>
        <time>2013-05-26T09:19:04Z</time>
      </trkpt>
      <trkpt lat="43.29107" lon="1.6936">
        <ele>316.89</ele>
        <time>2013-05-26T09:19:10Z</time>
      </trkpt>
      <trkpt lat="43.29009" lon="1.69331">
        <ele>315.93</ele>
        <time>2013-05-26T09:19:16Z</time>
      </trkpt>
      <trkpt lat="43.28928" lon="1.6941">
        <ele>318.33</ele>
        <time>2013-05-26T09:19:22Z</time>
      </trkpt>
      <trkpt lat="43.28846" lon="1.69473">
        <ele>321.22</ele>
        <time>2013-05-26T09:19:28Z</time>
      </trkpt>
      <trkpt lat="43.2877" lon="1.69552">
        <ele>325.06</ele>
        <time>2013-05-26T09:19:34Z</time>
      </trkpt>
      <trkpt lat="43.28712" lon="1.69676">
        <ele>330.83</ele>
        <time>2013-05-26T09:19:40Z</time>
      </trkpt>
      <trkpt lat="43.28668" lon="1.69787">
        <ele>333.71</ele>
        <time>2013-05-26T09:19:45Z</time>
      </trkpt>
      <trkpt lat="43.28616" lon="1.69897">
        <ele>330.83</ele>
        <time>2013-05-26T09:19:50Z</time>
      </trkpt>
      <trkpt lat="43.28552" lon="1.69997">
        <ele>324.1</ele>
        <time>2013-05-26T09:19:55Z</time>
      </trkpt>
      <trkpt lat="43.28476" lon="1.70071">
        <ele>320.74</ele>
        <time>2013-05-26T09:20:00Z</time>
      </trkpt>
      <trkpt lat="43.28389" lon="1.70055">
        <ele>322.66</ele>
        <time>2013-05-26T09:20:06Z</time>
      </trkpt>
      <trkpt lat="43.2835" lon="1.69952">
        <ele>327.47</ele>
        <time>2013-05-26T09:20:13Z</time>
      </trkpt>
      <trkpt lat="43.28273" lon="1.7002">
        <ele>331.79</ele>
        <time>2013-05-26T09:20:20Z</time>
      </trkpt>
      <trkpt lat="43.2819" lon="1.70074">
        <ele>329.39</ele>
        <time>2013-05-26T09:20:26Z</time>
      </trkpt>
      <trkpt lat="43.28114" lon="1.70013">
        <ele>330.83</ele>
        <time>2013-05-26T09:20:32Z</time>
      </trkpt>
      <trkpt lat="43.28072" lon="1.69883">
        <ele>335.64</ele>
        <time>2013-05-26T09:20:38Z</time>
      </trkpt>
      <trkpt lat="43.28035" lon="1.69767">
        <ele>337.56</ele>
        <time>2013-05-26T09:20:43Z</time>
      </trkpt>
      <trkpt lat="43.27996" lon="1.69644">
        <ele>342.85</ele>
        <time>2013-05-26T09:20:49Z</time>
      </trkpt>
      <trkpt lat="43.27913" lon="1.69662">
        <ele>346.21</ele>
        <time>2013-05-26T09:20:56Z</time>
      </trkpt>
      <trkpt lat="43.27845" lon="1.69766">
        <ele>342.37</ele>
        <time>2013-05-26T09:21:02Z</time>
      </trkpt>
      <trkpt lat="43.27781" lon="1.69855">
        <ele>339.48</ele>
        <time>2013-05-26T09:21:08Z</time>
      </trkpt>
      <trkpt lat="43.27686" lon="1.69833">
        <ele>335.64</ele>
        <time>2013-05-26T09:21:14Z</time>
      </trkpt>
      <trkpt lat="43.27604" lon="1.69744">
        <ele>328.91</ele>
        <time>2013-05-26T09:21:20Z</time>
      </trkpt>
      <trkpt lat="43.27541" lon="1.69634">
        <ele>326.99</ele>
        <time>2013-05-26T09:21:26Z</time>
      </trkpt>
      <trkpt lat="43.27499" lon="1.69522">
        <ele>330.83</ele>
        <time>2013-05-26T09:21:31Z</time>
      </trkpt>
      <trkpt lat="43.27462" lon="1.69401">
        <ele>334.68</ele>
        <time>2013-05-26T09:21:37Z</time>
      </trkpt>
      <trkpt lat="43.27484" lon="1.69256">
        <ele>337.56</ele>
        <time>2013-05-26T09:21:43Z</time>
      </trkpt>
      <trkpt lat="43.27473" lon="1.69119">
        <ele>340.44</ele>
        <time>2013-05-26T09:21:49Z</time>
      </trkpt>
      <trkpt lat="43.27421" lon="1.68994">
        <ele>344.77</ele>
        <time>2013-05-26T09:21:55Z</time>
      </trkpt>
      <trkpt lat="43.27372" lon="1.68878">
        <ele>342.85</ele>
        <time>2013-05-26T09:22:01Z</time>
      </trkpt>
      <trkpt lat="43.27329" lon="1.68755">
        <ele>340.44</ele>
        <time>2013-05-26T09:22:07Z</time>
      </trkpt>
      <trkpt lat="43.2735" lon="1.68615">
        <ele>336.6</ele>
        <time>2013-05-26T09:22:13Z</time>
      </trkpt>
      <trkpt lat="43.27401" lon="1.68489">
        <ele>334.2</ele>
        <time>2013-05-26T09:22:19Z</time>
      </trkpt>
      <trkpt lat="43.27448" lon="1.68365">
        <ele>331.79</ele>
        <time>2013-05-26T09:22:26Z</time>
      </trkpt>
      <trkpt lat="43.27496" lon="1.68247">
        <ele>327.95</ele>
        <time>2013-05-26T09:22:34Z</time>
      </trkpt>
      <trkpt lat="43.27534" lon="1.68136">
        <ele>326.02</ele>
        <time>2013-05-26T09:22:50Z</time>
      </trkpt>
      <trkpt lat="43.27553" lon="1.68093">
        <ele>323.62</ele>
        <time>2013-05-26T09:26:31Z</time>
      </trkpt>
      <trkpt lat="43.27503" lon="1.68201">
        <ele>325.06</ele>
        <time>2013-05-26T09:26:50Z</time>
      </trkpt>
      <trkpt lat="43.27467" lon="1.68318">
        <ele>327.47</ele>
        <time>2013-05-26T09:27:10Z</time>
      </trkpt>
      <trkpt lat="43.27424" lon="1.68427">
        <ele>328.91</ele>
        <time>2013-05-26T09:27:20Z</time>
      </trkpt>
      <trkpt lat="43.27386" lon="1.68474">
        <ele>328.91</ele>
        <time>2013-05-26T09:29:47Z</time>
      </trkpt>
      <trkpt lat="43.27434" lon="1.68402">
        <ele>325.06</ele>
        <time>2013-05-26T09:44:02Z</time>
      </trkpt>
      <trkpt lat="43.27481" lon="1.68284">
        <ele>325.06</ele>
        <time>2013-05-26T09:44:18Z</time>
      </trkpt>
      <trkpt lat="43.27458" lon="1.68214">
        <ele>323.62</ele>
        <time>2013-05-26T09:44:29Z</time>
      </trkpt>
      <trkpt lat="43.27397" lon="1.6831">
        <ele>320.74</ele>
        <time>2013-05-26T09:44:37Z</time>
      </trkpt>
      <trkpt lat="43.2736" lon="1.68426">
        <ele>316.41</ele>
        <time>2013-05-26T09:44:44Z</time>
      </trkpt>
      <trkpt lat="43.27286" lon="1.68503">
        <ele>311.6</ele>
        <time>2013-05-26T09:44:52Z</time>
      </trkpt>
      <trkpt lat="43.27197" lon="1.68528">
        <ele>308.24</ele>
        <time>2013-05-26T09:45:01Z</time>
      </trkpt>
      <trkpt lat="43.27213" lon="1.68655">
        <ele>303.43</ele>
        <time>2013-05-26T09:45:11Z</time>
      </trkpt>
      <trkpt lat="43.27124" lon="1.687">
        <ele>300.55</ele>
        <time>2013-05-26T09:45:20Z</time>
      </trkpt>
      <trkpt lat="43.27033" lon="1.68642">
        <ele>293.82</ele>
        <time>2013-05-26T09:45:28Z</time>
      </trkpt>
      <trkpt lat="43.26954" lon="1.68703">
        <ele>288.05</ele>
        <time>2013-05-26T09:45:36Z</time>
      </trkpt>
      <trkpt lat="43.26894" lon="1.68809">
        <ele>283.25</ele>
        <time>2013-05-26T09:45:43Z</time>
      </trkpt>
      <trkpt lat="43.26826" lon="1.68901">
        <ele>279.88</ele>
        <time>2013-05-26T09:45:49Z</time>
      </trkpt>
      <trkpt lat="43.26737" lon="1.68947">
        <ele>275.07</ele>
        <time>2013-05-26T09:45:55Z</time>
      </trkpt>
      <trkpt lat="43.26647" lon="1.6892">
        <ele>266.42</ele>
        <time>2013-05-26T09:46:01Z</time>
      </trkpt>
      <trkpt lat="43.26546" lon="1.68922">
        <ele>263.06</ele>
        <time>2013-05-26T09:46:08Z</time>
      </trkpt>
      <trkpt lat="43.26461" lon="1.68973">
        <ele>260.65</ele>
        <time>2013-05-26T09:46:14Z</time>
      </trkpt>
      <trkpt lat="43.26373" lon="1.69026">
        <ele>252.48</ele>
        <time>2013-05-26T09:46:20Z</time>
      </trkpt>
      <trkpt lat="43.2628" lon="1.69058">
        <ele>246.23</ele>
        <time>2013-05-26T09:46:26Z</time>
      </trkpt>
      <trkpt lat="43.2619" lon="1.69116">
        <ele>238.06</ele>
        <time>2013-05-26T09:46:33Z</time>
      </trkpt>
      <trkpt lat="43.26108" lon="1.69035">
        <ele>231.81</ele>
        <time>2013-05-26T09:46:40Z</time>
      </trkpt>
      <trkpt lat="43.26037" lon="1.68942">
        <ele>229.89</ele>
        <time>2013-05-26T09:46:46Z</time>
      </trkpt>
      <trkpt lat="43.25958" lon="1.6884">
        <ele>230.85</ele>
        <time>2013-05-26T09:46:52Z</time>
      </trkpt>
      <trkpt lat="43.25889" lon="1.6875">
        <ele>230.85</ele>
        <time>2013-05-26T09:46:57Z</time>
      </trkpt>
      <trkpt lat="43.25821" lon="1.68662">
        <ele>230.85</ele>
        <time>2013-05-26T09:47:02Z</time>
      </trkpt>
      <trkpt lat="43.25745" lon="1.68565">
        <ele>229.89</ele>
        <time>2013-05-26T09:47:09Z</time>
      </trkpt>
      <trkpt lat="43.25675" lon="1.68476">
        <ele>227.97</ele>
        <time>2013-05-26T09:47:16Z</time>
      </trkpt>
      <trkpt lat="43.25607" lon="1.68386">
        <ele>227.97</ele>
        <time>2013-05-26T09:47:23Z</time>
      </trkpt>
      <trkpt lat="43.25534" lon="1.68293">
        <ele>224.12</ele>
        <time>2013-05-26T09:47:31Z</time>
      </trkpt>
      <trkpt lat="43.25466" lon="1.68205">
        <ele>225.57</ele>
        <time>2013-05-26T09:47:40Z</time>
      </trkpt>
      <trkpt lat="43.25397" lon="1.68116">
        <ele>228.93</ele>
        <time>2013-05-26T09:47:49Z</time>
      </trkpt>
      <trkpt lat="43.25337" lon="1.68159">
        <ele>227.97</ele>
        <time>2013-05-26T09:48:05Z</time>
      </trkpt>
      <trkpt lat="43.25268" lon="1.68259">
        <ele>227.97</ele>
        <time>2013-05-26T09:48:20Z</time>
      </trkpt>
      <trkpt lat="43.25231" lon="1.68375">
        <ele>233.74</ele>
        <time>2013-05-26T09:48:27Z</time>
      </trkpt>
      <trkpt lat="43.25201" lon="1.68501">
        <ele>232.78</ele>
        <time>2013-05-26T09:48:33Z</time>
      </trkpt>
      <trkpt lat="43.25167" lon="1.68643">
        <ele>231.81</ele>
        <time>2013-05-26T09:48:39Z</time>
      </trkpt>
      <trkpt lat="43.25138" lon="1.68767">
        <ele>229.41</ele>
        <time>2013-05-26T09:48:44Z</time>
      </trkpt>
      <trkpt lat="43.25105" lon="1.689">
        <ele>233.26</ele>
        <time>2013-05-26T09:48:49Z</time>
      </trkpt>
      <trkpt lat="43.25074" lon="1.69027">
        <ele>231.81</ele>
        <time>2013-05-26T09:48:54Z</time>
      </trkpt>
      <trkpt lat="43.25042" lon="1.69161">
        <ele>230.85</ele>
        <time>2013-05-26T09:48:59Z</time>
      </trkpt>
      <trkpt lat="43.25008" lon="1.69301">
        <ele>231.33</ele>
        <time>2013-05-26T09:49:04Z</time>
      </trkpt>
      <trkpt lat="43.24975" lon="1.69439">
        <ele>232.3</ele>
        <time>2013-05-26T09:49:09Z</time>
      </trkpt>
      <trkpt lat="43.24943" lon="1.69573">
        <ele>230.85</ele>
        <time>2013-05-26T09:49:14Z</time>
      </trkpt>
      <trkpt lat="43.24911" lon="1.69707">
        <ele>228.93</ele>
        <time>2013-05-26T09:49:19Z</time>
      </trkpt>
      <trkpt lat="43.24878" lon="1.69843">
        <ele>239.02</ele>
        <time>2013-05-26T09:49:24Z</time>
      </trkpt>
      <trkpt lat="43.24845" lon="1.69981">
        <ele>233.74</ele>
        <time>2013-05-26T09:49:29Z</time>
      </trkpt>
      <trkpt lat="43.24812" lon="1.70121">
        <ele>231.33</ele>
        <time>2013-05-26T09:49:34Z</time>
      </trkpt>
      <trkpt lat="43.24786" lon="1.70267">
        <ele>230.85</ele>
        <time>2013-05-26T09:49:39Z</time>
      </trkpt>
      <trkpt lat="43.24773" lon="1.70416">
        <ele>236.14</ele>
        <time>2013-05-26T09:49:44Z</time>
      </trkpt>
      <trkpt lat="43.2476" lon="1.70566">
        <ele>235.66</ele>
        <time>2013-05-26T09:49:49Z</time>
      </trkpt>
      <trkpt lat="43.24747" lon="1.70717">
        <ele>231.81</ele>
        <time>2013-05-26T09:49:54Z</time>
      </trkpt>
      <trkpt lat="43.24734" lon="1.70865">
        <ele>234.7</ele>
        <time>2013-05-26T09:49:59Z</time>
      </trkpt>
      <trkpt lat="43.2472" lon="1.71014">
        <ele>235.66</ele>
        <time>2013-05-26T09:50:04Z</time>
      </trkpt>
      <trkpt lat="43.24708" lon="1.71157">
        <ele>234.7</ele>
        <time>2013-05-26T09:50:09Z</time>
      </trkpt>
      <trkpt lat="43.24696" lon="1.7129">
        <ele>234.7</ele>
        <time>2013-05-26T09:50:15Z</time>
      </trkpt>
      <trkpt lat="43.24684" lon="1.71422">
        <ele>234.22</ele>
        <time>2013-05-26T09:50:23Z</time>
      </trkpt>
      <trkpt lat="43.24673" lon="1.71556">
        <ele>234.22</ele>
        <time>2013-05-26T09:50:32Z</time>
      </trkpt>
      <trkpt lat="43.24671" lon="1.71686">
        <ele>237.1</ele>
        <time>2013-05-26T09:50:40Z</time>
      </trkpt>
      <trkpt lat="43.24692" lon="1.71811">
        <ele>238.06</ele>
        <time>2013-05-26T09:50:47Z</time>
      </trkpt>
      <trkpt lat="43.24712" lon="1.71935">
        <ele>241.43</ele>
        <time>2013-05-26T09:50:53Z</time>
      </trkpt>
      <trkpt lat="43.24732" lon="1.7207">
        <ele>240.95</ele>
        <time>2013-05-26T09:50:59Z</time>
      </trkpt>
      <trkpt lat="43.24766" lon="1.72204">
        <ele>241.91</ele>
        <time>2013-05-26T09:51:05Z</time>
      </trkpt>
      <trkpt lat="43.24813" lon="1.72329">
        <ele>241.91</ele>
        <time>2013-05-26T09:51:11Z</time>
      </trkpt>
      <trkpt lat="43.24879" lon="1.72438">
        <ele>245.27</ele>
        <time>2013-05-26T09:51:17Z</time>
      </trkpt>
      <trkpt lat="43.24911" lon="1.72562">
        <ele>243.83</ele>
        <time>2013-05-26T09:51:23Z</time>
      </trkpt>
      <trkpt lat="43.24885" lon="1.72699">
        <ele>243.35</ele>
        <time>2013-05-26T09:51:30Z</time>
      </trkpt>
      <trkpt lat="43.24902" lon="1.72824">
        <ele>246.23</ele>
        <time>2013-05-26T09:51:36Z</time>
      </trkpt>
      <trkpt lat="43.24938" lon="1.72937">
        <ele>246.23</ele>
        <time>2013-05-26T09:51:42Z</time>
      </trkpt>
      <trkpt lat="43.24918" lon="1.73056">
        <ele>248.64</ele>
        <time>2013-05-26T09:51:50Z</time>
      </trkpt>
      <trkpt lat="43.24963" lon="1.73119">
        <ele>247.68</ele>
        <time>2013-05-26T09:52:00Z</time>
      </trkpt>
      <trkpt lat="43.25062" lon="1.731">
        <ele>250.08</ele>
        <time>2013-05-26T09:52:08Z</time>
      </trkpt>
      <trkpt lat="43.25156" lon="1.7314">
        <ele>252.48</ele>
        <time>2013-05-26T09:52:15Z</time>
      </trkpt>
      <trkpt lat="43.25246" lon="1.73162">
        <ele>252.48</ele>
        <time>2013-05-26T09:52:22Z</time>
      </trkpt>
      <trkpt lat="43.25326" lon="1.73237">
        <ele>253.93</ele>
        <time>2013-05-26T09:52:30Z</time>
      </trkpt>
      <trkpt lat="43.25387" lon="1.73332">
        <ele>253.93</ele>
        <time>2013-05-26T09:52:36Z</time>
      </trkpt>
      <trkpt lat="43.2547" lon="1.73411">
        <ele>255.85</ele>
        <time>2013-05-26T09:52:43Z</time>
      </trkpt>
      <trkpt lat="43.25558" lon="1.73422">
        <ele>256.81</ele>
        <time>2013-05-26T09:52:49Z</time>
      </trkpt>
      <trkpt lat="43.25647" lon="1.73401">
        <ele>258.25</ele>
        <time>2013-05-26T09:52:56Z</time>
      </trkpt>
      <trkpt lat="43.2573" lon="1.7348">
        <ele>259.69</ele>
        <time>2013-05-26T09:53:03Z</time>
      </trkpt>
      <trkpt lat="43.25802" lon="1.73571">
        <ele>259.69</ele>
        <time>2013-05-26T09:53:10Z</time>
      </trkpt>
      <trkpt lat="43.25863" lon="1.73662">
        <ele>264.5</ele>
        <time>2013-05-26T09:53:17Z</time>
      </trkpt>
      <trkpt lat="43.25879" lon="1.73785">
        <ele>264.02</ele>
        <time>2013-05-26T09:53:23Z</time>
      </trkpt>
      <trkpt lat="43.25891" lon="1.73902">
        <ele>270.27</ele>
        <time>2013-05-26T09:53:29Z</time>
      </trkpt>
      <trkpt lat="43.25902" lon="1.74023">
        <ele>270.75</ele>
        <time>2013-05-26T09:53:36Z</time>
      </trkpt>
      <trkpt lat="43.2593" lon="1.74147">
        <ele>278.44</ele>
        <time>2013-05-26T09:53:43Z</time>
      </trkpt>
      <trkpt lat="43.25969" lon="1.74262">
        <ele>280.84</ele>
        <time>2013-05-26T09:53:49Z</time>
      </trkpt>
      <trkpt lat="43.2604" lon="1.74337">
        <ele>284.69</ele>
        <time>2013-05-26T09:53:55Z</time>
      </trkpt>
      <trkpt lat="43.26114" lon="1.74393">
        <ele>287.57</ele>
        <time>2013-05-26T09:54:02Z</time>
      </trkpt>
      <trkpt lat="43.26101" lon="1.74518">
        <ele>293.82</ele>
        <time>2013-05-26T09:54:10Z</time>
      </trkpt>
      <trkpt lat="43.26164" lon="1.74622">
        <ele>296.22</ele>
        <time>2013-05-26T09:54:18Z</time>
      </trkpt>
      <trkpt lat="43.26248" lon="1.74691">
        <ele>303.43</ele>
        <time>2013-05-26T09:54:25Z</time>
      </trkpt>
      <trkpt lat="43.26319" lon="1.74762">
        <ele>306.32</ele>
        <time>2013-05-26T09:54:32Z</time>
      </trkpt>
      <trkpt lat="43.26307" lon="1.74891">
        <ele>308.24</ele>
        <time>2013-05-26T09:54:39Z</time>
      </trkpt>
      <trkpt lat="43.26219" lon="1.74889">
        <ele>313.05</ele>
        <time>2013-05-26T09:54:48Z</time>
      </trkpt>
      <trkpt lat="43.26174" lon="1.74992">
        <ele>317.37</ele>
        <time>2013-05-26T09:54:57Z</time>
      </trkpt>
      <trkpt lat="43.26131" lon="1.75113">
        <ele>320.74</ele>
        <time>2013-05-26T09:55:05Z</time>
      </trkpt>
      <trkpt lat="43.26131" lon="1.75241">
        <ele>325.06</ele>
        <time>2013-05-26T09:55:13Z</time>
      </trkpt>
      <trkpt lat="43.26219" lon="1.75308">
        <ele>328.43</ele>
        <time>2013-05-26T09:55:21Z</time>
      </trkpt>
      <trkpt lat="43.26228" lon="1.75445">
        <ele>333.23</ele>
        <time>2013-05-26T09:55:28Z</time>
      </trkpt>
      <trkpt lat="43.26241" lon="1.75567">
        <ele>338.52</ele>
        <time>2013-05-26T09:55:35Z</time>
      </trkpt>
      <trkpt lat="43.26308" lon="1.75487">
        <ele>332.27</ele>
        <time>2013-05-26T09:55:43Z</time>
      </trkpt>
      <trkpt lat="43.26358" lon="1.75377">
        <ele>328.91</ele>
        <time>2013-05-26T09:55:50Z</time>
      </trkpt>
      <trkpt lat="43.2643" lon="1.75285">
        <ele>325.06</ele>
        <time>2013-05-26T09:55:57Z</time>
      </trkpt>
      <trkpt lat="43.26477" lon="1.75176">
        <ele>321.7</ele>
        <time>2013-05-26T09:56:03Z</time>
      </trkpt>
      <trkpt lat="43.26515" lon="1.75062">
        <ele>317.37</ele>
        <time>2013-05-26T09:56:09Z</time>
      </trkpt>
      <trkpt lat="43.26571" lon="1.74966">
        <ele>314.49</ele>
        <time>2013-05-26T09:56:15Z</time>
      </trkpt>
      <trkpt lat="43.26644" lon="1.74894">
        <ele>310.64</ele>
        <time>2013-05-26T09:56:21Z</time>
      </trkpt>
      <trkpt lat="43.26728" lon="1.74923">
        <ele>311.6</ele>
        <time>2013-05-26T09:56:27Z</time>
      </trkpt>
      <trkpt lat="43.26809" lon="1.74985">
        <ele>302.95</ele>
        <time>2013-05-26T09:56:33Z</time>
      </trkpt>
      <trkpt lat="43.269" lon="1.7504">
        <ele>300.55</ele>
        <time>2013-05-26T09:56:39Z</time>
      </trkpt>
      <trkpt lat="43.26991" lon="1.74972">
        <ele>292.86</ele>
        <time>2013-05-26T09:56:45Z</time>
      </trkpt>
      <trkpt lat="43.27053" lon="1.74851">
        <ele>292.38</ele>
        <time>2013-05-26T09:56:51Z</time>
      </trkpt>
      <trkpt lat="43.27125" lon="1.74777">
        <ele>288.53</ele>
        <time>2013-05-26T09:56:57Z</time>
      </trkpt>
      <trkpt lat="43.27214" lon="1.74817">
        <ele>282.28</ele>
        <time>2013-05-26T09:57:03Z</time>
      </trkpt>
      <trkpt lat="43.27294" lon="1.74755">
        <ele>279.88</ele>
        <time>2013-05-26T09:57:09Z</time>
      </trkpt>
      <trkpt lat="43.27368" lon="1.74669">
        <ele>276.04</ele>
        <time>2013-05-26T09:57:16Z</time>
      </trkpt>
      <trkpt lat="43.27458" lon="1.74724">
        <ele>270.75</ele>
        <time>2013-05-26T09:57:24Z</time>
      </trkpt>
      <trkpt lat="43.27547" lon="1.74717">
        <ele>267.86</ele>
        <time>2013-05-26T09:57:32Z</time>
      </trkpt>
      <trkpt lat="43.27547" lon="1.74839">
        <ele>265.46</ele>
        <time>2013-05-26T09:57:40Z</time>
      </trkpt>
      <trkpt lat="43.2751" lon="1.74973">
        <ele>259.69</ele>
        <time>2013-05-26T09:57:48Z</time>
      </trkpt>
      <trkpt lat="43.27475" lon="1.75095">
        <ele>258.25</ele>
        <time>2013-05-26T09:57:54Z</time>
      </trkpt>
      <trkpt lat="43.27424" lon="1.75224">
        <ele>251.52</ele>
        <time>2013-05-26T09:58:00Z</time>
      </trkpt>
      <trkpt lat="43.27387" lon="1.75336">
        <ele>249.12</ele>
        <time>2013-05-26T09:58:05Z</time>
      </trkpt>
      <trkpt lat="43.27392" lon="1.75461">
        <ele>245.27</ele>
        <time>2013-05-26T09:58:10Z</time>
      </trkpt>
      <trkpt lat="43.2738" lon="1.75581">
        <ele>249.12</ele>
        <time>2013-05-26T09:58:15Z</time>
      </trkpt>
      <trkpt lat="43.27338" lon="1.75694">
        <ele>252</ele>
        <time>2013-05-26T09:58:20Z</time>
      </trkpt>
      <trkpt lat="43.27288" lon="1.75798">
        <ele>255.37</ele>
        <time>2013-05-26T09:58:25Z</time>
      </trkpt>
      <trkpt lat="43.27249" lon="1.75914">
        <ele>258.25</ele>
        <time>2013-05-26T09:58:30Z</time>
      </trkpt>
      <trkpt lat="43.27229" lon="1.76039">
        <ele>261.14</ele>
        <time>2013-05-26T09:58:35Z</time>
      </trkpt>
      <trkpt lat="43.27218" lon="1.76179">
        <ele>264.98</ele>
        <time>2013-05-26T09:58:41Z</time>
      </trkpt>
      <trkpt lat="43.27181" lon="1.76293">
        <ele>267.86</ele>
        <time>2013-05-26T09:58:48Z</time>
      </trkpt>
      <trkpt lat="43.27204" lon="1.76423">
        <ele>270.75</ele>
        <time>2013-05-26T09:58:55Z</time>
      </trkpt>
      <trkpt lat="43.2727" lon="1.76514">
        <ele>277.48</ele>
        <time>2013-05-26T09:59:02Z</time>
      </trkpt>
      <trkpt lat="43.27293" lon="1.76651">
        <ele>279.4</ele>
        <time>2013-05-26T09:59:09Z</time>
      </trkpt>
      <trkpt lat="43.27299" lon="1.76788">
        <ele>282.77</ele>
        <time>2013-05-26T09:59:16Z</time>
      </trkpt>
      <trkpt lat="43.27225" lon="1.76827">
        <ele>286.13</ele>
        <time>2013-05-26T09:59:22Z</time>
      </trkpt>
      <trkpt lat="43.27145" lon="1.76773">
        <ele>287.09</ele>
        <time>2013-05-26T09:59:28Z</time>
      </trkpt>
      <trkpt lat="43.27066" lon="1.7682">
        <ele>289.97</ele>
        <time>2013-05-26T09:59:35Z</time>
      </trkpt>
      <trkpt lat="43.27053" lon="1.76956">
        <ele>292.86</ele>
        <time>2013-05-26T09:59:42Z</time>
      </trkpt>
      <trkpt lat="43.27089" lon="1.77082">
        <ele>296.7</ele>
        <time>2013-05-26T09:59:49Z</time>
      </trkpt>
      <trkpt lat="43.27187" lon="1.77089">
        <ele>300.07</ele>
        <time>2013-05-26T09:59:57Z</time>
      </trkpt>
      <trkpt lat="43.27271" lon="1.77148">
        <ele>305.36</ele>
        <time>2013-05-26T10:00:04Z</time>
      </trkpt>
      <trkpt lat="43.27283" lon="1.77272">
        <ele>308.24</ele>
        <time>2013-05-26T10:00:10Z</time>
      </trkpt>
      <trkpt lat="43.27233" lon="1.7739">
        <ele>313.53</ele>
        <time>2013-05-26T10:00:16Z</time>
      </trkpt>
      <trkpt lat="43.27275" lon="1.77439">
        <ele>314.01</ele>
        <time>2013-05-26T10:00:25Z</time>
      </trkpt>
      <trkpt lat="43.27362" lon="1.77372">
        <ele>314.97</ele>
        <time>2013-05-26T10:00:32Z</time>
      </trkpt>
      <trkpt lat="43.27466" lon="1.77351">
        <ele>310.16</ele>
        <time>2013-05-26T10:00:39Z</time>
      </trkpt>
      <trkpt lat="43.27559" lon="1.77299">
        <ele>307.28</ele>
        <time>2013-05-26T10:00:45Z</time>
      </trkpt>
      <trkpt lat="43.27635" lon="1.77335">
        <ele>302.95</ele>
        <time>2013-05-26T10:00:52Z</time>
      </trkpt>
      <trkpt lat="43.27669" lon="1.77463">
        <ele>297.67</ele>
        <time>2013-05-26T10:00:58Z</time>
      </trkpt>
      <trkpt lat="43.27699" lon="1.77601">
        <ele>293.34</ele>
        <time>2013-05-26T10:01:05Z</time>
      </trkpt>
      <trkpt lat="43.27747" lon="1.77715">
        <ele>291.42</ele>
        <time>2013-05-26T10:01:11Z</time>
      </trkpt>
      <trkpt lat="43.27804" lon="1.77816">
        <ele>283.25</ele>
        <time>2013-05-26T10:01:18Z</time>
      </trkpt>
      <trkpt lat="43.27829" lon="1.77937">
        <ele>281.32</ele>
        <time>2013-05-26T10:01:25Z</time>
      </trkpt>
      <trkpt lat="43.2782" lon="1.78061">
        <ele>277</ele>
        <time>2013-05-26T10:01:31Z</time>
      </trkpt>
      <trkpt lat="43.27814" lon="1.78195">
        <ele>270.75</ele>
        <time>2013-05-26T10:01:37Z</time>
      </trkpt>
      <trkpt lat="43.27802" lon="1.78328">
        <ele>267.86</ele>
        <time>2013-05-26T10:01:42Z</time>
      </trkpt>
      <trkpt lat="43.27776" lon="1.78454">
        <ele>264.02</ele>
        <time>2013-05-26T10:01:47Z</time>
      </trkpt>
      <trkpt lat="43.27737" lon="1.78574">
        <ele>257.29</ele>
        <time>2013-05-26T10:01:52Z</time>
      </trkpt>
      <trkpt lat="43.27693" lon="1.78694">
        <ele>259.69</ele>
        <time>2013-05-26T10:01:58Z</time>
      </trkpt>
      <trkpt lat="43.27749" lon="1.78805">
        <ele>250.56</ele>
        <time>2013-05-26T10:02:05Z</time>
      </trkpt>
      <trkpt lat="43.27776" lon="1.78922">
        <ele>248.16</ele>
        <time>2013-05-26T10:02:11Z</time>
      </trkpt>
      <trkpt lat="43.27847" lon="1.78985">
        <ele>242.87</ele>
        <time>2013-05-26T10:02:19Z</time>
      </trkpt>
      <trkpt lat="43.27945" lon="1.79013">
        <ele>239.51</ele>
        <time>2013-05-26T10:02:26Z</time>
      </trkpt>
      <trkpt lat="43.27993" lon="1.79139">
        <ele>235.66</ele>
        <time>2013-05-26T10:02:32Z</time>
      </trkpt>
      <trkpt lat="43.28015" lon="1.79272">
        <ele>232.3</ele>
        <time>2013-05-26T10:02:39Z</time>
      </trkpt>
      <trkpt lat="43.27999" lon="1.79392">
        <ele>227.97</ele>
        <time>2013-05-26T10:02:48Z</time>
      </trkpt>
      <trkpt lat="43.2792" lon="1.79405">
        <ele>226.05</ele>
        <time>2013-05-26T10:03:41Z</time>
      </trkpt>
      <trkpt lat="43.27842" lon="1.7948">
        <ele>229.41</ele>
        <time>2013-05-26T10:03:50Z</time>
      </trkpt>
      <trkpt lat="43.27769" lon="1.79566">
        <ele>229.89</ele>
        <time>2013-05-26T10:03:56Z</time>
      </trkpt>
      <trkpt lat="43.27697" lon="1.79654">
        <ele>229.41</ele>
        <time>2013-05-26T10:04:01Z</time>
      </trkpt>
      <trkpt lat="43.27621" lon="1.79746">
        <ele>230.37</ele>
        <time>2013-05-26T10:04:06Z</time>
      </trkpt>
      <trkpt lat="43.27543" lon="1.79839">
        <ele>231.81</ele>
        <time>2013-05-26T10:04:11Z</time>
      </trkpt>
      <trkpt lat="43.27462" lon="1.79938">
        <ele>231.33</ele>
        <time>2013-05-26T10:04:16Z</time>
      </trkpt>
      <trkpt lat="43.2738" lon="1.80036">
        <ele>233.26</ele>
        <time>2013-05-26T10:04:21Z</time>
      </trkpt>
      <trkpt lat="43.27298" lon="1.80135">
        <ele>232.3</ele>
        <time>2013-05-26T10:04:26Z</time>
      </trkpt>
      <trkpt lat="43.27217" lon="1.80233">
        <ele>233.26</ele>
        <time>2013-05-26T10:04:31Z</time>
      </trkpt>
      <trkpt lat="43.27134" lon="1.80333">
        <ele>234.7</ele>
        <time>2013-05-26T10:04:36Z</time>
      </trkpt>
      <trkpt lat="43.27056" lon="1.80428">
        <ele>234.22</ele>
        <time>2013-05-26T10:04:41Z</time>
      </trkpt>
      <trkpt lat="43.26979" lon="1.80521">
        <ele>233.74</ele>
        <time>2013-05-26T10:04:47Z</time>
      </trkpt>
      <trkpt lat="43.26901" lon="1.80592">
        <ele>234.22</ele>
        <time>2013-05-26T10:04:53Z</time>
      </trkpt>
      <trkpt lat="43.26811" lon="1.80648">
        <ele>235.18</ele>
        <time>2013-05-26T10:04:59Z</time>
      </trkpt>
      <trkpt lat="43.26734" lon="1.80732">
        <ele>235.18</ele>
        <time>2013-05-26T10:05:05Z</time>
      </trkpt>
      <trkpt lat="43.26657" lon="1.80838">
        <ele>238.06</ele>
        <time>2013-05-26T10:05:11Z</time>
      </trkpt>
      <trkpt lat="43.26582" lon="1.80934">
        <ele>237.1</ele>
        <time>2013-05-26T10:05:16Z</time>
      </trkpt>
      <trkpt lat="43.26514" lon="1.81043">
        <ele>237.1</ele>
        <time>2013-05-26T10:05:21Z</time>
      </trkpt>
      <trkpt lat="43.26448" lon="1.81148">
        <ele>240.47</ele>
        <time>2013-05-26T10:05:26Z</time>
      </trkpt>
      <trkpt lat="43.2636" lon="1.81218">
        <ele>240.95</ele>
        <time>2013-05-26T10:05:31Z</time>
      </trkpt>
      <trkpt lat="43.26282" lon="1.81295">
        <ele>238.06</ele>
        <time>2013-05-26T10:05:36Z</time>
      </trkpt>
      <trkpt lat="43.26219" lon="1.81395">
        <ele>241.91</ele>
        <time>2013-05-26T10:05:41Z</time>
      </trkpt>
      <trkpt lat="43.26136" lon="1.81477">
        <ele>241.91</ele>
        <time>2013-05-26T10:05:46Z</time>
      </trkpt>
      <trkpt lat="43.26051" lon="1.81551">
        <ele>245.27</ele>
        <time>2013-05-26T10:05:51Z</time>
      </trkpt>
      <trkpt lat="43.25986" lon="1.81656">
        <ele>244.31</ele>
        <time>2013-05-26T10:05:56Z</time>
      </trkpt>
      <trkpt lat="43.25916" lon="1.8176">
        <ele>246.23</ele>
        <time>2013-05-26T10:06:01Z</time>
      </trkpt>
      <trkpt lat="43.25837" lon="1.81854">
        <ele>245.27</ele>
        <time>2013-05-26T10:06:06Z</time>
      </trkpt>
      <trkpt lat="43.25787" lon="1.81981">
        <ele>246.72</ele>
        <time>2013-05-26T10:06:11Z</time>
      </trkpt>
      <trkpt lat="43.25744" lon="1.82114">
        <ele>247.68</ele>
        <time>2013-05-26T10:06:16Z</time>
      </trkpt>
      <trkpt lat="43.25688" lon="1.82235">
        <ele>249.12</ele>
        <time>2013-05-26T10:06:21Z</time>
      </trkpt>
      <trkpt lat="43.2563" lon="1.82331">
        <ele>249.12</ele>
        <time>2013-05-26T10:06:26Z</time>
      </trkpt>
      <trkpt lat="43.25547" lon="1.82316">
        <ele>252</ele>
        <time>2013-05-26T10:06:32Z</time>
      </trkpt>
      <trkpt lat="43.25471" lon="1.82249">
        <ele>251.04</ele>
        <time>2013-05-26T10:06:37Z</time>
      </trkpt>
      <trkpt lat="43.25385" lon="1.82196">
        <ele>252.96</ele>
        <time>2013-05-26T10:06:42Z</time>
      </trkpt>
      <trkpt lat="43.25296" lon="1.82155">
        <ele>252.96</ele>
        <time>2013-05-26T10:06:47Z</time>
      </trkpt>
      <trkpt lat="43.25208" lon="1.82165">
        <ele>256.33</ele>
        <time>2013-05-26T10:06:53Z</time>
      </trkpt>
      <trkpt lat="43.25137" lon="1.82221">
        <ele>254.89</ele>
        <time>2013-05-26T10:06:59Z</time>
      </trkpt>
      <trkpt lat="43.25036" lon="1.82177">
        <ele>253.93</ele>
        <time>2013-05-26T10:07:05Z</time>
      </trkpt>
      <trkpt lat="43.2495" lon="1.8213">
        <ele>256.33</ele>
        <time>2013-05-26T10:07:11Z</time>
      </trkpt>
      <trkpt lat="43.2485" lon="1.82115">
        <ele>257.29</ele>
        <time>2013-05-26T10:07:19Z</time>
      </trkpt>
      <trkpt lat="43.24754" lon="1.82143">
        <ele>257.29</ele>
        <time>2013-05-26T10:07:26Z</time>
      </trkpt>
      <trkpt lat="43.24658" lon="1.82194">
        <ele>258.73</ele>
        <time>2013-05-26T10:07:34Z</time>
      </trkpt>
      <trkpt lat="43.24586" lon="1.82272">
        <ele>257.77</ele>
        <time>2013-05-26T10:07:40Z</time>
      </trkpt>
      <trkpt lat="43.24514" lon="1.8235">
        <ele>261.14</ele>
        <time>2013-05-26T10:07:45Z</time>
      </trkpt>
      <trkpt lat="43.2444" lon="1.82423">
        <ele>261.62</ele>
        <time>2013-05-26T10:07:50Z</time>
      </trkpt>
      <trkpt lat="43.24381" lon="1.8253">
        <ele>263.54</ele>
        <time>2013-05-26T10:07:55Z</time>
      </trkpt>
      <trkpt lat="43.24322" lon="1.82635">
        <ele>269.31</ele>
        <time>2013-05-26T10:08:01Z</time>
      </trkpt>
      <trkpt lat="43.24242" lon="1.82589">
        <ele>276.04</ele>
        <time>2013-05-26T10:08:09Z</time>
      </trkpt>
      <trkpt lat="43.24151" lon="1.826">
        <ele>278.92</ele>
        <time>2013-05-26T10:08:17Z</time>
      </trkpt>
      <trkpt lat="43.2407" lon="1.82603">
        <ele>282.77</ele>
        <time>2013-05-26T10:08:26Z</time>
      </trkpt>
      <trkpt lat="43.23988" lon="1.82543">
        <ele>286.13</ele>
        <time>2013-05-26T10:08:35Z</time>
      </trkpt>
      <trkpt lat="43.23904" lon="1.82609">
        <ele>289.97</ele>
        <time>2013-05-26T10:08:43Z</time>
      </trkpt>
      <trkpt lat="43.23875" lon="1.82735">
        <ele>291.9</ele>
        <time>2013-05-26T10:08:50Z</time>
      </trkpt>
      <trkpt lat="43.23816" lon="1.82854">
        <ele>292.38</ele>
        <time>2013-05-26T10:08:57Z</time>
      </trkpt>
      <trkpt lat="43.23766" lon="1.8298">
        <ele>294.78</ele>
        <time>2013-05-26T10:09:03Z</time>
      </trkpt>
      <trkpt lat="43.23721" lon="1.8311">
        <ele>298.15</ele>
        <time>2013-05-26T10:09:09Z</time>
      </trkpt>
      <trkpt lat="43.23641" lon="1.83178">
        <ele>303.43</ele>
        <time>2013-05-26T10:09:15Z</time>
      </trkpt>
      <trkpt lat="43.23582" lon="1.83275">
        <ele>303.91</ele>
        <time>2013-05-26T10:09:21Z</time>
      </trkpt>
      <trkpt lat="43.23507" lon="1.83355">
        <ele>305.36</ele>
        <time>2013-05-26T10:09:28Z</time>
      </trkpt>
      <trkpt lat="43.23418" lon="1.83405">
        <ele>309.2</ele>
        <time>2013-05-26T10:09:36Z</time>
      </trkpt>
      <trkpt lat="43.23352" lon="1.83498">
        <ele>311.12</ele>
        <time>2013-05-26T10:09:44Z</time>
      </trkpt>
      <trkpt lat="43.23289" lon="1.83593">
        <ele>312.09</ele>
        <time>2013-05-26T10:09:52Z</time>
      </trkpt>
      <trkpt lat="43.23228" lon="1.83699">
        <ele>314.01</ele>
        <time>2013-05-26T10:09:59Z</time>
      </trkpt>
      <trkpt lat="43.23183" lon="1.83811">
        <ele>318.81</ele>
        <time>2013-05-26T10:10:06Z</time>
      </trkpt>
      <trkpt lat="43.23157" lon="1.83943">
        <ele>321.22</ele>
        <time>2013-05-26T10:10:13Z</time>
      </trkpt>
      <trkpt lat="43.23075" lon="1.84003">
        <ele>322.66</ele>
        <time>2013-05-26T10:10:21Z</time>
      </trkpt>
      <trkpt lat="43.23047" lon="1.83885">
        <ele>325.54</ele>
        <time>2013-05-26T10:10:29Z</time>
      </trkpt>
      <trkpt lat="43.22965" lon="1.8387">
        <ele>327.95</ele>
        <time>2013-05-26T10:10:37Z</time>
      </trkpt>
      <trkpt lat="43.22883" lon="1.83941">
        <ele>324.1</ele>
        <time>2013-05-26T10:10:44Z</time>
      </trkpt>
      <trkpt lat="43.22806" lon="1.84012">
        <ele>321.22</ele>
        <time>2013-05-26T10:10:50Z</time>
      </trkpt>
      <trkpt lat="43.22714" lon="1.84018">
        <ele>319.78</ele>
        <time>2013-05-26T10:10:57Z</time>
      </trkpt>
      <trkpt lat="43.22618" lon="1.84001">
        <ele>313.53</ele>
        <time>2013-05-26T10:11:04Z</time>
      </trkpt>
      <trkpt lat="43.2253" lon="1.8395">
        <ele>312.57</ele>
        <time>2013-05-26T10:11:11Z</time>
      </trkpt>
      <trkpt lat="43.22441" lon="1.83959">
        <ele>309.68</ele>
        <time>2013-05-26T10:11:18Z</time>
      </trkpt>
      <trkpt lat="43.22355" lon="1.84037">
        <ele>305.84</ele>
        <time>2013-05-26T10:11:25Z</time>
      </trkpt>
      <trkpt lat="43.22277" lon="1.84111">
        <ele>304.39</ele>
        <time>2013-05-26T10:11:31Z</time>
      </trkpt>
      <trkpt lat="43.22188" lon="1.84189">
        <ele>301.51</ele>
        <time>2013-05-26T10:11:37Z</time>
      </trkpt>
      <trkpt lat="43.221" lon="1.84243">
        <ele>299.59</ele>
        <time>2013-05-26T10:11:43Z</time>
      </trkpt>
      <trkpt lat="43.22019" lon="1.84216">
        <ele>300.07</ele>
        <time>2013-05-26T10:11:50Z</time>
      </trkpt>
      <trkpt lat="43.21967" lon="1.84109">
        <ele>297.67</ele>
        <time>2013-05-26T10:11:56Z</time>
      </trkpt>
      <trkpt lat="43.21901" lon="1.84005">
        <ele>297.18</ele>
        <time>2013-05-26T10:12:03Z</time>
      </trkpt>
      <trkpt lat="43.21807" lon="1.84004">
        <ele>297.18</ele>
        <time>2013-05-26T10:12:10Z</time>
      </trkpt>
      <trkpt lat="43.2171" lon="1.8397">
        <ele>297.67</ele>
        <time>2013-05-26T10:12:17Z</time>
      </trkpt>
      <trkpt lat="43.21659" lon="1.83858">
        <ele>295.74</ele>
        <time>2013-05-26T10:12:23Z</time>
      </trkpt>
      <trkpt lat="43.21604" lon="1.83763">
        <ele>295.26</ele>
        <time>2013-05-26T10:12:29Z</time>
      </trkpt>
      <trkpt lat="43.21525" lon="1.83705">
        <ele>297.67</ele>
        <time>2013-05-26T10:12:35Z</time>
      </trkpt>
      <trkpt lat="43.21421" lon="1.83693">
        <ele>295.26</ele>
        <time>2013-05-26T10:12:42Z</time>
      </trkpt>
      <trkpt lat="43.21315" lon="1.83667">
        <ele>292.38</ele>
        <time>2013-05-26T10:12:48Z</time>
      </trkpt>
      <trkpt lat="43.21224" lon="1.83648">
        <ele>295.26</ele>
        <time>2013-05-26T10:12:53Z</time>
      </trkpt>
      <trkpt lat="43.21137" lon="1.83613">
        <ele>291.9</ele>
        <time>2013-05-26T10:12:58Z</time>
      </trkpt>
      <trkpt lat="43.21069" lon="1.83522">
        <ele>291.42</ele>
        <time>2013-05-26T10:13:03Z</time>
      </trkpt>
      <trkpt lat="43.20997" lon="1.83441">
        <ele>287.57</ele>
        <time>2013-05-26T10:13:09Z</time>
      </trkpt>
      <trkpt lat="43.20907" lon="1.83419">
        <ele>286.13</ele>
        <time>2013-05-26T10:13:14Z</time>
      </trkpt>
      <trkpt lat="43.20807" lon="1.83385">
        <ele>287.09</ele>
        <time>2013-05-26T10:13:20Z</time>
      </trkpt>
      <trkpt lat="43.20702" lon="1.83384">
        <ele>287.09</ele>
        <time>2013-05-26T10:13:26Z</time>
      </trkpt>
      <trkpt lat="43.20607" lon="1.83397">
        <ele>286.13</ele>
        <time>2013-05-26T10:13:31Z</time>
      </trkpt>
      <trkpt lat="43.20513" lon="1.83409">
        <ele>285.65</ele>
        <time>2013-05-26T10:13:36Z</time>
      </trkpt>
      <trkpt lat="43.20414" lon="1.8341">
        <ele>284.69</ele>
        <time>2013-05-26T10:13:41Z</time>
      </trkpt>
      <trkpt lat="43.2031" lon="1.83406">
        <ele>286.13</ele>
        <time>2013-05-26T10:13:46Z</time>
      </trkpt>
      <trkpt lat="43.20205" lon="1.83403">
        <ele>281.8</ele>
        <time>2013-05-26T10:13:51Z</time>
      </trkpt>
      <trkpt lat="43.20102" lon="1.834">
        <ele>282.28</ele>
        <time>2013-05-26T10:13:56Z</time>
      </trkpt>
      <trkpt lat="43.19995" lon="1.83397">
        <ele>281.8</ele>
        <time>2013-05-26T10:14:01Z</time>
      </trkpt>
      <trkpt lat="43.19888" lon="1.83393">
        <ele>279.4</ele>
        <time>2013-05-26T10:14:06Z</time>
      </trkpt>
      <trkpt lat="43.19796" lon="1.83388">
        <ele>278.92</ele>
        <time>2013-05-26T10:14:11Z</time>
      </trkpt>
      <trkpt lat="43.19709" lon="1.83309">
        <ele>279.4</ele>
        <time>2013-05-26T10:14:17Z</time>
      </trkpt>
      <trkpt lat="43.19635" lon="1.83238">
        <ele>277.48</ele>
        <time>2013-05-26T10:14:22Z</time>
      </trkpt>
      <trkpt lat="43.19563" lon="1.83145">
        <ele>278.92</ele>
        <time>2013-05-26T10:14:28Z</time>
      </trkpt>
      <trkpt lat="43.19468" lon="1.83148">
        <ele>277.48</ele>
        <time>2013-05-26T10:14:33Z</time>
      </trkpt>
      <trkpt lat="43.19375" lon="1.83157">
        <ele>276.52</ele>
        <time>2013-05-26T10:14:38Z</time>
      </trkpt>
      <trkpt lat="43.19282" lon="1.83192">
        <ele>274.59</ele>
        <time>2013-05-26T10:14:43Z</time>
      </trkpt>
      <trkpt lat="43.19186" lon="1.83193">
        <ele>275.07</ele>
        <time>2013-05-26T10:14:48Z</time>
      </trkpt>
      <trkpt lat="43.19095" lon="1.83185">
        <ele>277.48</ele>
        <time>2013-05-26T10:14:53Z</time>
      </trkpt>
      <trkpt lat="43.19" lon="1.83176">
        <ele>275.07</ele>
        <time>2013-05-26T10:14:58Z</time>
      </trkpt>
      <trkpt lat="43.18901" lon="1.83167">
        <ele>276.04</ele>
        <time>2013-05-26T10:15:03Z</time>
      </trkpt>
      <trkpt lat="43.1881" lon="1.83143">
        <ele>274.11</ele>
        <time>2013-05-26T10:15:08Z</time>
      </trkpt>
      <trkpt lat="43.18727" lon="1.83067">
        <ele>273.63</ele>
        <time>2013-05-26T10:15:13Z</time>
      </trkpt>
      <trkpt lat="43.18638" lon="1.83018">
        <ele>274.11</ele>
        <time>2013-05-26T10:15:18Z</time>
      </trkpt>
      <trkpt lat="43.18539" lon="1.82961">
        <ele>269.79</ele>
        <time>2013-05-26T10:15:24Z</time>
      </trkpt>
      <trkpt lat="43.18455" lon="1.82914">
        <ele>268.35</ele>
        <time>2013-05-26T10:15:29Z</time>
      </trkpt>
      <trkpt lat="43.18359" lon="1.82859">
        <ele>271.23</ele>
        <time>2013-05-26T10:15:35Z</time>
      </trkpt>
      <trkpt lat="43.18274" lon="1.8281">
        <ele>268.83</ele>
        <time>2013-05-26T10:15:42Z</time>
      </trkpt>
      <trkpt lat="43.18229" lon="1.82692">
        <ele>268.83</ele>
        <time>2013-05-26T10:15:49Z</time>
      </trkpt>
      <trkpt lat="43.18202" lon="1.8256">
        <ele>266.42</ele>
        <time>2013-05-26T10:15:55Z</time>
      </trkpt>
      <trkpt lat="43.18173" lon="1.82426">
        <ele>263.54</ele>
        <time>2013-05-26T10:16:01Z</time>
      </trkpt>
      <trkpt lat="43.18145" lon="1.82295">
        <ele>259.69</ele>
        <time>2013-05-26T10:16:07Z</time>
      </trkpt>
      <trkpt lat="43.18103" lon="1.82171">
        <ele>261.14</ele>
        <time>2013-05-26T10:16:14Z</time>
      </trkpt>
      <trkpt lat="43.18008" lon="1.82134">
        <ele>262.1</ele>
        <time>2013-05-26T10:16:20Z</time>
      </trkpt>
      <trkpt lat="43.17918" lon="1.82105">
        <ele>262.58</ele>
        <time>2013-05-26T10:16:25Z</time>
      </trkpt>
      <trkpt lat="43.17827" lon="1.82073">
        <ele>264.02</ele>
        <time>2013-05-26T10:16:30Z</time>
      </trkpt>
      <trkpt lat="43.17727" lon="1.82039">
        <ele>264.5</ele>
        <time>2013-05-26T10:16:36Z</time>
      </trkpt>
      <trkpt lat="43.17654" lon="1.82037">
        <ele>265.94</ele>
        <time>2013-05-26T10:16:53Z</time>
      </trkpt>
      <trkpt lat="43.17649" lon="1.82172">
        <ele>266.42</ele>
        <time>2013-05-26T10:17:04Z</time>
      </trkpt>
      <trkpt lat="43.17645" lon="1.823">
        <ele>265.94</ele>
        <time>2013-05-26T10:17:13Z</time>
      </trkpt>
      <trkpt lat="43.17641" lon="1.82423">
        <ele>266.42</ele>
        <time>2013-05-26T10:17:21Z</time>
      </trkpt>
      <trkpt lat="43.17636" lon="1.82555">
        <ele>268.35</ele>
        <time>2013-05-26T10:17:31Z</time>
      </trkpt>
      <trkpt lat="43.17632" lon="1.82688">
        <ele>268.83</ele>
        <time>2013-05-26T10:17:41Z</time>
      </trkpt>
      <trkpt lat="43.17627" lon="1.82823">
        <ele>269.31</ele>
        <time>2013-05-26T10:17:51Z</time>
      </trkpt>
      <trkpt lat="43.17622" lon="1.82955">
        <ele>268.35</ele>
        <time>2013-05-26T10:18:01Z</time>
      </trkpt>
      <trkpt lat="43.17619" lon="1.83083">
        <ele>269.31</ele>
        <time>2013-05-26T10:18:13Z</time>
      </trkpt>
      <trkpt lat="43.17641" lon="1.83218">
        <ele>269.79</ele>
        <time>2013-05-26T10:18:23Z</time>
      </trkpt>
      <trkpt lat="43.17671" lon="1.83336">
        <ele>270.75</ele>
        <time>2013-05-26T10:18:30Z</time>
      </trkpt>
      <trkpt lat="43.17702" lon="1.83457">
        <ele>270.75</ele>
        <time>2013-05-26T10:18:37Z</time>
      </trkpt>
      <trkpt lat="43.17726" lon="1.83592">
        <ele>270.27</ele>
        <time>2013-05-26T10:18:45Z</time>
      </trkpt>
      <trkpt lat="43.1775" lon="1.83732">
        <ele>271.71</ele>
        <time>2013-05-26T10:18:52Z</time>
      </trkpt>
      <trkpt lat="43.17772" lon="1.83861">
        <ele>270.27</ele>
        <time>2013-05-26T10:18:58Z</time>
      </trkpt>
      <trkpt lat="43.17792" lon="1.83993">
        <ele>273.63</ele>
        <time>2013-05-26T10:19:04Z</time>
      </trkpt>
      <trkpt lat="43.17811" lon="1.84121">
        <ele>276.04</ele>
        <time>2013-05-26T10:19:10Z</time>
      </trkpt>
      <trkpt lat="43.17831" lon="1.8425">
        <ele>276.52</ele>
        <time>2013-05-26T10:19:16Z</time>
      </trkpt>
      <trkpt lat="43.17853" lon="1.84383">
        <ele>276.04</ele>
        <time>2013-05-26T10:19:23Z</time>
      </trkpt>
      <trkpt lat="43.17835" lon="1.84516">
        <ele>274.59</ele>
        <time>2013-05-26T10:19:31Z</time>
      </trkpt>
      <trkpt lat="43.17828" lon="1.8464">
        <ele>276.04</ele>
        <time>2013-05-26T10:19:38Z</time>
      </trkpt>
      <trkpt lat="43.17819" lon="1.84769">
        <ele>275.56</ele>
        <time>2013-05-26T10:19:45Z</time>
      </trkpt>
      <trkpt lat="43.17811" lon="1.84903">
        <ele>276.04</ele>
        <time>2013-05-26T10:19:52Z</time>
      </trkpt>
      <trkpt lat="43.17812" lon="1.85029">
        <ele>278.92</ele>
        <time>2013-05-26T10:19:59Z</time>
      </trkpt>
      <trkpt lat="43.17828" lon="1.85159">
        <ele>277.96</ele>
        <time>2013-05-26T10:20:06Z</time>
      </trkpt>
      <trkpt lat="43.17839" lon="1.85286">
        <ele>279.88</ele>
        <time>2013-05-26T10:20:13Z</time>
      </trkpt>
      <trkpt lat="43.17849" lon="1.85419">
        <ele>279.4</ele>
        <time>2013-05-26T10:20:21Z</time>
      </trkpt>
      <trkpt lat="43.17851" lon="1.8555">
        <ele>277.96</ele>
        <time>2013-05-26T10:20:28Z</time>
      </trkpt>
      <trkpt lat="43.17849" lon="1.85687">
        <ele>277</ele>
        <time>2013-05-26T10:20:35Z</time>
      </trkpt>
      <trkpt lat="43.17843" lon="1.85825">
        <ele>277.96</ele>
        <time>2013-05-26T10:20:42Z</time>
      </trkpt>
      <trkpt lat="43.17811" lon="1.85953">
        <ele>282.77</ele>
        <time>2013-05-26T10:20:50Z</time>
      </trkpt>
      <trkpt lat="43.17824" lon="1.86075">
        <ele>285.17</ele>
        <time>2013-05-26T10:20:57Z</time>
      </trkpt>
      <trkpt lat="43.17824" lon="1.86203">
        <ele>292.38</ele>
        <time>2013-05-26T10:21:04Z</time>
      </trkpt>
      <trkpt lat="43.17784" lon="1.86328">
        <ele>297.67</ele>
        <time>2013-05-26T10:21:11Z</time>
      </trkpt>
      <trkpt lat="43.17723" lon="1.86431">
        <ele>300.55</ele>
        <time>2013-05-26T10:21:18Z</time>
      </trkpt>
      <trkpt lat="43.17691" lon="1.86428">
        <ele>304.39</ele>
        <time>2013-05-26T10:21:33Z</time>
      </trkpt>
      <trkpt lat="43.17613" lon="1.86388">
        <ele>309.68</ele>
        <time>2013-05-26T10:21:45Z</time>
      </trkpt>
      <trkpt lat="43.1752" lon="1.86382">
        <ele>318.33</ele>
        <time>2013-05-26T10:21:54Z</time>
      </trkpt>
      <trkpt lat="43.17429" lon="1.8637">
        <ele>318.81</ele>
        <time>2013-05-26T10:22:06Z</time>
      </trkpt>
      <trkpt lat="43.17369" lon="1.86458">
        <ele>314.97</ele>
        <time>2013-05-26T10:22:22Z</time>
      </trkpt>
      <trkpt lat="43.17288" lon="1.86535">
        <ele>309.68</ele>
        <time>2013-05-26T10:22:32Z</time>
      </trkpt>
      <trkpt lat="43.17198" lon="1.86584">
        <ele>305.84</ele>
        <time>2013-05-26T10:22:42Z</time>
      </trkpt>
      <trkpt lat="43.17107" lon="1.86537">
        <ele>308.72</ele>
        <time>2013-05-26T10:22:52Z</time>
      </trkpt>
      <trkpt lat="43.17022" lon="1.86477">
        <ele>310.64</ele>
        <time>2013-05-26T10:23:01Z</time>
      </trkpt>
      <trkpt lat="43.16929" lon="1.86443">
        <ele>311.12</ele>
        <time>2013-05-26T10:23:09Z</time>
      </trkpt>
      <trkpt lat="43.16836" lon="1.86452">
        <ele>310.16</ele>
        <time>2013-05-26T10:23:17Z</time>
      </trkpt>
      <trkpt lat="43.16748" lon="1.86476">
        <ele>312.09</ele>
        <time>2013-05-26T10:23:25Z</time>
      </trkpt>
      <trkpt lat="43.16656" lon="1.865">
        <ele>311.12</ele>
        <time>2013-05-26T10:23:33Z</time>
      </trkpt>
      <trkpt lat="43.16564" lon="1.8655">
        <ele>309.68</ele>
        <time>2013-05-26T10:23:42Z</time>
      </trkpt>
      <trkpt lat="43.16476" lon="1.86598">
        <ele>308.72</ele>
        <time>2013-05-26T10:23:50Z</time>
      </trkpt>
      <trkpt lat="43.16386" lon="1.86649">
        <ele>313.05</ele>
        <time>2013-05-26T10:23:58Z</time>
      </trkpt>
      <trkpt lat="43.16301" lon="1.86698">
        <ele>318.33</ele>
        <time>2013-05-26T10:24:05Z</time>
      </trkpt>
      <trkpt lat="43.16222" lon="1.86758">
        <ele>320.26</ele>
        <time>2013-05-26T10:24:12Z</time>
      </trkpt>
      <trkpt lat="43.16149" lon="1.86835">
        <ele>320.74</ele>
        <time>2013-05-26T10:24:19Z</time>
      </trkpt>
      <trkpt lat="43.16066" lon="1.8689">
        <ele>324.1</ele>
        <time>2013-05-26T10:24:26Z</time>
      </trkpt>
      <trkpt lat="43.1597" lon="1.86932">
        <ele>323.62</ele>
        <time>2013-05-26T10:24:34Z</time>
      </trkpt>
      <trkpt lat="43.15878" lon="1.86995">
        <ele>323.62</ele>
        <time>2013-05-26T10:24:42Z</time>
      </trkpt>
      <trkpt lat="43.15802" lon="1.87084">
        <ele>326.02</ele>
        <time>2013-05-26T10:24:50Z</time>
      </trkpt>
      <trkpt lat="43.15747" lon="1.87194">
        <ele>331.31</ele>
        <time>2013-05-26T10:24:58Z</time>
      </trkpt>
      <trkpt lat="43.1569" lon="1.87303">
        <ele>336.6</ele>
        <time>2013-05-26T10:25:06Z</time>
      </trkpt>
      <trkpt lat="43.15608" lon="1.87353">
        <ele>339</ele>
        <time>2013-05-26T10:25:15Z</time>
      </trkpt>
      <trkpt lat="43.15523" lon="1.87417">
        <ele>343.33</ele>
        <time>2013-05-26T10:25:24Z</time>
      </trkpt>
      <trkpt lat="43.15457" lon="1.87502">
        <ele>349.1</ele>
        <time>2013-05-26T10:25:31Z</time>
      </trkpt>
      <trkpt lat="43.1544" lon="1.8762">
        <ele>355.34</ele>
        <time>2013-05-26T10:25:40Z</time>
      </trkpt>
      <trkpt lat="43.15393" lon="1.87634">
        <ele>361.59</ele>
        <time>2013-05-26T10:25:53Z</time>
      </trkpt>
      <trkpt lat="43.15311" lon="1.87668">
        <ele>365.92</ele>
        <time>2013-05-26T10:26:05Z</time>
      </trkpt>
      <trkpt lat="43.15265" lon="1.87777">
        <ele>371.69</ele>
        <time>2013-05-26T10:26:13Z</time>
      </trkpt>
      <trkpt lat="43.15224" lon="1.879">
        <ele>379.38</ele>
        <time>2013-05-26T10:26:21Z</time>
      </trkpt>
      <trkpt lat="43.15145" lon="1.87977">
        <ele>386.11</ele>
        <time>2013-05-26T10:26:29Z</time>
      </trkpt>
      <trkpt lat="43.15079" lon="1.88059">
        <ele>392.84</ele>
        <time>2013-05-26T10:26:37Z</time>
      </trkpt>
      <trkpt lat="43.15006" lon="1.88125">
        <ele>400.05</ele>
        <time>2013-05-26T10:26:47Z</time>
      </trkpt>
      <trkpt lat="43.14929" lon="1.88084">
        <ele>408.22</ele>
        <time>2013-05-26T10:26:58Z</time>
      </trkpt>
      <trkpt lat="43.14844" lon="1.88104">
        <ele>413.02</ele>
        <time>2013-05-26T10:27:08Z</time>
      </trkpt>
      <trkpt lat="43.14766" lon="1.88081">
        <ele>413.98</ele>
        <time>2013-05-26T10:27:18Z</time>
      </trkpt>
      <trkpt lat="43.14682" lon="1.88015">
        <ele>412.06</ele>
        <time>2013-05-26T10:27:27Z</time>
      </trkpt>
      <trkpt lat="43.14588" lon="1.87988">
        <ele>407.26</ele>
        <time>2013-05-26T10:27:36Z</time>
      </trkpt>
      <trkpt lat="43.1449" lon="1.87984">
        <ele>400.53</ele>
        <time>2013-05-26T10:27:45Z</time>
      </trkpt>
      <trkpt lat="43.14399" lon="1.87972">
        <ele>399.08</ele>
        <time>2013-05-26T10:27:53Z</time>
      </trkpt>
      <trkpt lat="43.14311" lon="1.87997">
        <ele>394.76</ele>
        <time>2013-05-26T10:28:02Z</time>
      </trkpt>
      <trkpt lat="43.14225" lon="1.88044">
        <ele>389.95</ele>
        <time>2013-05-26T10:28:10Z</time>
      </trkpt>
      <trkpt lat="43.14136" lon="1.88013">
        <ele>388.51</ele>
        <time>2013-05-26T10:28:18Z</time>
      </trkpt>
      <trkpt lat="43.14047" lon="1.8803">
        <ele>383.7</ele>
        <time>2013-05-26T10:28:25Z</time>
      </trkpt>
      <trkpt lat="43.13954" lon="1.88067">
        <ele>378.9</ele>
        <time>2013-05-26T10:28:32Z</time>
      </trkpt>
      <trkpt lat="43.13855" lon="1.88095">
        <ele>378.42</ele>
        <time>2013-05-26T10:28:39Z</time>
      </trkpt>
      <trkpt lat="43.13754" lon="1.88113">
        <ele>376.97</ele>
        <time>2013-05-26T10:28:46Z</time>
      </trkpt>
      <trkpt lat="43.13657" lon="1.88118">
        <ele>374.57</ele>
        <time>2013-05-26T10:28:53Z</time>
      </trkpt>
      <trkpt lat="43.13558" lon="1.8809">
        <ele>371.21</ele>
        <time>2013-05-26T10:29:00Z</time>
      </trkpt>
      <trkpt lat="43.13463" lon="1.8806">
        <ele>367.84</ele>
        <time>2013-05-26T10:29:07Z</time>
      </trkpt>
      <trkpt lat="43.13376" lon="1.88009">
        <ele>366.4</ele>
        <time>2013-05-26T10:29:14Z</time>
      </trkpt>
      <trkpt lat="43.13277" lon="1.87987">
        <ele>364.48</ele>
        <time>2013-05-26T10:29:22Z</time>
      </trkpt>
      <trkpt lat="43.13174" lon="1.8799">
        <ele>363.52</ele>
        <time>2013-05-26T10:29:29Z</time>
      </trkpt>
      <trkpt lat="43.13084" lon="1.87991">
        <ele>360.63</ele>
        <time>2013-05-26T10:29:35Z</time>
      </trkpt>
      <trkpt lat="43.12991" lon="1.87994">
        <ele>359.19</ele>
        <time>2013-05-26T10:29:41Z</time>
      </trkpt>
      <trkpt lat="43.129" lon="1.87991">
        <ele>357.27</ele>
        <time>2013-05-26T10:29:47Z</time>
      </trkpt>
      <trkpt lat="43.128" lon="1.87982">
        <ele>355.83</ele>
        <time>2013-05-26T10:29:54Z</time>
      </trkpt>
      <trkpt lat="43.1271" lon="1.87959">
        <ele>356.79</ele>
        <time>2013-05-26T10:30:01Z</time>
      </trkpt>
      <trkpt lat="43.12621" lon="1.87927">
        <ele>355.83</ele>
        <time>2013-05-26T10:30:08Z</time>
      </trkpt>
      <trkpt lat="43.12523" lon="1.87936">
        <ele>355.83</ele>
        <time>2013-05-26T10:30:15Z</time>
      </trkpt>
      <trkpt lat="43.12422" lon="1.87936">
        <ele>354.86</ele>
        <time>2013-05-26T10:30:23Z</time>
      </trkpt>
      <trkpt lat="43.12326" lon="1.87906">
        <ele>356.31</ele>
        <time>2013-05-26T10:30:31Z</time>
      </trkpt>
      <trkpt lat="43.12237" lon="1.87842">
        <ele>350.06</ele>
        <time>2013-05-26T10:30:39Z</time>
      </trkpt>
      <trkpt lat="43.12171" lon="1.87748">
        <ele>347.65</ele>
        <time>2013-05-26T10:30:47Z</time>
      </trkpt>
      <trkpt lat="43.12144" lon="1.87617">
        <ele>344.77</ele>
        <time>2013-05-26T10:30:54Z</time>
      </trkpt>
      <trkpt lat="43.12125" lon="1.87493">
        <ele>343.33</ele>
        <time>2013-05-26T10:31:00Z</time>
      </trkpt>
      <trkpt lat="43.12104" lon="1.87373">
        <ele>343.33</ele>
        <time>2013-05-26T10:31:06Z</time>
      </trkpt>
      <trkpt lat="43.12061" lon="1.87258">
        <ele>342.85</ele>
        <time>2013-05-26T10:31:12Z</time>
      </trkpt>
      <trkpt lat="43.12012" lon="1.87141">
        <ele>339.96</ele>
        <time>2013-05-26T10:31:19Z</time>
      </trkpt>
      <trkpt lat="43.11959" lon="1.87036">
        <ele>337.56</ele>
        <time>2013-05-26T10:31:27Z</time>
      </trkpt>
      <trkpt lat="43.11917" lon="1.86922">
        <ele>335.16</ele>
        <time>2013-05-26T10:31:35Z</time>
      </trkpt>
      <trkpt lat="43.11851" lon="1.86816">
        <ele>333.71</ele>
        <time>2013-05-26T10:31:43Z</time>
      </trkpt>
      <trkpt lat="43.11791" lon="1.86715">
        <ele>329.87</ele>
        <time>2013-05-26T10:31:50Z</time>
      </trkpt>
      <trkpt lat="43.11728" lon="1.86612">
        <ele>329.87</ele>
        <time>2013-05-26T10:31:57Z</time>
      </trkpt>
      <trkpt lat="43.1165" lon="1.86526">
        <ele>334.68</ele>
        <time>2013-05-26T10:32:04Z</time>
      </trkpt>
      <trkpt lat="43.11574" lon="1.86452">
        <ele>330.35</ele>
        <time>2013-05-26T10:32:10Z</time>
      </trkpt>
      <trkpt lat="43.11495" lon="1.86383">
        <ele>331.31</ele>
        <time>2013-05-26T10:32:16Z</time>
      </trkpt>
      <trkpt lat="43.11419" lon="1.86313">
        <ele>325.54</ele>
        <time>2013-05-26T10:32:24Z</time>
      </trkpt>
      <trkpt lat="43.11328" lon="1.86335">
        <ele>318.33</ele>
        <time>2013-05-26T10:32:32Z</time>
      </trkpt>
      <trkpt lat="43.11235" lon="1.86373">
        <ele>318.33</ele>
        <time>2013-05-26T10:32:41Z</time>
      </trkpt>
      <trkpt lat="43.11142" lon="1.86361">
        <ele>319.3</ele>
        <time>2013-05-26T10:32:49Z</time>
      </trkpt>
      <trkpt lat="43.1104" lon="1.86353">
        <ele>324.1</ele>
        <time>2013-05-26T10:32:57Z</time>
      </trkpt>
      <trkpt lat="43.1095" lon="1.86365">
        <ele>326.99</ele>
        <time>2013-05-26T10:33:04Z</time>
      </trkpt>
      <trkpt lat="43.10855" lon="1.86356">
        <ele>331.31</ele>
        <time>2013-05-26T10:33:12Z</time>
      </trkpt>
      <trkpt lat="43.10821" lon="1.86479">
        <ele>335.64</ele>
        <time>2013-05-26T10:33:20Z</time>
      </trkpt>
      <trkpt lat="43.10798" lon="1.86605">
        <ele>338.04</ele>
        <time>2013-05-26T10:33:28Z</time>
      </trkpt>
      <trkpt lat="43.10709" lon="1.86661">
        <ele>341.89</ele>
        <time>2013-05-26T10:33:36Z</time>
      </trkpt>
      <trkpt lat="43.10632" lon="1.86723">
        <ele>342.85</ele>
        <time>2013-05-26T10:33:43Z</time>
      </trkpt>
      <trkpt lat="43.10533" lon="1.86751">
        <ele>333.71</ele>
        <time>2013-05-26T10:33:50Z</time>
      </trkpt>
      <trkpt lat="43.10432" lon="1.86738">
        <ele>335.16</ele>
        <time>2013-05-26T10:33:58Z</time>
      </trkpt>
      <trkpt lat="43.10349" lon="1.86815">
        <ele>340.92</ele>
        <time>2013-05-26T10:34:05Z</time>
      </trkpt>
      <trkpt lat="43.10268" lon="1.86884">
        <ele>342.37</ele>
        <time>2013-05-26T10:34:13Z</time>
      </trkpt>
      <trkpt lat="43.1018" lon="1.86933">
        <ele>329.87</ele>
        <time>2013-05-26T10:34:21Z</time>
      </trkpt>
      <trkpt lat="43.10095" lon="1.86959">
        <ele>322.18</ele>
        <time>2013-05-26T10:34:30Z</time>
      </trkpt>
      <trkpt lat="43.10048" lon="1.87028">
        <ele>309.68</ele>
        <time>2013-05-26T10:34:42Z</time>
      </trkpt>
      <trkpt lat="43.10033" lon="1.87156">
        <ele>306.32</ele>
        <time>2013-05-26T10:34:52Z</time>
      </trkpt>
      <trkpt lat="43.09957" lon="1.87229">
        <ele>304.88</ele>
        <time>2013-05-26T10:35:01Z</time>
      </trkpt>
      <trkpt lat="43.09888" lon="1.87325">
        <ele>302.47</ele>
        <time>2013-05-26T10:35:11Z</time>
      </trkpt>
      <trkpt lat="43.0983" lon="1.87434">
        <ele>300.55</ele>
        <time>2013-05-26T10:35:19Z</time>
      </trkpt>
      <trkpt lat="43.09761" lon="1.87501">
        <ele>301.51</ele>
        <time>2013-05-26T10:35:28Z</time>
      </trkpt>
      <trkpt lat="43.09668" lon="1.87463">
        <ele>300.55</ele>
        <time>2013-05-26T10:35:37Z</time>
      </trkpt>
      <trkpt lat="43.0964" lon="1.87557">
        <ele>302.47</ele>
        <time>2013-05-26T10:35:58Z</time>
      </trkpt>
      <trkpt lat="43.09571" lon="1.8762">
        <ele>304.88</ele>
        <time>2013-05-26T10:36:11Z</time>
      </trkpt>
      <trkpt lat="43.09471" lon="1.8762">
        <ele>305.36</ele>
        <time>2013-05-26T10:36:20Z</time>
      </trkpt>
      <trkpt lat="43.09382" lon="1.87619">
        <ele>306.32</ele>
        <time>2013-05-26T10:36:28Z</time>
      </trkpt>
      <trkpt lat="43.09291" lon="1.87618">
        <ele>307.28</ele>
        <time>2013-05-26T10:36:36Z</time>
      </trkpt>
      <trkpt lat="43.09201" lon="1.87616">
        <ele>306.32</ele>
        <time>2013-05-26T10:36:45Z</time>
      </trkpt>
      <trkpt lat="43.0911" lon="1.87615">
        <ele>306.8</ele>
        <time>2013-05-26T10:36:54Z</time>
      </trkpt>
      <trkpt lat="43.0902" lon="1.87615">
        <ele>307.28</ele>
        <time>2013-05-26T10:37:06Z</time>
      </trkpt>
      <trkpt lat="43.08928" lon="1.87614">
        <ele>308.24</ele>
        <time>2013-05-26T10:37:28Z</time>
      </trkpt>
      <trkpt lat="43.08914" lon="1.87495">
        <ele>308.24</ele>
        <time>2013-05-26T10:37:43Z</time>
      </trkpt>
      <trkpt lat="43.08916" lon="1.87361">
        <ele>309.2</ele>
        <time>2013-05-26T10:37:55Z</time>
      </trkpt>
      <trkpt lat="43.08918" lon="1.8723">
        <ele>307.28</ele>
        <time>2013-05-26T10:38:07Z</time>
      </trkpt>
      <trkpt lat="43.08854" lon="1.87244">
        <ele>306.32</ele>
        <time>2013-05-26T10:38:39Z</time>
      </trkpt>
      <trkpt lat="43.0884" lon="1.87389">
        <ele>307.28</ele>
        <time>2013-05-26T10:39:16Z</time>
      </trkpt>
      <trkpt lat="43.08809" lon="1.87345">
        <ele>323.62</ele>
        <time>2013-05-26T11:34:27Z</time>
      </trkpt>
      <trkpt lat="43.08809" lon="1.87207">
        <ele>322.66</ele>
        <time>2013-05-26T11:34:48Z</time>
      </trkpt>
      <trkpt lat="43.08904" lon="1.87213">
        <ele>321.7</ele>
        <time>2013-05-26T11:35:07Z</time>
      </trkpt>
      <trkpt lat="43.08914" lon="1.87342">
        <ele>323.62</ele>
        <time>2013-05-26T11:35:20Z</time>
      </trkpt>
      <trkpt lat="43.08913" lon="1.87474">
        <ele>325.06</ele>
        <time>2013-05-26T11:35:32Z</time>
      </trkpt>
      <trkpt lat="43.08912" lon="1.876">
        <ele>323.62</ele>
        <time>2013-05-26T11:35:43Z</time>
      </trkpt>
      <trkpt lat="43.09009" lon="1.87615">
        <ele>323.62</ele>
        <time>2013-05-26T11:36:07Z</time>
      </trkpt>
      <trkpt lat="43.09115" lon="1.87618">
        <ele>324.1</ele>
        <time>2013-05-26T11:36:20Z</time>
      </trkpt>
      <trkpt lat="43.09212" lon="1.8762">
        <ele>322.66</ele>
        <time>2013-05-26T11:36:29Z</time>
      </trkpt>
      <trkpt lat="43.09312" lon="1.87619">
        <ele>322.66</ele>
        <time>2013-05-26T11:36:38Z</time>
      </trkpt>
      <trkpt lat="43.0941" lon="1.87621">
        <ele>322.18</ele>
        <time>2013-05-26T11:36:46Z</time>
      </trkpt>
      <trkpt lat="43.0951" lon="1.87621">
        <ele>322.18</ele>
        <time>2013-05-26T11:36:54Z</time>
      </trkpt>
      <trkpt lat="43.09605" lon="1.87623">
        <ele>320.26</ele>
        <time>2013-05-26T11:37:02Z</time>
      </trkpt>
      <trkpt lat="43.09633" lon="1.87733">
        <ele>320.74</ele>
        <time>2013-05-26T11:37:10Z</time>
      </trkpt>
      <trkpt lat="43.09625" lon="1.87869">
        <ele>317.85</ele>
        <time>2013-05-26T11:37:18Z</time>
      </trkpt>
      <trkpt lat="43.09617" lon="1.87991">
        <ele>321.22</ele>
        <time>2013-05-26T11:37:24Z</time>
      </trkpt>
      <trkpt lat="43.0961" lon="1.88115">
        <ele>321.22</ele>
        <time>2013-05-26T11:37:29Z</time>
      </trkpt>
      <trkpt lat="43.09603" lon="1.88252">
        <ele>319.78</ele>
        <time>2013-05-26T11:37:34Z</time>
      </trkpt>
      <trkpt lat="43.09594" lon="1.88398">
        <ele>321.7</ele>
        <time>2013-05-26T11:37:39Z</time>
      </trkpt>
      <trkpt lat="43.09586" lon="1.88547">
        <ele>320.26</ele>
        <time>2013-05-26T11:37:44Z</time>
      </trkpt>
      <trkpt lat="43.09579" lon="1.8867">
        <ele>320.74</ele>
        <time>2013-05-26T11:37:48Z</time>
      </trkpt>
      <trkpt lat="43.09573" lon="1.88793">
        <ele>321.22</ele>
        <time>2013-05-26T11:37:52Z</time>
      </trkpt>
      <trkpt lat="43.09568" lon="1.88948">
        <ele>321.7</ele>
        <time>2013-05-26T11:37:57Z</time>
      </trkpt>
      <trkpt lat="43.09565" lon="1.89072">
        <ele>319.3</ele>
        <time>2013-05-26T11:38:01Z</time>
      </trkpt>
      <trkpt lat="43.09561" lon="1.89224">
        <ele>322.18</ele>
        <time>2013-05-26T11:38:06Z</time>
      </trkpt>
      <trkpt lat="43.09561" lon="1.89375">
        <ele>322.18</ele>
        <time>2013-05-26T11:38:11Z</time>
      </trkpt>
      <trkpt lat="43.09581" lon="1.89495">
        <ele>324.58</ele>
        <time>2013-05-26T11:38:15Z</time>
      </trkpt>
      <trkpt lat="43.09623" lon="1.89606">
        <ele>325.06</ele>
        <time>2013-05-26T11:38:19Z</time>
      </trkpt>
      <trkpt lat="43.0968" lon="1.89703">
        <ele>323.62</ele>
        <time>2013-05-26T11:38:23Z</time>
      </trkpt>
      <trkpt lat="43.09737" lon="1.89798">
        <ele>326.02</ele>
        <time>2013-05-26T11:38:27Z</time>
      </trkpt>
      <trkpt lat="43.09794" lon="1.89894">
        <ele>322.66</ele>
        <time>2013-05-26T11:38:31Z</time>
      </trkpt>
      <trkpt lat="43.09852" lon="1.8999">
        <ele>327.47</ele>
        <time>2013-05-26T11:38:35Z</time>
      </trkpt>
      <trkpt lat="43.09907" lon="1.90119">
        <ele>337.08</ele>
        <time>2013-05-26T11:38:40Z</time>
      </trkpt>
      <trkpt lat="43.09948" lon="1.90251">
        <ele>330.35</ele>
        <time>2013-05-26T11:38:45Z</time>
      </trkpt>
      <trkpt lat="43.09983" lon="1.90366">
        <ele>328.43</ele>
        <time>2013-05-26T11:38:51Z</time>
      </trkpt>
      <trkpt lat="43.09922" lon="1.9045">
        <ele>327.95</ele>
        <time>2013-05-26T11:39:02Z</time>
      </trkpt>
      <trkpt lat="43.09841" lon="1.90515">
        <ele>335.64</ele>
        <time>2013-05-26T11:39:10Z</time>
      </trkpt>
      <trkpt lat="43.0988" lon="1.90622">
        <ele>344.29</ele>
        <time>2013-05-26T11:39:20Z</time>
      </trkpt>
      <trkpt lat="43.09856" lon="1.90751">
        <ele>351.5</ele>
        <time>2013-05-26T11:39:30Z</time>
      </trkpt>
      <trkpt lat="43.09836" lon="1.90882">
        <ele>359.67</ele>
        <time>2013-05-26T11:39:37Z</time>
      </trkpt>
      <trkpt lat="43.09784" lon="1.90989">
        <ele>362.07</ele>
        <time>2013-05-26T11:39:44Z</time>
      </trkpt>
      <trkpt lat="43.09729" lon="1.91103">
        <ele>356.31</ele>
        <time>2013-05-26T11:39:51Z</time>
      </trkpt>
      <trkpt lat="43.0969" lon="1.91232">
        <ele>350.54</ele>
        <time>2013-05-26T11:39:58Z</time>
      </trkpt>
      <trkpt lat="43.0962" lon="1.91325">
        <ele>342.85</ele>
        <time>2013-05-26T11:40:06Z</time>
      </trkpt>
      <trkpt lat="43.09566" lon="1.91434">
        <ele>340.92</ele>
        <time>2013-05-26T11:40:15Z</time>
      </trkpt>
      <trkpt lat="43.09499" lon="1.91516">
        <ele>339</ele>
        <time>2013-05-26T11:40:23Z</time>
      </trkpt>
      <trkpt lat="43.09439" lon="1.91621">
        <ele>331.79</ele>
        <time>2013-05-26T11:40:32Z</time>
      </trkpt>
      <trkpt lat="43.0939" lon="1.9173">
        <ele>339</ele>
        <time>2013-05-26T11:40:41Z</time>
      </trkpt>
      <trkpt lat="43.09381" lon="1.91857">
        <ele>341.41</ele>
        <time>2013-05-26T11:40:50Z</time>
      </trkpt>
      <trkpt lat="43.09359" lon="1.91986">
        <ele>344.29</ele>
        <time>2013-05-26T11:40:59Z</time>
      </trkpt>
      <trkpt lat="43.09323" lon="1.9211">
        <ele>343.33</ele>
        <time>2013-05-26T11:41:08Z</time>
      </trkpt>
      <trkpt lat="43.09295" lon="1.92245">
        <ele>340.92</ele>
        <time>2013-05-26T11:41:16Z</time>
      </trkpt>
      <trkpt lat="43.09276" lon="1.92379">
        <ele>340.44</ele>
        <time>2013-05-26T11:41:23Z</time>
      </trkpt>
      <trkpt lat="43.0926" lon="1.92501">
        <ele>339</ele>
        <time>2013-05-26T11:41:29Z</time>
      </trkpt>
      <trkpt lat="43.09241" lon="1.92621">
        <ele>337.56</ele>
        <time>2013-05-26T11:41:35Z</time>
      </trkpt>
      <trkpt lat="43.09223" lon="1.92749">
        <ele>341.41</ele>
        <time>2013-05-26T11:41:43Z</time>
      </trkpt>
      <trkpt lat="43.09183" lon="1.92861">
        <ele>339</ele>
        <time>2013-05-26T11:41:51Z</time>
      </trkpt>
      <trkpt lat="43.09124" lon="1.9296">
        <ele>332.75</ele>
        <time>2013-05-26T11:42:00Z</time>
      </trkpt>
      <trkpt lat="43.09067" lon="1.93065">
        <ele>330.83</ele>
        <time>2013-05-26T11:42:09Z</time>
      </trkpt>
      <trkpt lat="43.09041" lon="1.93194">
        <ele>334.68</ele>
        <time>2013-05-26T11:42:18Z</time>
      </trkpt>
      <trkpt lat="43.09" lon="1.93302">
        <ele>334.2</ele>
        <time>2013-05-26T11:42:27Z</time>
      </trkpt>
      <trkpt lat="43.08928" lon="1.93411">
        <ele>330.83</ele>
        <time>2013-05-26T11:42:35Z</time>
      </trkpt>
      <trkpt lat="43.08858" lon="1.93516">
        <ele>329.87</ele>
        <time>2013-05-26T11:42:42Z</time>
      </trkpt>
      <trkpt lat="43.08792" lon="1.9362">
        <ele>329.87</ele>
        <time>2013-05-26T11:42:49Z</time>
      </trkpt>
      <trkpt lat="43.08726" lon="1.93709">
        <ele>328.91</ele>
        <time>2013-05-26T11:42:56Z</time>
      </trkpt>
      <trkpt lat="43.08663" lon="1.93803">
        <ele>330.83</ele>
        <time>2013-05-26T11:43:03Z</time>
      </trkpt>
      <trkpt lat="43.0859" lon="1.93886">
        <ele>329.39</ele>
        <time>2013-05-26T11:43:10Z</time>
      </trkpt>
      <trkpt lat="43.08506" lon="1.93954">
        <ele>329.39</ele>
        <time>2013-05-26T11:43:18Z</time>
      </trkpt>
      <trkpt lat="43.08451" lon="1.94069">
        <ele>333.23</ele>
        <time>2013-05-26T11:43:26Z</time>
      </trkpt>
      <trkpt lat="43.08374" lon="1.94143">
        <ele>330.83</ele>
        <time>2013-05-26T11:43:33Z</time>
      </trkpt>
      <trkpt lat="43.08297" lon="1.94213">
        <ele>329.87</ele>
        <time>2013-05-26T11:43:43Z</time>
      </trkpt>
      <trkpt lat="43.08206" lon="1.94244">
        <ele>328.91</ele>
        <time>2013-05-26T11:43:52Z</time>
      </trkpt>
      <trkpt lat="43.08151" lon="1.94365">
        <ele>328.91</ele>
        <time>2013-05-26T11:44:00Z</time>
      </trkpt>
      <trkpt lat="43.08106" lon="1.94482">
        <ele>328.43</ele>
        <time>2013-05-26T11:44:07Z</time>
      </trkpt>
      <trkpt lat="43.08039" lon="1.9457">
        <ele>329.87</ele>
        <time>2013-05-26T11:44:14Z</time>
      </trkpt>
      <trkpt lat="43.07952" lon="1.94603">
        <ele>331.31</ele>
        <time>2013-05-26T11:44:21Z</time>
      </trkpt>
      <trkpt lat="43.07851" lon="1.94596">
        <ele>330.35</ele>
        <time>2013-05-26T11:44:28Z</time>
      </trkpt>
      <trkpt lat="43.0776" lon="1.94575">
        <ele>331.31</ele>
        <time>2013-05-26T11:44:36Z</time>
      </trkpt>
      <trkpt lat="43.07668" lon="1.94547">
        <ele>333.71</ele>
        <time>2013-05-26T11:44:47Z</time>
      </trkpt>
      <trkpt lat="43.07579" lon="1.94543">
        <ele>335.64</ele>
        <time>2013-05-26T11:45:07Z</time>
      </trkpt>
      <trkpt lat="43.07488" lon="1.9451">
        <ele>333.23</ele>
        <time>2013-05-26T11:45:20Z</time>
      </trkpt>
      <trkpt lat="43.07424" lon="1.94433">
        <ele>333.71</ele>
        <time>2013-05-26T11:45:29Z</time>
      </trkpt>
      <trkpt lat="43.07428" lon="1.94293">
        <ele>333.71</ele>
        <time>2013-05-26T11:45:38Z</time>
      </trkpt>
      <trkpt lat="43.07437" lon="1.94162">
        <ele>331.79</ele>
        <time>2013-05-26T11:45:46Z</time>
      </trkpt>
      <trkpt lat="43.07393" lon="1.94082">
        <ele>329.87</ele>
        <time>2013-05-26T11:45:59Z</time>
      </trkpt>
      <trkpt lat="43.073" lon="1.94044">
        <ele>331.79</ele>
        <time>2013-05-26T11:46:06Z</time>
      </trkpt>
      <trkpt lat="43.07205" lon="1.93995">
        <ele>333.23</ele>
        <time>2013-05-26T11:46:12Z</time>
      </trkpt>
      <trkpt lat="43.07131" lon="1.93892">
        <ele>335.16</ele>
        <time>2013-05-26T11:46:18Z</time>
      </trkpt>
      <trkpt lat="43.07073" lon="1.93792">
        <ele>333.23</ele>
        <time>2013-05-26T11:46:23Z</time>
      </trkpt>
      <trkpt lat="43.07022" lon="1.93683">
        <ele>335.16</ele>
        <time>2013-05-26T11:46:28Z</time>
      </trkpt>
      <trkpt lat="43.0698" lon="1.9357">
        <ele>336.12</ele>
        <time>2013-05-26T11:46:33Z</time>
      </trkpt>
      <trkpt lat="43.06927" lon="1.93471">
        <ele>335.16</ele>
        <time>2013-05-26T11:46:38Z</time>
      </trkpt>
      <trkpt lat="43.06854" lon="1.93391">
        <ele>335.64</ele>
        <time>2013-05-26T11:46:43Z</time>
      </trkpt>
      <trkpt lat="43.06774" lon="1.93344">
        <ele>331.79</ele>
        <time>2013-05-26T11:46:48Z</time>
      </trkpt>
      <trkpt lat="43.06672" lon="1.93332">
        <ele>333.71</ele>
        <time>2013-05-26T11:46:53Z</time>
      </trkpt>
      <trkpt lat="43.06564" lon="1.93317">
        <ele>330.35</ele>
        <time>2013-05-26T11:46:58Z</time>
      </trkpt>
      <trkpt lat="43.06454" lon="1.93302">
        <ele>334.68</ele>
        <time>2013-05-26T11:47:03Z</time>
      </trkpt>
      <trkpt lat="43.06343" lon="1.93288">
        <ele>334.2</ele>
        <time>2013-05-26T11:47:08Z</time>
      </trkpt>
      <trkpt lat="43.06236" lon="1.93273">
        <ele>337.56</ele>
        <time>2013-05-26T11:47:13Z</time>
      </trkpt>
      <trkpt lat="43.0616" lon="1.93223">
        <ele>340.92</ele>
        <time>2013-05-26T11:47:19Z</time>
      </trkpt>
      <trkpt lat="43.06156" lon="1.93093">
        <ele>342.85</ele>
        <time>2013-05-26T11:47:25Z</time>
      </trkpt>
      <trkpt lat="43.06104" lon="1.93015">
        <ele>349.1</ele>
        <time>2013-05-26T11:47:33Z</time>
      </trkpt>
      <trkpt lat="43.06013" lon="1.9302">
        <ele>350.54</ele>
        <time>2013-05-26T11:47:40Z</time>
      </trkpt>
      <trkpt lat="43.05921" lon="1.92988">
        <ele>352.46</ele>
        <time>2013-05-26T11:47:46Z</time>
      </trkpt>
      <trkpt lat="43.05818" lon="1.92931">
        <ele>354.38</ele>
        <time>2013-05-26T11:47:52Z</time>
      </trkpt>
      <trkpt lat="43.05731" lon="1.92873">
        <ele>358.71</ele>
        <time>2013-05-26T11:47:57Z</time>
      </trkpt>
      <trkpt lat="43.05641" lon="1.9284">
        <ele>359.67</ele>
        <time>2013-05-26T11:48:02Z</time>
      </trkpt>
      <trkpt lat="43.05552" lon="1.92823">
        <ele>365.44</ele>
        <time>2013-05-26T11:48:07Z</time>
      </trkpt>
      <trkpt lat="43.05462" lon="1.92805">
        <ele>369.28</ele>
        <time>2013-05-26T11:48:18Z</time>
      </trkpt>
      <trkpt lat="43.05368" lon="1.9282">
        <ele>367.36</ele>
        <time>2013-05-26T11:48:32Z</time>
      </trkpt>
      <trkpt lat="43.05267" lon="1.92838">
        <ele>366.88</ele>
        <time>2013-05-26T11:48:38Z</time>
      </trkpt>
      <trkpt lat="43.05171" lon="1.92855">
        <ele>364.48</ele>
        <time>2013-05-26T11:48:43Z</time>
      </trkpt>
      <trkpt lat="43.05067" lon="1.92872">
        <ele>364</ele>
        <time>2013-05-26T11:48:48Z</time>
      </trkpt>
      <trkpt lat="43.0496" lon="1.92896">
        <ele>362.55</ele>
        <time>2013-05-26T11:48:53Z</time>
      </trkpt>
      <trkpt lat="43.04858" lon="1.92939">
        <ele>361.59</ele>
        <time>2013-05-26T11:48:58Z</time>
      </trkpt>
      <trkpt lat="43.04756" lon="1.92982">
        <ele>362.55</ele>
        <time>2013-05-26T11:49:03Z</time>
      </trkpt>
      <trkpt lat="43.04661" lon="1.93027">
        <ele>360.63</ele>
        <time>2013-05-26T11:49:08Z</time>
      </trkpt>
      <trkpt lat="43.04593" lon="1.93116">
        <ele>353.42</ele>
        <time>2013-05-26T11:49:13Z</time>
      </trkpt>
      <trkpt lat="43.04542" lon="1.93232">
        <ele>350.06</ele>
        <time>2013-05-26T11:49:18Z</time>
      </trkpt>
      <trkpt lat="43.04482" lon="1.93343">
        <ele>347.17</ele>
        <time>2013-05-26T11:49:24Z</time>
      </trkpt>
      <trkpt lat="43.04394" lon="1.93351">
        <ele>344.77</ele>
        <time>2013-05-26T11:49:29Z</time>
      </trkpt>
      <trkpt lat="43.043" lon="1.9331">
        <ele>339.96</ele>
        <time>2013-05-26T11:49:34Z</time>
      </trkpt>
      <trkpt lat="43.04204" lon="1.93269">
        <ele>343.81</ele>
        <time>2013-05-26T11:49:39Z</time>
      </trkpt>
      <trkpt lat="43.04113" lon="1.93232">
        <ele>345.25</ele>
        <time>2013-05-26T11:49:44Z</time>
      </trkpt>
      <trkpt lat="43.04021" lon="1.93203">
        <ele>347.17</ele>
        <time>2013-05-26T11:49:50Z</time>
      </trkpt>
      <trkpt lat="43.03945" lon="1.93287">
        <ele>347.17</ele>
        <time>2013-05-26T11:49:56Z</time>
      </trkpt>
      <trkpt lat="43.03878" lon="1.93377">
        <ele>346.69</ele>
        <time>2013-05-26T11:50:01Z</time>
      </trkpt>
      <trkpt lat="43.03793" lon="1.93449">
        <ele>346.21</ele>
        <time>2013-05-26T11:50:06Z</time>
      </trkpt>
      <trkpt lat="43.03701" lon="1.93512">
        <ele>347.17</ele>
        <time>2013-05-26T11:50:11Z</time>
      </trkpt>
      <trkpt lat="43.03609" lon="1.93576">
        <ele>345.25</ele>
        <time>2013-05-26T11:50:16Z</time>
      </trkpt>
      <trkpt lat="43.03514" lon="1.93643">
        <ele>348.62</ele>
        <time>2013-05-26T11:50:21Z</time>
      </trkpt>
      <trkpt lat="43.03421" lon="1.93707">
        <ele>353.42</ele>
        <time>2013-05-26T11:50:26Z</time>
      </trkpt>
      <trkpt lat="43.03325" lon="1.93771">
        <ele>349.1</ele>
        <time>2013-05-26T11:50:31Z</time>
      </trkpt>
      <trkpt lat="43.03231" lon="1.93842">
        <ele>347.65</ele>
        <time>2013-05-26T11:50:36Z</time>
      </trkpt>
      <trkpt lat="43.03154" lon="1.93951">
        <ele>347.17</ele>
        <time>2013-05-26T11:50:41Z</time>
      </trkpt>
      <trkpt lat="43.03096" lon="1.94082">
        <ele>347.17</ele>
        <time>2013-05-26T11:50:46Z</time>
      </trkpt>
      <trkpt lat="43.03058" lon="1.94194">
        <ele>349.1</ele>
        <time>2013-05-26T11:50:50Z</time>
      </trkpt>
      <trkpt lat="43.03023" lon="1.94306">
        <ele>348.13</ele>
        <time>2013-05-26T11:50:54Z</time>
      </trkpt>
      <trkpt lat="43.02987" lon="1.94448">
        <ele>348.13</ele>
        <time>2013-05-26T11:50:59Z</time>
      </trkpt>
      <trkpt lat="43.02948" lon="1.94588">
        <ele>349.1</ele>
        <time>2013-05-26T11:51:04Z</time>
      </trkpt>
      <trkpt lat="43.02893" lon="1.94685">
        <ele>349.58</ele>
        <time>2013-05-26T11:51:08Z</time>
      </trkpt>
      <trkpt lat="43.02821" lon="1.94796">
        <ele>350.06</ele>
        <time>2013-05-26T11:51:13Z</time>
      </trkpt>
      <trkpt lat="43.02732" lon="1.94882">
        <ele>352.46</ele>
        <time>2013-05-26T11:51:18Z</time>
      </trkpt>
      <trkpt lat="43.02637" lon="1.94934">
        <ele>354.38</ele>
        <time>2013-05-26T11:51:23Z</time>
      </trkpt>
      <trkpt lat="43.02559" lon="1.9501">
        <ele>353.9</ele>
        <time>2013-05-26T11:51:29Z</time>
      </trkpt>
      <trkpt lat="43.02508" lon="1.95129">
        <ele>353.42</ele>
        <time>2013-05-26T11:51:34Z</time>
      </trkpt>
      <trkpt lat="43.02457" lon="1.95241">
        <ele>355.34</ele>
        <time>2013-05-26T11:51:39Z</time>
      </trkpt>
      <trkpt lat="43.02407" lon="1.95367">
        <ele>354.38</ele>
        <time>2013-05-26T11:51:44Z</time>
      </trkpt>
      <trkpt lat="43.02355" lon="1.95496">
        <ele>356.79</ele>
        <time>2013-05-26T11:51:49Z</time>
      </trkpt>
      <trkpt lat="43.02322" lon="1.95639">
        <ele>356.31</ele>
        <time>2013-05-26T11:51:54Z</time>
      </trkpt>
      <trkpt lat="43.02297" lon="1.9578">
        <ele>357.75</ele>
        <time>2013-05-26T11:51:59Z</time>
      </trkpt>
      <trkpt lat="43.02276" lon="1.95916">
        <ele>354.86</ele>
        <time>2013-05-26T11:52:04Z</time>
      </trkpt>
      <trkpt lat="43.02236" lon="1.96046">
        <ele>355.34</ele>
        <time>2013-05-26T11:52:09Z</time>
      </trkpt>
      <trkpt lat="43.02192" lon="1.96176">
        <ele>357.27</ele>
        <time>2013-05-26T11:52:14Z</time>
      </trkpt>
      <trkpt lat="43.02177" lon="1.96302">
        <ele>357.75</ele>
        <time>2013-05-26T11:52:20Z</time>
      </trkpt>
      <trkpt lat="43.0218" lon="1.96431">
        <ele>357.27</ele>
        <time>2013-05-26T11:52:29Z</time>
      </trkpt>
      <trkpt lat="43.02155" lon="1.96553">
        <ele>358.23</ele>
        <time>2013-05-26T11:52:42Z</time>
      </trkpt>
      <trkpt lat="43.02149" lon="1.96683">
        <ele>357.75</ele>
        <time>2013-05-26T11:52:54Z</time>
      </trkpt>
      <trkpt lat="43.02064" lon="1.96728">
        <ele>356.79</ele>
        <time>2013-05-26T11:53:08Z</time>
      </trkpt>
      <trkpt lat="43.01966" lon="1.96755">
        <ele>358.71</ele>
        <time>2013-05-26T11:53:18Z</time>
      </trkpt>
      <trkpt lat="43.01888" lon="1.96838">
        <ele>360.15</ele>
        <time>2013-05-26T11:53:26Z</time>
      </trkpt>
      <trkpt lat="43.01815" lon="1.96796">
        <ele>360.63</ele>
        <time>2013-05-26T11:53:35Z</time>
      </trkpt>
      <trkpt lat="43.01767" lon="1.96669">
        <ele>360.15</ele>
        <time>2013-05-26T11:53:42Z</time>
      </trkpt>
      <trkpt lat="43.01694" lon="1.96586">
        <ele>361.59</ele>
        <time>2013-05-26T11:53:48Z</time>
      </trkpt>
      <trkpt lat="43.01593" lon="1.96552">
        <ele>361.11</ele>
        <time>2013-05-26T11:53:54Z</time>
      </trkpt>
      <trkpt lat="43.01488" lon="1.9654">
        <ele>363.04</ele>
        <time>2013-05-26T11:54:00Z</time>
      </trkpt>
      <trkpt lat="43.01395" lon="1.96543">
        <ele>363.04</ele>
        <time>2013-05-26T11:54:06Z</time>
      </trkpt>
      <trkpt lat="43.01322" lon="1.96638">
        <ele>363.04</ele>
        <time>2013-05-26T11:54:12Z</time>
      </trkpt>
      <trkpt lat="43.01276" lon="1.96748">
        <ele>362.07</ele>
        <time>2013-05-26T11:54:17Z</time>
      </trkpt>
      <trkpt lat="43.01239" lon="1.96884">
        <ele>364</ele>
        <time>2013-05-26T11:54:23Z</time>
      </trkpt>
      <trkpt lat="43.01168" lon="1.96999">
        <ele>363.52</ele>
        <time>2013-05-26T11:54:29Z</time>
      </trkpt>
      <trkpt lat="43.01085" lon="1.97108">
        <ele>365.92</ele>
        <time>2013-05-26T11:54:35Z</time>
      </trkpt>
      <trkpt lat="43.01061" lon="1.97237">
        <ele>361.59</ele>
        <time>2013-05-26T11:54:40Z</time>
      </trkpt>
      <trkpt lat="43.01052" lon="1.97367">
        <ele>363.04</ele>
        <time>2013-05-26T11:54:45Z</time>
      </trkpt>
      <trkpt lat="43.01054" lon="1.9749">
        <ele>365.44</ele>
        <time>2013-05-26T11:54:50Z</time>
      </trkpt>
      <trkpt lat="43.01088" lon="1.97619">
        <ele>365.44</ele>
        <time>2013-05-26T11:54:55Z</time>
      </trkpt>
      <trkpt lat="43.01125" lon="1.97747">
        <ele>368.8</ele>
        <time>2013-05-26T11:55:00Z</time>
      </trkpt>
      <trkpt lat="43.01151" lon="1.97881">
        <ele>366.4</ele>
        <time>2013-05-26T11:55:05Z</time>
      </trkpt>
      <trkpt lat="43.01153" lon="1.98022">
        <ele>366.4</ele>
        <time>2013-05-26T11:55:10Z</time>
      </trkpt>
      <trkpt lat="43.01156" lon="1.98153">
        <ele>366.4</ele>
        <time>2013-05-26T11:55:15Z</time>
      </trkpt>
      <trkpt lat="43.01188" lon="1.98276">
        <ele>366.88</ele>
        <time>2013-05-26T11:55:20Z</time>
      </trkpt>
      <trkpt lat="43.01234" lon="1.98405">
        <ele>369.28</ele>
        <time>2013-05-26T11:55:26Z</time>
      </trkpt>
      <trkpt lat="43.01238" lon="1.98546">
        <ele>373.13</ele>
        <time>2013-05-26T11:55:32Z</time>
      </trkpt>
      <trkpt lat="43.0122" lon="1.98667">
        <ele>371.21</ele>
        <time>2013-05-26T11:55:37Z</time>
      </trkpt>
      <trkpt lat="43.01173" lon="1.98781">
        <ele>373.13</ele>
        <time>2013-05-26T11:55:42Z</time>
      </trkpt>
      <trkpt lat="43.01104" lon="1.9888">
        <ele>373.13</ele>
        <time>2013-05-26T11:55:47Z</time>
      </trkpt>
      <trkpt lat="43.01025" lon="1.98977">
        <ele>373.61</ele>
        <time>2013-05-26T11:55:52Z</time>
      </trkpt>
      <trkpt lat="43.00937" lon="1.99051">
        <ele>379.38</ele>
        <time>2013-05-26T11:55:57Z</time>
      </trkpt>
      <trkpt lat="43.00837" lon="1.99084">
        <ele>374.57</ele>
        <time>2013-05-26T11:56:02Z</time>
      </trkpt>
      <trkpt lat="43.00739" lon="1.99116">
        <ele>375.05</ele>
        <time>2013-05-26T11:56:07Z</time>
      </trkpt>
      <trkpt lat="43.00643" lon="1.99147">
        <ele>376.97</ele>
        <time>2013-05-26T11:56:12Z</time>
      </trkpt>
      <trkpt lat="43.00548" lon="1.99179">
        <ele>379.38</ele>
        <time>2013-05-26T11:56:19Z</time>
      </trkpt>
      <trkpt lat="43.00457" lon="1.99207">
        <ele>381.78</ele>
        <time>2013-05-26T11:56:27Z</time>
      </trkpt>
      <trkpt lat="43.00374" lon="1.99251">
        <ele>385.63</ele>
        <time>2013-05-26T11:56:36Z</time>
      </trkpt>
      <trkpt lat="43.00337" lon="1.99377">
        <ele>386.11</ele>
        <time>2013-05-26T11:56:46Z</time>
      </trkpt>
      <trkpt lat="43.00286" lon="1.99477">
        <ele>386.59</ele>
        <time>2013-05-26T11:56:55Z</time>
      </trkpt>
      <trkpt lat="43.00201" lon="1.99515">
        <ele>387.55</ele>
        <time>2013-05-26T11:57:03Z</time>
      </trkpt>
      <trkpt lat="43.00144" lon="1.99632">
        <ele>388.03</ele>
        <time>2013-05-26T11:57:11Z</time>
      </trkpt>
      <trkpt lat="43.00118" lon="1.99761">
        <ele>388.51</ele>
        <time>2013-05-26T11:57:17Z</time>
      </trkpt>
      <trkpt lat="43.00101" lon="1.99884">
        <ele>388.99</ele>
        <time>2013-05-26T11:57:22Z</time>
      </trkpt>
      <trkpt lat="43.00082" lon="2.00013">
        <ele>387.55</ele>
        <time>2013-05-26T11:57:27Z</time>
      </trkpt>
      <trkpt lat="43.00063" lon="2.0014">
        <ele>386.59</ele>
        <time>2013-05-26T11:57:32Z</time>
      </trkpt>
      <trkpt lat="43.00061" lon="2.00267">
        <ele>386.59</ele>
        <time>2013-05-26T11:57:37Z</time>
      </trkpt>
      <trkpt lat="43.00072" lon="2.00394">
        <ele>386.11</ele>
        <time>2013-05-26T11:57:42Z</time>
      </trkpt>
      <trkpt lat="43.00061" lon="2.00536">
        <ele>383.22</ele>
        <time>2013-05-26T11:57:48Z</time>
      </trkpt>
      <trkpt lat="43.00002" lon="2.00638">
        <ele>379.86</ele>
        <time>2013-05-26T11:57:53Z</time>
      </trkpt>
      <trkpt lat="42.99916" lon="2.00685">
        <ele>383.7</ele>
        <time>2013-05-26T11:57:59Z</time>
      </trkpt>
      <trkpt lat="42.99809" lon="2.00655">
        <ele>380.34</ele>
        <time>2013-05-26T11:58:05Z</time>
      </trkpt>
      <trkpt lat="42.99702" lon="2.00622">
        <ele>381.3</ele>
        <time>2013-05-26T11:58:11Z</time>
      </trkpt>
      <trkpt lat="42.99636" lon="2.00539">
        <ele>381.78</ele>
        <time>2013-05-26T11:58:16Z</time>
      </trkpt>
      <trkpt lat="42.99566" lon="2.00431">
        <ele>379.86</ele>
        <time>2013-05-26T11:58:22Z</time>
      </trkpt>
      <trkpt lat="42.9949" lon="2.00358">
        <ele>380.82</ele>
        <time>2013-05-26T11:58:28Z</time>
      </trkpt>
      <trkpt lat="42.99401" lon="2.0032">
        <ele>379.38</ele>
        <time>2013-05-26T11:58:34Z</time>
      </trkpt>
      <trkpt lat="42.99303" lon="2.00292">
        <ele>380.34</ele>
        <time>2013-05-26T11:58:41Z</time>
      </trkpt>
      <trkpt lat="42.99201" lon="2.00265">
        <ele>380.34</ele>
        <time>2013-05-26T11:58:48Z</time>
      </trkpt>
      <trkpt lat="42.99109" lon="2.00239">
        <ele>381.78</ele>
        <time>2013-05-26T11:58:54Z</time>
      </trkpt>
      <trkpt lat="42.99019" lon="2.00216">
        <ele>383.7</ele>
        <time>2013-05-26T11:59:00Z</time>
      </trkpt>
      <trkpt lat="42.98928" lon="2.00247">
        <ele>384.18</ele>
        <time>2013-05-26T11:59:06Z</time>
      </trkpt>
      <trkpt lat="42.98846" lon="2.00309">
        <ele>387.07</ele>
        <time>2013-05-26T11:59:12Z</time>
      </trkpt>
      <trkpt lat="42.98757" lon="2.00375">
        <ele>389.95</ele>
        <time>2013-05-26T11:59:19Z</time>
      </trkpt>
      <trkpt lat="42.98656" lon="2.00411">
        <ele>391.87</ele>
        <time>2013-05-26T11:59:26Z</time>
      </trkpt>
      <trkpt lat="42.98567" lon="2.00457">
        <ele>395.24</ele>
        <time>2013-05-26T11:59:34Z</time>
      </trkpt>
      <trkpt lat="42.98527" lon="2.00578">
        <ele>394.28</ele>
        <time>2013-05-26T11:59:42Z</time>
      </trkpt>
      <trkpt lat="42.98529" lon="2.0069">
        <ele>391.87</ele>
        <time>2013-05-26T11:59:56Z</time>
      </trkpt>
      <trkpt lat="42.98588" lon="2.00787">
        <ele>393.8</ele>
        <time>2013-05-26T12:00:07Z</time>
      </trkpt>
      <trkpt lat="42.98619" lon="2.00908">
        <ele>397.16</ele>
        <time>2013-05-26T12:00:18Z</time>
      </trkpt>
      <trkpt lat="42.9863" lon="2.01039">
        <ele>397.64</ele>
        <time>2013-05-26T12:00:28Z</time>
      </trkpt>
      <trkpt lat="42.98667" lon="2.01155">
        <ele>399.57</ele>
        <time>2013-05-26T12:00:36Z</time>
      </trkpt>
      <trkpt lat="42.98691" lon="2.01289">
        <ele>402.93</ele>
        <time>2013-05-26T12:00:44Z</time>
      </trkpt>
      <trkpt lat="42.98712" lon="2.01415">
        <ele>402.93</ele>
        <time>2013-05-26T12:00:51Z</time>
      </trkpt>
      <trkpt lat="42.98731" lon="2.01551">
        <ele>406.77</ele>
        <time>2013-05-26T12:00:58Z</time>
      </trkpt>
      <trkpt lat="42.98746" lon="2.01679">
        <ele>408.22</ele>
        <time>2013-05-26T12:01:05Z</time>
      </trkpt>
      <trkpt lat="42.98752" lon="2.01817">
        <ele>410.62</ele>
        <time>2013-05-26T12:01:12Z</time>
      </trkpt>
      <trkpt lat="42.98741" lon="2.01945">
        <ele>410.14</ele>
        <time>2013-05-26T12:01:18Z</time>
      </trkpt>
      <trkpt lat="42.98708" lon="2.02073">
        <ele>416.87</ele>
        <time>2013-05-26T12:01:24Z</time>
      </trkpt>
      <trkpt lat="42.98676" lon="2.0221">
        <ele>420.23</ele>
        <time>2013-05-26T12:01:30Z</time>
      </trkpt>
      <trkpt lat="42.98635" lon="2.02324">
        <ele>423.12</ele>
        <time>2013-05-26T12:01:35Z</time>
      </trkpt>
      <trkpt lat="42.98601" lon="2.02443">
        <ele>426</ele>
        <time>2013-05-26T12:01:40Z</time>
      </trkpt>
      <trkpt lat="42.98554" lon="2.02558">
        <ele>431.77</ele>
        <time>2013-05-26T12:01:45Z</time>
      </trkpt>
      <trkpt lat="42.98489" lon="2.02652">
        <ele>438.5</ele>
        <time>2013-05-26T12:01:50Z</time>
      </trkpt>
      <trkpt lat="42.98411" lon="2.02719">
        <ele>441.38</ele>
        <time>2013-05-26T12:01:55Z</time>
      </trkpt>
      <trkpt lat="42.98357" lon="2.02816">
        <ele>446.67</ele>
        <time>2013-05-26T12:02:00Z</time>
      </trkpt>
      <trkpt lat="42.9837" lon="2.02951">
        <ele>453.4</ele>
        <time>2013-05-26T12:02:06Z</time>
      </trkpt>
      <trkpt lat="42.98439" lon="2.03063">
        <ele>461.57</ele>
        <time>2013-05-26T12:02:12Z</time>
      </trkpt>
      <trkpt lat="42.98505" lon="2.03156">
        <ele>470.7</ele>
        <time>2013-05-26T12:02:17Z</time>
      </trkpt>
      <trkpt lat="42.98544" lon="2.03271">
        <ele>475.99</ele>
        <time>2013-05-26T12:02:22Z</time>
      </trkpt>
      <trkpt lat="42.98582" lon="2.03391">
        <ele>482.72</ele>
        <time>2013-05-26T12:02:27Z</time>
      </trkpt>
      <trkpt lat="42.98615" lon="2.03514">
        <ele>488.01</ele>
        <time>2013-05-26T12:02:32Z</time>
      </trkpt>
      <trkpt lat="42.98636" lon="2.03649">
        <ele>493.77</ele>
        <time>2013-05-26T12:02:37Z</time>
      </trkpt>
      <trkpt lat="42.98665" lon="2.0378">
        <ele>500.02</ele>
        <time>2013-05-26T12:02:42Z</time>
      </trkpt>
      <trkpt lat="42.98709" lon="2.03907">
        <ele>507.23</ele>
        <time>2013-05-26T12:02:47Z</time>
      </trkpt>
      <trkpt lat="42.98748" lon="2.04033">
        <ele>515.4</ele>
        <time>2013-05-26T12:02:52Z</time>
      </trkpt>
      <trkpt lat="42.98785" lon="2.04161">
        <ele>523.09</ele>
        <time>2013-05-26T12:02:58Z</time>
      </trkpt>
      <trkpt lat="42.98831" lon="2.04268">
        <ele>528.38</ele>
        <time>2013-05-26T12:03:05Z</time>
      </trkpt>
      <trkpt lat="42.98923" lon="2.04288">
        <ele>533.19</ele>
        <time>2013-05-26T12:03:11Z</time>
      </trkpt>
      <trkpt lat="42.98993" lon="2.04375">
        <ele>544.24</ele>
        <time>2013-05-26T12:03:19Z</time>
      </trkpt>
      <trkpt lat="42.99034" lon="2.04495">
        <ele>550.01</ele>
        <time>2013-05-26T12:03:25Z</time>
      </trkpt>
      <trkpt lat="42.99066" lon="2.04615">
        <ele>559.14</ele>
        <time>2013-05-26T12:03:32Z</time>
      </trkpt>
      <trkpt lat="42.99101" lon="2.04715">
        <ele>562.51</ele>
        <time>2013-05-26T12:03:39Z</time>
      </trkpt>
      <trkpt lat="42.99152" lon="2.04814">
        <ele>575.01</ele>
        <time>2013-05-26T12:03:46Z</time>
      </trkpt>
      <trkpt lat="42.99065" lon="2.04871">
        <ele>579.81</ele>
        <time>2013-05-26T12:03:53Z</time>
      </trkpt>
      <trkpt lat="42.99006" lon="2.04958">
        <ele>591.83</ele>
        <time>2013-05-26T12:04:03Z</time>
      </trkpt>
      <trkpt lat="42.99127" lon="2.05144">
        <ele>596.15</ele>
        <time>2013-05-26T12:04:11Z</time>
      </trkpt>
      <trkpt lat="42.99155" lon="2.05255">
        <ele>605.29</ele>
        <time>2013-05-26T12:04:19Z</time>
      </trkpt>
      <trkpt lat="42.9913" lon="2.05371">
        <ele>611.54</ele>
        <time>2013-05-26T12:04:31Z</time>
      </trkpt>
      <trkpt lat="42.99204" lon="2.05148">
        <ele>623.55</ele>
        <time>2013-05-26T12:04:51Z</time>
      </trkpt>
      <trkpt lat="42.99272" lon="2.05249">
        <ele>626.44</ele>
        <time>2013-05-26T12:05:01Z</time>
      </trkpt>
      <trkpt lat="42.99349" lon="2.05307">
        <ele>627.88</ele>
        <time>2013-05-26T12:05:10Z</time>
      </trkpt>
      <trkpt lat="42.99443" lon="2.05292">
        <ele>628.36</ele>
        <time>2013-05-26T12:05:19Z</time>
      </trkpt>
      <trkpt lat="42.99516" lon="2.05353">
        <ele>628.36</ele>
        <time>2013-05-26T12:05:28Z</time>
      </trkpt>
      <trkpt lat="42.99597" lon="2.05427">
        <ele>630.76</ele>
        <time>2013-05-26T12:05:37Z</time>
      </trkpt>
      <trkpt lat="42.99691" lon="2.0542">
        <ele>631.24</ele>
        <time>2013-05-26T12:05:44Z</time>
      </trkpt>
      <trkpt lat="42.99774" lon="2.05354">
        <ele>632.2</ele>
        <time>2013-05-26T12:05:51Z</time>
      </trkpt>
      <trkpt lat="42.99812" lon="2.0542">
        <ele>630.76</ele>
        <time>2013-05-26T12:06:03Z</time>
      </trkpt>
      <trkpt lat="42.99864" lon="2.05522">
        <ele>624.51</ele>
        <time>2013-05-26T12:06:12Z</time>
      </trkpt>
      <trkpt lat="42.99957" lon="2.05574">
        <ele>620.67</ele>
        <time>2013-05-26T12:06:20Z</time>
      </trkpt>
      <trkpt lat="43.00046" lon="2.05639">
        <ele>613.94</ele>
        <time>2013-05-26T12:06:27Z</time>
      </trkpt>
      <trkpt lat="43.00139" lon="2.05673">
        <ele>610.09</ele>
        <time>2013-05-26T12:06:33Z</time>
      </trkpt>
      <trkpt lat="43.00235" lon="2.05707">
        <ele>602.4</ele>
        <time>2013-05-26T12:06:40Z</time>
      </trkpt>
      <trkpt lat="43.00317" lon="2.05657">
        <ele>595.19</ele>
        <time>2013-05-26T12:06:48Z</time>
      </trkpt>
      <trkpt lat="43.0039" lon="2.05735">
        <ele>587.5</ele>
        <time>2013-05-26T12:06:57Z</time>
      </trkpt>
      <trkpt lat="43.00389" lon="2.05865">
        <ele>582.22</ele>
        <time>2013-05-26T12:07:04Z</time>
      </trkpt>
      <trkpt lat="43.00396" lon="2.05996">
        <ele>576.93</ele>
        <time>2013-05-26T12:07:11Z</time>
      </trkpt>
      <trkpt lat="43.00377" lon="2.0612">
        <ele>568.76</ele>
        <time>2013-05-26T12:07:19Z</time>
      </trkpt>
      <trkpt lat="43.00464" lon="2.06185">
        <ele>561.55</ele>
        <time>2013-05-26T12:07:26Z</time>
      </trkpt>
      <trkpt lat="43.00552" lon="2.06154">
        <ele>549.53</ele>
        <time>2013-05-26T12:07:34Z</time>
      </trkpt>
      <trkpt lat="43.00585" lon="2.06036">
        <ele>546.17</ele>
        <time>2013-05-26T12:07:41Z</time>
      </trkpt>
      <trkpt lat="43.00649" lon="2.06034">
        <ele>537.99</ele>
        <time>2013-05-26T12:07:50Z</time>
      </trkpt>
      <trkpt lat="43.00653" lon="2.06163">
        <ele>533.19</ele>
        <time>2013-05-26T12:07:57Z</time>
      </trkpt>
      <trkpt lat="43.00651" lon="2.06291">
        <ele>526.94</ele>
        <time>2013-05-26T12:08:03Z</time>
      </trkpt>
      <trkpt lat="43.00662" lon="2.06409">
        <ele>519.73</ele>
        <time>2013-05-26T12:08:11Z</time>
      </trkpt>
      <trkpt lat="43.00746" lon="2.06467">
        <ele>517.81</ele>
        <time>2013-05-26T12:08:17Z</time>
      </trkpt>
      <trkpt lat="43.00831" lon="2.06532">
        <ele>510.6</ele>
        <time>2013-05-26T12:08:23Z</time>
      </trkpt>
      <trkpt lat="43.00901" lon="2.06638">
        <ele>504.83</ele>
        <time>2013-05-26T12:08:29Z</time>
      </trkpt>
      <trkpt lat="43.00997" lon="2.06705">
        <ele>500.02</ele>
        <time>2013-05-26T12:08:35Z</time>
      </trkpt>
      <trkpt lat="43.01099" lon="2.06739">
        <ele>495.7</ele>
        <time>2013-05-26T12:08:41Z</time>
      </trkpt>
      <trkpt lat="43.01197" lon="2.06748">
        <ele>489.45</ele>
        <time>2013-05-26T12:08:47Z</time>
      </trkpt>
      <trkpt lat="43.01286" lon="2.06709">
        <ele>482.72</ele>
        <time>2013-05-26T12:08:54Z</time>
      </trkpt>
      <trkpt lat="43.0138" lon="2.067">
        <ele>475.99</ele>
        <time>2013-05-26T12:09:02Z</time>
      </trkpt>
      <trkpt lat="43.01473" lon="2.06647">
        <ele>472.63</ele>
        <time>2013-05-26T12:09:09Z</time>
      </trkpt>
      <trkpt lat="43.01546" lon="2.06567">
        <ele>467.34</ele>
        <time>2013-05-26T12:09:15Z</time>
      </trkpt>
      <trkpt lat="43.01612" lon="2.06475">
        <ele>462.05</ele>
        <time>2013-05-26T12:09:22Z</time>
      </trkpt>
      <trkpt lat="43.01646" lon="2.06494">
        <ele>455.8</ele>
        <time>2013-05-26T12:09:33Z</time>
      </trkpt>
      <trkpt lat="43.01596" lon="2.06606">
        <ele>458.21</ele>
        <time>2013-05-26T12:09:40Z</time>
      </trkpt>
      <trkpt lat="43.01541" lon="2.06723">
        <ele>458.69</ele>
        <time>2013-05-26T12:09:45Z</time>
      </trkpt>
      <trkpt lat="43.01487" lon="2.0684">
        <ele>461.09</ele>
        <time>2013-05-26T12:09:50Z</time>
      </trkpt>
      <trkpt lat="43.01435" lon="2.06954">
        <ele>462.05</ele>
        <time>2013-05-26T12:09:55Z</time>
      </trkpt>
      <trkpt lat="43.01382" lon="2.07069">
        <ele>463.49</ele>
        <time>2013-05-26T12:10:00Z</time>
      </trkpt>
      <trkpt lat="43.01329" lon="2.07193">
        <ele>468.3</ele>
        <time>2013-05-26T12:10:06Z</time>
      </trkpt>
      <trkpt lat="43.01371" lon="2.07301">
        <ele>468.3</ele>
        <time>2013-05-26T12:10:12Z</time>
      </trkpt>
      <trkpt lat="43.01459" lon="2.07376">
        <ele>474.07</ele>
        <time>2013-05-26T12:10:18Z</time>
      </trkpt>
      <trkpt lat="43.01477" lon="2.07517">
        <ele>472.63</ele>
        <time>2013-05-26T12:10:24Z</time>
      </trkpt>
      <trkpt lat="43.01478" lon="2.07641">
        <ele>473.11</ele>
        <time>2013-05-26T12:10:29Z</time>
      </trkpt>
      <trkpt lat="43.01459" lon="2.07783">
        <ele>475.03</ele>
        <time>2013-05-26T12:10:35Z</time>
      </trkpt>
      <trkpt lat="43.01442" lon="2.0792">
        <ele>476.95</ele>
        <time>2013-05-26T12:10:41Z</time>
      </trkpt>
      <trkpt lat="43.01462" lon="2.08052">
        <ele>479.84</ele>
        <time>2013-05-26T12:10:46Z</time>
      </trkpt>
      <trkpt lat="43.01487" lon="2.08182">
        <ele>485.6</ele>
        <time>2013-05-26T12:10:51Z</time>
      </trkpt>
      <trkpt lat="43.01517" lon="2.08305">
        <ele>489.93</ele>
        <time>2013-05-26T12:10:56Z</time>
      </trkpt>
      <trkpt lat="43.01568" lon="2.08423">
        <ele>491.85</ele>
        <time>2013-05-26T12:11:02Z</time>
      </trkpt>
      <trkpt lat="43.01611" lon="2.08539">
        <ele>495.7</ele>
        <time>2013-05-26T12:11:07Z</time>
      </trkpt>
      <trkpt lat="43.01662" lon="2.0865">
        <ele>498.58</ele>
        <time>2013-05-26T12:11:12Z</time>
      </trkpt>
      <trkpt lat="43.01725" lon="2.08753">
        <ele>500.5</ele>
        <time>2013-05-26T12:11:17Z</time>
      </trkpt>
      <trkpt lat="43.01784" lon="2.08862">
        <ele>503.87</ele>
        <time>2013-05-26T12:11:22Z</time>
      </trkpt>
      <trkpt lat="43.0183" lon="2.08991">
        <ele>506.27</ele>
        <time>2013-05-26T12:11:27Z</time>
      </trkpt>
      <trkpt lat="43.0189" lon="2.0911">
        <ele>509.16</ele>
        <time>2013-05-26T12:11:33Z</time>
      </trkpt>
      <trkpt lat="43.01973" lon="2.09185">
        <ele>515.88</ele>
        <time>2013-05-26T12:11:38Z</time>
      </trkpt>
      <trkpt lat="43.02066" lon="2.0923">
        <ele>520.21</ele>
        <time>2013-05-26T12:11:44Z</time>
      </trkpt>
      <trkpt lat="43.02169" lon="2.09257">
        <ele>531.75</ele>
        <time>2013-05-26T12:11:50Z</time>
      </trkpt>
      <trkpt lat="43.02252" lon="2.09325">
        <ele>532.23</ele>
        <time>2013-05-26T12:11:55Z</time>
      </trkpt>
      <trkpt lat="43.02337" lon="2.09397">
        <ele>540.4</ele>
        <time>2013-05-26T12:12:00Z</time>
      </trkpt>
      <trkpt lat="43.02433" lon="2.09424">
        <ele>545.2</ele>
        <time>2013-05-26T12:12:05Z</time>
      </trkpt>
      <trkpt lat="43.02523" lon="2.09356">
        <ele>546.65</ele>
        <time>2013-05-26T12:12:10Z</time>
      </trkpt>
      <trkpt lat="43.02587" lon="2.09268">
        <ele>545.69</ele>
        <time>2013-05-26T12:12:15Z</time>
      </trkpt>
      <trkpt lat="43.02661" lon="2.09191">
        <ele>533.19</ele>
        <time>2013-05-26T12:12:22Z</time>
      </trkpt>
      <trkpt lat="43.02769" lon="2.09262">
        <ele>525.02</ele>
        <time>2013-05-26T12:12:29Z</time>
      </trkpt>
      <trkpt lat="43.02874" lon="2.09358">
        <ele>517.81</ele>
        <time>2013-05-26T12:12:35Z</time>
      </trkpt>
      <trkpt lat="43.02963" lon="2.09428">
        <ele>510.12</ele>
        <time>2013-05-26T12:12:41Z</time>
      </trkpt>
      <trkpt lat="43.03035" lon="2.09529">
        <ele>508.19</ele>
        <time>2013-05-26T12:12:48Z</time>
      </trkpt>
      <trkpt lat="43.03075" lon="2.09646">
        <ele>503.39</ele>
        <time>2013-05-26T12:12:54Z</time>
      </trkpt>
      <trkpt lat="43.03102" lon="2.09777">
        <ele>504.35</ele>
        <time>2013-05-26T12:13:00Z</time>
      </trkpt>
      <trkpt lat="43.03116" lon="2.09904">
        <ele>494.74</ele>
        <time>2013-05-26T12:13:07Z</time>
      </trkpt>
      <trkpt lat="43.03202" lon="2.09909">
        <ele>482.72</ele>
        <time>2013-05-26T12:13:13Z</time>
      </trkpt>
      <trkpt lat="43.03303" lon="2.099">
        <ele>472.63</ele>
        <time>2013-05-26T12:13:19Z</time>
      </trkpt>
      <trkpt lat="43.03395" lon="2.09945">
        <ele>467.34</ele>
        <time>2013-05-26T12:13:26Z</time>
      </trkpt>
      <trkpt lat="43.03466" lon="2.10039">
        <ele>458.69</ele>
        <time>2013-05-26T12:13:33Z</time>
      </trkpt>
      <trkpt lat="43.03518" lon="2.10142">
        <ele>453.88</ele>
        <time>2013-05-26T12:13:41Z</time>
      </trkpt>
      <trkpt lat="43.03508" lon="2.10278">
        <ele>451.48</ele>
        <time>2013-05-26T12:13:48Z</time>
      </trkpt>
      <trkpt lat="43.03473" lon="2.10406">
        <ele>450.52</ele>
        <time>2013-05-26T12:13:54Z</time>
      </trkpt>
      <trkpt lat="43.03438" lon="2.10523">
        <ele>448.59</ele>
        <time>2013-05-26T12:13:59Z</time>
      </trkpt>
      <trkpt lat="43.03416" lon="2.10641">
        <ele>443.79</ele>
        <time>2013-05-26T12:14:04Z</time>
      </trkpt>
      <trkpt lat="43.03378" lon="2.10753">
        <ele>433.69</ele>
        <time>2013-05-26T12:14:13Z</time>
      </trkpt>
      <trkpt lat="43.03352" lon="2.10869">
        <ele>424.08</ele>
        <time>2013-05-26T12:14:24Z</time>
      </trkpt>
      <trkpt lat="43.03337" lon="2.1101">
        <ele>419.27</ele>
        <time>2013-05-26T12:14:32Z</time>
      </trkpt>
      <trkpt lat="43.03302" lon="2.11131">
        <ele>413.02</ele>
        <time>2013-05-26T12:14:44Z</time>
      </trkpt>
      <trkpt lat="43.03217" lon="2.11126">
        <ele>405.81</ele>
        <time>2013-05-26T12:14:56Z</time>
      </trkpt>
      <trkpt lat="43.03123" lon="2.11113">
        <ele>398.6</ele>
        <time>2013-05-26T12:15:07Z</time>
      </trkpt>
      <trkpt lat="43.03071" lon="2.11212">
        <ele>394.76</ele>
        <time>2013-05-26T12:15:18Z</time>
      </trkpt>
      <trkpt lat="43.03051" lon="2.1134">
        <ele>387.07</ele>
        <time>2013-05-26T12:15:30Z</time>
      </trkpt>
      <trkpt lat="43.02979" lon="2.1123">
        <ele>380.82</ele>
        <time>2013-05-26T12:15:46Z</time>
      </trkpt>
      <trkpt lat="43.02941" lon="2.11231">
        <ele>373.61</ele>
        <time>2013-05-26T12:16:01Z</time>
      </trkpt>
      <trkpt lat="43.0292" lon="2.11352">
        <ele>369.76</ele>
        <time>2013-05-26T12:16:10Z</time>
      </trkpt>
      <trkpt lat="43.02896" lon="2.11484">
        <ele>364</ele>
        <time>2013-05-26T12:16:18Z</time>
      </trkpt>
      <trkpt lat="43.02854" lon="2.11601">
        <ele>358.71</ele>
        <time>2013-05-26T12:16:26Z</time>
      </trkpt>
      <trkpt lat="43.02862" lon="2.11734">
        <ele>353.42</ele>
        <time>2013-05-26T12:16:34Z</time>
      </trkpt>
      <trkpt lat="43.02906" lon="2.11827">
        <ele>345.25</ele>
        <time>2013-05-26T12:16:45Z</time>
      </trkpt>
      <trkpt lat="43.02936" lon="2.11936">
        <ele>340.92</ele>
        <time>2013-05-26T12:16:55Z</time>
      </trkpt>
      <trkpt lat="43.03006" lon="2.12017">
        <ele>335.16</ele>
        <time>2013-05-26T12:17:05Z</time>
      </trkpt>
      <trkpt lat="43.02972" lon="2.1214">
        <ele>327.47</ele>
        <time>2013-05-26T12:17:17Z</time>
      </trkpt>
      <trkpt lat="43.02997" lon="2.12258">
        <ele>324.1</ele>
        <time>2013-05-26T12:17:28Z</time>
      </trkpt>
      <trkpt lat="43.02918" lon="2.12314">
        <ele>317.85</ele>
        <time>2013-05-26T12:17:40Z</time>
      </trkpt>
      <trkpt lat="43.02841" lon="2.12397">
        <ele>312.57</ele>
        <time>2013-05-26T12:17:50Z</time>
      </trkpt>
      <trkpt lat="43.02748" lon="2.12439">
        <ele>307.28</ele>
        <time>2013-05-26T12:18:00Z</time>
      </trkpt>
      <trkpt lat="43.02682" lon="2.12529">
        <ele>302.47</ele>
        <time>2013-05-26T12:18:09Z</time>
      </trkpt>
      <trkpt lat="43.02647" lon="2.1265">
        <ele>298.63</ele>
        <time>2013-05-26T12:18:19Z</time>
      </trkpt>
      <trkpt lat="43.02661" lon="2.12762">
        <ele>294.3</ele>
        <time>2013-05-26T12:18:30Z</time>
      </trkpt>
      <trkpt lat="43.02703" lon="2.12886">
        <ele>291.9</ele>
        <time>2013-05-26T12:18:37Z</time>
      </trkpt>
      <trkpt lat="43.02759" lon="2.12989">
        <ele>290.46</ele>
        <time>2013-05-26T12:18:43Z</time>
      </trkpt>
      <trkpt lat="43.02822" lon="2.13085">
        <ele>290.46</ele>
        <time>2013-05-26T12:18:49Z</time>
      </trkpt>
      <trkpt lat="43.029" lon="2.13168">
        <ele>286.61</ele>
        <time>2013-05-26T12:18:55Z</time>
      </trkpt>
      <trkpt lat="43.02955" lon="2.13269">
        <ele>286.61</ele>
        <time>2013-05-26T12:19:01Z</time>
      </trkpt>
      <trkpt lat="43.02997" lon="2.13395">
        <ele>282.77</ele>
        <time>2013-05-26T12:19:08Z</time>
      </trkpt>
      <trkpt lat="43.02984" lon="2.13512">
        <ele>284.69</ele>
        <time>2013-05-26T12:19:15Z</time>
      </trkpt>
      <trkpt lat="43.02987" lon="2.13621">
        <ele>277.96</ele>
        <time>2013-05-26T12:19:27Z</time>
      </trkpt>
      <trkpt lat="43.03003" lon="2.13746">
        <ele>277</ele>
        <time>2013-05-26T12:19:42Z</time>
      </trkpt>
      <trkpt lat="43.02948" lon="2.138">
        <ele>276.04</ele>
        <time>2013-05-26T12:19:57Z</time>
      </trkpt>
      <trkpt lat="43.0286" lon="2.13782">
        <ele>273.63</ele>
        <time>2013-05-26T12:20:09Z</time>
      </trkpt>
      <trkpt lat="43.02779" lon="2.13738">
        <ele>277.48</ele>
        <time>2013-05-26T12:20:28Z</time>
      </trkpt>
      <trkpt lat="43.0269" lon="2.13774">
        <ele>280.84</ele>
        <time>2013-05-26T12:20:41Z</time>
      </trkpt>
      <trkpt lat="43.02621" lon="2.13857">
        <ele>286.61</ele>
        <time>2013-05-26T12:20:53Z</time>
      </trkpt>
      <trkpt lat="43.02522" lon="2.13861">
        <ele>291.9</ele>
        <time>2013-05-26T12:21:02Z</time>
      </trkpt>
      <trkpt lat="43.02432" lon="2.1391">
        <ele>298.15</ele>
        <time>2013-05-26T12:21:10Z</time>
      </trkpt>
      <trkpt lat="43.0234" lon="2.13956">
        <ele>303.91</ele>
        <time>2013-05-26T12:21:19Z</time>
      </trkpt>
      <trkpt lat="43.02255" lon="2.13997">
        <ele>313.53</ele>
        <time>2013-05-26T12:21:28Z</time>
      </trkpt>
      <trkpt lat="43.02163" lon="2.14018">
        <ele>321.22</ele>
        <time>2013-05-26T12:21:36Z</time>
      </trkpt>
      <trkpt lat="43.02072" lon="2.14057">
        <ele>326.02</ele>
        <time>2013-05-26T12:21:43Z</time>
      </trkpt>
      <trkpt lat="43.01995" lon="2.14135">
        <ele>331.79</ele>
        <time>2013-05-26T12:21:52Z</time>
      </trkpt>
      <trkpt lat="43.01926" lon="2.1418">
        <ele>341.41</ele>
        <time>2013-05-26T12:22:01Z</time>
      </trkpt>
      <trkpt lat="43.01833" lon="2.14163">
        <ele>348.62</ele>
        <time>2013-05-26T12:22:09Z</time>
      </trkpt>
      <trkpt lat="43.01771" lon="2.14255">
        <ele>357.75</ele>
        <time>2013-05-26T12:22:18Z</time>
      </trkpt>
      <trkpt lat="43.01756" lon="2.14369">
        <ele>365.44</ele>
        <time>2013-05-26T12:22:31Z</time>
      </trkpt>
      <trkpt lat="43.01838" lon="2.14428">
        <ele>363.52</ele>
        <time>2013-05-26T12:22:40Z</time>
      </trkpt>
      <trkpt lat="43.01907" lon="2.1451">
        <ele>360.15</ele>
        <time>2013-05-26T12:22:48Z</time>
      </trkpt>
      <trkpt lat="43.0197" lon="2.14614">
        <ele>356.31</ele>
        <time>2013-05-26T12:22:57Z</time>
      </trkpt>
      <trkpt lat="43.02045" lon="2.14702">
        <ele>353.42</ele>
        <time>2013-05-26T12:23:07Z</time>
      </trkpt>
      <trkpt lat="43.02114" lon="2.14799">
        <ele>354.86</ele>
        <time>2013-05-26T12:23:16Z</time>
      </trkpt>
      <trkpt lat="43.02172" lon="2.14905">
        <ele>353.9</ele>
        <time>2013-05-26T12:23:25Z</time>
      </trkpt>
      <trkpt lat="43.02179" lon="2.15033">
        <ele>352.94</ele>
        <time>2013-05-26T12:23:34Z</time>
      </trkpt>
      <trkpt lat="43.02192" lon="2.1516">
        <ele>351.5</ele>
        <time>2013-05-26T12:23:43Z</time>
      </trkpt>
      <trkpt lat="43.02229" lon="2.15281">
        <ele>346.21</ele>
        <time>2013-05-26T12:23:52Z</time>
      </trkpt>
      <trkpt lat="43.02218" lon="2.15407">
        <ele>341.41</ele>
        <time>2013-05-26T12:24:01Z</time>
      </trkpt>
      <trkpt lat="43.02221" lon="2.1554">
        <ele>334.2</ele>
        <time>2013-05-26T12:24:10Z</time>
      </trkpt>
      <trkpt lat="43.02254" lon="2.1566">
        <ele>328.43</ele>
        <time>2013-05-26T12:24:18Z</time>
      </trkpt>
      <trkpt lat="43.02283" lon="2.15786">
        <ele>323.62</ele>
        <time>2013-05-26T12:24:26Z</time>
      </trkpt>
      <trkpt lat="43.02299" lon="2.1592">
        <ele>319.78</ele>
        <time>2013-05-26T12:24:34Z</time>
      </trkpt>
      <trkpt lat="43.02308" lon="2.16046">
        <ele>313.05</ele>
        <time>2013-05-26T12:24:44Z</time>
      </trkpt>
      <trkpt lat="43.0226" lon="2.16157">
        <ele>314.49</ele>
        <time>2013-05-26T12:24:54Z</time>
      </trkpt>
      <trkpt lat="43.02181" lon="2.16238">
        <ele>321.7</ele>
        <time>2013-05-26T12:25:03Z</time>
      </trkpt>
      <trkpt lat="43.02139" lon="2.16349">
        <ele>327.47</ele>
        <time>2013-05-26T12:25:12Z</time>
      </trkpt>
      <trkpt lat="43.02135" lon="2.16474">
        <ele>332.75</ele>
        <time>2013-05-26T12:25:19Z</time>
      </trkpt>
      <trkpt lat="43.02105" lon="2.16589">
        <ele>335.64</ele>
        <time>2013-05-26T12:25:28Z</time>
      </trkpt>
      <trkpt lat="43.02103" lon="2.16715">
        <ele>336.12</ele>
        <time>2013-05-26T12:25:38Z</time>
      </trkpt>
      <trkpt lat="43.02135" lon="2.16839">
        <ele>341.89</ele>
        <time>2013-05-26T12:25:48Z</time>
      </trkpt>
      <trkpt lat="43.02155" lon="2.16958">
        <ele>343.33</ele>
        <time>2013-05-26T12:26:00Z</time>
      </trkpt>
      <trkpt lat="43.02228" lon="2.17014">
        <ele>337.08</ele>
        <time>2013-05-26T12:26:18Z</time>
      </trkpt>
      <trkpt lat="43.02269" lon="2.17133">
        <ele>329.87</ele>
        <time>2013-05-26T12:26:35Z</time>
      </trkpt>
      <trkpt lat="43.02307" lon="2.17257">
        <ele>325.54</ele>
        <time>2013-05-26T12:26:44Z</time>
      </trkpt>
      <trkpt lat="43.02357" lon="2.1737">
        <ele>318.81</ele>
        <time>2013-05-26T12:26:52Z</time>
      </trkpt>
      <trkpt lat="43.02423" lon="2.17478">
        <ele>314.01</ele>
        <time>2013-05-26T12:27:00Z</time>
      </trkpt>
      <trkpt lat="43.02452" lon="2.17608">
        <ele>310.64</ele>
        <time>2013-05-26T12:27:07Z</time>
      </trkpt>
      <trkpt lat="43.02495" lon="2.17699">
        <ele>305.84</ele>
        <time>2013-05-26T12:27:17Z</time>
      </trkpt>
      <trkpt lat="43.02577" lon="2.17726">
        <ele>314.01</ele>
        <time>2013-05-26T12:27:28Z</time>
      </trkpt>
      <trkpt lat="43.0253" lon="2.17836">
        <ele>309.68</ele>
        <time>2013-05-26T12:27:38Z</time>
      </trkpt>
      <trkpt lat="43.0251" lon="2.17953">
        <ele>304.39</ele>
        <time>2013-05-26T12:27:49Z</time>
      </trkpt>
      <trkpt lat="43.02485" lon="2.1806">
        <ele>298.63</ele>
        <time>2013-05-26T12:27:58Z</time>
      </trkpt>
      <trkpt lat="43.02476" lon="2.18193">
        <ele>291.9</ele>
        <time>2013-05-26T12:28:08Z</time>
      </trkpt>
      <trkpt lat="43.02521" lon="2.18284">
        <ele>285.65</ele>
        <time>2013-05-26T12:28:18Z</time>
      </trkpt>
      <trkpt lat="43.02551" lon="2.18375">
        <ele>279.4</ele>
        <time>2013-05-26T12:28:29Z</time>
      </trkpt>
      <trkpt lat="43.02508" lon="2.18491">
        <ele>274.11</ele>
        <time>2013-05-26T12:28:39Z</time>
      </trkpt>
      <trkpt lat="43.02516" lon="2.18621">
        <ele>268.83</ele>
        <time>2013-05-26T12:28:48Z</time>
      </trkpt>
      <trkpt lat="43.02549" lon="2.18751">
        <ele>255.85</ele>
        <time>2013-05-26T12:28:57Z</time>
      </trkpt>
      <trkpt lat="43.02605" lon="2.18849">
        <ele>253.44</ele>
        <time>2013-05-26T12:29:05Z</time>
      </trkpt>
      <trkpt lat="43.02658" lon="2.18954">
        <ele>247.2</ele>
        <time>2013-05-26T12:29:13Z</time>
      </trkpt>
      <trkpt lat="43.02686" lon="2.19084">
        <ele>241.43</ele>
        <time>2013-05-26T12:29:21Z</time>
      </trkpt>
      <trkpt lat="43.02722" lon="2.19198">
        <ele>236.62</ele>
        <time>2013-05-26T12:29:29Z</time>
      </trkpt>
      <trkpt lat="43.02744" lon="2.19326">
        <ele>234.22</ele>
        <time>2013-05-26T12:29:37Z</time>
      </trkpt>
      <trkpt lat="43.02786" lon="2.19441">
        <ele>232.78</ele>
        <time>2013-05-26T12:29:47Z</time>
      </trkpt>
      <trkpt lat="43.02785" lon="2.19566">
        <ele>230.37</ele>
        <time>2013-05-26T12:29:59Z</time>
      </trkpt>
      <trkpt lat="43.02798" lon="2.19692">
        <ele>234.22</ele>
        <time>2013-05-26T12:30:09Z</time>
      </trkpt>
      <trkpt lat="43.02821" lon="2.19815">
        <ele>236.14</ele>
        <time>2013-05-26T12:30:18Z</time>
      </trkpt>
      <trkpt lat="43.02869" lon="2.19923">
        <ele>239.02</ele>
        <time>2013-05-26T12:30:28Z</time>
      </trkpt>
      <trkpt lat="43.02888" lon="2.20045">
        <ele>237.58</ele>
        <time>2013-05-26T12:30:40Z</time>
      </trkpt>
      <trkpt lat="43.0288" lon="2.20159">
        <ele>231.81</ele>
        <time>2013-05-26T12:30:54Z</time>
      </trkpt>
      <trkpt lat="43.02799" lon="2.20178">
        <ele>232.3</ele>
        <time>2013-05-26T12:31:31Z</time>
      </trkpt>
      <trkpt lat="43.02706" lon="2.20205">
        <ele>238.54</ele>
        <time>2013-05-26T12:31:43Z</time>
      </trkpt>
      <trkpt lat="43.02653" lon="2.2031">
        <ele>247.2</ele>
        <time>2013-05-26T12:31:53Z</time>
      </trkpt>
      <trkpt lat="43.02631" lon="2.20429">
        <ele>250.08</ele>
        <time>2013-05-26T12:32:01Z</time>
      </trkpt>
      <trkpt lat="43.02604" lon="2.20556">
        <ele>256.81</ele>
        <time>2013-05-26T12:32:09Z</time>
      </trkpt>
      <trkpt lat="43.02523" lon="2.20624">
        <ele>258.73</ele>
        <time>2013-05-26T12:32:18Z</time>
      </trkpt>
      <trkpt lat="43.02503" lon="2.20731">
        <ele>255.37</ele>
        <time>2013-05-26T12:32:28Z</time>
      </trkpt>
      <trkpt lat="43.02419" lon="2.20737">
        <ele>254.89</ele>
        <time>2013-05-26T12:32:38Z</time>
      </trkpt>
      <trkpt lat="43.02352" lon="2.20739">
        <ele>251.04</ele>
        <time>2013-05-26T12:32:49Z</time>
      </trkpt>
      <trkpt lat="43.02298" lon="2.20838">
        <ele>249.12</ele>
        <time>2013-05-26T12:32:59Z</time>
      </trkpt>
      <trkpt lat="43.02199" lon="2.20828">
        <ele>248.64</ele>
        <time>2013-05-26T12:33:08Z</time>
      </trkpt>
      <trkpt lat="43.02115" lon="2.20766">
        <ele>246.72</ele>
        <time>2013-05-26T12:33:15Z</time>
      </trkpt>
      <trkpt lat="43.02027" lon="2.20706">
        <ele>247.2</ele>
        <time>2013-05-26T12:33:22Z</time>
      </trkpt>
      <trkpt lat="43.01937" lon="2.20649">
        <ele>246.23</ele>
        <time>2013-05-26T12:33:29Z</time>
      </trkpt>
      <trkpt lat="43.01848" lon="2.20617">
        <ele>245.27</ele>
        <time>2013-05-26T12:33:36Z</time>
      </trkpt>
      <trkpt lat="43.0176" lon="2.20566">
        <ele>243.83</ele>
        <time>2013-05-26T12:33:43Z</time>
      </trkpt>
      <trkpt lat="43.01672" lon="2.20526">
        <ele>243.83</ele>
        <time>2013-05-26T12:33:49Z</time>
      </trkpt>
      <trkpt lat="43.01584" lon="2.20465">
        <ele>241.91</ele>
        <time>2013-05-26T12:33:55Z</time>
      </trkpt>
      <trkpt lat="43.01492" lon="2.20404">
        <ele>240.47</ele>
        <time>2013-05-26T12:34:01Z</time>
      </trkpt>
      <trkpt lat="43.014" lon="2.20378">
        <ele>246.23</ele>
        <time>2013-05-26T12:34:09Z</time>
      </trkpt>
      <trkpt lat="43.01315" lon="2.20408">
        <ele>245.27</ele>
        <time>2013-05-26T12:34:19Z</time>
      </trkpt>
      <trkpt lat="43.01242" lon="2.20314">
        <ele>245.27</ele>
        <time>2013-05-26T12:34:27Z</time>
      </trkpt>
      <trkpt lat="43.0117" lon="2.20231">
        <ele>244.31</ele>
        <time>2013-05-26T12:34:35Z</time>
      </trkpt>
      <trkpt lat="43.01081" lon="2.20249">
        <ele>247.2</ele>
        <time>2013-05-26T12:34:42Z</time>
      </trkpt>
      <trkpt lat="43.00994" lon="2.20208">
        <ele>248.64</ele>
        <time>2013-05-26T12:34:50Z</time>
      </trkpt>
      <trkpt lat="43.00923" lon="2.20291">
        <ele>252.96</ele>
        <time>2013-05-26T12:34:59Z</time>
      </trkpt>
      <trkpt lat="43.00835" lon="2.20336">
        <ele>257.29</ele>
        <time>2013-05-26T12:35:07Z</time>
      </trkpt>
      <trkpt lat="43.00744" lon="2.20326">
        <ele>257.29</ele>
        <time>2013-05-26T12:35:13Z</time>
      </trkpt>
      <trkpt lat="43.00646" lon="2.20293">
        <ele>260.65</ele>
        <time>2013-05-26T12:35:19Z</time>
      </trkpt>
      <trkpt lat="43.00555" lon="2.20264">
        <ele>260.17</ele>
        <time>2013-05-26T12:35:25Z</time>
      </trkpt>
      <trkpt lat="43.00485" lon="2.20334">
        <ele>259.21</ele>
        <time>2013-05-26T12:35:32Z</time>
      </trkpt>
      <trkpt lat="43.00414" lon="2.20402">
        <ele>262.58</ele>
        <time>2013-05-26T12:35:39Z</time>
      </trkpt>
      <trkpt lat="43.00322" lon="2.20414">
        <ele>262.58</ele>
        <time>2013-05-26T12:35:45Z</time>
      </trkpt>
      <trkpt lat="43.00225" lon="2.20412">
        <ele>260.65</ele>
        <time>2013-05-26T12:35:52Z</time>
      </trkpt>
      <trkpt lat="43.00153" lon="2.20339">
        <ele>259.21</ele>
        <time>2013-05-26T12:36:00Z</time>
      </trkpt>
      <trkpt lat="43.00066" lon="2.20374">
        <ele>262.1</ele>
        <time>2013-05-26T12:36:07Z</time>
      </trkpt>
      <trkpt lat="42.9998" lon="2.20354">
        <ele>266.42</ele>
        <time>2013-05-26T12:36:14Z</time>
      </trkpt>
      <trkpt lat="42.99905" lon="2.20266">
        <ele>269.31</ele>
        <time>2013-05-26T12:36:22Z</time>
      </trkpt>
      <trkpt lat="42.99864" lon="2.20136">
        <ele>266.9</ele>
        <time>2013-05-26T12:36:29Z</time>
      </trkpt>
      <trkpt lat="42.9984" lon="2.20005">
        <ele>267.38</ele>
        <time>2013-05-26T12:36:35Z</time>
      </trkpt>
      <trkpt lat="42.9982" lon="2.1988">
        <ele>269.31</ele>
        <time>2013-05-26T12:36:41Z</time>
      </trkpt>
      <trkpt lat="42.9977" lon="2.19755">
        <ele>270.27</ele>
        <time>2013-05-26T12:36:48Z</time>
      </trkpt>
      <trkpt lat="42.99759" lon="2.19621">
        <ele>271.23</ele>
        <time>2013-05-26T12:36:55Z</time>
      </trkpt>
      <trkpt lat="42.99722" lon="2.19507">
        <ele>272.19</ele>
        <time>2013-05-26T12:37:01Z</time>
      </trkpt>
      <trkpt lat="42.99721" lon="2.19383">
        <ele>274.59</ele>
        <time>2013-05-26T12:37:08Z</time>
      </trkpt>
      <trkpt lat="42.99742" lon="2.19259">
        <ele>277.48</ele>
        <time>2013-05-26T12:37:16Z</time>
      </trkpt>
      <trkpt lat="42.99711" lon="2.19139">
        <ele>278.44</ele>
        <time>2013-05-26T12:37:24Z</time>
      </trkpt>
      <trkpt lat="42.99668" lon="2.19028">
        <ele>278.92</ele>
        <time>2013-05-26T12:37:31Z</time>
      </trkpt>
      <trkpt lat="42.99632" lon="2.18946">
        <ele>279.88</ele>
        <time>2013-05-26T12:37:45Z</time>
      </trkpt>
      <trkpt lat="42.99643" lon="2.1908">
        <ele>288.05</ele>
        <time>2013-05-26T12:37:57Z</time>
      </trkpt>
      <trkpt lat="42.99626" lon="2.19205">
        <ele>297.18</ele>
        <time>2013-05-26T12:38:06Z</time>
      </trkpt>
      <trkpt lat="42.99583" lon="2.19316">
        <ele>301.51</ele>
        <time>2013-05-26T12:38:15Z</time>
      </trkpt>
      <trkpt lat="42.99534" lon="2.19438">
        <ele>309.68</ele>
        <time>2013-05-26T12:38:24Z</time>
      </trkpt>
      <trkpt lat="42.9949" lon="2.19556">
        <ele>319.78</ele>
        <time>2013-05-26T12:38:33Z</time>
      </trkpt>
      <trkpt lat="42.99446" lon="2.19671">
        <ele>330.83</ele>
        <time>2013-05-26T12:38:44Z</time>
      </trkpt>
      <trkpt lat="42.99408" lon="2.19792">
        <ele>339.48</ele>
        <time>2013-05-26T12:38:54Z</time>
      </trkpt>
      <trkpt lat="42.99363" lon="2.19901">
        <ele>347.65</ele>
        <time>2013-05-26T12:39:05Z</time>
      </trkpt>
      <trkpt lat="42.99368" lon="2.19997">
        <ele>352.94</ele>
        <time>2013-05-26T12:39:26Z</time>
      </trkpt>
      <trkpt lat="42.99334" lon="2.20075">
        <ele>361.11</ele>
        <time>2013-05-26T12:39:48Z</time>
      </trkpt>
      <trkpt lat="42.9924" lon="2.20103">
        <ele>364.48</ele>
        <time>2013-05-26T12:40:01Z</time>
      </trkpt>
      <trkpt lat="42.99142" lon="2.20117">
        <ele>374.57</ele>
        <time>2013-05-26T12:40:12Z</time>
      </trkpt>
      <trkpt lat="42.99053" lon="2.20079">
        <ele>386.59</ele>
        <time>2013-05-26T12:40:22Z</time>
      </trkpt>
      <trkpt lat="42.99009" lon="2.19968">
        <ele>398.6</ele>
        <time>2013-05-26T12:40:32Z</time>
      </trkpt>
      <trkpt lat="42.98946" lon="2.19885">
        <ele>408.7</ele>
        <time>2013-05-26T12:40:43Z</time>
      </trkpt>
      <trkpt lat="42.98885" lon="2.19977">
        <ele>423.6</ele>
        <time>2013-05-26T12:40:52Z</time>
      </trkpt>
      <trkpt lat="42.98829" lon="2.20069">
        <ele>437.06</ele>
        <time>2013-05-26T12:41:01Z</time>
      </trkpt>
      <trkpt lat="42.98754" lon="2.20114">
        <ele>447.15</ele>
        <time>2013-05-26T12:41:11Z</time>
      </trkpt>
      <trkpt lat="42.98669" lon="2.20137">
        <ele>458.69</ele>
        <time>2013-05-26T12:41:21Z</time>
      </trkpt>
      <trkpt lat="42.98589" lon="2.20204">
        <ele>470.22</ele>
        <time>2013-05-26T12:41:30Z</time>
      </trkpt>
      <trkpt lat="42.98501" lon="2.20234">
        <ele>483.68</ele>
        <time>2013-05-26T12:41:38Z</time>
      </trkpt>
      <trkpt lat="42.98405" lon="2.20257">
        <ele>495.7</ele>
        <time>2013-05-26T12:41:46Z</time>
      </trkpt>
      <trkpt lat="42.98325" lon="2.20305">
        <ele>504.35</ele>
        <time>2013-05-26T12:41:55Z</time>
      </trkpt>
      <trkpt lat="42.98236" lon="2.20278">
        <ele>498.58</ele>
        <time>2013-05-26T12:42:07Z</time>
      </trkpt>
      <trkpt lat="42.9817" lon="2.20195">
        <ele>485.6</ele>
        <time>2013-05-26T12:42:17Z</time>
      </trkpt>
      <trkpt lat="42.98081" lon="2.20152">
        <ele>472.14</ele>
        <time>2013-05-26T12:42:29Z</time>
      </trkpt>
      <trkpt lat="42.98024" lon="2.20057">
        <ele>459.17</ele>
        <time>2013-05-26T12:42:40Z</time>
      </trkpt>
      <trkpt lat="42.97991" lon="2.19939">
        <ele>449.55</ele>
        <time>2013-05-26T12:42:49Z</time>
      </trkpt>
      <trkpt lat="42.97977" lon="2.19818">
        <ele>445.71</ele>
        <time>2013-05-26T12:42:58Z</time>
      </trkpt>
      <trkpt lat="42.97953" lon="2.19696">
        <ele>449.55</ele>
        <time>2013-05-26T12:43:09Z</time>
      </trkpt>
      <trkpt lat="42.97908" lon="2.19589">
        <ele>448.11</ele>
        <time>2013-05-26T12:43:21Z</time>
      </trkpt>
      <trkpt lat="42.97887" lon="2.19472">
        <ele>448.11</ele>
        <time>2013-05-26T12:43:36Z</time>
      </trkpt>
      <trkpt lat="42.97875" lon="2.19583">
        <ele>444.27</ele>
        <time>2013-05-26T12:43:53Z</time>
      </trkpt>
      <trkpt lat="42.97875" lon="2.19698">
        <ele>436.58</ele>
        <time>2013-05-26T12:44:05Z</time>
      </trkpt>
      <trkpt lat="42.97806" lon="2.1979">
        <ele>432.25</ele>
        <time>2013-05-26T12:44:14Z</time>
      </trkpt>
      <trkpt lat="42.97759" lon="2.19895">
        <ele>424.56</ele>
        <time>2013-05-26T12:44:23Z</time>
      </trkpt>
      <trkpt lat="42.9768" lon="2.19899">
        <ele>420.23</ele>
        <time>2013-05-26T12:44:35Z</time>
      </trkpt>
      <trkpt lat="42.97593" lon="2.1986">
        <ele>418.31</ele>
        <time>2013-05-26T12:44:45Z</time>
      </trkpt>
      <trkpt lat="42.97565" lon="2.19968">
        <ele>414.95</ele>
        <time>2013-05-26T12:44:55Z</time>
      </trkpt>
      <trkpt lat="42.97546" lon="2.20098">
        <ele>415.43</ele>
        <time>2013-05-26T12:45:03Z</time>
      </trkpt>
      <trkpt lat="42.97497" lon="2.20211">
        <ele>414.95</ele>
        <time>2013-05-26T12:45:10Z</time>
      </trkpt>
      <trkpt lat="42.97447" lon="2.20329">
        <ele>413.98</ele>
        <time>2013-05-26T12:45:17Z</time>
      </trkpt>
      <trkpt lat="42.97401" lon="2.2045">
        <ele>409.18</ele>
        <time>2013-05-26T12:45:24Z</time>
      </trkpt>
      <trkpt lat="42.97322" lon="2.2052">
        <ele>406.77</ele>
        <time>2013-05-26T12:45:31Z</time>
      </trkpt>
      <trkpt lat="42.97225" lon="2.2055">
        <ele>401.01</ele>
        <time>2013-05-26T12:45:39Z</time>
      </trkpt>
      <trkpt lat="42.97133" lon="2.20577">
        <ele>399.57</ele>
        <time>2013-05-26T12:45:46Z</time>
      </trkpt>
      <trkpt lat="42.97042" lon="2.20599">
        <ele>395.24</ele>
        <time>2013-05-26T12:45:53Z</time>
      </trkpt>
      <trkpt lat="42.96959" lon="2.20664">
        <ele>386.11</ele>
        <time>2013-05-26T12:46:02Z</time>
      </trkpt>
      <trkpt lat="42.96871" lon="2.20651">
        <ele>377.94</ele>
        <time>2013-05-26T12:46:11Z</time>
      </trkpt>
      <trkpt lat="42.96776" lon="2.20615">
        <ele>371.69</ele>
        <time>2013-05-26T12:46:21Z</time>
      </trkpt>
      <trkpt lat="42.96685" lon="2.2064">
        <ele>364.48</ele>
        <time>2013-05-26T12:46:29Z</time>
      </trkpt>
      <trkpt lat="42.966" lon="2.20627">
        <ele>358.71</ele>
        <time>2013-05-26T12:46:38Z</time>
      </trkpt>
      <trkpt lat="42.96529" lon="2.20539">
        <ele>350.06</ele>
        <time>2013-05-26T12:46:46Z</time>
      </trkpt>
      <trkpt lat="42.96435" lon="2.20524">
        <ele>342.37</ele>
        <time>2013-05-26T12:46:54Z</time>
      </trkpt>
      <trkpt lat="42.96338" lon="2.20532">
        <ele>335.16</ele>
        <time>2013-05-26T12:47:03Z</time>
      </trkpt>
      <trkpt lat="42.96293" lon="2.20612">
        <ele>329.87</ele>
        <time>2013-05-26T12:47:20Z</time>
      </trkpt>
      <trkpt lat="42.96312" lon="2.20748">
        <ele>329.87</ele>
        <time>2013-05-26T12:47:28Z</time>
      </trkpt>
      <trkpt lat="42.96308" lon="2.20887">
        <ele>328.43</ele>
        <time>2013-05-26T12:47:35Z</time>
      </trkpt>
      <trkpt lat="42.9631" lon="2.2101">
        <ele>329.39</ele>
        <time>2013-05-26T12:47:41Z</time>
      </trkpt>
      <trkpt lat="42.96314" lon="2.21148">
        <ele>326.5</ele>
        <time>2013-05-26T12:47:48Z</time>
      </trkpt>
      <trkpt lat="42.96317" lon="2.21275">
        <ele>328.43</ele>
        <time>2013-05-26T12:47:54Z</time>
      </trkpt>
      <trkpt lat="42.963" lon="2.21417">
        <ele>325.54</ele>
        <time>2013-05-26T12:48:00Z</time>
      </trkpt>
      <trkpt lat="42.96282" lon="2.21548">
        <ele>324.1</ele>
        <time>2013-05-26T12:48:06Z</time>
      </trkpt>
      <trkpt lat="42.96236" lon="2.21676">
        <ele>320.74</ele>
        <time>2013-05-26T12:48:12Z</time>
      </trkpt>
      <trkpt lat="42.962" lon="2.21796">
        <ele>317.85</ele>
        <time>2013-05-26T12:48:19Z</time>
      </trkpt>
      <trkpt lat="42.96123" lon="2.21888">
        <ele>316.89</ele>
        <time>2013-05-26T12:48:27Z</time>
      </trkpt>
      <trkpt lat="42.96041" lon="2.2195">
        <ele>314.49</ele>
        <time>2013-05-26T12:48:33Z</time>
      </trkpt>
      <trkpt lat="42.95963" lon="2.22016">
        <ele>310.64</ele>
        <time>2013-05-26T12:48:40Z</time>
      </trkpt>
      <trkpt lat="42.95877" lon="2.2206">
        <ele>308.24</ele>
        <time>2013-05-26T12:48:49Z</time>
      </trkpt>
      <trkpt lat="42.95811" lon="2.22162">
        <ele>307.76</ele>
        <time>2013-05-26T12:48:58Z</time>
      </trkpt>
      <trkpt lat="42.95749" lon="2.22261">
        <ele>305.36</ele>
        <time>2013-05-26T12:49:06Z</time>
      </trkpt>
      <trkpt lat="42.95708" lon="2.22377">
        <ele>303.43</ele>
        <time>2013-05-26T12:49:14Z</time>
      </trkpt>
      <trkpt lat="42.9563" lon="2.22458">
        <ele>300.55</ele>
        <time>2013-05-26T12:49:24Z</time>
      </trkpt>
      <trkpt lat="42.95563" lon="2.22546">
        <ele>298.15</ele>
        <time>2013-05-26T12:49:33Z</time>
      </trkpt>
      <trkpt lat="42.95482" lon="2.22613">
        <ele>294.78</ele>
        <time>2013-05-26T12:49:43Z</time>
      </trkpt>
      <trkpt lat="42.95386" lon="2.22609">
        <ele>292.86</ele>
        <time>2013-05-26T12:49:52Z</time>
      </trkpt>
      <trkpt lat="42.95295" lon="2.2263">
        <ele>290.94</ele>
        <time>2013-05-26T12:50:00Z</time>
      </trkpt>
      <trkpt lat="42.95201" lon="2.22674">
        <ele>289.49</ele>
        <time>2013-05-26T12:50:08Z</time>
      </trkpt>
      <trkpt lat="42.95123" lon="2.22755">
        <ele>289.49</ele>
        <time>2013-05-26T12:50:16Z</time>
      </trkpt>
      <trkpt lat="42.95123" lon="2.22874">
        <ele>285.17</ele>
        <time>2013-05-26T12:50:26Z</time>
      </trkpt>
      <trkpt lat="42.95094" lon="2.23005">
        <ele>279.88</ele>
        <time>2013-05-26T12:50:35Z</time>
      </trkpt>
      <trkpt lat="42.95035" lon="2.23118">
        <ele>275.56</ele>
        <time>2013-05-26T12:50:42Z</time>
      </trkpt>
      <trkpt lat="42.94961" lon="2.23192">
        <ele>273.15</ele>
        <time>2013-05-26T12:50:49Z</time>
      </trkpt>
      <trkpt lat="42.94876" lon="2.2325">
        <ele>264.5</ele>
        <time>2013-05-26T12:50:56Z</time>
      </trkpt>
      <trkpt lat="42.94817" lon="2.2334">
        <ele>266.9</ele>
        <time>2013-05-26T12:51:03Z</time>
      </trkpt>
      <trkpt lat="42.9473" lon="2.23416">
        <ele>264.98</ele>
        <time>2013-05-26T12:51:10Z</time>
      </trkpt>
      <trkpt lat="42.94644" lon="2.23491">
        <ele>264.02</ele>
        <time>2013-05-26T12:51:17Z</time>
      </trkpt>
      <trkpt lat="42.94555" lon="2.23553">
        <ele>260.65</ele>
        <time>2013-05-26T12:51:24Z</time>
      </trkpt>
      <trkpt lat="42.94518" lon="2.23665">
        <ele>257.29</ele>
        <time>2013-05-26T12:51:30Z</time>
      </trkpt>
      <trkpt lat="42.94462" lon="2.23761">
        <ele>248.16</ele>
        <time>2013-05-26T12:51:37Z</time>
      </trkpt>
      <trkpt lat="42.94382" lon="2.23834">
        <ele>245.27</ele>
        <time>2013-05-26T12:51:44Z</time>
      </trkpt>
      <trkpt lat="42.94289" lon="2.23883">
        <ele>242.39</ele>
        <time>2013-05-26T12:51:51Z</time>
      </trkpt>
      <trkpt lat="42.94198" lon="2.23901">
        <ele>242.39</ele>
        <time>2013-05-26T12:52:01Z</time>
      </trkpt>
      <trkpt lat="42.94128" lon="2.23983">
        <ele>241.43</ele>
        <time>2013-05-26T12:52:22Z</time>
      </trkpt>
      <trkpt lat="42.94086" lon="2.24092">
        <ele>242.39</ele>
        <time>2013-05-26T12:52:29Z</time>
      </trkpt>
      <trkpt lat="42.94045" lon="2.24204">
        <ele>239.02</ele>
        <time>2013-05-26T12:52:36Z</time>
      </trkpt>
      <trkpt lat="42.94037" lon="2.24342">
        <ele>236.14</ele>
        <time>2013-05-26T12:52:43Z</time>
      </trkpt>
      <trkpt lat="42.94064" lon="2.24476">
        <ele>237.58</ele>
        <time>2013-05-26T12:52:50Z</time>
      </trkpt>
      <trkpt lat="42.94106" lon="2.24599">
        <ele>239.99</ele>
        <time>2013-05-26T12:52:57Z</time>
      </trkpt>
      <trkpt lat="42.94148" lon="2.24716">
        <ele>238.54</ele>
        <time>2013-05-26T12:53:06Z</time>
      </trkpt>
      <trkpt lat="42.94108" lon="2.24802">
        <ele>239.51</ele>
        <time>2013-05-26T12:53:19Z</time>
      </trkpt>
      <trkpt lat="42.94028" lon="2.2487">
        <ele>241.43</ele>
        <time>2013-05-26T12:53:29Z</time>
      </trkpt>
      <trkpt lat="42.94005" lon="2.24964">
        <ele>240.47</ele>
        <time>2013-05-26T12:53:47Z</time>
      </trkpt>
      <trkpt lat="42.94029" lon="2.25088">
        <ele>239.51</ele>
        <time>2013-05-26T12:53:57Z</time>
      </trkpt>
      <trkpt lat="42.94054" lon="2.25207">
        <ele>238.06</ele>
        <time>2013-05-26T12:54:05Z</time>
      </trkpt>
      <trkpt lat="42.9411" lon="2.25304">
        <ele>236.14</ele>
        <time>2013-05-26T12:54:13Z</time>
      </trkpt>
      <trkpt lat="42.94177" lon="2.25388">
        <ele>235.18</ele>
        <time>2013-05-26T12:54:22Z</time>
      </trkpt>
      <trkpt lat="42.94243" lon="2.25477">
        <ele>239.99</ele>
        <time>2013-05-26T12:54:31Z</time>
      </trkpt>
      <trkpt lat="42.9429" lon="2.25577">
        <ele>236.14</ele>
        <time>2013-05-26T12:54:43Z</time>
      </trkpt>
      <trkpt lat="42.94244" lon="2.25703">
        <ele>238.54</ele>
        <time>2013-05-26T12:54:53Z</time>
      </trkpt>
      <trkpt lat="42.942" lon="2.25825">
        <ele>238.06</ele>
        <time>2013-05-26T12:55:01Z</time>
      </trkpt>
      <trkpt lat="42.94154" lon="2.25952">
        <ele>240.95</ele>
        <time>2013-05-26T12:55:09Z</time>
      </trkpt>
      <trkpt lat="42.9413" lon="2.26089">
        <ele>239.51</ele>
        <time>2013-05-26T12:55:17Z</time>
      </trkpt>
      <trkpt lat="42.9413" lon="2.26231">
        <ele>243.83</ele>
        <time>2013-05-26T12:55:24Z</time>
      </trkpt>
      <trkpt lat="42.94154" lon="2.26355">
        <ele>243.35</ele>
        <time>2013-05-26T12:55:30Z</time>
      </trkpt>
      <trkpt lat="42.94152" lon="2.26482">
        <ele>246.23</ele>
        <time>2013-05-26T12:55:36Z</time>
      </trkpt>
      <trkpt lat="42.94095" lon="2.26597">
        <ele>245.75</ele>
        <time>2013-05-26T12:55:42Z</time>
      </trkpt>
      <trkpt lat="42.94036" lon="2.26715">
        <ele>245.75</ele>
        <time>2013-05-26T12:55:48Z</time>
      </trkpt>
      <trkpt lat="42.94012" lon="2.26839">
        <ele>246.23</ele>
        <time>2013-05-26T12:55:53Z</time>
      </trkpt>
      <trkpt lat="42.94006" lon="2.26968">
        <ele>247.2</ele>
        <time>2013-05-26T12:55:58Z</time>
      </trkpt>
      <trkpt lat="42.94018" lon="2.27114">
        <ele>247.2</ele>
        <time>2013-05-26T12:56:04Z</time>
      </trkpt>
      <trkpt lat="42.94014" lon="2.27233">
        <ele>252.96</ele>
        <time>2013-05-26T12:56:09Z</time>
      </trkpt>
      <trkpt lat="42.93964" lon="2.27341">
        <ele>250.56</ele>
        <time>2013-05-26T12:56:14Z</time>
      </trkpt>
      <trkpt lat="42.93897" lon="2.27436">
        <ele>250.08</ele>
        <time>2013-05-26T12:56:19Z</time>
      </trkpt>
      <trkpt lat="42.93846" lon="2.27552">
        <ele>250.56</ele>
        <time>2013-05-26T12:56:24Z</time>
      </trkpt>
      <trkpt lat="42.93809" lon="2.2767">
        <ele>250.56</ele>
        <time>2013-05-26T12:56:30Z</time>
      </trkpt>
      <trkpt lat="42.93837" lon="2.27787">
        <ele>250.56</ele>
        <time>2013-05-26T12:56:35Z</time>
      </trkpt>
      <trkpt lat="42.93868" lon="2.27914">
        <ele>246.23</ele>
        <time>2013-05-26T12:56:40Z</time>
      </trkpt>
      <trkpt lat="42.93875" lon="2.2804">
        <ele>252</ele>
        <time>2013-05-26T12:56:45Z</time>
      </trkpt>
      <trkpt lat="42.93899" lon="2.2816">
        <ele>249.6</ele>
        <time>2013-05-26T12:56:50Z</time>
      </trkpt>
      <trkpt lat="42.9395" lon="2.28283">
        <ele>250.56</ele>
        <time>2013-05-26T12:56:55Z</time>
      </trkpt>
      <trkpt lat="42.9398" lon="2.2841">
        <ele>253.93</ele>
        <time>2013-05-26T12:57:00Z</time>
      </trkpt>
      <trkpt lat="42.93972" lon="2.28536">
        <ele>254.41</ele>
        <time>2013-05-26T12:57:05Z</time>
      </trkpt>
      <trkpt lat="42.93946" lon="2.28668">
        <ele>255.37</ele>
        <time>2013-05-26T12:57:10Z</time>
      </trkpt>
      <trkpt lat="42.93939" lon="2.2881">
        <ele>254.41</ele>
        <time>2013-05-26T12:57:15Z</time>
      </trkpt>
      <trkpt lat="42.93943" lon="2.28939">
        <ele>255.85</ele>
        <time>2013-05-26T12:57:20Z</time>
      </trkpt>
      <trkpt lat="42.93985" lon="2.29046">
        <ele>258.73</ele>
        <time>2013-05-26T12:57:25Z</time>
      </trkpt>
      <trkpt lat="42.93976" lon="2.29187">
        <ele>259.21</ele>
        <time>2013-05-26T12:57:31Z</time>
      </trkpt>
      <trkpt lat="42.93935" lon="2.293">
        <ele>260.17</ele>
        <time>2013-05-26T12:57:36Z</time>
      </trkpt>
      <trkpt lat="42.93908" lon="2.29419">
        <ele>255.85</ele>
        <time>2013-05-26T12:57:41Z</time>
      </trkpt>
      <trkpt lat="42.93875" lon="2.29534">
        <ele>259.69</ele>
        <time>2013-05-26T12:57:46Z</time>
      </trkpt>
      <trkpt lat="42.9388" lon="2.29663">
        <ele>257.29</ele>
        <time>2013-05-26T12:57:52Z</time>
      </trkpt>
      <trkpt lat="42.93906" lon="2.29783">
        <ele>262.1</ele>
        <time>2013-05-26T12:57:57Z</time>
      </trkpt>
      <trkpt lat="42.93939" lon="2.29896">
        <ele>263.06</ele>
        <time>2013-05-26T12:58:02Z</time>
      </trkpt>
      <trkpt lat="42.93969" lon="2.30023">
        <ele>261.14</ele>
        <time>2013-05-26T12:58:07Z</time>
      </trkpt>
      <trkpt lat="42.9401" lon="2.30152">
        <ele>263.54</ele>
        <time>2013-05-26T12:58:12Z</time>
      </trkpt>
      <trkpt lat="42.94043" lon="2.30282">
        <ele>263.54</ele>
        <time>2013-05-26T12:58:17Z</time>
      </trkpt>
      <trkpt lat="42.94095" lon="2.30405">
        <ele>265.94</ele>
        <time>2013-05-26T12:58:22Z</time>
      </trkpt>
      <trkpt lat="42.94145" lon="2.30512">
        <ele>266.42</ele>
        <time>2013-05-26T12:58:27Z</time>
      </trkpt>
      <trkpt lat="42.94147" lon="2.30641">
        <ele>268.35</ele>
        <time>2013-05-26T12:58:32Z</time>
      </trkpt>
      <trkpt lat="42.94149" lon="2.30769">
        <ele>267.86</ele>
        <time>2013-05-26T12:58:38Z</time>
      </trkpt>
      <trkpt lat="42.94162" lon="2.30901">
        <ele>267.38</ele>
        <time>2013-05-26T12:58:44Z</time>
      </trkpt>
      <trkpt lat="42.94154" lon="2.3104">
        <ele>269.79</ele>
        <time>2013-05-26T12:58:51Z</time>
      </trkpt>
      <trkpt lat="42.9422" lon="2.31129">
        <ele>267.38</ele>
        <time>2013-05-26T12:58:58Z</time>
      </trkpt>
      <trkpt lat="42.94256" lon="2.31248">
        <ele>267.86</ele>
        <time>2013-05-26T12:59:05Z</time>
      </trkpt>
      <trkpt lat="42.94209" lon="2.31356">
        <ele>269.79</ele>
        <time>2013-05-26T12:59:12Z</time>
      </trkpt>
      <trkpt lat="42.94153" lon="2.31458">
        <ele>271.23</ele>
        <time>2013-05-26T12:59:21Z</time>
      </trkpt>
      <trkpt lat="42.94076" lon="2.31537">
        <ele>275.07</ele>
        <time>2013-05-26T12:59:31Z</time>
      </trkpt>
      <trkpt lat="42.93996" lon="2.31608">
        <ele>276.04</ele>
        <time>2013-05-26T12:59:39Z</time>
      </trkpt>
      <trkpt lat="42.93892" lon="2.31635">
        <ele>283.25</ele>
        <time>2013-05-26T12:59:45Z</time>
      </trkpt>
      <trkpt lat="42.93799" lon="2.31637">
        <ele>283.73</ele>
        <time>2013-05-26T12:59:50Z</time>
      </trkpt>
      <trkpt lat="42.9371" lon="2.31595">
        <ele>283.25</ele>
        <time>2013-05-26T12:59:55Z</time>
      </trkpt>
      <trkpt lat="42.93612" lon="2.31567">
        <ele>284.69</ele>
        <time>2013-05-26T13:00:02Z</time>
      </trkpt>
      <trkpt lat="42.9352" lon="2.31589">
        <ele>285.65</ele>
        <time>2013-05-26T13:00:11Z</time>
      </trkpt>
      <trkpt lat="42.93421" lon="2.316">
        <ele>291.42</ele>
        <time>2013-05-26T13:00:20Z</time>
      </trkpt>
      <trkpt lat="42.93325" lon="2.31602">
        <ele>296.22</ele>
        <time>2013-05-26T13:00:28Z</time>
      </trkpt>
      <trkpt lat="42.93229" lon="2.31592">
        <ele>298.15</ele>
        <time>2013-05-26T13:00:37Z</time>
      </trkpt>
      <trkpt lat="42.93124" lon="2.31591">
        <ele>291.9</ele>
        <time>2013-05-26T13:00:44Z</time>
      </trkpt>
      <trkpt lat="42.93034" lon="2.31598">
        <ele>290.94</ele>
        <time>2013-05-26T13:00:48Z</time>
      </trkpt>
      <trkpt lat="42.92934" lon="2.31608">
        <ele>292.86</ele>
        <time>2013-05-26T13:00:53Z</time>
      </trkpt>
      <trkpt lat="42.9283" lon="2.31614">
        <ele>289.97</ele>
        <time>2013-05-26T13:00:59Z</time>
      </trkpt>
      <trkpt lat="42.92734" lon="2.31602">
        <ele>291.42</ele>
        <time>2013-05-26T13:01:06Z</time>
      </trkpt>
      <trkpt lat="42.92666" lon="2.31502">
        <ele>289.97</ele>
        <time>2013-05-26T13:01:12Z</time>
      </trkpt>
      <trkpt lat="42.92581" lon="2.31454">
        <ele>292.86</ele>
        <time>2013-05-26T13:01:18Z</time>
      </trkpt>
      <trkpt lat="42.92495" lon="2.31507">
        <ele>291.9</ele>
        <time>2013-05-26T13:01:25Z</time>
      </trkpt>
      <trkpt lat="42.92462" lon="2.31632">
        <ele>295.26</ele>
        <time>2013-05-26T13:01:31Z</time>
      </trkpt>
      <trkpt lat="42.92436" lon="2.31744">
        <ele>301.99</ele>
        <time>2013-05-26T13:01:39Z</time>
      </trkpt>
      <trkpt lat="42.92339" lon="2.31782">
        <ele>308.72</ele>
        <time>2013-05-26T13:01:47Z</time>
      </trkpt>
      <trkpt lat="42.92239" lon="2.3175">
        <ele>307.76</ele>
        <time>2013-05-26T13:01:55Z</time>
      </trkpt>
      <trkpt lat="42.92158" lon="2.31789">
        <ele>306.8</ele>
        <time>2013-05-26T13:02:05Z</time>
      </trkpt>
      <trkpt lat="42.92162" lon="2.31916">
        <ele>311.12</ele>
        <time>2013-05-26T13:02:14Z</time>
      </trkpt>
      <trkpt lat="42.92179" lon="2.3204">
        <ele>316.41</ele>
        <time>2013-05-26T13:02:23Z</time>
      </trkpt>
      <trkpt lat="42.92179" lon="2.3205">
        <ele>314.97</ele>
        <time>2013-05-26T13:06:23Z</time>
      </trkpt>
      <trkpt lat="42.92181" lon="2.32084">
        <ele>310.64</ele>
        <time>2013-05-26T13:13:01Z</time>
      </trkpt>
      <trkpt lat="42.92226" lon="2.32047">
        <ele>302.47</ele>
        <time>2013-05-26T13:14:52Z</time>
      </trkpt>
      <trkpt lat="42.92206" lon="2.31953">
        <ele>302.95</ele>
        <time>2013-05-26T13:16:22Z</time>
      </trkpt>
      <trkpt lat="42.92186" lon="2.3183">
        <ele>301.99</ele>
        <time>2013-05-26T13:17:52Z</time>
      </trkpt>
      <trkpt lat="42.92179" lon="2.31856">
        <ele>352.94</ele>
        <time>2013-05-26T14:28:14Z</time>
      </trkpt>
      <trkpt lat="42.92198" lon="2.31992">
        <ele>350.54</ele>
        <time>2013-05-26T14:29:48Z</time>
      </trkpt>
      <trkpt lat="42.92191" lon="2.32108">
        <ele>352.46</ele>
        <time>2013-05-26T14:32:18Z</time>
      </trkpt>
      <trkpt lat="42.92175" lon="2.3205">
        <ele>359.19</ele>
        <time>2013-05-26T14:34:12Z</time>
      </trkpt>
      <trkpt lat="42.92171" lon="2.31935">
        <ele>348.13</ele>
        <time>2013-05-26T14:45:02Z</time>
      </trkpt>
      <trkpt lat="42.92158" lon="2.31811">
        <ele>343.81</ele>
        <time>2013-05-26T14:45:11Z</time>
      </trkpt>
      <trkpt lat="42.9223" lon="2.31747">
        <ele>339</ele>
        <time>2013-05-26T14:45:21Z</time>
      </trkpt>
      <trkpt lat="42.92323" lon="2.31771">
        <ele>340.92</ele>
        <time>2013-05-26T14:45:29Z</time>
      </trkpt>
      <trkpt lat="42.92413" lon="2.31762">
        <ele>338.04</ele>
        <time>2013-05-26T14:45:36Z</time>
      </trkpt>
      <trkpt lat="42.92461" lon="2.31646">
        <ele>334.2</ele>
        <time>2013-05-26T14:45:43Z</time>
      </trkpt>
      <trkpt lat="42.92481" lon="2.31511">
        <ele>328.43</ele>
        <time>2013-05-26T14:45:50Z</time>
      </trkpt>
      <trkpt lat="42.92552" lon="2.31443">
        <ele>326.99</ele>
        <time>2013-05-26T14:45:57Z</time>
      </trkpt>
      <trkpt lat="42.92641" lon="2.31473">
        <ele>326.02</ele>
        <time>2013-05-26T14:46:03Z</time>
      </trkpt>
      <trkpt lat="42.92704" lon="2.31561">
        <ele>324.1</ele>
        <time>2013-05-26T14:46:10Z</time>
      </trkpt>
      <trkpt lat="42.92787" lon="2.3162">
        <ele>323.14</ele>
        <time>2013-05-26T14:46:17Z</time>
      </trkpt>
      <trkpt lat="42.92884" lon="2.31608">
        <ele>324.1</ele>
        <time>2013-05-26T14:46:23Z</time>
      </trkpt>
      <trkpt lat="42.92981" lon="2.31598">
        <ele>326.02</ele>
        <time>2013-05-26T14:46:28Z</time>
      </trkpt>
      <trkpt lat="42.93074" lon="2.31585">
        <ele>326.02</ele>
        <time>2013-05-26T14:46:33Z</time>
      </trkpt>
      <trkpt lat="42.93166" lon="2.31571">
        <ele>326.99</ele>
        <time>2013-05-26T14:46:39Z</time>
      </trkpt>
      <trkpt lat="42.93252" lon="2.31592">
        <ele>331.31</ele>
        <time>2013-05-26T14:46:47Z</time>
      </trkpt>
      <trkpt lat="42.93354" lon="2.31599">
        <ele>327.47</ele>
        <time>2013-05-26T14:46:55Z</time>
      </trkpt>
      <trkpt lat="42.93467" lon="2.3158">
        <ele>322.66</ele>
        <time>2013-05-26T14:47:00Z</time>
      </trkpt>
      <trkpt lat="42.93567" lon="2.31572">
        <ele>319.3</ele>
        <time>2013-05-26T14:47:06Z</time>
      </trkpt>
      <trkpt lat="42.93665" lon="2.31566">
        <ele>315.93</ele>
        <time>2013-05-26T14:47:15Z</time>
      </trkpt>
      <trkpt lat="42.93754" lon="2.31612">
        <ele>314.49</ele>
        <time>2013-05-26T14:47:21Z</time>
      </trkpt>
      <trkpt lat="42.93852" lon="2.31629">
        <ele>310.16</ele>
        <time>2013-05-26T14:47:28Z</time>
      </trkpt>
      <trkpt lat="42.93952" lon="2.31602">
        <ele>309.2</ele>
        <time>2013-05-26T14:47:35Z</time>
      </trkpt>
      <trkpt lat="42.94044" lon="2.31547">
        <ele>308.24</ele>
        <time>2013-05-26T14:47:42Z</time>
      </trkpt>
      <trkpt lat="42.94129" lon="2.31484">
        <ele>305.36</ele>
        <time>2013-05-26T14:47:52Z</time>
      </trkpt>
      <trkpt lat="42.94171" lon="2.31617">
        <ele>307.76</ele>
        <time>2013-05-26T14:48:02Z</time>
      </trkpt>
      <trkpt lat="42.9422" lon="2.31725">
        <ele>306.8</ele>
        <time>2013-05-26T14:48:10Z</time>
      </trkpt>
      <trkpt lat="42.94309" lon="2.31769">
        <ele>306.8</ele>
        <time>2013-05-26T14:48:16Z</time>
      </trkpt>
      <trkpt lat="42.94403" lon="2.31812">
        <ele>308.24</ele>
        <time>2013-05-26T14:48:22Z</time>
      </trkpt>
      <trkpt lat="42.94455" lon="2.31911">
        <ele>309.2</ele>
        <time>2013-05-26T14:48:27Z</time>
      </trkpt>
      <trkpt lat="42.94507" lon="2.32019">
        <ele>310.16</ele>
        <time>2013-05-26T14:48:32Z</time>
      </trkpt>
      <trkpt lat="42.94561" lon="2.32132">
        <ele>310.64</ele>
        <time>2013-05-26T14:48:38Z</time>
      </trkpt>
      <trkpt lat="42.9461" lon="2.32253">
        <ele>312.09</ele>
        <time>2013-05-26T14:48:45Z</time>
      </trkpt>
      <trkpt lat="42.94636" lon="2.3238">
        <ele>311.6</ele>
        <time>2013-05-26T14:48:54Z</time>
      </trkpt>
      <trkpt lat="42.94641" lon="2.32513">
        <ele>312.57</ele>
        <time>2013-05-26T14:49:05Z</time>
      </trkpt>
      <trkpt lat="42.94643" lon="2.32653">
        <ele>313.53</ele>
        <time>2013-05-26T14:49:13Z</time>
      </trkpt>
      <trkpt lat="42.94639" lon="2.32783">
        <ele>315.45</ele>
        <time>2013-05-26T14:49:20Z</time>
      </trkpt>
      <trkpt lat="42.9464" lon="2.32927">
        <ele>317.37</ele>
        <time>2013-05-26T14:49:26Z</time>
      </trkpt>
      <trkpt lat="42.94666" lon="2.33056">
        <ele>317.85</ele>
        <time>2013-05-26T14:49:31Z</time>
      </trkpt>
      <trkpt lat="42.94706" lon="2.33181">
        <ele>316.41</ele>
        <time>2013-05-26T14:49:36Z</time>
      </trkpt>
      <trkpt lat="42.94776" lon="2.3329">
        <ele>318.81</ele>
        <time>2013-05-26T14:49:41Z</time>
      </trkpt>
      <trkpt lat="42.94848" lon="2.334">
        <ele>319.78</ele>
        <time>2013-05-26T14:49:46Z</time>
      </trkpt>
      <trkpt lat="42.94921" lon="2.3349">
        <ele>317.37</ele>
        <time>2013-05-26T14:49:51Z</time>
      </trkpt>
      <trkpt lat="42.95009" lon="2.33536">
        <ele>325.54</ele>
        <time>2013-05-26T14:49:56Z</time>
      </trkpt>
      <trkpt lat="42.9507" lon="2.33635">
        <ele>324.1</ele>
        <time>2013-05-26T14:50:02Z</time>
      </trkpt>
      <trkpt lat="42.95118" lon="2.33748">
        <ele>329.39</ele>
        <time>2013-05-26T14:50:08Z</time>
      </trkpt>
      <trkpt lat="42.95111" lon="2.33876">
        <ele>332.27</ele>
        <time>2013-05-26T14:50:14Z</time>
      </trkpt>
      <trkpt lat="42.95074" lon="2.33999">
        <ele>335.64</ele>
        <time>2013-05-26T14:50:20Z</time>
      </trkpt>
      <trkpt lat="42.95055" lon="2.3412">
        <ele>339</ele>
        <time>2013-05-26T14:50:27Z</time>
      </trkpt>
      <trkpt lat="42.94999" lon="2.34223">
        <ele>342.37</ele>
        <time>2013-05-26T14:50:35Z</time>
      </trkpt>
      <trkpt lat="42.94983" lon="2.34344">
        <ele>345.73</ele>
        <time>2013-05-26T14:50:41Z</time>
      </trkpt>
      <trkpt lat="42.94952" lon="2.34466">
        <ele>348.62</ele>
        <time>2013-05-26T14:50:47Z</time>
      </trkpt>
      <trkpt lat="42.94881" lon="2.34526">
        <ele>350.06</ele>
        <time>2013-05-26T14:50:53Z</time>
      </trkpt>
      <trkpt lat="42.94811" lon="2.34615">
        <ele>352.46</ele>
        <time>2013-05-26T14:51:00Z</time>
      </trkpt>
      <trkpt lat="42.94764" lon="2.34725">
        <ele>357.27</ele>
        <time>2013-05-26T14:51:06Z</time>
      </trkpt>
      <trkpt lat="42.9468" lon="2.34797">
        <ele>360.63</ele>
        <time>2013-05-26T14:51:14Z</time>
      </trkpt>
      <trkpt lat="42.94668" lon="2.34902">
        <ele>364</ele>
        <time>2013-05-26T14:51:21Z</time>
      </trkpt>
      <trkpt lat="42.94721" lon="2.35015">
        <ele>365.44</ele>
        <time>2013-05-26T14:51:28Z</time>
      </trkpt>
      <trkpt lat="42.94805" lon="2.35079">
        <ele>367.36</ele>
        <time>2013-05-26T14:51:37Z</time>
      </trkpt>
      <trkpt lat="42.94808" lon="2.35204">
        <ele>369.28</ele>
        <time>2013-05-26T14:51:45Z</time>
      </trkpt>
      <trkpt lat="42.94758" lon="2.35327">
        <ele>372.65</ele>
        <time>2013-05-26T14:51:52Z</time>
      </trkpt>
      <trkpt lat="42.94742" lon="2.35469">
        <ele>375.53</ele>
        <time>2013-05-26T14:51:58Z</time>
      </trkpt>
      <trkpt lat="42.94732" lon="2.35605">
        <ele>375.53</ele>
        <time>2013-05-26T14:52:04Z</time>
      </trkpt>
      <trkpt lat="42.94801" lon="2.35713">
        <ele>378.42</ele>
        <time>2013-05-26T14:52:10Z</time>
      </trkpt>
      <trkpt lat="42.94859" lon="2.35818">
        <ele>381.3</ele>
        <time>2013-05-26T14:52:15Z</time>
      </trkpt>
      <trkpt lat="42.94917" lon="2.35942">
        <ele>381.78</ele>
        <time>2013-05-26T14:52:20Z</time>
      </trkpt>
      <trkpt lat="42.94977" lon="2.36069">
        <ele>382.74</ele>
        <time>2013-05-26T14:52:25Z</time>
      </trkpt>
      <trkpt lat="42.95036" lon="2.36192">
        <ele>383.22</ele>
        <time>2013-05-26T14:52:30Z</time>
      </trkpt>
      <trkpt lat="42.95091" lon="2.3631">
        <ele>383.22</ele>
        <time>2013-05-26T14:52:35Z</time>
      </trkpt>
      <trkpt lat="42.95139" lon="2.36421">
        <ele>383.7</ele>
        <time>2013-05-26T14:52:40Z</time>
      </trkpt>
      <trkpt lat="42.95158" lon="2.36551">
        <ele>383.7</ele>
        <time>2013-05-26T14:52:45Z</time>
      </trkpt>
      <trkpt lat="42.9517" lon="2.36675">
        <ele>383.22</ele>
        <time>2013-05-26T14:52:51Z</time>
      </trkpt>
      <trkpt lat="42.95239" lon="2.36747">
        <ele>384.18</ele>
        <time>2013-05-26T14:52:59Z</time>
      </trkpt>
      <trkpt lat="42.95308" lon="2.36829">
        <ele>385.15</ele>
        <time>2013-05-26T14:53:07Z</time>
      </trkpt>
      <trkpt lat="42.95331" lon="2.36974">
        <ele>386.11</ele>
        <time>2013-05-26T14:53:13Z</time>
      </trkpt>
      <trkpt lat="42.95349" lon="2.37102">
        <ele>390.43</ele>
        <time>2013-05-26T14:53:18Z</time>
      </trkpt>
      <trkpt lat="42.95375" lon="2.37223">
        <ele>389.47</ele>
        <time>2013-05-26T14:53:24Z</time>
      </trkpt>
      <trkpt lat="42.95335" lon="2.37329">
        <ele>390.43</ele>
        <time>2013-05-26T14:53:33Z</time>
      </trkpt>
      <trkpt lat="42.95261" lon="2.37398">
        <ele>390.43</ele>
        <time>2013-05-26T14:53:42Z</time>
      </trkpt>
      <trkpt lat="42.95224" lon="2.37518">
        <ele>390.43</ele>
        <time>2013-05-26T14:53:55Z</time>
      </trkpt>
      <trkpt lat="42.95172" lon="2.37632">
        <ele>391.87</ele>
        <time>2013-05-26T14:54:08Z</time>
      </trkpt>
      <trkpt lat="42.95155" lon="2.3776">
        <ele>392.36</ele>
        <time>2013-05-26T14:54:17Z</time>
      </trkpt>
      <trkpt lat="42.95188" lon="2.37884">
        <ele>392.84</ele>
        <time>2013-05-26T14:54:24Z</time>
      </trkpt>
      <trkpt lat="42.95206" lon="2.38004">
        <ele>395.24</ele>
        <time>2013-05-26T14:54:30Z</time>
      </trkpt>
      <trkpt lat="42.95228" lon="2.38136">
        <ele>397.16</ele>
        <time>2013-05-26T14:54:36Z</time>
      </trkpt>
      <trkpt lat="42.95263" lon="2.38261">
        <ele>398.6</ele>
        <time>2013-05-26T14:54:42Z</time>
      </trkpt>
      <trkpt lat="42.95277" lon="2.3839">
        <ele>401.01</ele>
        <time>2013-05-26T14:54:48Z</time>
      </trkpt>
      <trkpt lat="42.9533" lon="2.38495">
        <ele>404.37</ele>
        <time>2013-05-26T14:54:54Z</time>
      </trkpt>
      <trkpt lat="42.95356" lon="2.38615">
        <ele>405.33</ele>
        <time>2013-05-26T14:55:00Z</time>
      </trkpt>
      <trkpt lat="42.95417" lon="2.38708">
        <ele>410.14</ele>
        <time>2013-05-26T14:55:06Z</time>
      </trkpt>
      <trkpt lat="42.9544" lon="2.38835">
        <ele>412.54</ele>
        <time>2013-05-26T14:55:12Z</time>
      </trkpt>
      <trkpt lat="42.95407" lon="2.38945">
        <ele>415.43</ele>
        <time>2013-05-26T14:55:18Z</time>
      </trkpt>
      <trkpt lat="42.9536" lon="2.39061">
        <ele>417.83</ele>
        <time>2013-05-26T14:55:24Z</time>
      </trkpt>
      <trkpt lat="42.95352" lon="2.39198">
        <ele>420.71</ele>
        <time>2013-05-26T14:55:31Z</time>
      </trkpt>
      <trkpt lat="42.95409" lon="2.39306">
        <ele>425.04</ele>
        <time>2013-05-26T14:55:38Z</time>
      </trkpt>
      <trkpt lat="42.95413" lon="2.39444">
        <ele>430.81</ele>
        <time>2013-05-26T14:55:45Z</time>
      </trkpt>
      <trkpt lat="42.95475" lon="2.39485">
        <ele>436.58</ele>
        <time>2013-05-26T14:55:56Z</time>
      </trkpt>
      <trkpt lat="42.95565" lon="2.39549">
        <ele>438.98</ele>
        <time>2013-05-26T14:56:04Z</time>
      </trkpt>
      <trkpt lat="42.95494" lon="2.3962">
        <ele>443.79</ele>
        <time>2013-05-26T14:56:15Z</time>
      </trkpt>
      <trkpt lat="42.9544" lon="2.39725">
        <ele>451.48</ele>
        <time>2013-05-26T14:56:22Z</time>
      </trkpt>
      <trkpt lat="42.9537" lon="2.39811">
        <ele>454.36</ele>
        <time>2013-05-26T14:56:30Z</time>
      </trkpt>
      <trkpt lat="42.95302" lon="2.39671">
        <ele>467.82</ele>
        <time>2013-05-26T14:56:47Z</time>
      </trkpt>
      <trkpt lat="42.95236" lon="2.39793">
        <ele>472.14</ele>
        <time>2013-05-26T14:56:55Z</time>
      </trkpt>
      <trkpt lat="42.95188" lon="2.399">
        <ele>475.99</ele>
        <time>2013-05-26T14:57:03Z</time>
      </trkpt>
      <trkpt lat="42.95158" lon="2.40017">
        <ele>480.8</ele>
        <time>2013-05-26T14:57:10Z</time>
      </trkpt>
      <trkpt lat="42.95128" lon="2.40138">
        <ele>485.6</ele>
        <time>2013-05-26T14:57:17Z</time>
      </trkpt>
      <trkpt lat="42.95088" lon="2.40248">
        <ele>491.37</ele>
        <time>2013-05-26T14:57:24Z</time>
      </trkpt>
      <trkpt lat="42.95026" lon="2.40354">
        <ele>495.7</ele>
        <time>2013-05-26T14:57:31Z</time>
      </trkpt>
      <trkpt lat="42.95003" lon="2.40472">
        <ele>501.46</ele>
        <time>2013-05-26T14:57:42Z</time>
      </trkpt>
      <trkpt lat="42.9502" lon="2.40378">
        <ele>503.39</ele>
        <time>2013-05-26T14:58:02Z</time>
      </trkpt>
      <trkpt lat="42.95014" lon="2.40439">
        <ele>498.1</ele>
        <time>2013-05-26T14:58:40Z</time>
      </trkpt>
      <trkpt lat="42.94935" lon="2.40514">
        <ele>505.31</ele>
        <time>2013-05-26T14:58:51Z</time>
      </trkpt>
      <trkpt lat="42.94876" lon="2.40593">
        <ele>510.12</ele>
        <time>2013-05-26T14:58:59Z</time>
      </trkpt>
      <trkpt lat="42.94882" lon="2.40712">
        <ele>513.96</ele>
        <time>2013-05-26T14:59:06Z</time>
      </trkpt>
      <trkpt lat="42.94835" lon="2.40824">
        <ele>519.25</ele>
        <time>2013-05-26T14:59:15Z</time>
      </trkpt>
      <trkpt lat="42.94753" lon="2.40878">
        <ele>524.54</ele>
        <time>2013-05-26T14:59:24Z</time>
      </trkpt>
      <trkpt lat="42.94742" lon="2.41011">
        <ele>530.3</ele>
        <time>2013-05-26T14:59:32Z</time>
      </trkpt>
      <trkpt lat="42.94745" lon="2.41136">
        <ele>535.59</ele>
        <time>2013-05-26T14:59:41Z</time>
      </trkpt>
      <trkpt lat="42.94753" lon="2.41266">
        <ele>540.88</ele>
        <time>2013-05-26T14:59:49Z</time>
      </trkpt>
      <trkpt lat="42.94784" lon="2.41395">
        <ele>545.2</ele>
        <time>2013-05-26T14:59:55Z</time>
      </trkpt>
      <trkpt lat="42.94803" lon="2.41526">
        <ele>552.9</ele>
        <time>2013-05-26T15:00:01Z</time>
      </trkpt>
      <trkpt lat="42.94839" lon="2.41643">
        <ele>558.18</ele>
        <time>2013-05-26T15:00:07Z</time>
      </trkpt>
      <trkpt lat="42.94857" lon="2.41774">
        <ele>563.47</ele>
        <time>2013-05-26T15:00:13Z</time>
      </trkpt>
      <trkpt lat="42.948" lon="2.41866">
        <ele>568.76</ele>
        <time>2013-05-26T15:00:19Z</time>
      </trkpt>
      <trkpt lat="42.94761" lon="2.41975">
        <ele>573.56</ele>
        <time>2013-05-26T15:00:26Z</time>
      </trkpt>
      <trkpt lat="42.94808" lon="2.42099">
        <ele>579.81</ele>
        <time>2013-05-26T15:00:34Z</time>
      </trkpt>
      <trkpt lat="42.94801" lon="2.42226">
        <ele>587.02</ele>
        <time>2013-05-26T15:00:41Z</time>
      </trkpt>
      <trkpt lat="42.94836" lon="2.42359">
        <ele>595.67</ele>
        <time>2013-05-26T15:00:48Z</time>
      </trkpt>
      <trkpt lat="42.9488" lon="2.4248">
        <ele>601.44</ele>
        <time>2013-05-26T15:00:55Z</time>
      </trkpt>
      <trkpt lat="42.94801" lon="2.42526">
        <ele>608.65</ele>
        <time>2013-05-26T15:01:02Z</time>
      </trkpt>
      <trkpt lat="42.94714" lon="2.42491">
        <ele>609.61</ele>
        <time>2013-05-26T15:01:08Z</time>
      </trkpt>
      <trkpt lat="42.9462" lon="2.42501">
        <ele>614.42</ele>
        <time>2013-05-26T15:01:14Z</time>
      </trkpt>
      <trkpt lat="42.94533" lon="2.42576">
        <ele>618.75</ele>
        <time>2013-05-26T15:01:21Z</time>
      </trkpt>
      <trkpt lat="42.94524" lon="2.42698">
        <ele>623.55</ele>
        <time>2013-05-26T15:01:29Z</time>
      </trkpt>
      <trkpt lat="42.94615" lon="2.42751">
        <ele>629.32</ele>
        <time>2013-05-26T15:01:36Z</time>
      </trkpt>
      <trkpt lat="42.947" lon="2.42808">
        <ele>634.13</ele>
        <time>2013-05-26T15:01:43Z</time>
      </trkpt>
      <trkpt lat="42.94667" lon="2.42921">
        <ele>639.89</ele>
        <time>2013-05-26T15:01:50Z</time>
      </trkpt>
      <trkpt lat="42.94587" lon="2.42988">
        <ele>645.66</ele>
        <time>2013-05-26T15:01:56Z</time>
      </trkpt>
      <trkpt lat="42.94496" lon="2.43044">
        <ele>648.55</ele>
        <time>2013-05-26T15:02:03Z</time>
      </trkpt>
      <trkpt lat="42.94453" lon="2.43154">
        <ele>653.83</ele>
        <time>2013-05-26T15:02:09Z</time>
      </trkpt>
      <trkpt lat="42.94419" lon="2.43272">
        <ele>649.51</ele>
        <time>2013-05-26T15:02:16Z</time>
      </trkpt>
      <trkpt lat="42.9437" lon="2.43388">
        <ele>643.74</ele>
        <time>2013-05-26T15:02:23Z</time>
      </trkpt>
      <trkpt lat="42.94365" lon="2.43513">
        <ele>637.49</ele>
        <time>2013-05-26T15:02:29Z</time>
      </trkpt>
      <trkpt lat="42.94345" lon="2.4364">
        <ele>631.24</ele>
        <time>2013-05-26T15:02:35Z</time>
      </trkpt>
      <trkpt lat="42.9432" lon="2.43762">
        <ele>628.36</ele>
        <time>2013-05-26T15:02:41Z</time>
      </trkpt>
      <trkpt lat="42.94278" lon="2.43891">
        <ele>619.71</ele>
        <time>2013-05-26T15:02:48Z</time>
      </trkpt>
      <trkpt lat="42.94285" lon="2.44024">
        <ele>616.34</ele>
        <time>2013-05-26T15:02:54Z</time>
      </trkpt>
      <trkpt lat="42.94298" lon="2.44166">
        <ele>610.57</ele>
        <time>2013-05-26T15:03:00Z</time>
      </trkpt>
      <trkpt lat="42.94306" lon="2.44305">
        <ele>606.25</ele>
        <time>2013-05-26T15:03:06Z</time>
      </trkpt>
      <trkpt lat="42.94333" lon="2.4443">
        <ele>599.04</ele>
        <time>2013-05-26T15:03:12Z</time>
      </trkpt>
      <trkpt lat="42.94332" lon="2.44541">
        <ele>596.64</ele>
        <time>2013-05-26T15:03:18Z</time>
      </trkpt>
      <trkpt lat="42.94302" lon="2.4466">
        <ele>587.98</ele>
        <time>2013-05-26T15:03:25Z</time>
      </trkpt>
      <trkpt lat="42.94331" lon="2.44769">
        <ele>584.14</ele>
        <time>2013-05-26T15:03:32Z</time>
      </trkpt>
      <trkpt lat="42.94339" lon="2.44897">
        <ele>577.89</ele>
        <time>2013-05-26T15:03:40Z</time>
      </trkpt>
      <trkpt lat="42.94339" lon="2.45025">
        <ele>572.6</ele>
        <time>2013-05-26T15:03:49Z</time>
      </trkpt>
      <trkpt lat="42.94315" lon="2.45147">
        <ele>566.35</ele>
        <time>2013-05-26T15:03:58Z</time>
      </trkpt>
      <trkpt lat="42.94376" lon="2.45252">
        <ele>562.51</ele>
        <time>2013-05-26T15:04:06Z</time>
      </trkpt>
      <trkpt lat="42.94424" lon="2.45371">
        <ele>557.22</ele>
        <time>2013-05-26T15:04:13Z</time>
      </trkpt>
      <trkpt lat="42.94446" lon="2.4549">
        <ele>553.38</ele>
        <time>2013-05-26T15:04:19Z</time>
      </trkpt>
      <trkpt lat="42.94411" lon="2.45629">
        <ele>547.13</ele>
        <time>2013-05-26T15:04:25Z</time>
      </trkpt>
      <trkpt lat="42.94381" lon="2.45745">
        <ele>542.8</ele>
        <time>2013-05-26T15:04:30Z</time>
      </trkpt>
      <trkpt lat="42.94338" lon="2.45876">
        <ele>536.55</ele>
        <time>2013-05-26T15:04:36Z</time>
      </trkpt>
      <trkpt lat="42.94299" lon="2.46002">
        <ele>528.38</ele>
        <time>2013-05-26T15:04:42Z</time>
      </trkpt>
      <trkpt lat="42.94345" lon="2.46125">
        <ele>525.5</ele>
        <time>2013-05-26T15:04:49Z</time>
      </trkpt>
      <trkpt lat="42.94361" lon="2.46239">
        <ele>524.06</ele>
        <time>2013-05-26T15:04:57Z</time>
      </trkpt>
      <trkpt lat="42.94381" lon="2.46347">
        <ele>522.61</ele>
        <time>2013-05-26T15:05:04Z</time>
      </trkpt>
      <trkpt lat="42.94424" lon="2.46455">
        <ele>519.25</ele>
        <time>2013-05-26T15:05:12Z</time>
      </trkpt>
      <trkpt lat="42.94422" lon="2.46583">
        <ele>518.29</ele>
        <time>2013-05-26T15:05:19Z</time>
      </trkpt>
      <trkpt lat="42.9438" lon="2.46712">
        <ele>515.4</ele>
        <time>2013-05-26T15:05:26Z</time>
      </trkpt>
      <trkpt lat="42.94401" lon="2.4684">
        <ele>513.96</ele>
        <time>2013-05-26T15:05:32Z</time>
      </trkpt>
      <trkpt lat="42.94429" lon="2.46975">
        <ele>510.6</ele>
        <time>2013-05-26T15:05:38Z</time>
      </trkpt>
      <trkpt lat="42.9444" lon="2.47101">
        <ele>508.19</ele>
        <time>2013-05-26T15:05:44Z</time>
      </trkpt>
      <trkpt lat="42.94441" lon="2.47221">
        <ele>502.91</ele>
        <time>2013-05-26T15:05:50Z</time>
      </trkpt>
      <trkpt lat="42.94464" lon="2.47343">
        <ele>500.98</ele>
        <time>2013-05-26T15:05:57Z</time>
      </trkpt>
      <trkpt lat="42.94455" lon="2.47477">
        <ele>496.18</ele>
        <time>2013-05-26T15:06:03Z</time>
      </trkpt>
      <trkpt lat="42.94457" lon="2.47621">
        <ele>491.37</ele>
        <time>2013-05-26T15:06:09Z</time>
      </trkpt>
      <trkpt lat="42.94479" lon="2.47752">
        <ele>484.16</ele>
        <time>2013-05-26T15:06:15Z</time>
      </trkpt>
      <trkpt lat="42.94546" lon="2.47839">
        <ele>479.35</ele>
        <time>2013-05-26T15:06:21Z</time>
      </trkpt>
      <trkpt lat="42.94626" lon="2.47915">
        <ele>475.03</ele>
        <time>2013-05-26T15:06:27Z</time>
      </trkpt>
      <trkpt lat="42.94706" lon="2.47982">
        <ele>467.82</ele>
        <time>2013-05-26T15:06:33Z</time>
      </trkpt>
      <trkpt lat="42.94796" lon="2.47979">
        <ele>465.9</ele>
        <time>2013-05-26T15:06:40Z</time>
      </trkpt>
      <trkpt lat="42.94853" lon="2.48007">
        <ele>458.21</ele>
        <time>2013-05-26T15:06:50Z</time>
      </trkpt>
      <trkpt lat="42.94825" lon="2.48128">
        <ele>452.44</ele>
        <time>2013-05-26T15:07:04Z</time>
      </trkpt>
      <trkpt lat="42.94937" lon="2.48171">
        <ele>446.19</ele>
        <time>2013-05-26T15:07:13Z</time>
      </trkpt>
      <trkpt lat="42.95053" lon="2.48161">
        <ele>440.9</ele>
        <time>2013-05-26T15:07:21Z</time>
      </trkpt>
      <trkpt lat="42.95135" lon="2.48061">
        <ele>439.94</ele>
        <time>2013-05-26T15:07:29Z</time>
      </trkpt>
      <trkpt lat="42.95222" lon="2.48025">
        <ele>435.13</ele>
        <time>2013-05-26T15:07:40Z</time>
      </trkpt>
      <trkpt lat="42.95306" lon="2.481">
        <ele>432.25</ele>
        <time>2013-05-26T15:07:48Z</time>
      </trkpt>
      <trkpt lat="42.95354" lon="2.48231">
        <ele>428.4</ele>
        <time>2013-05-26T15:07:55Z</time>
      </trkpt>
      <trkpt lat="42.95411" lon="2.48326">
        <ele>424.56</ele>
        <time>2013-05-26T15:08:01Z</time>
      </trkpt>
      <trkpt lat="42.95506" lon="2.48384">
        <ele>422.16</ele>
        <time>2013-05-26T15:08:08Z</time>
      </trkpt>
      <trkpt lat="42.95534" lon="2.48511">
        <ele>418.79</ele>
        <time>2013-05-26T15:08:15Z</time>
      </trkpt>
      <trkpt lat="42.95526" lon="2.48636">
        <ele>415.43</ele>
        <time>2013-05-26T15:08:21Z</time>
      </trkpt>
      <trkpt lat="42.95522" lon="2.48764">
        <ele>412.06</ele>
        <time>2013-05-26T15:08:27Z</time>
      </trkpt>
      <trkpt lat="42.9549" lon="2.48898">
        <ele>408.22</ele>
        <time>2013-05-26T15:08:34Z</time>
      </trkpt>
      <trkpt lat="42.95492" lon="2.49035">
        <ele>404.85</ele>
        <time>2013-05-26T15:08:40Z</time>
      </trkpt>
      <trkpt lat="42.95503" lon="2.49173">
        <ele>401.97</ele>
        <time>2013-05-26T15:08:46Z</time>
      </trkpt>
      <trkpt lat="42.95545" lon="2.4929">
        <ele>398.6</ele>
        <time>2013-05-26T15:08:53Z</time>
      </trkpt>
      <trkpt lat="42.95591" lon="2.49396">
        <ele>397.16</ele>
        <time>2013-05-26T15:09:01Z</time>
      </trkpt>
      <trkpt lat="42.95525" lon="2.49481">
        <ele>392.84</ele>
        <time>2013-05-26T15:09:12Z</time>
      </trkpt>
      <trkpt lat="42.95591" lon="2.49565">
        <ele>396.68</ele>
        <time>2013-05-26T15:09:22Z</time>
      </trkpt>
      <trkpt lat="42.95685" lon="2.49577">
        <ele>401.49</ele>
        <time>2013-05-26T15:09:30Z</time>
      </trkpt>
      <trkpt lat="42.95779" lon="2.49536">
        <ele>405.33</ele>
        <time>2013-05-26T15:09:38Z</time>
      </trkpt>
      <trkpt lat="42.95851" lon="2.49629">
        <ele>409.18</ele>
        <time>2013-05-26T15:09:47Z</time>
      </trkpt>
      <trkpt lat="42.9591" lon="2.49734">
        <ele>416.87</ele>
        <time>2013-05-26T15:09:55Z</time>
      </trkpt>
      <trkpt lat="42.95948" lon="2.49848">
        <ele>419.75</ele>
        <time>2013-05-26T15:10:02Z</time>
      </trkpt>
      <trkpt lat="42.95993" lon="2.49936">
        <ele>422.64</ele>
        <time>2013-05-26T15:10:11Z</time>
      </trkpt>
      <trkpt lat="42.95995" lon="2.50068">
        <ele>427.44</ele>
        <time>2013-05-26T15:10:20Z</time>
      </trkpt>
      <trkpt lat="42.95971" lon="2.50173">
        <ele>432.25</ele>
        <time>2013-05-26T15:10:29Z</time>
      </trkpt>
      <trkpt lat="42.95956" lon="2.50267">
        <ele>437.06</ele>
        <time>2013-05-26T15:10:38Z</time>
      </trkpt>
      <trkpt lat="42.95862" lon="2.50293">
        <ele>442.34</ele>
        <time>2013-05-26T15:10:46Z</time>
      </trkpt>
      <trkpt lat="42.95784" lon="2.50339">
        <ele>446.67</ele>
        <time>2013-05-26T15:10:53Z</time>
      </trkpt>
      <trkpt lat="42.95781" lon="2.50463">
        <ele>451.96</ele>
        <time>2013-05-26T15:11:00Z</time>
      </trkpt>
      <trkpt lat="42.95731" lon="2.5057">
        <ele>456.28</ele>
        <time>2013-05-26T15:11:07Z</time>
      </trkpt>
      <trkpt lat="42.95692" lon="2.50694">
        <ele>463.49</ele>
        <time>2013-05-26T15:11:14Z</time>
      </trkpt>
      <trkpt lat="42.95671" lon="2.50831">
        <ele>468.78</ele>
        <time>2013-05-26T15:11:21Z</time>
      </trkpt>
      <trkpt lat="42.95639" lon="2.50956">
        <ele>472.63</ele>
        <time>2013-05-26T15:11:29Z</time>
      </trkpt>
      <trkpt lat="42.957" lon="2.51054">
        <ele>479.84</ele>
        <time>2013-05-26T15:11:35Z</time>
      </trkpt>
      <trkpt lat="42.95672" lon="2.51127">
        <ele>483.2</ele>
        <time>2013-05-26T15:11:43Z</time>
      </trkpt>
      <trkpt lat="42.95622" lon="2.51174">
        <ele>489.93</ele>
        <time>2013-05-26T15:11:56Z</time>
      </trkpt>
      <trkpt lat="42.95624" lon="2.51327">
        <ele>496.18</ele>
        <time>2013-05-26T15:12:04Z</time>
      </trkpt>
      <trkpt lat="42.95597" lon="2.5145">
        <ele>500.02</ele>
        <time>2013-05-26T15:12:10Z</time>
      </trkpt>
      <trkpt lat="42.95592" lon="2.51571">
        <ele>503.39</ele>
        <time>2013-05-26T15:12:17Z</time>
      </trkpt>
      <trkpt lat="42.95642" lon="2.51676">
        <ele>510.12</ele>
        <time>2013-05-26T15:12:25Z</time>
      </trkpt>
      <trkpt lat="42.95619" lon="2.51798">
        <ele>514.44</ele>
        <time>2013-05-26T15:12:32Z</time>
      </trkpt>
      <trkpt lat="42.95649" lon="2.51917">
        <ele>519.73</ele>
        <time>2013-05-26T15:12:40Z</time>
      </trkpt>
      <trkpt lat="42.95653" lon="2.52044">
        <ele>524.54</ele>
        <time>2013-05-26T15:12:47Z</time>
      </trkpt>
      <trkpt lat="42.95677" lon="2.52177">
        <ele>531.75</ele>
        <time>2013-05-26T15:12:54Z</time>
      </trkpt>
      <trkpt lat="42.95719" lon="2.52291">
        <ele>534.63</ele>
        <time>2013-05-26T15:13:01Z</time>
      </trkpt>
      <trkpt lat="42.95727" lon="2.52426">
        <ele>541.36</ele>
        <time>2013-05-26T15:13:08Z</time>
      </trkpt>
      <trkpt lat="42.95777" lon="2.52534">
        <ele>546.17</ele>
        <time>2013-05-26T15:13:15Z</time>
      </trkpt>
      <trkpt lat="42.95832" lon="2.52635">
        <ele>550.97</ele>
        <time>2013-05-26T15:13:25Z</time>
      </trkpt>
      <trkpt lat="42.95896" lon="2.52712">
        <ele>557.22</ele>
        <time>2013-05-26T15:13:34Z</time>
      </trkpt>
      <trkpt lat="42.95961" lon="2.52793">
        <ele>562.03</ele>
        <time>2013-05-26T15:13:42Z</time>
      </trkpt>
      <trkpt lat="42.96003" lon="2.52916">
        <ele>562.51</ele>
        <time>2013-05-26T15:13:50Z</time>
      </trkpt>
      <trkpt lat="42.9601" lon="2.53041">
        <ele>562.99</ele>
        <time>2013-05-26T15:13:58Z</time>
      </trkpt>
      <trkpt lat="42.96013" lon="2.53166">
        <ele>561.55</ele>
        <time>2013-05-26T15:14:05Z</time>
      </trkpt>
      <trkpt lat="42.96018" lon="2.53299">
        <ele>566.35</ele>
        <time>2013-05-26T15:14:11Z</time>
      </trkpt>
      <trkpt lat="42.96021" lon="2.53431">
        <ele>570.2</ele>
        <time>2013-05-26T15:14:16Z</time>
      </trkpt>
      <trkpt lat="42.96027" lon="2.53572">
        <ele>576.93</ele>
        <time>2013-05-26T15:14:21Z</time>
      </trkpt>
      <trkpt lat="42.96033" lon="2.53723">
        <ele>580.77</ele>
        <time>2013-05-26T15:14:26Z</time>
      </trkpt>
      <trkpt lat="42.96038" lon="2.53877">
        <ele>581.25</ele>
        <time>2013-05-26T15:14:31Z</time>
      </trkpt>
      <trkpt lat="42.96043" lon="2.54029">
        <ele>586.54</ele>
        <time>2013-05-26T15:14:36Z</time>
      </trkpt>
      <trkpt lat="42.96047" lon="2.54169">
        <ele>587.98</ele>
        <time>2013-05-26T15:14:41Z</time>
      </trkpt>
      <trkpt lat="42.96045" lon="2.54302">
        <ele>587.98</ele>
        <time>2013-05-26T15:14:46Z</time>
      </trkpt>
      <trkpt lat="42.96042" lon="2.54445">
        <ele>583.18</ele>
        <time>2013-05-26T15:14:51Z</time>
      </trkpt>
      <trkpt lat="42.9605" lon="2.54592">
        <ele>576.45</ele>
        <time>2013-05-26T15:14:56Z</time>
      </trkpt>
      <trkpt lat="42.9608" lon="2.5472">
        <ele>571.64</ele>
        <time>2013-05-26T15:15:01Z</time>
      </trkpt>
      <trkpt lat="42.96136" lon="2.54841">
        <ele>565.39</ele>
        <time>2013-05-26T15:15:07Z</time>
      </trkpt>
      <trkpt lat="42.96162" lon="2.5496">
        <ele>560.59</ele>
        <time>2013-05-26T15:15:12Z</time>
      </trkpt>
      <trkpt lat="42.9619" lon="2.55088">
        <ele>554.34</ele>
        <time>2013-05-26T15:15:18Z</time>
      </trkpt>
      <trkpt lat="42.96223" lon="2.55206">
        <ele>551.93</ele>
        <time>2013-05-26T15:15:23Z</time>
      </trkpt>
      <trkpt lat="42.96239" lon="2.55325">
        <ele>544.72</ele>
        <time>2013-05-26T15:15:28Z</time>
      </trkpt>
      <trkpt lat="42.9622" lon="2.55459">
        <ele>538.48</ele>
        <time>2013-05-26T15:15:34Z</time>
      </trkpt>
      <trkpt lat="42.96226" lon="2.55593">
        <ele>534.15</ele>
        <time>2013-05-26T15:15:40Z</time>
      </trkpt>
      <trkpt lat="42.96182" lon="2.55706">
        <ele>529.34</ele>
        <time>2013-05-26T15:15:45Z</time>
      </trkpt>
      <trkpt lat="42.96141" lon="2.55819">
        <ele>525.02</ele>
        <time>2013-05-26T15:15:50Z</time>
      </trkpt>
      <trkpt lat="42.96091" lon="2.55929">
        <ele>520.21</ele>
        <time>2013-05-26T15:15:56Z</time>
      </trkpt>
      <trkpt lat="42.96092" lon="2.56066">
        <ele>514.44</ele>
        <time>2013-05-26T15:16:02Z</time>
      </trkpt>
      <trkpt lat="42.96085" lon="2.56187">
        <ele>508.19</ele>
        <time>2013-05-26T15:16:08Z</time>
      </trkpt>
      <trkpt lat="42.95998" lon="2.5626">
        <ele>497.62</ele>
        <time>2013-05-26T15:16:15Z</time>
      </trkpt>
      <trkpt lat="42.95899" lon="2.56274">
        <ele>496.18</ele>
        <time>2013-05-26T15:16:22Z</time>
      </trkpt>
      <trkpt lat="42.95808" lon="2.56286">
        <ele>488.49</ele>
        <time>2013-05-26T15:16:30Z</time>
      </trkpt>
      <trkpt lat="42.95721" lon="2.5631">
        <ele>484.16</ele>
        <time>2013-05-26T15:17:09Z</time>
      </trkpt>
      <trkpt lat="42.95629" lon="2.56344">
        <ele>483.2</ele>
        <time>2013-05-26T15:17:23Z</time>
      </trkpt>
      <trkpt lat="42.95565" lon="2.56427">
        <ele>478.87</ele>
        <time>2013-05-26T15:17:36Z</time>
      </trkpt>
      <trkpt lat="42.9559" lon="2.56539">
        <ele>478.39</ele>
        <time>2013-05-26T15:17:49Z</time>
      </trkpt>
      <trkpt lat="42.95631" lon="2.56652">
        <ele>476.95</ele>
        <time>2013-05-26T15:18:00Z</time>
      </trkpt>
      <trkpt lat="42.9577" lon="2.56737">
        <ele>473.59</ele>
        <time>2013-05-26T15:18:15Z</time>
      </trkpt>
      <trkpt lat="42.95802" lon="2.56854">
        <ele>471.66</ele>
        <time>2013-05-26T15:18:23Z</time>
      </trkpt>
      <trkpt lat="42.95855" lon="2.56955">
        <ele>471.66</ele>
        <time>2013-05-26T15:18:31Z</time>
      </trkpt>
      <trkpt lat="42.9593" lon="2.5705">
        <ele>470.22</ele>
        <time>2013-05-26T15:18:38Z</time>
      </trkpt>
      <trkpt lat="42.96005" lon="2.57145">
        <ele>469.74</ele>
        <time>2013-05-26T15:18:45Z</time>
      </trkpt>
      <trkpt lat="42.96087" lon="2.57109">
        <ele>468.3</ele>
        <time>2013-05-26T15:18:52Z</time>
      </trkpt>
      <trkpt lat="42.96173" lon="2.57056">
        <ele>467.34</ele>
        <time>2013-05-26T15:18:59Z</time>
      </trkpt>
      <trkpt lat="42.96231" lon="2.57161">
        <ele>465.9</ele>
        <time>2013-05-26T15:19:06Z</time>
      </trkpt>
      <trkpt lat="42.9627" lon="2.57285">
        <ele>463.97</ele>
        <time>2013-05-26T15:19:13Z</time>
      </trkpt>
      <trkpt lat="42.96309" lon="2.57414">
        <ele>461.57</ele>
        <time>2013-05-26T15:19:20Z</time>
      </trkpt>
      <trkpt lat="42.9636" lon="2.57526">
        <ele>463.01</ele>
        <time>2013-05-26T15:19:26Z</time>
      </trkpt>
      <trkpt lat="42.96391" lon="2.5765">
        <ele>462.05</ele>
        <time>2013-05-26T15:19:32Z</time>
      </trkpt>
      <trkpt lat="42.96441" lon="2.57748">
        <ele>465.9</ele>
        <time>2013-05-26T15:19:38Z</time>
      </trkpt>
      <trkpt lat="42.96489" lon="2.57852">
        <ele>467.82</ele>
        <time>2013-05-26T15:19:44Z</time>
      </trkpt>
      <trkpt lat="42.96558" lon="2.5793">
        <ele>474.55</ele>
        <time>2013-05-26T15:19:51Z</time>
      </trkpt>
      <trkpt lat="42.96633" lon="2.58001">
        <ele>475.99</ele>
        <time>2013-05-26T15:19:58Z</time>
      </trkpt>
      <trkpt lat="42.96694" lon="2.5809">
        <ele>478.87</ele>
        <time>2013-05-26T15:20:04Z</time>
      </trkpt>
      <trkpt lat="42.96777" lon="2.58137">
        <ele>483.2</ele>
        <time>2013-05-26T15:20:10Z</time>
      </trkpt>
      <trkpt lat="42.9687" lon="2.5812">
        <ele>485.6</ele>
        <time>2013-05-26T15:20:17Z</time>
      </trkpt>
      <trkpt lat="42.96948" lon="2.58096">
        <ele>491.85</ele>
        <time>2013-05-26T15:20:24Z</time>
      </trkpt>
      <trkpt lat="42.9704" lon="2.58093">
        <ele>494.26</ele>
        <time>2013-05-26T15:20:32Z</time>
      </trkpt>
      <trkpt lat="42.97133" lon="2.58118">
        <ele>497.14</ele>
        <time>2013-05-26T15:20:40Z</time>
      </trkpt>
      <trkpt lat="42.97228" lon="2.58086">
        <ele>501.95</ele>
        <time>2013-05-26T15:20:47Z</time>
      </trkpt>
      <trkpt lat="42.97317" lon="2.5806">
        <ele>506.27</ele>
        <time>2013-05-26T15:20:54Z</time>
      </trkpt>
      <trkpt lat="42.97401" lon="2.58132">
        <ele>507.71</ele>
        <time>2013-05-26T15:21:02Z</time>
      </trkpt>
      <trkpt lat="42.97496" lon="2.58151">
        <ele>504.35</ele>
        <time>2013-05-26T15:21:09Z</time>
      </trkpt>
      <trkpt lat="42.97575" lon="2.58204">
        <ele>500.02</ele>
        <time>2013-05-26T15:21:15Z</time>
      </trkpt>
      <trkpt lat="42.97637" lon="2.583">
        <ele>497.14</ele>
        <time>2013-05-26T15:21:21Z</time>
      </trkpt>
      <trkpt lat="42.977" lon="2.58407">
        <ele>491.85</ele>
        <time>2013-05-26T15:21:27Z</time>
      </trkpt>
      <trkpt lat="42.97769" lon="2.58511">
        <ele>484.16</ele>
        <time>2013-05-26T15:21:33Z</time>
      </trkpt>
      <trkpt lat="42.97842" lon="2.58586">
        <ele>479.84</ele>
        <time>2013-05-26T15:21:38Z</time>
      </trkpt>
      <trkpt lat="42.97914" lon="2.58661">
        <ele>477.91</ele>
        <time>2013-05-26T15:21:43Z</time>
      </trkpt>
      <trkpt lat="42.9798" lon="2.58748">
        <ele>472.63</ele>
        <time>2013-05-26T15:21:48Z</time>
      </trkpt>
      <trkpt lat="42.98019" lon="2.58869">
        <ele>470.22</ele>
        <time>2013-05-26T15:21:54Z</time>
      </trkpt>
      <trkpt lat="42.98067" lon="2.58977">
        <ele>460.61</ele>
        <time>2013-05-26T15:22:01Z</time>
      </trkpt>
      <trkpt lat="42.98137" lon="2.59055">
        <ele>459.17</ele>
        <time>2013-05-26T15:22:09Z</time>
      </trkpt>
      <trkpt lat="42.98132" lon="2.59193">
        <ele>453.4</ele>
        <time>2013-05-26T15:22:16Z</time>
      </trkpt>
      <trkpt lat="42.98123" lon="2.5933">
        <ele>448.11</ele>
        <time>2013-05-26T15:22:23Z</time>
      </trkpt>
      <trkpt lat="42.98155" lon="2.59453">
        <ele>443.31</ele>
        <time>2013-05-26T15:22:29Z</time>
      </trkpt>
      <trkpt lat="42.98213" lon="2.59562">
        <ele>438.5</ele>
        <time>2013-05-26T15:22:35Z</time>
      </trkpt>
      <trkpt lat="42.98265" lon="2.5968">
        <ele>433.69</ele>
        <time>2013-05-26T15:22:41Z</time>
      </trkpt>
      <trkpt lat="42.98263" lon="2.59819">
        <ele>429.37</ele>
        <time>2013-05-26T15:22:47Z</time>
      </trkpt>
      <trkpt lat="42.98277" lon="2.59959">
        <ele>423.6</ele>
        <time>2013-05-26T15:22:53Z</time>
      </trkpt>
      <trkpt lat="42.98333" lon="2.60082">
        <ele>419.27</ele>
        <time>2013-05-26T15:22:59Z</time>
      </trkpt>
      <trkpt lat="42.98328" lon="2.60203">
        <ele>414.47</ele>
        <time>2013-05-26T15:23:05Z</time>
      </trkpt>
      <trkpt lat="42.98285" lon="2.60327">
        <ele>409.18</ele>
        <time>2013-05-26T15:23:11Z</time>
      </trkpt>
      <trkpt lat="42.98287" lon="2.60454">
        <ele>402.45</ele>
        <time>2013-05-26T15:23:18Z</time>
      </trkpt>
      <trkpt lat="42.98241" lon="2.6056">
        <ele>399.08</ele>
        <time>2013-05-26T15:23:24Z</time>
      </trkpt>
      <trkpt lat="42.98229" lon="2.60696">
        <ele>392.84</ele>
        <time>2013-05-26T15:23:31Z</time>
      </trkpt>
      <trkpt lat="42.9828" lon="2.60813">
        <ele>386.59</ele>
        <time>2013-05-26T15:23:38Z</time>
      </trkpt>
      <trkpt lat="42.98368" lon="2.6086">
        <ele>382.26</ele>
        <time>2013-05-26T15:23:45Z</time>
      </trkpt>
      <trkpt lat="42.98445" lon="2.60929">
        <ele>376.01</ele>
        <time>2013-05-26T15:23:52Z</time>
      </trkpt>
      <trkpt lat="42.98544" lon="2.60939">
        <ele>373.13</ele>
        <time>2013-05-26T15:23:59Z</time>
      </trkpt>
      <trkpt lat="42.98613" lon="2.61027">
        <ele>366.88</ele>
        <time>2013-05-26T15:24:06Z</time>
      </trkpt>
      <trkpt lat="42.98663" lon="2.61135">
        <ele>362.55</ele>
        <time>2013-05-26T15:24:15Z</time>
      </trkpt>
      <trkpt lat="42.9871" lon="2.6124">
        <ele>358.23</ele>
        <time>2013-05-26T15:24:23Z</time>
      </trkpt>
      <trkpt lat="42.98762" lon="2.61354">
        <ele>354.38</ele>
        <time>2013-05-26T15:24:32Z</time>
      </trkpt>
      <trkpt lat="42.98829" lon="2.61445">
        <ele>351.02</ele>
        <time>2013-05-26T15:24:45Z</time>
      </trkpt>
      <trkpt lat="42.98906" lon="2.61523">
        <ele>348.62</ele>
        <time>2013-05-26T15:24:58Z</time>
      </trkpt>
      <trkpt lat="42.98988" lon="2.61537">
        <ele>351.02</ele>
        <time>2013-05-26T15:25:10Z</time>
      </trkpt>
      <trkpt lat="42.99068" lon="2.61573">
        <ele>352.46</ele>
        <time>2013-05-26T15:25:19Z</time>
      </trkpt>
      <trkpt lat="42.9911" lon="2.61695">
        <ele>357.75</ele>
        <time>2013-05-26T15:25:26Z</time>
      </trkpt>
      <trkpt lat="42.99125" lon="2.61824">
        <ele>363.52</ele>
        <time>2013-05-26T15:25:32Z</time>
      </trkpt>
      <trkpt lat="42.99145" lon="2.61956">
        <ele>367.84</ele>
        <time>2013-05-26T15:25:38Z</time>
      </trkpt>
      <trkpt lat="42.99171" lon="2.62081">
        <ele>373.61</ele>
        <time>2013-05-26T15:25:44Z</time>
      </trkpt>
      <trkpt lat="42.99245" lon="2.62153">
        <ele>376.97</ele>
        <time>2013-05-26T15:25:50Z</time>
      </trkpt>
      <trkpt lat="42.9934" lon="2.62175">
        <ele>382.74</ele>
        <time>2013-05-26T15:25:56Z</time>
      </trkpt>
      <trkpt lat="42.99438" lon="2.622">
        <ele>388.51</ele>
        <time>2013-05-26T15:26:02Z</time>
      </trkpt>
      <trkpt lat="42.99534" lon="2.62191">
        <ele>394.28</ele>
        <time>2013-05-26T15:26:08Z</time>
      </trkpt>
      <trkpt lat="42.99592" lon="2.62285">
        <ele>393.8</ele>
        <time>2013-05-26T15:26:15Z</time>
      </trkpt>
      <trkpt lat="42.99657" lon="2.62374">
        <ele>388.99</ele>
        <time>2013-05-26T15:26:22Z</time>
      </trkpt>
      <trkpt lat="42.99741" lon="2.62451">
        <ele>381.78</ele>
        <time>2013-05-26T15:26:29Z</time>
      </trkpt>
      <trkpt lat="42.9982" lon="2.62512">
        <ele>375.53</ele>
        <time>2013-05-26T15:26:35Z</time>
      </trkpt>
      <trkpt lat="42.99916" lon="2.62492">
        <ele>368.32</ele>
        <time>2013-05-26T15:26:41Z</time>
      </trkpt>
      <trkpt lat="43.00016" lon="2.6246">
        <ele>361.11</ele>
        <time>2013-05-26T15:26:47Z</time>
      </trkpt>
      <trkpt lat="43.00114" lon="2.62458">
        <ele>353.9</ele>
        <time>2013-05-26T15:26:54Z</time>
      </trkpt>
      <trkpt lat="43.00166" lon="2.62561">
        <ele>352.94</ele>
        <time>2013-05-26T15:27:03Z</time>
      </trkpt>
      <trkpt lat="43.00264" lon="2.62583">
        <ele>352.46</ele>
        <time>2013-05-26T15:27:11Z</time>
      </trkpt>
      <trkpt lat="43.00361" lon="2.62543">
        <ele>353.9</ele>
        <time>2013-05-26T15:27:19Z</time>
      </trkpt>
      <trkpt lat="43.00446" lon="2.62573">
        <ele>352.94</ele>
        <time>2013-05-26T15:27:26Z</time>
      </trkpt>
      <trkpt lat="43.00506" lon="2.62667">
        <ele>351.98</ele>
        <time>2013-05-26T15:27:35Z</time>
      </trkpt>
      <trkpt lat="43.00551" lon="2.62784">
        <ele>351.5</ele>
        <time>2013-05-26T15:27:46Z</time>
      </trkpt>
      <trkpt lat="43.00617" lon="2.62864">
        <ele>348.62</ele>
        <time>2013-05-26T15:27:56Z</time>
      </trkpt>
      <trkpt lat="43.0066" lon="2.62979">
        <ele>349.58</ele>
        <time>2013-05-26T15:28:06Z</time>
      </trkpt>
      <trkpt lat="43.00682" lon="2.63099">
        <ele>349.58</ele>
        <time>2013-05-26T15:28:15Z</time>
      </trkpt>
      <trkpt lat="43.007" lon="2.63235">
        <ele>354.38</ele>
        <time>2013-05-26T15:28:24Z</time>
      </trkpt>
      <trkpt lat="43.00734" lon="2.63354">
        <ele>359.67</ele>
        <time>2013-05-26T15:28:31Z</time>
      </trkpt>
      <trkpt lat="43.00772" lon="2.63476">
        <ele>363.52</ele>
        <time>2013-05-26T15:28:38Z</time>
      </trkpt>
      <trkpt lat="43.00828" lon="2.63577">
        <ele>374.09</ele>
        <time>2013-05-26T15:28:44Z</time>
      </trkpt>
      <trkpt lat="43.00891" lon="2.63666">
        <ele>375.05</ele>
        <time>2013-05-26T15:28:50Z</time>
      </trkpt>
      <trkpt lat="43.00983" lon="2.63657">
        <ele>382.26</ele>
        <time>2013-05-26T15:28:56Z</time>
      </trkpt>
      <trkpt lat="43.01063" lon="2.63582">
        <ele>388.51</ele>
        <time>2013-05-26T15:29:02Z</time>
      </trkpt>
      <trkpt lat="43.01167" lon="2.63541">
        <ele>394.76</ele>
        <time>2013-05-26T15:29:08Z</time>
      </trkpt>
      <trkpt lat="43.01268" lon="2.63503">
        <ele>399.57</ele>
        <time>2013-05-26T15:29:14Z</time>
      </trkpt>
      <trkpt lat="43.01329" lon="2.63407">
        <ele>404.37</ele>
        <time>2013-05-26T15:29:20Z</time>
      </trkpt>
      <trkpt lat="43.01377" lon="2.63297">
        <ele>410.14</ele>
        <time>2013-05-26T15:29:26Z</time>
      </trkpt>
      <trkpt lat="43.01463" lon="2.63315">
        <ele>415.43</ele>
        <time>2013-05-26T15:29:32Z</time>
      </trkpt>
      <trkpt lat="43.01555" lon="2.63361">
        <ele>421.68</ele>
        <time>2013-05-26T15:29:38Z</time>
      </trkpt>
      <trkpt lat="43.01612" lon="2.63454">
        <ele>421.19</ele>
        <time>2013-05-26T15:29:45Z</time>
      </trkpt>
      <trkpt lat="43.01657" lon="2.63555">
        <ele>417.35</ele>
        <time>2013-05-26T15:29:52Z</time>
      </trkpt>
      <trkpt lat="43.01746" lon="2.63531">
        <ele>413.98</ele>
        <time>2013-05-26T15:30:00Z</time>
      </trkpt>
      <trkpt lat="43.01825" lon="2.63483">
        <ele>408.7</ele>
        <time>2013-05-26T15:30:08Z</time>
      </trkpt>
      <trkpt lat="43.01889" lon="2.63574">
        <ele>405.81</ele>
        <time>2013-05-26T15:30:15Z</time>
      </trkpt>
      <trkpt lat="43.0189" lon="2.63693">
        <ele>404.85</ele>
        <time>2013-05-26T15:30:23Z</time>
      </trkpt>
      <trkpt lat="43.01849" lon="2.63809">
        <ele>402.93</ele>
        <time>2013-05-26T15:30:30Z</time>
      </trkpt>
      <trkpt lat="43.01923" lon="2.63895">
        <ele>399.57</ele>
        <time>2013-05-26T15:30:37Z</time>
      </trkpt>
      <trkpt lat="43.02026" lon="2.63908">
        <ele>398.12</ele>
        <time>2013-05-26T15:30:44Z</time>
      </trkpt>
      <trkpt lat="43.02114" lon="2.63882">
        <ele>393.8</ele>
        <time>2013-05-26T15:30:50Z</time>
      </trkpt>
      <trkpt lat="43.02193" lon="2.63812">
        <ele>393.8</ele>
        <time>2013-05-26T15:30:56Z</time>
      </trkpt>
      <trkpt lat="43.02277" lon="2.63751">
        <ele>389.47</ele>
        <time>2013-05-26T15:31:02Z</time>
      </trkpt>
      <trkpt lat="43.0235" lon="2.63676">
        <ele>389.95</ele>
        <time>2013-05-26T15:31:08Z</time>
      </trkpt>
      <trkpt lat="43.02353" lon="2.63547">
        <ele>381.78</ele>
        <time>2013-05-26T15:31:16Z</time>
      </trkpt>
      <trkpt lat="43.02424" lon="2.63455">
        <ele>379.86</ele>
        <time>2013-05-26T15:31:24Z</time>
      </trkpt>
      <trkpt lat="43.02464" lon="2.63338">
        <ele>376.49</ele>
        <time>2013-05-26T15:31:30Z</time>
      </trkpt>
      <trkpt lat="43.02505" lon="2.63223">
        <ele>373.13</ele>
        <time>2013-05-26T15:31:36Z</time>
      </trkpt>
      <trkpt lat="43.02578" lon="2.6315">
        <ele>368.32</ele>
        <time>2013-05-26T15:31:42Z</time>
      </trkpt>
      <trkpt lat="43.02662" lon="2.63192">
        <ele>360.15</ele>
        <time>2013-05-26T15:31:48Z</time>
      </trkpt>
      <trkpt lat="43.02749" lon="2.63224">
        <ele>357.27</ele>
        <time>2013-05-26T15:31:55Z</time>
      </trkpt>
      <trkpt lat="43.02807" lon="2.63314">
        <ele>353.42</ele>
        <time>2013-05-26T15:32:02Z</time>
      </trkpt>
      <trkpt lat="43.02823" lon="2.63442">
        <ele>349.1</ele>
        <time>2013-05-26T15:32:09Z</time>
      </trkpt>
      <trkpt lat="43.02878" lon="2.6356">
        <ele>346.69</ele>
        <time>2013-05-26T15:32:16Z</time>
      </trkpt>
      <trkpt lat="43.02922" lon="2.63677">
        <ele>343.81</ele>
        <time>2013-05-26T15:32:23Z</time>
      </trkpt>
      <trkpt lat="43.03003" lon="2.63736">
        <ele>338.52</ele>
        <time>2013-05-26T15:32:29Z</time>
      </trkpt>
      <trkpt lat="43.03081" lon="2.63814">
        <ele>335.64</ele>
        <time>2013-05-26T15:32:35Z</time>
      </trkpt>
      <trkpt lat="43.03156" lon="2.63892">
        <ele>332.75</ele>
        <time>2013-05-26T15:32:41Z</time>
      </trkpt>
      <trkpt lat="43.03217" lon="2.63987">
        <ele>329.39</ele>
        <time>2013-05-26T15:32:48Z</time>
      </trkpt>
      <trkpt lat="43.03305" lon="2.64025">
        <ele>327.47</ele>
        <time>2013-05-26T15:32:55Z</time>
      </trkpt>
      <trkpt lat="43.03387" lon="2.6408">
        <ele>324.58</ele>
        <time>2013-05-26T15:33:01Z</time>
      </trkpt>
      <trkpt lat="43.03484" lon="2.64114">
        <ele>322.18</ele>
        <time>2013-05-26T15:33:07Z</time>
      </trkpt>
      <trkpt lat="43.03574" lon="2.64156">
        <ele>316.89</ele>
        <time>2013-05-26T15:33:13Z</time>
      </trkpt>
      <trkpt lat="43.03649" lon="2.64223">
        <ele>314.97</ele>
        <time>2013-05-26T15:33:20Z</time>
      </trkpt>
      <trkpt lat="43.03732" lon="2.6427">
        <ele>308.24</ele>
        <time>2013-05-26T15:33:28Z</time>
      </trkpt>
      <trkpt lat="43.03804" lon="2.64354">
        <ele>308.72</ele>
        <time>2013-05-26T15:33:37Z</time>
      </trkpt>
      <trkpt lat="43.03884" lon="2.64347">
        <ele>306.8</ele>
        <time>2013-05-26T15:33:50Z</time>
      </trkpt>
      <trkpt lat="43.03979" lon="2.64348">
        <ele>309.68</ele>
        <time>2013-05-26T15:33:59Z</time>
      </trkpt>
      <trkpt lat="43.04065" lon="2.64282">
        <ele>314.97</ele>
        <time>2013-05-26T15:34:06Z</time>
      </trkpt>
      <trkpt lat="43.0411" lon="2.64159">
        <ele>313.05</ele>
        <time>2013-05-26T15:34:13Z</time>
      </trkpt>
      <trkpt lat="43.04181" lon="2.64081">
        <ele>313.53</ele>
        <time>2013-05-26T15:34:19Z</time>
      </trkpt>
      <trkpt lat="43.04268" lon="2.64028">
        <ele>309.68</ele>
        <time>2013-05-26T15:34:25Z</time>
      </trkpt>
      <trkpt lat="43.0432" lon="2.63928">
        <ele>308.72</ele>
        <time>2013-05-26T15:34:31Z</time>
      </trkpt>
      <trkpt lat="43.04418" lon="2.63892">
        <ele>310.16</ele>
        <time>2013-05-26T15:34:37Z</time>
      </trkpt>
      <trkpt lat="43.04518" lon="2.63872">
        <ele>302.95</ele>
        <time>2013-05-26T15:34:43Z</time>
      </trkpt>
      <trkpt lat="43.04613" lon="2.63837">
        <ele>300.07</ele>
        <time>2013-05-26T15:34:49Z</time>
      </trkpt>
      <trkpt lat="43.0467" lon="2.63724">
        <ele>300.07</ele>
        <time>2013-05-26T15:34:55Z</time>
      </trkpt>
      <trkpt lat="43.04756" lon="2.63648">
        <ele>295.74</ele>
        <time>2013-05-26T15:35:01Z</time>
      </trkpt>
      <trkpt lat="43.04843" lon="2.63573">
        <ele>296.22</ele>
        <time>2013-05-26T15:35:07Z</time>
      </trkpt>
      <trkpt lat="43.04939" lon="2.63524">
        <ele>290.94</ele>
        <time>2013-05-26T15:35:13Z</time>
      </trkpt>
      <trkpt lat="43.05037" lon="2.63492">
        <ele>287.09</ele>
        <time>2013-05-26T15:35:19Z</time>
      </trkpt>
      <trkpt lat="43.05122" lon="2.63548">
        <ele>283.73</ele>
        <time>2013-05-26T15:35:25Z</time>
      </trkpt>
      <trkpt lat="43.05204" lon="2.63551">
        <ele>278.92</ele>
        <time>2013-05-26T15:35:32Z</time>
      </trkpt>
      <trkpt lat="43.05289" lon="2.63548">
        <ele>274.11</ele>
        <time>2013-05-26T15:35:40Z</time>
      </trkpt>
      <trkpt lat="43.05356" lon="2.63482">
        <ele>269.79</ele>
        <time>2013-05-26T15:35:49Z</time>
      </trkpt>
      <trkpt lat="43.05396" lon="2.63363">
        <ele>267.86</ele>
        <time>2013-05-26T15:35:56Z</time>
      </trkpt>
      <trkpt lat="43.05445" lon="2.63253">
        <ele>264.98</ele>
        <time>2013-05-26T15:36:02Z</time>
      </trkpt>
      <trkpt lat="43.05532" lon="2.63177">
        <ele>261.62</ele>
        <time>2013-05-26T15:36:08Z</time>
      </trkpt>
      <trkpt lat="43.05605" lon="2.63082">
        <ele>253.93</ele>
        <time>2013-05-26T15:36:15Z</time>
      </trkpt>
      <trkpt lat="43.05678" lon="2.63063">
        <ele>251.52</ele>
        <time>2013-05-26T15:36:24Z</time>
      </trkpt>
      <trkpt lat="43.0575" lon="2.62988">
        <ele>247.2</ele>
        <time>2013-05-26T15:36:31Z</time>
      </trkpt>
      <trkpt lat="43.05795" lon="2.6288">
        <ele>244.79</ele>
        <time>2013-05-26T15:36:37Z</time>
      </trkpt>
      <trkpt lat="43.05822" lon="2.62758">
        <ele>240.95</ele>
        <time>2013-05-26T15:36:43Z</time>
      </trkpt>
      <trkpt lat="43.0582" lon="2.62622">
        <ele>236.62</ele>
        <time>2013-05-26T15:36:49Z</time>
      </trkpt>
      <trkpt lat="43.05831" lon="2.62506">
        <ele>231.33</ele>
        <time>2013-05-26T15:36:56Z</time>
      </trkpt>
      <trkpt lat="43.05923" lon="2.62444">
        <ele>227.01</ele>
        <time>2013-05-26T15:37:03Z</time>
      </trkpt>
      <trkpt lat="43.05957" lon="2.62321">
        <ele>224.61</ele>
        <time>2013-05-26T15:37:10Z</time>
      </trkpt>
      <trkpt lat="43.06012" lon="2.62214">
        <ele>217.4</ele>
        <time>2013-05-26T15:37:17Z</time>
      </trkpt>
      <trkpt lat="43.06089" lon="2.6215">
        <ele>217.88</ele>
        <time>2013-05-26T15:37:24Z</time>
      </trkpt>
      <trkpt lat="43.06115" lon="2.62029">
        <ele>212.59</ele>
        <time>2013-05-26T15:37:30Z</time>
      </trkpt>
      <trkpt lat="43.06133" lon="2.619">
        <ele>208.26</ele>
        <time>2013-05-26T15:37:36Z</time>
      </trkpt>
      <trkpt lat="43.06117" lon="2.61774">
        <ele>205.38</ele>
        <time>2013-05-26T15:37:43Z</time>
      </trkpt>
      <trkpt lat="43.06174" lon="2.61687">
        <ele>202.01</ele>
        <time>2013-05-26T15:37:51Z</time>
      </trkpt>
      <trkpt lat="43.06211" lon="2.61569">
        <ele>197.21</ele>
        <time>2013-05-26T15:37:57Z</time>
      </trkpt>
      <trkpt lat="43.06264" lon="2.61454">
        <ele>193.84</ele>
        <time>2013-05-26T15:38:03Z</time>
      </trkpt>
      <trkpt lat="43.06325" lon="2.61352">
        <ele>192.4</ele>
        <time>2013-05-26T15:38:08Z</time>
      </trkpt>
      <trkpt lat="43.06383" lon="2.61251">
        <ele>186.15</ele>
        <time>2013-05-26T15:38:13Z</time>
      </trkpt>
      <trkpt lat="43.06441" lon="2.61143">
        <ele>180.38</ele>
        <time>2013-05-26T15:38:19Z</time>
      </trkpt>
      <trkpt lat="43.06475" lon="2.61021">
        <ele>176.06</ele>
        <time>2013-05-26T15:38:25Z</time>
      </trkpt>
      <trkpt lat="43.06545" lon="2.60945">
        <ele>172.69</ele>
        <time>2013-05-26T15:38:32Z</time>
      </trkpt>
      <trkpt lat="43.0661" lon="2.6087">
        <ele>167.41</ele>
        <time>2013-05-26T15:38:41Z</time>
      </trkpt>
      <trkpt lat="43.06688" lon="2.60852">
        <ele>166.93</ele>
        <time>2013-05-26T15:38:55Z</time>
      </trkpt>
      <trkpt lat="43.06777" lon="2.60835">
        <ele>165</ele>
        <time>2013-05-26T15:39:03Z</time>
      </trkpt>
      <trkpt lat="43.06863" lon="2.608">
        <ele>165</ele>
        <time>2013-05-26T15:39:10Z</time>
      </trkpt>
      <trkpt lat="43.06932" lon="2.60881">
        <ele>163.56</ele>
        <time>2013-05-26T15:39:17Z</time>
      </trkpt>
      <trkpt lat="43.07006" lon="2.60955">
        <ele>165.48</ele>
        <time>2013-05-26T15:39:23Z</time>
      </trkpt>
      <trkpt lat="43.07086" lon="2.61034">
        <ele>163.56</ele>
        <time>2013-05-26T15:39:30Z</time>
      </trkpt>
      <trkpt lat="43.07179" lon="2.6106">
        <ele>160.68</ele>
        <time>2013-05-26T15:39:38Z</time>
      </trkpt>
      <trkpt lat="43.07279" lon="2.61026">
        <ele>161.64</ele>
        <time>2013-05-26T15:39:45Z</time>
      </trkpt>
      <trkpt lat="43.07341" lon="2.60926">
        <ele>157.79</ele>
        <time>2013-05-26T15:39:51Z</time>
      </trkpt>
      <trkpt lat="43.07352" lon="2.60789">
        <ele>157.79</ele>
        <time>2013-05-26T15:39:57Z</time>
      </trkpt>
      <trkpt lat="43.0737" lon="2.60669">
        <ele>157.31</ele>
        <time>2013-05-26T15:40:03Z</time>
      </trkpt>
      <trkpt lat="43.07444" lon="2.60584">
        <ele>155.39</ele>
        <time>2013-05-26T15:40:09Z</time>
      </trkpt>
      <trkpt lat="43.07531" lon="2.60507">
        <ele>156.35</ele>
        <time>2013-05-26T15:40:15Z</time>
      </trkpt>
      <trkpt lat="43.07613" lon="2.60436">
        <ele>155.39</ele>
        <time>2013-05-26T15:40:21Z</time>
      </trkpt>
      <trkpt lat="43.07697" lon="2.60439">
        <ele>154.91</ele>
        <time>2013-05-26T15:40:27Z</time>
      </trkpt>
      <trkpt lat="43.07759" lon="2.60551">
        <ele>154.43</ele>
        <time>2013-05-26T15:40:33Z</time>
      </trkpt>
      <trkpt lat="43.07815" lon="2.60663">
        <ele>153.95</ele>
        <time>2013-05-26T15:40:39Z</time>
      </trkpt>
      <trkpt lat="43.07848" lon="2.60793">
        <ele>152.51</ele>
        <time>2013-05-26T15:40:45Z</time>
      </trkpt>
      <trkpt lat="43.07869" lon="2.60938">
        <ele>153.47</ele>
        <time>2013-05-26T15:40:51Z</time>
      </trkpt>
      <trkpt lat="43.07904" lon="2.61051">
        <ele>155.39</ele>
        <time>2013-05-26T15:40:56Z</time>
      </trkpt>
      <trkpt lat="43.07958" lon="2.61162">
        <ele>156.35</ele>
        <time>2013-05-26T15:41:02Z</time>
      </trkpt>
      <trkpt lat="43.08013" lon="2.61262">
        <ele>156.35</ele>
        <time>2013-05-26T15:41:09Z</time>
      </trkpt>
      <trkpt lat="43.08102" lon="2.61301">
        <ele>156.35</ele>
        <time>2013-05-26T15:41:16Z</time>
      </trkpt>
      <trkpt lat="43.08155" lon="2.61413">
        <ele>155.87</ele>
        <time>2013-05-26T15:41:25Z</time>
      </trkpt>
      <trkpt lat="43.08234" lon="2.61486">
        <ele>156.35</ele>
        <time>2013-05-26T15:41:33Z</time>
      </trkpt>
      <trkpt lat="43.08323" lon="2.61551">
        <ele>154.91</ele>
        <time>2013-05-26T15:41:41Z</time>
      </trkpt>
      <trkpt lat="43.08408" lon="2.61626">
        <ele>154.91</ele>
        <time>2013-05-26T15:41:49Z</time>
      </trkpt>
      <trkpt lat="43.08474" lon="2.61718">
        <ele>154.91</ele>
        <time>2013-05-26T15:41:56Z</time>
      </trkpt>
      <trkpt lat="43.08549" lon="2.61789">
        <ele>153.95</ele>
        <time>2013-05-26T15:42:03Z</time>
      </trkpt>
      <trkpt lat="43.08633" lon="2.61839">
        <ele>153.95</ele>
        <time>2013-05-26T15:42:10Z</time>
      </trkpt>
      <trkpt lat="43.08719" lon="2.61886">
        <ele>154.43</ele>
        <time>2013-05-26T15:42:17Z</time>
      </trkpt>
      <trkpt lat="43.08813" lon="2.61912">
        <ele>153.95</ele>
        <time>2013-05-26T15:42:26Z</time>
      </trkpt>
      <trkpt lat="43.08894" lon="2.61974">
        <ele>152.03</ele>
        <time>2013-05-26T15:42:38Z</time>
      </trkpt>
      <trkpt lat="43.0897" lon="2.62041">
        <ele>148.18</ele>
        <time>2013-05-26T15:42:55Z</time>
      </trkpt>
      <trkpt lat="43.09062" lon="2.6207">
        <ele>135.68</ele>
        <time>2013-05-26T15:58:32Z</time>
      </trkpt>
      <trkpt lat="43.09154" lon="2.62091">
        <ele>134.24</ele>
        <time>2013-05-26T15:58:43Z</time>
      </trkpt>
      <trkpt lat="43.09239" lon="2.62027">
        <ele>133.76</ele>
        <time>2013-05-26T15:58:53Z</time>
      </trkpt>
      <trkpt lat="43.09294" lon="2.6192">
        <ele>135.2</ele>
        <time>2013-05-26T15:59:04Z</time>
      </trkpt>
      <trkpt lat="43.09303" lon="2.61793">
        <ele>133.28</ele>
        <time>2013-05-26T15:59:17Z</time>
      </trkpt>
      <trkpt lat="43.09259" lon="2.61671">
        <ele>132.32</ele>
        <time>2013-05-26T15:59:26Z</time>
      </trkpt>
      <trkpt lat="43.09216" lon="2.61539">
        <ele>127.51</ele>
        <time>2013-05-26T15:59:33Z</time>
      </trkpt>
      <trkpt lat="43.09174" lon="2.61408">
        <ele>128.47</ele>
        <time>2013-05-26T15:59:39Z</time>
      </trkpt>
      <trkpt lat="43.09136" lon="2.61276">
        <ele>125.59</ele>
        <time>2013-05-26T15:59:45Z</time>
      </trkpt>
      <trkpt lat="43.0913" lon="2.61135">
        <ele>127.03</ele>
        <time>2013-05-26T15:59:51Z</time>
      </trkpt>
      <trkpt lat="43.09172" lon="2.61018">
        <ele>125.11</ele>
        <time>2013-05-26T15:59:58Z</time>
      </trkpt>
      <trkpt lat="43.09244" lon="2.60937">
        <ele>125.11</ele>
        <time>2013-05-26T16:00:04Z</time>
      </trkpt>
      <trkpt lat="43.09317" lon="2.60841">
        <ele>124.15</ele>
        <time>2013-05-26T16:00:10Z</time>
      </trkpt>
      <trkpt lat="43.0939" lon="2.60765">
        <ele>122.71</ele>
        <time>2013-05-26T16:00:15Z</time>
      </trkpt>
      <trkpt lat="43.09475" lon="2.60675">
        <ele>123.19</ele>
        <time>2013-05-26T16:00:21Z</time>
      </trkpt>
      <trkpt lat="43.09546" lon="2.60592">
        <ele>124.63</ele>
        <time>2013-05-26T16:00:28Z</time>
      </trkpt>
      <trkpt lat="43.09512" lon="2.60476">
        <ele>125.59</ele>
        <time>2013-05-26T16:00:35Z</time>
      </trkpt>
      <trkpt lat="43.09473" lon="2.60356">
        <ele>127.51</ele>
        <time>2013-05-26T16:00:41Z</time>
      </trkpt>
      <trkpt lat="43.09466" lon="2.60208">
        <ele>128.47</ele>
        <time>2013-05-26T16:00:47Z</time>
      </trkpt>
      <trkpt lat="43.09464" lon="2.60083">
        <ele>128.47</ele>
        <time>2013-05-26T16:00:52Z</time>
      </trkpt>
      <trkpt lat="43.09449" lon="2.59965">
        <ele>127.03</ele>
        <time>2013-05-26T16:00:58Z</time>
      </trkpt>
      <trkpt lat="43.09365" lon="2.59904">
        <ele>127.03</ele>
        <time>2013-05-26T16:01:06Z</time>
      </trkpt>
      <trkpt lat="43.09313" lon="2.60014">
        <ele>128.95</ele>
        <time>2013-05-26T16:01:13Z</time>
      </trkpt>
      <trkpt lat="43.09263" lon="2.60118">
        <ele>131.84</ele>
        <time>2013-05-26T16:01:20Z</time>
      </trkpt>
      <trkpt lat="43.09163" lon="2.60111">
        <ele>133.28</ele>
        <time>2013-05-26T16:01:27Z</time>
      </trkpt>
      <trkpt lat="43.09095" lon="2.60015">
        <ele>132.8</ele>
        <time>2013-05-26T16:01:34Z</time>
      </trkpt>
      <trkpt lat="43.09132" lon="2.59892">
        <ele>133.76</ele>
        <time>2013-05-26T16:01:40Z</time>
      </trkpt>
      <trkpt lat="43.09206" lon="2.59804">
        <ele>133.76</ele>
        <time>2013-05-26T16:01:46Z</time>
      </trkpt>
      <trkpt lat="43.09279" lon="2.59712">
        <ele>134.72</ele>
        <time>2013-05-26T16:01:52Z</time>
      </trkpt>
      <trkpt lat="43.09305" lon="2.59588">
        <ele>133.76</ele>
        <time>2013-05-26T16:01:59Z</time>
      </trkpt>
      <trkpt lat="43.09218" lon="2.59543">
        <ele>136.16</ele>
        <time>2013-05-26T16:02:06Z</time>
      </trkpt>
      <trkpt lat="43.09175" lon="2.59444">
        <ele>136.16</ele>
        <time>2013-05-26T16:02:14Z</time>
      </trkpt>
      <trkpt lat="43.0921" lon="2.59317">
        <ele>136.64</ele>
        <time>2013-05-26T16:02:21Z</time>
      </trkpt>
      <trkpt lat="43.09212" lon="2.59184">
        <ele>139.05</ele>
        <time>2013-05-26T16:02:27Z</time>
      </trkpt>
      <trkpt lat="43.09213" lon="2.59044">
        <ele>140.01</ele>
        <time>2013-05-26T16:02:33Z</time>
      </trkpt>
      <trkpt lat="43.09233" lon="2.58923">
        <ele>139.53</ele>
        <time>2013-05-26T16:02:38Z</time>
      </trkpt>
      <trkpt lat="43.09264" lon="2.58806">
        <ele>140.49</ele>
        <time>2013-05-26T16:02:43Z</time>
      </trkpt>
      <trkpt lat="43.09284" lon="2.58679">
        <ele>141.93</ele>
        <time>2013-05-26T16:02:48Z</time>
      </trkpt>
      <trkpt lat="43.09304" lon="2.58558">
        <ele>142.41</ele>
        <time>2013-05-26T16:02:53Z</time>
      </trkpt>
      <trkpt lat="43.09328" lon="2.5843">
        <ele>143.37</ele>
        <time>2013-05-26T16:02:59Z</time>
      </trkpt>
      <trkpt lat="43.09263" lon="2.58323">
        <ele>143.37</ele>
        <time>2013-05-26T16:03:06Z</time>
      </trkpt>
      <trkpt lat="43.09177" lon="2.58287">
        <ele>144.82</ele>
        <time>2013-05-26T16:03:12Z</time>
      </trkpt>
      <trkpt lat="43.09093" lon="2.58362">
        <ele>147.22</ele>
        <time>2013-05-26T16:03:19Z</time>
      </trkpt>
      <trkpt lat="43.09046" lon="2.58475">
        <ele>146.26</ele>
        <time>2013-05-26T16:03:26Z</time>
      </trkpt>
      <trkpt lat="43.08974" lon="2.58471">
        <ele>148.18</ele>
        <time>2013-05-26T16:03:34Z</time>
      </trkpt>
      <trkpt lat="43.08983" lon="2.58339">
        <ele>149.14</ele>
        <time>2013-05-26T16:03:41Z</time>
      </trkpt>
      <trkpt lat="43.09002" lon="2.58197">
        <ele>150.58</ele>
        <time>2013-05-26T16:03:48Z</time>
      </trkpt>
      <trkpt lat="43.09002" lon="2.58075">
        <ele>152.03</ele>
        <time>2013-05-26T16:03:54Z</time>
      </trkpt>
      <trkpt lat="43.0902" lon="2.57951">
        <ele>152.99</ele>
        <time>2013-05-26T16:04:00Z</time>
      </trkpt>
      <trkpt lat="43.09035" lon="2.5783">
        <ele>153.95</ele>
        <time>2013-05-26T16:04:08Z</time>
      </trkpt>
      <trkpt lat="43.09124" lon="2.57782">
        <ele>153.95</ele>
        <time>2013-05-26T16:04:16Z</time>
      </trkpt>
      <trkpt lat="43.09212" lon="2.57752">
        <ele>154.43</ele>
        <time>2013-05-26T16:04:22Z</time>
      </trkpt>
      <trkpt lat="43.09276" lon="2.57652">
        <ele>154.91</ele>
        <time>2013-05-26T16:04:29Z</time>
      </trkpt>
      <trkpt lat="43.09299" lon="2.57516">
        <ele>155.39</ele>
        <time>2013-05-26T16:04:35Z</time>
      </trkpt>
      <trkpt lat="43.0934" lon="2.5739">
        <ele>155.87</ele>
        <time>2013-05-26T16:04:41Z</time>
      </trkpt>
      <trkpt lat="43.09391" lon="2.5728">
        <ele>156.35</ele>
        <time>2013-05-26T16:04:47Z</time>
      </trkpt>
      <trkpt lat="43.09344" lon="2.57188">
        <ele>156.83</ele>
        <time>2013-05-26T16:04:54Z</time>
      </trkpt>
      <trkpt lat="43.09252" lon="2.5718">
        <ele>158.75</ele>
        <time>2013-05-26T16:05:00Z</time>
      </trkpt>
      <trkpt lat="43.09157" lon="2.57171">
        <ele>159.24</ele>
        <time>2013-05-26T16:05:06Z</time>
      </trkpt>
      <trkpt lat="43.09052" lon="2.57205">
        <ele>159.72</ele>
        <time>2013-05-26T16:05:13Z</time>
      </trkpt>
      <trkpt lat="43.0896" lon="2.57223">
        <ele>159.72</ele>
        <time>2013-05-26T16:05:20Z</time>
      </trkpt>
      <trkpt lat="43.08937" lon="2.57094">
        <ele>161.16</ele>
        <time>2013-05-26T16:05:27Z</time>
      </trkpt>
      <trkpt lat="43.08968" lon="2.56955">
        <ele>162.6</ele>
        <time>2013-05-26T16:05:34Z</time>
      </trkpt>
      <trkpt lat="43.08989" lon="2.56823">
        <ele>163.56</ele>
        <time>2013-05-26T16:05:40Z</time>
      </trkpt>
      <trkpt lat="43.09025" lon="2.56689">
        <ele>165</ele>
        <time>2013-05-26T16:05:46Z</time>
      </trkpt>
      <trkpt lat="43.0906" lon="2.56569">
        <ele>166.45</ele>
        <time>2013-05-26T16:05:51Z</time>
      </trkpt>
      <trkpt lat="43.09086" lon="2.56443">
        <ele>166.45</ele>
        <time>2013-05-26T16:05:56Z</time>
      </trkpt>
      <trkpt lat="43.09114" lon="2.56318">
        <ele>167.41</ele>
        <time>2013-05-26T16:06:01Z</time>
      </trkpt>
      <trkpt lat="43.09132" lon="2.56177">
        <ele>169.81</ele>
        <time>2013-05-26T16:06:07Z</time>
      </trkpt>
      <trkpt lat="43.09131" lon="2.56048">
        <ele>168.37</ele>
        <time>2013-05-26T16:06:13Z</time>
      </trkpt>
      <trkpt lat="43.09122" lon="2.55925">
        <ele>170.29</ele>
        <time>2013-05-26T16:06:19Z</time>
      </trkpt>
      <trkpt lat="43.09066" lon="2.55861">
        <ele>168.85</ele>
        <time>2013-05-26T16:06:27Z</time>
      </trkpt>
      <trkpt lat="43.08994" lon="2.55812">
        <ele>169.81</ele>
        <time>2013-05-26T16:06:35Z</time>
      </trkpt>
      <trkpt lat="43.09021" lon="2.55685">
        <ele>172.21</ele>
        <time>2013-05-26T16:06:42Z</time>
      </trkpt>
      <trkpt lat="43.09055" lon="2.55559">
        <ele>171.73</ele>
        <time>2013-05-26T16:06:49Z</time>
      </trkpt>
      <trkpt lat="43.09105" lon="2.55452">
        <ele>173.66</ele>
        <time>2013-05-26T16:06:56Z</time>
      </trkpt>
      <trkpt lat="43.09143" lon="2.55336">
        <ele>173.17</ele>
        <time>2013-05-26T16:07:02Z</time>
      </trkpt>
      <trkpt lat="43.09184" lon="2.55208">
        <ele>174.62</ele>
        <time>2013-05-26T16:07:08Z</time>
      </trkpt>
      <trkpt lat="43.09223" lon="2.5509">
        <ele>175.58</ele>
        <time>2013-05-26T16:07:14Z</time>
      </trkpt>
      <trkpt lat="43.09249" lon="2.54965">
        <ele>177.02</ele>
        <time>2013-05-26T16:07:22Z</time>
      </trkpt>
      <trkpt lat="43.09249" lon="2.54839">
        <ele>177.5</ele>
        <time>2013-05-26T16:07:30Z</time>
      </trkpt>
      <trkpt lat="43.09248" lon="2.54716">
        <ele>180.38</ele>
        <time>2013-05-26T16:07:37Z</time>
      </trkpt>
      <trkpt lat="43.09247" lon="2.54586">
        <ele>182.31</ele>
        <time>2013-05-26T16:07:43Z</time>
      </trkpt>
      <trkpt lat="43.0926" lon="2.54443">
        <ele>182.31</ele>
        <time>2013-05-26T16:07:49Z</time>
      </trkpt>
      <trkpt lat="43.09277" lon="2.54323">
        <ele>182.79</ele>
        <time>2013-05-26T16:07:54Z</time>
      </trkpt>
      <trkpt lat="43.09294" lon="2.54198">
        <ele>182.31</ele>
        <time>2013-05-26T16:07:59Z</time>
      </trkpt>
      <trkpt lat="43.09311" lon="2.54076">
        <ele>182.79</ele>
        <time>2013-05-26T16:08:04Z</time>
      </trkpt>
      <trkpt lat="43.09329" lon="2.5395">
        <ele>183.75</ele>
        <time>2013-05-26T16:08:09Z</time>
      </trkpt>
      <trkpt lat="43.09362" lon="2.53828">
        <ele>183.75</ele>
        <time>2013-05-26T16:08:14Z</time>
      </trkpt>
      <trkpt lat="43.09427" lon="2.53731">
        <ele>185.19</ele>
        <time>2013-05-26T16:08:19Z</time>
      </trkpt>
      <trkpt lat="43.09514" lon="2.53657">
        <ele>184.71</ele>
        <time>2013-05-26T16:08:24Z</time>
      </trkpt>
      <trkpt lat="43.096" lon="2.53585">
        <ele>184.71</ele>
        <time>2013-05-26T16:08:29Z</time>
      </trkpt>
      <trkpt lat="43.09692" lon="2.53507">
        <ele>185.19</ele>
        <time>2013-05-26T16:08:34Z</time>
      </trkpt>
      <trkpt lat="43.09783" lon="2.5343">
        <ele>185.19</ele>
        <time>2013-05-26T16:08:39Z</time>
      </trkpt>
      <trkpt lat="43.09871" lon="2.53356">
        <ele>185.67</ele>
        <time>2013-05-26T16:08:44Z</time>
      </trkpt>
      <trkpt lat="43.09961" lon="2.53279">
        <ele>187.59</ele>
        <time>2013-05-26T16:08:49Z</time>
      </trkpt>
      <trkpt lat="43.10053" lon="2.53201">
        <ele>190.96</ele>
        <time>2013-05-26T16:08:54Z</time>
      </trkpt>
      <trkpt lat="43.10145" lon="2.53124">
        <ele>192.88</ele>
        <time>2013-05-26T16:08:59Z</time>
      </trkpt>
      <trkpt lat="43.10239" lon="2.53045">
        <ele>193.36</ele>
        <time>2013-05-26T16:09:04Z</time>
      </trkpt>
      <trkpt lat="43.10332" lon="2.52965">
        <ele>195.28</ele>
        <time>2013-05-26T16:09:09Z</time>
      </trkpt>
      <trkpt lat="43.10427" lon="2.52886">
        <ele>197.69</ele>
        <time>2013-05-26T16:09:14Z</time>
      </trkpt>
      <trkpt lat="43.10519" lon="2.52808">
        <ele>200.09</ele>
        <time>2013-05-26T16:09:19Z</time>
      </trkpt>
      <trkpt lat="43.10607" lon="2.52742">
        <ele>201.05</ele>
        <time>2013-05-26T16:09:24Z</time>
      </trkpt>
      <trkpt lat="43.10687" lon="2.52684">
        <ele>203.94</ele>
        <time>2013-05-26T16:09:29Z</time>
      </trkpt>
      <trkpt lat="43.1078" lon="2.52621">
        <ele>206.34</ele>
        <time>2013-05-26T16:09:35Z</time>
      </trkpt>
      <trkpt lat="43.10874" lon="2.52636">
        <ele>207.3</ele>
        <time>2013-05-26T16:09:40Z</time>
      </trkpt>
      <trkpt lat="43.1097" lon="2.5266">
        <ele>209.7</ele>
        <time>2013-05-26T16:09:45Z</time>
      </trkpt>
      <trkpt lat="43.11065" lon="2.52683">
        <ele>210.67</ele>
        <time>2013-05-26T16:09:50Z</time>
      </trkpt>
      <trkpt lat="43.11158" lon="2.52707">
        <ele>212.11</ele>
        <time>2013-05-26T16:09:55Z</time>
      </trkpt>
      <trkpt lat="43.11251" lon="2.52769">
        <ele>214.03</ele>
        <time>2013-05-26T16:10:01Z</time>
      </trkpt>
      <trkpt lat="43.11312" lon="2.52867">
        <ele>217.88</ele>
        <time>2013-05-26T16:10:07Z</time>
      </trkpt>
      <trkpt lat="43.11399" lon="2.52898">
        <ele>219.32</ele>
        <time>2013-05-26T16:10:13Z</time>
      </trkpt>
      <trkpt lat="43.1148" lon="2.52965">
        <ele>224.61</ele>
        <time>2013-05-26T16:10:19Z</time>
      </trkpt>
      <trkpt lat="43.11549" lon="2.53046">
        <ele>228.45</ele>
        <time>2013-05-26T16:10:25Z</time>
      </trkpt>
      <trkpt lat="43.11616" lon="2.53144">
        <ele>227.01</ele>
        <time>2013-05-26T16:10:31Z</time>
      </trkpt>
      <trkpt lat="43.11659" lon="2.53263">
        <ele>226.05</ele>
        <time>2013-05-26T16:10:37Z</time>
      </trkpt>
      <trkpt lat="43.11718" lon="2.53375">
        <ele>223.64</ele>
        <time>2013-05-26T16:10:43Z</time>
      </trkpt>
      <trkpt lat="43.11813" lon="2.53437">
        <ele>221.72</ele>
        <time>2013-05-26T16:10:49Z</time>
      </trkpt>
      <trkpt lat="43.11913" lon="2.53483">
        <ele>219.32</ele>
        <time>2013-05-26T16:10:55Z</time>
      </trkpt>
      <trkpt lat="43.12005" lon="2.53525">
        <ele>213.07</ele>
        <time>2013-05-26T16:10:59Z</time>
      </trkpt>
      <trkpt lat="43.12089" lon="2.5357">
        <ele>211.63</ele>
        <time>2013-05-26T16:11:02Z</time>
      </trkpt>
      <trkpt lat="43.12187" lon="2.53618">
        <ele>217.88</ele>
        <time>2013-05-26T16:11:06Z</time>
      </trkpt>
      <trkpt lat="43.12273" lon="2.53659">
        <ele>218.36</ele>
        <time>2013-05-26T16:11:10Z</time>
      </trkpt>
      <trkpt lat="43.12375" lon="2.53708">
        <ele>218.36</ele>
        <time>2013-05-26T16:11:15Z</time>
      </trkpt>
      <trkpt lat="43.12468" lon="2.53752">
        <ele>221.72</ele>
        <time>2013-05-26T16:11:21Z</time>
      </trkpt>
      <trkpt lat="43.12522" lon="2.53664">
        <ele>219.8</ele>
        <time>2013-05-26T16:11:29Z</time>
      </trkpt>
      <trkpt lat="43.1253" lon="2.53523">
        <ele>221.72</ele>
        <time>2013-05-26T16:11:35Z</time>
      </trkpt>
      <trkpt lat="43.12546" lon="2.53389">
        <ele>222.68</ele>
        <time>2013-05-26T16:11:41Z</time>
      </trkpt>
      <trkpt lat="43.126" lon="2.53269">
        <ele>225.09</ele>
        <time>2013-05-26T16:11:47Z</time>
      </trkpt>
      <trkpt lat="43.12651" lon="2.53156">
        <ele>226.53</ele>
        <time>2013-05-26T16:11:53Z</time>
      </trkpt>
      <trkpt lat="43.12718" lon="2.53083">
        <ele>227.01</ele>
        <time>2013-05-26T16:12:00Z</time>
      </trkpt>
      <trkpt lat="43.12809" lon="2.53146">
        <ele>230.37</ele>
        <time>2013-05-26T16:12:06Z</time>
      </trkpt>
      <trkpt lat="43.12889" lon="2.53202">
        <ele>235.66</ele>
        <time>2013-05-26T16:12:11Z</time>
      </trkpt>
      <trkpt lat="43.12975" lon="2.53235">
        <ele>248.16</ele>
        <time>2013-05-26T16:12:17Z</time>
      </trkpt>
      <trkpt lat="43.13054" lon="2.53152">
        <ele>249.12</ele>
        <time>2013-05-26T16:12:23Z</time>
      </trkpt>
      <trkpt lat="43.13099" lon="2.53042">
        <ele>251.52</ele>
        <time>2013-05-26T16:12:28Z</time>
      </trkpt>
      <trkpt lat="43.1314" lon="2.52931">
        <ele>248.64</ele>
        <time>2013-05-26T16:12:33Z</time>
      </trkpt>
      <trkpt lat="43.13194" lon="2.52807">
        <ele>243.83</ele>
        <time>2013-05-26T16:12:39Z</time>
      </trkpt>
      <trkpt lat="43.13275" lon="2.52746">
        <ele>238.54</ele>
        <time>2013-05-26T16:12:44Z</time>
      </trkpt>
      <trkpt lat="43.13349" lon="2.52667">
        <ele>233.26</ele>
        <time>2013-05-26T16:12:49Z</time>
      </trkpt>
      <trkpt lat="43.1342" lon="2.52584">
        <ele>227.49</ele>
        <time>2013-05-26T16:12:54Z</time>
      </trkpt>
      <trkpt lat="43.13494" lon="2.52498">
        <ele>224.12</ele>
        <time>2013-05-26T16:12:59Z</time>
      </trkpt>
      <trkpt lat="43.13568" lon="2.52411">
        <ele>220.28</ele>
        <time>2013-05-26T16:13:04Z</time>
      </trkpt>
      <trkpt lat="43.13644" lon="2.52321">
        <ele>218.84</ele>
        <time>2013-05-26T16:13:09Z</time>
      </trkpt>
      <trkpt lat="43.13722" lon="2.5223">
        <ele>213.07</ele>
        <time>2013-05-26T16:13:14Z</time>
      </trkpt>
      <trkpt lat="43.13813" lon="2.52159">
        <ele>211.63</ele>
        <time>2013-05-26T16:13:19Z</time>
      </trkpt>
      <trkpt lat="43.13908" lon="2.52095">
        <ele>214.03</ele>
        <time>2013-05-26T16:13:24Z</time>
      </trkpt>
      <trkpt lat="43.14" lon="2.52032">
        <ele>211.63</ele>
        <time>2013-05-26T16:13:29Z</time>
      </trkpt>
      <trkpt lat="43.14091" lon="2.5197">
        <ele>211.15</ele>
        <time>2013-05-26T16:13:34Z</time>
      </trkpt>
      <trkpt lat="43.14179" lon="2.51911">
        <ele>206.82</ele>
        <time>2013-05-26T16:13:39Z</time>
      </trkpt>
      <trkpt lat="43.14267" lon="2.51851">
        <ele>208.74</ele>
        <time>2013-05-26T16:13:44Z</time>
      </trkpt>
      <trkpt lat="43.14355" lon="2.51792">
        <ele>209.22</ele>
        <time>2013-05-26T16:13:50Z</time>
      </trkpt>
      <trkpt lat="43.14438" lon="2.51722">
        <ele>207.78</ele>
        <time>2013-05-26T16:13:58Z</time>
      </trkpt>
      <trkpt lat="43.14492" lon="2.5161">
        <ele>207.78</ele>
        <time>2013-05-26T16:14:07Z</time>
      </trkpt>
      <trkpt lat="43.14546" lon="2.51508">
        <ele>206.34</ele>
        <time>2013-05-26T16:14:17Z</time>
      </trkpt>
      <trkpt lat="43.14597" lon="2.51391">
        <ele>205.38</ele>
        <time>2013-05-26T16:14:28Z</time>
      </trkpt>
      <trkpt lat="43.14626" lon="2.51263">
        <ele>204.42</ele>
        <time>2013-05-26T16:14:39Z</time>
      </trkpt>
      <trkpt lat="43.14655" lon="2.51136">
        <ele>203.46</ele>
        <time>2013-05-26T16:14:48Z</time>
      </trkpt>
      <trkpt lat="43.14685" lon="2.51008">
        <ele>202.49</ele>
        <time>2013-05-26T16:14:56Z</time>
      </trkpt>
      <trkpt lat="43.14714" lon="2.50883">
        <ele>201.53</ele>
        <time>2013-05-26T16:15:03Z</time>
      </trkpt>
      <trkpt lat="43.14742" lon="2.50761">
        <ele>201.05</ele>
        <time>2013-05-26T16:15:09Z</time>
      </trkpt>
      <trkpt lat="43.14771" lon="2.5064">
        <ele>202.01</ele>
        <time>2013-05-26T16:15:14Z</time>
      </trkpt>
      <trkpt lat="43.14803" lon="2.50508">
        <ele>204.42</ele>
        <time>2013-05-26T16:15:19Z</time>
      </trkpt>
      <trkpt lat="43.14834" lon="2.50374">
        <ele>202.98</ele>
        <time>2013-05-26T16:15:24Z</time>
      </trkpt>
      <trkpt lat="43.14867" lon="2.50236">
        <ele>201.53</ele>
        <time>2013-05-26T16:15:29Z</time>
      </trkpt>
      <trkpt lat="43.14901" lon="2.50091">
        <ele>197.21</ele>
        <time>2013-05-26T16:15:34Z</time>
      </trkpt>
      <trkpt lat="43.14933" lon="2.49954">
        <ele>194.8</ele>
        <time>2013-05-26T16:15:39Z</time>
      </trkpt>
      <trkpt lat="43.14946" lon="2.49817">
        <ele>194.32</ele>
        <time>2013-05-26T16:15:44Z</time>
      </trkpt>
      <trkpt lat="43.14927" lon="2.49674">
        <ele>191.44</ele>
        <time>2013-05-26T16:15:49Z</time>
      </trkpt>
      <trkpt lat="43.14904" lon="2.49532">
        <ele>190.48</ele>
        <time>2013-05-26T16:15:54Z</time>
      </trkpt>
      <trkpt lat="43.1491" lon="2.49389">
        <ele>190.48</ele>
        <time>2013-05-26T16:15:59Z</time>
      </trkpt>
      <trkpt lat="43.14928" lon="2.4926">
        <ele>188.56</ele>
        <time>2013-05-26T16:16:04Z</time>
      </trkpt>
      <trkpt lat="43.14961" lon="2.49131">
        <ele>188.08</ele>
        <time>2013-05-26T16:16:09Z</time>
      </trkpt>
      <trkpt lat="43.14993" lon="2.49003">
        <ele>189.04</ele>
        <time>2013-05-26T16:16:14Z</time>
      </trkpt>
      <trkpt lat="43.15003" lon="2.48866">
        <ele>185.67</ele>
        <time>2013-05-26T16:16:19Z</time>
      </trkpt>
      <trkpt lat="43.15012" lon="2.48728">
        <ele>183.75</ele>
        <time>2013-05-26T16:16:24Z</time>
      </trkpt>
      <trkpt lat="43.15022" lon="2.48585">
        <ele>182.31</ele>
        <time>2013-05-26T16:16:29Z</time>
      </trkpt>
      <trkpt lat="43.15027" lon="2.48439">
        <ele>179.42</ele>
        <time>2013-05-26T16:16:34Z</time>
      </trkpt>
      <trkpt lat="43.15033" lon="2.48293">
        <ele>179.42</ele>
        <time>2013-05-26T16:16:39Z</time>
      </trkpt>
      <trkpt lat="43.15044" lon="2.48163">
        <ele>177.98</ele>
        <time>2013-05-26T16:16:44Z</time>
      </trkpt>
      <trkpt lat="43.15067" lon="2.48037">
        <ele>171.25</ele>
        <time>2013-05-26T16:16:49Z</time>
      </trkpt>
      <trkpt lat="43.15066" lon="2.47909">
        <ele>170.77</ele>
        <time>2013-05-26T16:16:54Z</time>
      </trkpt>
      <trkpt lat="43.1506" lon="2.47769">
        <ele>168.37</ele>
        <time>2013-05-26T16:17:00Z</time>
      </trkpt>
      <trkpt lat="43.15076" lon="2.47644">
        <ele>166.45</ele>
        <time>2013-05-26T16:17:05Z</time>
      </trkpt>
      <trkpt lat="43.15099" lon="2.47519">
        <ele>165.48</ele>
        <time>2013-05-26T16:17:10Z</time>
      </trkpt>
      <trkpt lat="43.15151" lon="2.47414">
        <ele>166.45</ele>
        <time>2013-05-26T16:17:15Z</time>
      </trkpt>
      <trkpt lat="43.15213" lon="2.47325">
        <ele>166.45</ele>
        <time>2013-05-26T16:17:20Z</time>
      </trkpt>
      <trkpt lat="43.15282" lon="2.47212">
        <ele>167.89</ele>
        <time>2013-05-26T16:17:26Z</time>
      </trkpt>
      <trkpt lat="43.15316" lon="2.47095">
        <ele>168.85</ele>
        <time>2013-05-26T16:17:31Z</time>
      </trkpt>
      <trkpt lat="43.1532" lon="2.46968">
        <ele>166.45</ele>
        <time>2013-05-26T16:17:36Z</time>
      </trkpt>
      <trkpt lat="43.15319" lon="2.4684">
        <ele>165</ele>
        <time>2013-05-26T16:17:41Z</time>
      </trkpt>
      <trkpt lat="43.15319" lon="2.4671">
        <ele>166.45</ele>
        <time>2013-05-26T16:17:46Z</time>
      </trkpt>
      <trkpt lat="43.15326" lon="2.46575">
        <ele>166.45</ele>
        <time>2013-05-26T16:17:51Z</time>
      </trkpt>
      <trkpt lat="43.15349" lon="2.46455">
        <ele>165.48</ele>
        <time>2013-05-26T16:17:56Z</time>
      </trkpt>
      <trkpt lat="43.15399" lon="2.46339">
        <ele>173.66</ele>
        <time>2013-05-26T16:18:02Z</time>
      </trkpt>
      <trkpt lat="43.15454" lon="2.46241">
        <ele>175.1</ele>
        <time>2013-05-26T16:18:10Z</time>
      </trkpt>
      <trkpt lat="43.15514" lon="2.46145">
        <ele>174.14</ele>
        <time>2013-05-26T16:18:19Z</time>
      </trkpt>
      <trkpt lat="43.15582" lon="2.46059">
        <ele>171.25</ele>
        <time>2013-05-26T16:18:28Z</time>
      </trkpt>
      <trkpt lat="43.15662" lon="2.46">
        <ele>167.41</ele>
        <time>2013-05-26T16:18:38Z</time>
      </trkpt>
      <trkpt lat="43.15756" lon="2.45972">
        <ele>162.6</ele>
        <time>2013-05-26T16:18:47Z</time>
      </trkpt>
      <trkpt lat="43.1584" lon="2.45916">
        <ele>160.2</ele>
        <time>2013-05-26T16:18:56Z</time>
      </trkpt>
      <trkpt lat="43.1589" lon="2.45807">
        <ele>155.87</ele>
        <time>2013-05-26T16:19:04Z</time>
      </trkpt>
      <trkpt lat="43.15934" lon="2.45678">
        <ele>152.99</ele>
        <time>2013-05-26T16:19:11Z</time>
      </trkpt>
      <trkpt lat="43.15985" lon="2.45563">
        <ele>148.18</ele>
        <time>2013-05-26T16:19:17Z</time>
      </trkpt>
      <trkpt lat="43.16054" lon="2.45472">
        <ele>147.7</ele>
        <time>2013-05-26T16:19:23Z</time>
      </trkpt>
      <trkpt lat="43.16138" lon="2.45416">
        <ele>140.01</ele>
        <time>2013-05-26T16:19:29Z</time>
      </trkpt>
      <trkpt lat="43.16233" lon="2.45467">
        <ele>133.76</ele>
        <time>2013-05-26T16:19:35Z</time>
      </trkpt>
      <trkpt lat="43.16326" lon="2.45529">
        <ele>130.4</ele>
        <time>2013-05-26T16:19:41Z</time>
      </trkpt>
      <trkpt lat="43.1642" lon="2.45595">
        <ele>130.4</ele>
        <time>2013-05-26T16:19:47Z</time>
      </trkpt>
      <trkpt lat="43.16506" lon="2.45678">
        <ele>133.76</ele>
        <time>2013-05-26T16:19:53Z</time>
      </trkpt>
      <trkpt lat="43.16582" lon="2.45772">
        <ele>141.45</ele>
        <time>2013-05-26T16:19:59Z</time>
      </trkpt>
      <trkpt lat="43.16648" lon="2.45857">
        <ele>148.18</ele>
        <time>2013-05-26T16:20:04Z</time>
      </trkpt>
      <trkpt lat="43.16713" lon="2.4597">
        <ele>157.31</ele>
        <time>2013-05-26T16:20:10Z</time>
      </trkpt>
      <trkpt lat="43.16763" lon="2.46073">
        <ele>164.52</ele>
        <time>2013-05-26T16:20:17Z</time>
      </trkpt>
      <trkpt lat="43.16794" lon="2.45974">
        <ele>172.69</ele>
        <time>2013-05-26T16:20:27Z</time>
      </trkpt>
      <trkpt lat="43.16803" lon="2.45846">
        <ele>168.85</ele>
        <time>2013-05-26T16:20:34Z</time>
      </trkpt>
      <trkpt lat="43.16839" lon="2.45725">
        <ele>159.72</ele>
        <time>2013-05-26T16:20:40Z</time>
      </trkpt>
      <trkpt lat="43.16901" lon="2.4562">
        <ele>153.95</ele>
        <time>2013-05-26T16:20:46Z</time>
      </trkpt>
      <trkpt lat="43.1699" lon="2.45571">
        <ele>150.1</ele>
        <time>2013-05-26T16:20:52Z</time>
      </trkpt>
      <trkpt lat="43.1709" lon="2.456">
        <ele>140.97</ele>
        <time>2013-05-26T16:20:58Z</time>
      </trkpt>
      <trkpt lat="43.17191" lon="2.45634">
        <ele>141.93</ele>
        <time>2013-05-26T16:21:04Z</time>
      </trkpt>
      <trkpt lat="43.17278" lon="2.45622">
        <ele>142.41</ele>
        <time>2013-05-26T16:21:09Z</time>
      </trkpt>
      <trkpt lat="43.17376" lon="2.45611">
        <ele>150.58</ele>
        <time>2013-05-26T16:21:15Z</time>
      </trkpt>
      <trkpt lat="43.17455" lon="2.45555">
        <ele>152.51</ele>
        <time>2013-05-26T16:21:21Z</time>
      </trkpt>
      <trkpt lat="43.17511" lon="2.45453">
        <ele>147.7</ele>
        <time>2013-05-26T16:21:26Z</time>
      </trkpt>
      <trkpt lat="43.1759" lon="2.45398">
        <ele>142.89</ele>
        <time>2013-05-26T16:21:31Z</time>
      </trkpt>
      <trkpt lat="43.17671" lon="2.45352">
        <ele>151.54</ele>
        <time>2013-05-26T16:21:37Z</time>
      </trkpt>
      <trkpt lat="43.17768" lon="2.45389">
        <ele>154.91</ele>
        <time>2013-05-26T16:21:44Z</time>
      </trkpt>
      <trkpt lat="43.17856" lon="2.45449">
        <ele>146.74</ele>
        <time>2013-05-26T16:21:50Z</time>
      </trkpt>
      <trkpt lat="43.17956" lon="2.45433">
        <ele>137.61</ele>
        <time>2013-05-26T16:21:56Z</time>
      </trkpt>
      <trkpt lat="43.18051" lon="2.45415">
        <ele>129.43</ele>
        <time>2013-05-26T16:22:02Z</time>
      </trkpt>
      <trkpt lat="43.18154" lon="2.45396">
        <ele>122.71</ele>
        <time>2013-05-26T16:22:09Z</time>
      </trkpt>
      <trkpt lat="43.18245" lon="2.45381">
        <ele>129.43</ele>
        <time>2013-05-26T16:22:15Z</time>
      </trkpt>
      <trkpt lat="43.1834" lon="2.45367">
        <ele>136.16</ele>
        <time>2013-05-26T16:22:23Z</time>
      </trkpt>
      <trkpt lat="43.18431" lon="2.45353">
        <ele>132.32</ele>
        <time>2013-05-26T16:22:30Z</time>
      </trkpt>
      <trkpt lat="43.18518" lon="2.45319">
        <ele>133.76</ele>
        <time>2013-05-26T16:22:37Z</time>
      </trkpt>
      <trkpt lat="43.18609" lon="2.45271">
        <ele>130.88</ele>
        <time>2013-05-26T16:22:45Z</time>
      </trkpt>
      <trkpt lat="43.18691" lon="2.45194">
        <ele>128.47</ele>
        <time>2013-05-26T16:22:53Z</time>
      </trkpt>
      <trkpt lat="43.18756" lon="2.45084">
        <ele>122.22</ele>
        <time>2013-05-26T16:23:01Z</time>
      </trkpt>
      <trkpt lat="43.18841" lon="2.45022">
        <ele>118.38</ele>
        <time>2013-05-26T16:23:08Z</time>
      </trkpt>
      <trkpt lat="43.18929" lon="2.44972">
        <ele>115.98</ele>
        <time>2013-05-26T16:23:15Z</time>
      </trkpt>
      <trkpt lat="43.19014" lon="2.44923">
        <ele>115.01</ele>
        <time>2013-05-26T16:23:22Z</time>
      </trkpt>
      <trkpt lat="43.19108" lon="2.44866">
        <ele>117.42</ele>
        <time>2013-05-26T16:23:29Z</time>
      </trkpt>
      <trkpt lat="43.192" lon="2.44812">
        <ele>119.82</ele>
        <time>2013-05-26T16:23:35Z</time>
      </trkpt>
      <trkpt lat="43.19284" lon="2.4476">
        <ele>122.71</ele>
        <time>2013-05-26T16:23:40Z</time>
      </trkpt>
      <trkpt lat="43.19364" lon="2.44693">
        <ele>119.34</ele>
        <time>2013-05-26T16:23:45Z</time>
      </trkpt>
      <trkpt lat="43.19446" lon="2.44627">
        <ele>124.63</ele>
        <time>2013-05-26T16:23:50Z</time>
      </trkpt>
      <trkpt lat="43.19525" lon="2.44554">
        <ele>123.19</ele>
        <time>2013-05-26T16:23:55Z</time>
      </trkpt>
      <trkpt lat="43.19599" lon="2.44458">
        <ele>123.19</ele>
        <time>2013-05-26T16:24:00Z</time>
      </trkpt>
      <trkpt lat="43.19673" lon="2.44361">
        <ele>120.78</ele>
        <time>2013-05-26T16:24:05Z</time>
      </trkpt>
      <trkpt lat="43.19747" lon="2.44263">
        <ele>119.34</ele>
        <time>2013-05-26T16:24:10Z</time>
      </trkpt>
      <trkpt lat="43.19823" lon="2.44163">
        <ele>117.9</ele>
        <time>2013-05-26T16:24:15Z</time>
      </trkpt>
      <trkpt lat="43.19889" lon="2.44057">
        <ele>118.38</ele>
        <time>2013-05-26T16:24:20Z</time>
      </trkpt>
      <trkpt lat="43.19942" lon="2.43943">
        <ele>120.78</ele>
        <time>2013-05-26T16:24:25Z</time>
      </trkpt>
      <trkpt lat="43.19991" lon="2.43816">
        <ele>121.74</ele>
        <time>2013-05-26T16:24:31Z</time>
      </trkpt>
      <trkpt lat="43.2003" lon="2.437">
        <ele>115.5</ele>
        <time>2013-05-26T16:24:38Z</time>
      </trkpt>
      <trkpt lat="43.20069" lon="2.43589">
        <ele>108.77</ele>
        <time>2013-05-26T16:24:46Z</time>
      </trkpt>
      <trkpt lat="43.20109" lon="2.43469">
        <ele>104.44</ele>
        <time>2013-05-26T16:24:54Z</time>
      </trkpt>
      <trkpt lat="43.20151" lon="2.43344">
        <ele>105.4</ele>
        <time>2013-05-26T16:25:02Z</time>
      </trkpt>
      <trkpt lat="43.20198" lon="2.4322">
        <ele>108.29</ele>
        <time>2013-05-26T16:25:10Z</time>
      </trkpt>
      <trkpt lat="43.2027" lon="2.43134">
        <ele>103.96</ele>
        <time>2013-05-26T16:25:18Z</time>
      </trkpt>
      <trkpt lat="43.20341" lon="2.43056">
        <ele>97.71</ele>
        <time>2013-05-26T16:25:26Z</time>
      </trkpt>
      <trkpt lat="43.20429" lon="2.43025">
        <ele>95.79</ele>
        <time>2013-05-26T16:25:35Z</time>
      </trkpt>
      <trkpt lat="43.205" lon="2.43063">
        <ele>98.67</ele>
        <time>2013-05-26T16:25:45Z</time>
      </trkpt>
      <trkpt lat="43.20565" lon="2.43145">
        <ele>96.27</ele>
        <time>2013-05-26T16:25:56Z</time>
      </trkpt>
      <trkpt lat="43.2062" lon="2.43072">
        <ele>96.75</ele>
        <time>2013-05-26T16:26:28Z</time>
      </trkpt>
      <trkpt lat="43.20628" lon="2.42936">
        <ele>102.52</ele>
        <time>2013-05-26T16:27:30Z</time>
      </trkpt>
      <trkpt lat="43.20634" lon="2.428">
        <ele>103.48</ele>
        <time>2013-05-26T16:27:37Z</time>
      </trkpt>
      <trkpt lat="43.20618" lon="2.42656">
        <ele>104.92</ele>
        <time>2013-05-26T16:27:44Z</time>
      </trkpt>
      <trkpt lat="43.20598" lon="2.42532">
        <ele>106.84</ele>
        <time>2013-05-26T16:27:54Z</time>
      </trkpt>
      <trkpt lat="43.20599" lon="2.42396">
        <ele>108.77</ele>
        <time>2013-05-26T16:28:04Z</time>
      </trkpt>
      <trkpt lat="43.20608" lon="2.42266">
        <ele>110.69</ele>
        <time>2013-05-26T16:28:10Z</time>
      </trkpt>
      <trkpt lat="43.20614" lon="2.42134">
        <ele>111.17</ele>
        <time>2013-05-26T16:28:15Z</time>
      </trkpt>
      <trkpt lat="43.20603" lon="2.42007">
        <ele>110.21</ele>
        <time>2013-05-26T16:28:20Z</time>
      </trkpt>
      <trkpt lat="43.20572" lon="2.41883">
        <ele>114.53</ele>
        <time>2013-05-26T16:28:25Z</time>
      </trkpt>
      <trkpt lat="43.20533" lon="2.41751">
        <ele>114.53</ele>
        <time>2013-05-26T16:28:30Z</time>
      </trkpt>
      <trkpt lat="43.20496" lon="2.41623">
        <ele>119.34</ele>
        <time>2013-05-26T16:28:35Z</time>
      </trkpt>
      <trkpt lat="43.20461" lon="2.41509">
        <ele>119.34</ele>
        <time>2013-05-26T16:28:39Z</time>
      </trkpt>
      <trkpt lat="43.2043" lon="2.41365">
        <ele>118.86</ele>
        <time>2013-05-26T16:28:44Z</time>
      </trkpt>
      <trkpt lat="43.20423" lon="2.41234">
        <ele>118.86</ele>
        <time>2013-05-26T16:28:49Z</time>
      </trkpt>
      <trkpt lat="43.20435" lon="2.41087">
        <ele>117.9</ele>
        <time>2013-05-26T16:28:54Z</time>
      </trkpt>
      <trkpt lat="43.20455" lon="2.40944">
        <ele>122.22</ele>
        <time>2013-05-26T16:28:59Z</time>
      </trkpt>
      <trkpt lat="43.20473" lon="2.40803">
        <ele>122.71</ele>
        <time>2013-05-26T16:29:04Z</time>
      </trkpt>
      <trkpt lat="43.20492" lon="2.4066">
        <ele>124.15</ele>
        <time>2013-05-26T16:29:09Z</time>
      </trkpt>
      <trkpt lat="43.20507" lon="2.40519">
        <ele>124.63</ele>
        <time>2013-05-26T16:29:14Z</time>
      </trkpt>
      <trkpt lat="43.20498" lon="2.40379">
        <ele>124.63</ele>
        <time>2013-05-26T16:29:19Z</time>
      </trkpt>
      <trkpt lat="43.20466" lon="2.40241">
        <ele>125.11</ele>
        <time>2013-05-26T16:29:24Z</time>
      </trkpt>
      <trkpt lat="43.20458" lon="2.40097">
        <ele>124.63</ele>
        <time>2013-05-26T16:29:29Z</time>
      </trkpt>
      <trkpt lat="43.20482" lon="2.39952">
        <ele>126.55</ele>
        <time>2013-05-26T16:29:34Z</time>
      </trkpt>
      <trkpt lat="43.20511" lon="2.39808">
        <ele>127.03</ele>
        <time>2013-05-26T16:29:39Z</time>
      </trkpt>
      <trkpt lat="43.20538" lon="2.39665">
        <ele>128.95</ele>
        <time>2013-05-26T16:29:44Z</time>
      </trkpt>
      <trkpt lat="43.20564" lon="2.39529">
        <ele>131.84</ele>
        <time>2013-05-26T16:29:49Z</time>
      </trkpt>
      <trkpt lat="43.2059" lon="2.39394">
        <ele>134.24</ele>
        <time>2013-05-26T16:29:54Z</time>
      </trkpt>
      <trkpt lat="43.20616" lon="2.39263">
        <ele>138.57</ele>
        <time>2013-05-26T16:29:59Z</time>
      </trkpt>
      <trkpt lat="43.20645" lon="2.39142">
        <ele>140.01</ele>
        <time>2013-05-26T16:30:05Z</time>
      </trkpt>
      <trkpt lat="43.2072" lon="2.39056">
        <ele>140.97</ele>
        <time>2013-05-26T16:30:12Z</time>
      </trkpt>
      <trkpt lat="43.20804" lon="2.39004">
        <ele>141.45</ele>
        <time>2013-05-26T16:30:19Z</time>
      </trkpt>
      <trkpt lat="43.20865" lon="2.38909">
        <ele>140.49</ele>
        <time>2013-05-26T16:30:32Z</time>
      </trkpt>
      <trkpt lat="43.20953" lon="2.38865">
        <ele>140.01</ele>
        <time>2013-05-26T16:30:38Z</time>
      </trkpt>
      <trkpt lat="43.21051" lon="2.38817">
        <ele>132.8</ele>
        <time>2013-05-26T16:30:44Z</time>
      </trkpt>
      <trkpt lat="43.21138" lon="2.3877">
        <ele>131.36</ele>
        <time>2013-05-26T16:30:49Z</time>
      </trkpt>
      <trkpt lat="43.21223" lon="2.38705">
        <ele>127.51</ele>
        <time>2013-05-26T16:30:54Z</time>
      </trkpt>
      <trkpt lat="43.21314" lon="2.38626">
        <ele>122.71</ele>
        <time>2013-05-26T16:30:59Z</time>
      </trkpt>
      <trkpt lat="43.21405" lon="2.38549">
        <ele>126.55</ele>
        <time>2013-05-26T16:31:04Z</time>
      </trkpt>
      <trkpt lat="43.21499" lon="2.38471">
        <ele>123.67</ele>
        <time>2013-05-26T16:31:09Z</time>
      </trkpt>
      <trkpt lat="43.21591" lon="2.38393">
        <ele>120.78</ele>
        <time>2013-05-26T16:31:14Z</time>
      </trkpt>
      <trkpt lat="43.21676" lon="2.38322">
        <ele>122.22</ele>
        <time>2013-05-26T16:31:19Z</time>
      </trkpt>
      <trkpt lat="43.21764" lon="2.38248">
        <ele>123.67</ele>
        <time>2013-05-26T16:31:25Z</time>
      </trkpt>
      <trkpt lat="43.21845" lon="2.3818">
        <ele>124.15</ele>
        <time>2013-05-26T16:31:31Z</time>
      </trkpt>
      <trkpt lat="43.21932" lon="2.38106">
        <ele>125.11</ele>
        <time>2013-05-26T16:31:38Z</time>
      </trkpt>
      <trkpt lat="43.22014" lon="2.38041">
        <ele>124.15</ele>
        <time>2013-05-26T16:31:47Z</time>
      </trkpt>
      <trkpt lat="43.22096" lon="2.37973">
        <ele>123.67</ele>
        <time>2013-05-26T16:31:59Z</time>
      </trkpt>
      <trkpt lat="43.22188" lon="2.37916">
        <ele>118.38</ele>
        <time>2013-05-26T16:32:07Z</time>
      </trkpt>
      <trkpt lat="43.22285" lon="2.37878">
        <ele>112.61</ele>
        <time>2013-05-26T16:32:14Z</time>
      </trkpt>
      <trkpt lat="43.22377" lon="2.37856">
        <ele>111.65</ele>
        <time>2013-05-26T16:32:19Z</time>
      </trkpt>
      <trkpt lat="43.22476" lon="2.37842">
        <ele>110.21</ele>
        <time>2013-05-26T16:32:24Z</time>
      </trkpt>
      <trkpt lat="43.22573" lon="2.37827">
        <ele>108.77</ele>
        <time>2013-05-26T16:32:29Z</time>
      </trkpt>
      <trkpt lat="43.22674" lon="2.37811">
        <ele>105.88</ele>
        <time>2013-05-26T16:32:34Z</time>
      </trkpt>
      <trkpt lat="43.22775" lon="2.37795">
        <ele>105.88</ele>
        <time>2013-05-26T16:32:39Z</time>
      </trkpt>
      <trkpt lat="43.22874" lon="2.37776">
        <ele>105.88</ele>
        <time>2013-05-26T16:32:44Z</time>
      </trkpt>
      <trkpt lat="43.22964" lon="2.3773">
        <ele>106.36</ele>
        <time>2013-05-26T16:32:49Z</time>
      </trkpt>
      <trkpt lat="43.23043" lon="2.37669">
        <ele>112.13</ele>
        <time>2013-05-26T16:32:56Z</time>
      </trkpt>
      <trkpt lat="43.23096" lon="2.37584">
        <ele>113.09</ele>
        <time>2013-05-26T16:33:05Z</time>
      </trkpt>
      <trkpt lat="43.23152" lon="2.3747">
        <ele>114.05</ele>
        <time>2013-05-26T16:33:12Z</time>
      </trkpt>
      <trkpt lat="43.23196" lon="2.37348">
        <ele>116.94</ele>
        <time>2013-05-26T16:33:18Z</time>
      </trkpt>
      <trkpt lat="43.23234" lon="2.37237">
        <ele>118.38</ele>
        <time>2013-05-26T16:33:23Z</time>
      </trkpt>
      <trkpt lat="43.23276" lon="2.37116">
        <ele>120.3</ele>
        <time>2013-05-26T16:33:28Z</time>
      </trkpt>
      <trkpt lat="43.23315" lon="2.36999">
        <ele>120.78</ele>
        <time>2013-05-26T16:33:33Z</time>
      </trkpt>
      <trkpt lat="43.23347" lon="2.36882">
        <ele>123.67</ele>
        <time>2013-05-26T16:33:39Z</time>
      </trkpt>
      <trkpt lat="43.23417" lon="2.36805">
        <ele>123.67</ele>
        <time>2013-05-26T16:33:54Z</time>
      </trkpt>
      <trkpt lat="43.23498" lon="2.36877">
        <ele>119.82</ele>
        <time>2013-05-26T16:34:02Z</time>
      </trkpt>
      <trkpt lat="43.23569" lon="2.3697">
        <ele>114.53</ele>
        <time>2013-05-26T16:34:12Z</time>
      </trkpt>
      <trkpt lat="43.23613" lon="2.36902">
        <ele>115.01</ele>
        <time>2013-05-26T16:34:26Z</time>
      </trkpt>
      <trkpt lat="43.23583" lon="2.36867">
        <ele>115.98</ele>
        <time>2013-05-26T16:34:43Z</time>
      </trkpt>
      <trkpt lat="43.23577" lon="2.36861">
        <ele>115.01</ele>
        <time>2013-05-26T16:43:03Z</time>
      </trkpt>
      <trkpt lat="43.23573" lon="2.36794">
        <ele>114.53</ele>
        <time>2013-05-26T16:43:23Z</time>
      </trkpt>
      <trkpt lat="43.23539" lon="2.36683">
        <ele>115.5</ele>
        <time>2013-05-26T16:43:37Z</time>
      </trkpt>
      <trkpt lat="43.23554" lon="2.36555">
        <ele>113.57</ele>
        <time>2013-05-26T16:43:49Z</time>
      </trkpt>
      <trkpt lat="43.2357" lon="2.36426">
        <ele>107.32</ele>
        <time>2013-05-26T16:44:01Z</time>
      </trkpt>
      <trkpt lat="43.23626" lon="2.36355">
        <ele>102.52</ele>
        <time>2013-05-26T16:44:21Z</time>
      </trkpt>
      <trkpt lat="43.23723" lon="2.36368">
        <ele>103</ele>
        <time>2013-05-26T16:44:28Z</time>
      </trkpt>
      <trkpt lat="43.23823" lon="2.36378">
        <ele>103.48</ele>
        <time>2013-05-26T16:44:34Z</time>
      </trkpt>
      <trkpt lat="43.23919" lon="2.36364">
        <ele>104.44</ele>
        <time>2013-05-26T16:44:40Z</time>
      </trkpt>
      <trkpt lat="43.2401" lon="2.36344">
        <ele>105.4</ele>
        <time>2013-05-26T16:44:46Z</time>
      </trkpt>
      <trkpt lat="43.24107" lon="2.36343">
        <ele>106.84</ele>
        <time>2013-05-26T16:44:52Z</time>
      </trkpt>
      <trkpt lat="43.24197" lon="2.36386">
        <ele>104.44</ele>
        <time>2013-05-26T16:45:00Z</time>
      </trkpt>
      <trkpt lat="43.24227" lon="2.36502">
        <ele>104.44</ele>
        <time>2013-05-26T16:45:10Z</time>
      </trkpt>
      <trkpt lat="43.24219" lon="2.36631">
        <ele>105.4</ele>
        <time>2013-05-26T16:45:17Z</time>
      </trkpt>
      <trkpt lat="43.24222" lon="2.36774">
        <ele>104.44</ele>
        <time>2013-05-26T16:45:23Z</time>
      </trkpt>
      <trkpt lat="43.24247" lon="2.36894">
        <ele>108.29</ele>
        <time>2013-05-26T16:45:28Z</time>
      </trkpt>
      <trkpt lat="43.24301" lon="2.37019">
        <ele>105.4</ele>
        <time>2013-05-26T16:45:33Z</time>
      </trkpt>
      <trkpt lat="43.24362" lon="2.37114">
        <ele>104.44</ele>
        <time>2013-05-26T16:45:37Z</time>
      </trkpt>
      <trkpt lat="43.24427" lon="2.37204">
        <ele>105.4</ele>
        <time>2013-05-26T16:45:41Z</time>
      </trkpt>
      <trkpt lat="43.24506" lon="2.37313">
        <ele>111.17</ele>
        <time>2013-05-26T16:45:46Z</time>
      </trkpt>
      <trkpt lat="43.24581" lon="2.37421">
        <ele>111.17</ele>
        <time>2013-05-26T16:45:51Z</time>
      </trkpt>
      <trkpt lat="43.2465" lon="2.37517">
        <ele>113.09</ele>
        <time>2013-05-26T16:45:56Z</time>
      </trkpt>
      <trkpt lat="43.24702" lon="2.37627">
        <ele>115.01</ele>
        <time>2013-05-26T16:46:04Z</time>
      </trkpt>
      <trkpt lat="43.24756" lon="2.37589">
        <ele>115.98</ele>
        <time>2013-05-26T16:46:15Z</time>
      </trkpt>
      <trkpt lat="43.24823" lon="2.37492">
        <ele>114.53</ele>
        <time>2013-05-26T16:46:23Z</time>
      </trkpt>
      <trkpt lat="43.24889" lon="2.37406">
        <ele>117.9</ele>
        <time>2013-05-26T16:46:28Z</time>
      </trkpt>
      <trkpt lat="43.24964" lon="2.37306">
        <ele>115.01</ele>
        <time>2013-05-26T16:46:33Z</time>
      </trkpt>
      <trkpt lat="43.25041" lon="2.37208">
        <ele>117.9</ele>
        <time>2013-05-26T16:46:38Z</time>
      </trkpt>
      <trkpt lat="43.25118" lon="2.37106">
        <ele>116.46</ele>
        <time>2013-05-26T16:46:43Z</time>
      </trkpt>
      <trkpt lat="43.25192" lon="2.36996">
        <ele>128.47</ele>
        <time>2013-05-26T16:46:48Z</time>
      </trkpt>
      <trkpt lat="43.25261" lon="2.36884">
        <ele>121.74</ele>
        <time>2013-05-26T16:46:53Z</time>
      </trkpt>
      <trkpt lat="43.25328" lon="2.36775">
        <ele>120.3</ele>
        <time>2013-05-26T16:46:58Z</time>
      </trkpt>
      <trkpt lat="43.25395" lon="2.36676">
        <ele>118.38</ele>
        <time>2013-05-26T16:47:03Z</time>
      </trkpt>
      <trkpt lat="43.25471" lon="2.36599">
        <ele>119.34</ele>
        <time>2013-05-26T16:47:08Z</time>
      </trkpt>
      <trkpt lat="43.25551" lon="2.3653">
        <ele>119.34</ele>
        <time>2013-05-26T16:47:17Z</time>
      </trkpt>
      <trkpt lat="43.25621" lon="2.36463">
        <ele>121.74</ele>
        <time>2013-05-26T16:47:28Z</time>
      </trkpt>
      <trkpt lat="43.25696" lon="2.36389">
        <ele>124.15</ele>
        <time>2013-05-26T16:47:39Z</time>
      </trkpt>
      <trkpt lat="43.25776" lon="2.36316">
        <ele>124.15</ele>
        <time>2013-05-26T16:47:45Z</time>
      </trkpt>
      <trkpt lat="43.25861" lon="2.36236">
        <ele>127.51</ele>
        <time>2013-05-26T16:47:51Z</time>
      </trkpt>
      <trkpt lat="43.25947" lon="2.36157">
        <ele>134.24</ele>
        <time>2013-05-26T16:47:56Z</time>
      </trkpt>
      <trkpt lat="43.26034" lon="2.36077">
        <ele>135.68</ele>
        <time>2013-05-26T16:48:01Z</time>
      </trkpt>
      <trkpt lat="43.26113" lon="2.35991">
        <ele>138.57</ele>
        <time>2013-05-26T16:48:06Z</time>
      </trkpt>
      <trkpt lat="43.26165" lon="2.35879">
        <ele>142.41</ele>
        <time>2013-05-26T16:48:11Z</time>
      </trkpt>
      <trkpt lat="43.26223" lon="2.35783">
        <ele>139.53</ele>
        <time>2013-05-26T16:48:16Z</time>
      </trkpt>
      <trkpt lat="43.2632" lon="2.35725">
        <ele>136.64</ele>
        <time>2013-05-26T16:48:22Z</time>
      </trkpt>
      <trkpt lat="43.26395" lon="2.35673">
        <ele>132.32</ele>
        <time>2013-05-26T16:48:30Z</time>
      </trkpt>
      <trkpt lat="43.26479" lon="2.35621">
        <ele>129.43</ele>
        <time>2013-05-26T16:48:38Z</time>
      </trkpt>
      <trkpt lat="43.26565" lon="2.3557">
        <ele>130.4</ele>
        <time>2013-05-26T16:48:46Z</time>
      </trkpt>
      <trkpt lat="43.26651" lon="2.35518">
        <ele>129.92</ele>
        <time>2013-05-26T16:48:54Z</time>
      </trkpt>
      <trkpt lat="43.26739" lon="2.35483">
        <ele>130.88</ele>
        <time>2013-05-26T16:49:02Z</time>
      </trkpt>
      <trkpt lat="43.26812" lon="2.35569">
        <ele>131.84</ele>
        <time>2013-05-26T16:49:11Z</time>
      </trkpt>
      <trkpt lat="43.26857" lon="2.35682">
        <ele>132.8</ele>
        <time>2013-05-26T16:49:19Z</time>
      </trkpt>
      <trkpt lat="43.26945" lon="2.35727">
        <ele>133.28</ele>
        <time>2013-05-26T16:49:30Z</time>
      </trkpt>
      <trkpt lat="43.27043" lon="2.35733">
        <ele>133.28</ele>
        <time>2013-05-26T16:49:40Z</time>
      </trkpt>
      <trkpt lat="43.27141" lon="2.35743">
        <ele>134.72</ele>
        <time>2013-05-26T16:49:50Z</time>
      </trkpt>
      <trkpt lat="43.27238" lon="2.35744">
        <ele>136.16</ele>
        <time>2013-05-26T16:50:00Z</time>
      </trkpt>
      <trkpt lat="43.27338" lon="2.35753">
        <ele>137.61</ele>
        <time>2013-05-26T16:50:07Z</time>
      </trkpt>
      <trkpt lat="43.27433" lon="2.3576">
        <ele>139.05</ele>
        <time>2013-05-26T16:50:12Z</time>
      </trkpt>
      <trkpt lat="43.27533" lon="2.35766">
        <ele>139.53</ele>
        <time>2013-05-26T16:50:17Z</time>
      </trkpt>
      <trkpt lat="43.27633" lon="2.35772">
        <ele>140.97</ele>
        <time>2013-05-26T16:50:22Z</time>
      </trkpt>
      <trkpt lat="43.27724" lon="2.35778">
        <ele>144.34</ele>
        <time>2013-05-26T16:50:27Z</time>
      </trkpt>
      <trkpt lat="43.27827" lon="2.35794">
        <ele>148.66</ele>
        <time>2013-05-26T16:50:34Z</time>
      </trkpt>
      <trkpt lat="43.27917" lon="2.35833">
        <ele>152.51</ele>
        <time>2013-05-26T16:50:41Z</time>
      </trkpt>
      <trkpt lat="43.28008" lon="2.35883">
        <ele>152.03</ele>
        <time>2013-05-26T16:50:46Z</time>
      </trkpt>
      <trkpt lat="43.28098" lon="2.35934">
        <ele>158.27</ele>
        <time>2013-05-26T16:50:50Z</time>
      </trkpt>
      <trkpt lat="43.28187" lon="2.3598">
        <ele>163.56</ele>
        <time>2013-05-26T16:50:54Z</time>
      </trkpt>
      <trkpt lat="43.2829" lon="2.36034">
        <ele>169.33</ele>
        <time>2013-05-26T16:50:59Z</time>
      </trkpt>
      <trkpt lat="43.284" lon="2.36058">
        <ele>174.62</ele>
        <time>2013-05-26T16:51:04Z</time>
      </trkpt>
      <trkpt lat="43.28508" lon="2.3603">
        <ele>177.02</ele>
        <time>2013-05-26T16:51:09Z</time>
      </trkpt>
      <trkpt lat="43.28605" lon="2.35969">
        <ele>180.38</ele>
        <time>2013-05-26T16:51:14Z</time>
      </trkpt>
      <trkpt lat="43.28697" lon="2.35908">
        <ele>185.19</ele>
        <time>2013-05-26T16:51:19Z</time>
      </trkpt>
      <trkpt lat="43.28789" lon="2.35846">
        <ele>188.08</ele>
        <time>2013-05-26T16:51:24Z</time>
      </trkpt>
      <trkpt lat="43.28886" lon="2.35783">
        <ele>194.32</ele>
        <time>2013-05-26T16:51:29Z</time>
      </trkpt>
      <trkpt lat="43.28984" lon="2.35719">
        <ele>201.53</ele>
        <time>2013-05-26T16:51:34Z</time>
      </trkpt>
      <trkpt lat="43.29078" lon="2.35657">
        <ele>209.22</ele>
        <time>2013-05-26T16:51:39Z</time>
      </trkpt>
      <trkpt lat="43.29173" lon="2.35616">
        <ele>213.07</ele>
        <time>2013-05-26T16:51:44Z</time>
      </trkpt>
      <trkpt lat="43.29277" lon="2.3563">
        <ele>221.24</ele>
        <time>2013-05-26T16:51:49Z</time>
      </trkpt>
      <trkpt lat="43.29379" lon="2.3564">
        <ele>228.45</ele>
        <time>2013-05-26T16:51:54Z</time>
      </trkpt>
      <trkpt lat="43.29482" lon="2.35605">
        <ele>233.26</ele>
        <time>2013-05-26T16:51:59Z</time>
      </trkpt>
      <trkpt lat="43.29584" lon="2.35568">
        <ele>239.99</ele>
        <time>2013-05-26T16:52:04Z</time>
      </trkpt>
      <trkpt lat="43.2968" lon="2.35516">
        <ele>243.83</ele>
        <time>2013-05-26T16:52:09Z</time>
      </trkpt>
      <trkpt lat="43.29762" lon="2.35421">
        <ele>252.96</ele>
        <time>2013-05-26T16:52:14Z</time>
      </trkpt>
      <trkpt lat="43.29837" lon="2.35342">
        <ele>258.25</ele>
        <time>2013-05-26T16:52:19Z</time>
      </trkpt>
      <trkpt lat="43.29939" lon="2.35297">
        <ele>263.54</ele>
        <time>2013-05-26T16:52:24Z</time>
      </trkpt>
      <trkpt lat="43.30039" lon="2.35247">
        <ele>264.98</ele>
        <time>2013-05-26T16:52:29Z</time>
      </trkpt>
      <trkpt lat="43.30121" lon="2.3516">
        <ele>269.79</ele>
        <time>2013-05-26T16:52:34Z</time>
      </trkpt>
      <trkpt lat="43.30188" lon="2.35055">
        <ele>273.15</ele>
        <time>2013-05-26T16:52:39Z</time>
      </trkpt>
      <trkpt lat="43.30251" lon="2.34964">
        <ele>275.07</ele>
        <time>2013-05-26T16:52:44Z</time>
      </trkpt>
      <trkpt lat="43.3034" lon="2.34915">
        <ele>277.96</ele>
        <time>2013-05-26T16:52:49Z</time>
      </trkpt>
      <trkpt lat="43.30438" lon="2.34878">
        <ele>273.15</ele>
        <time>2013-05-26T16:52:55Z</time>
      </trkpt>
      <trkpt lat="43.30532" lon="2.34825">
        <ele>272.67</ele>
        <time>2013-05-26T16:53:01Z</time>
      </trkpt>
      <trkpt lat="43.30607" lon="2.34747">
        <ele>271.23</ele>
        <time>2013-05-26T16:53:06Z</time>
      </trkpt>
      <trkpt lat="43.30685" lon="2.3467">
        <ele>269.79</ele>
        <time>2013-05-26T16:53:11Z</time>
      </trkpt>
      <trkpt lat="43.30763" lon="2.3459">
        <ele>269.31</ele>
        <time>2013-05-26T16:53:16Z</time>
      </trkpt>
      <trkpt lat="43.30813" lon="2.34476">
        <ele>269.79</ele>
        <time>2013-05-26T16:53:21Z</time>
      </trkpt>
      <trkpt lat="43.3085" lon="2.34342">
        <ele>270.27</ele>
        <time>2013-05-26T16:53:26Z</time>
      </trkpt>
      <trkpt lat="43.30889" lon="2.34207">
        <ele>277</ele>
        <time>2013-05-26T16:53:31Z</time>
      </trkpt>
      <trkpt lat="43.30927" lon="2.34072">
        <ele>279.4</ele>
        <time>2013-05-26T16:53:36Z</time>
      </trkpt>
      <trkpt lat="43.30969" lon="2.33937">
        <ele>281.32</ele>
        <time>2013-05-26T16:53:41Z</time>
      </trkpt>
      <trkpt lat="43.31015" lon="2.33803">
        <ele>282.28</ele>
        <time>2013-05-26T16:53:46Z</time>
      </trkpt>
      <trkpt lat="43.3106" lon="2.33672">
        <ele>282.77</ele>
        <time>2013-05-26T16:53:51Z</time>
      </trkpt>
      <trkpt lat="43.31104" lon="2.33542">
        <ele>287.57</ele>
        <time>2013-05-26T16:53:56Z</time>
      </trkpt>
      <trkpt lat="43.31151" lon="2.33409">
        <ele>289.01</ele>
        <time>2013-05-26T16:54:01Z</time>
      </trkpt>
      <trkpt lat="43.31216" lon="2.33287">
        <ele>292.38</ele>
        <time>2013-05-26T16:54:06Z</time>
      </trkpt>
      <trkpt lat="43.31283" lon="2.33172">
        <ele>295.26</ele>
        <time>2013-05-26T16:54:11Z</time>
      </trkpt>
      <trkpt lat="43.31358" lon="2.33063">
        <ele>297.67</ele>
        <time>2013-05-26T16:54:16Z</time>
      </trkpt>
      <trkpt lat="43.31439" lon="2.32964">
        <ele>298.63</ele>
        <time>2013-05-26T16:54:21Z</time>
      </trkpt>
      <trkpt lat="43.31518" lon="2.32871">
        <ele>299.59</ele>
        <time>2013-05-26T16:54:26Z</time>
      </trkpt>
      <trkpt lat="43.31595" lon="2.32775">
        <ele>300.55</ele>
        <time>2013-05-26T16:54:31Z</time>
      </trkpt>
      <trkpt lat="43.31651" lon="2.32657">
        <ele>301.51</ele>
        <time>2013-05-26T16:54:36Z</time>
      </trkpt>
      <trkpt lat="43.31719" lon="2.32549">
        <ele>301.99</ele>
        <time>2013-05-26T16:54:41Z</time>
      </trkpt>
      <trkpt lat="43.31805" lon="2.32481">
        <ele>301.51</ele>
        <time>2013-05-26T16:54:46Z</time>
      </trkpt>
      <trkpt lat="43.31879" lon="2.32409">
        <ele>301.51</ele>
        <time>2013-05-26T16:54:51Z</time>
      </trkpt>
      <trkpt lat="43.31967" lon="2.32332">
        <ele>303.91</ele>
        <time>2013-05-26T16:54:56Z</time>
      </trkpt>
      <trkpt lat="43.32052" lon="2.32257">
        <ele>306.8</ele>
        <time>2013-05-26T16:55:01Z</time>
      </trkpt>
      <trkpt lat="43.3214" lon="2.32179">
        <ele>309.68</ele>
        <time>2013-05-26T16:55:06Z</time>
      </trkpt>
      <trkpt lat="43.32229" lon="2.32102">
        <ele>313.05</ele>
        <time>2013-05-26T16:55:11Z</time>
      </trkpt>
      <trkpt lat="43.32314" lon="2.32027">
        <ele>315.45</ele>
        <time>2013-05-26T16:55:16Z</time>
      </trkpt>
      <trkpt lat="43.32403" lon="2.31948">
        <ele>318.33</ele>
        <time>2013-05-26T16:55:21Z</time>
      </trkpt>
      <trkpt lat="43.32491" lon="2.31873">
        <ele>321.22</ele>
        <time>2013-05-26T16:55:26Z</time>
      </trkpt>
      <trkpt lat="43.32578" lon="2.31798">
        <ele>324.58</ele>
        <time>2013-05-26T16:55:31Z</time>
      </trkpt>
      <trkpt lat="43.3266" lon="2.31721">
        <ele>324.58</ele>
        <time>2013-05-26T16:55:36Z</time>
      </trkpt>
      <trkpt lat="43.3273" lon="2.31615">
        <ele>326.02</ele>
        <time>2013-05-26T16:55:41Z</time>
      </trkpt>
      <trkpt lat="43.32773" lon="2.31499">
        <ele>325.54</ele>
        <time>2013-05-26T16:55:46Z</time>
      </trkpt>
      <trkpt lat="43.32779" lon="2.31362">
        <ele>326.02</ele>
        <time>2013-05-26T16:55:51Z</time>
      </trkpt>
      <trkpt lat="43.32787" lon="2.31238">
        <ele>326.02</ele>
        <time>2013-05-26T16:55:56Z</time>
      </trkpt>
      <trkpt lat="43.32801" lon="2.3109">
        <ele>327.95</ele>
        <time>2013-05-26T16:56:02Z</time>
      </trkpt>
      <trkpt lat="43.32815" lon="2.3096">
        <ele>329.87</ele>
        <time>2013-05-26T16:56:07Z</time>
      </trkpt>
      <trkpt lat="43.3285" lon="2.30834">
        <ele>329.39</ele>
        <time>2013-05-26T16:56:12Z</time>
      </trkpt>
      <trkpt lat="43.32896" lon="2.30708">
        <ele>330.83</ele>
        <time>2013-05-26T16:56:17Z</time>
      </trkpt>
      <trkpt lat="43.32941" lon="2.30582">
        <ele>331.79</ele>
        <time>2013-05-26T16:56:22Z</time>
      </trkpt>
      <trkpt lat="43.32984" lon="2.3046">
        <ele>333.23</ele>
        <time>2013-05-26T16:56:27Z</time>
      </trkpt>
      <trkpt lat="43.33026" lon="2.30343">
        <ele>336.6</ele>
        <time>2013-05-26T16:56:32Z</time>
      </trkpt>
      <trkpt lat="43.33092" lon="2.30238">
        <ele>339.48</ele>
        <time>2013-05-26T16:56:37Z</time>
      </trkpt>
      <trkpt lat="43.33167" lon="2.30142">
        <ele>343.81</ele>
        <time>2013-05-26T16:56:42Z</time>
      </trkpt>
      <trkpt lat="43.33239" lon="2.30045">
        <ele>347.65</ele>
        <time>2013-05-26T16:56:47Z</time>
      </trkpt>
      <trkpt lat="43.33315" lon="2.29944">
        <ele>351.5</ele>
        <time>2013-05-26T16:56:52Z</time>
      </trkpt>
      <trkpt lat="43.33386" lon="2.2985">
        <ele>357.27</ele>
        <time>2013-05-26T16:56:57Z</time>
      </trkpt>
      <trkpt lat="43.33475" lon="2.29779">
        <ele>362.55</ele>
        <time>2013-05-26T16:57:02Z</time>
      </trkpt>
      <trkpt lat="43.33572" lon="2.29728">
        <ele>368.32</ele>
        <time>2013-05-26T16:57:07Z</time>
      </trkpt>
      <trkpt lat="43.33667" lon="2.29673">
        <ele>376.01</ele>
        <time>2013-05-26T16:57:12Z</time>
      </trkpt>
      <trkpt lat="43.33749" lon="2.29578">
        <ele>380.82</ele>
        <time>2013-05-26T16:57:17Z</time>
      </trkpt>
      <trkpt lat="43.33787" lon="2.29459">
        <ele>387.55</ele>
        <time>2013-05-26T16:57:22Z</time>
      </trkpt>
      <trkpt lat="43.33836" lon="2.2935">
        <ele>391.39</ele>
        <time>2013-05-26T16:57:27Z</time>
      </trkpt>
      <trkpt lat="43.33902" lon="2.29256">
        <ele>397.16</ele>
        <time>2013-05-26T16:57:32Z</time>
      </trkpt>
      <trkpt lat="43.33977" lon="2.29168">
        <ele>400.53</ele>
        <time>2013-05-26T16:57:37Z</time>
      </trkpt>
      <trkpt lat="43.34042" lon="2.29059">
        <ele>404.37</ele>
        <time>2013-05-26T16:57:42Z</time>
      </trkpt>
      <trkpt lat="43.34097" lon="2.28939">
        <ele>407.74</ele>
        <time>2013-05-26T16:57:47Z</time>
      </trkpt>
      <trkpt lat="43.34153" lon="2.28821">
        <ele>408.7</ele>
        <time>2013-05-26T16:57:52Z</time>
      </trkpt>
      <trkpt lat="43.34209" lon="2.28705">
        <ele>410.14</ele>
        <time>2013-05-26T16:57:57Z</time>
      </trkpt>
      <trkpt lat="43.34264" lon="2.2859">
        <ele>412.54</ele>
        <time>2013-05-26T16:58:02Z</time>
      </trkpt>
      <trkpt lat="43.34322" lon="2.28471">
        <ele>415.43</ele>
        <time>2013-05-26T16:58:07Z</time>
      </trkpt>
      <trkpt lat="43.34379" lon="2.28357">
        <ele>420.23</ele>
        <time>2013-05-26T16:58:12Z</time>
      </trkpt>
      <trkpt lat="43.34457" lon="2.28267">
        <ele>426.48</ele>
        <time>2013-05-26T16:58:17Z</time>
      </trkpt>
      <trkpt lat="43.34536" lon="2.28193">
        <ele>432.25</ele>
        <time>2013-05-26T16:58:22Z</time>
      </trkpt>
      <trkpt lat="43.34615" lon="2.28117">
        <ele>437.06</ele>
        <time>2013-05-26T16:58:27Z</time>
      </trkpt>
      <trkpt lat="43.34698" lon="2.28037">
        <ele>443.31</ele>
        <time>2013-05-26T16:58:32Z</time>
      </trkpt>
      <trkpt lat="43.3478" lon="2.27959">
        <ele>448.11</ele>
        <time>2013-05-26T16:58:37Z</time>
      </trkpt>
      <trkpt lat="43.34875" lon="2.27896">
        <ele>454.84</ele>
        <time>2013-05-26T16:58:42Z</time>
      </trkpt>
      <trkpt lat="43.34969" lon="2.27839">
        <ele>461.09</ele>
        <time>2013-05-26T16:58:47Z</time>
      </trkpt>
      <trkpt lat="43.35062" lon="2.27783">
        <ele>468.3</ele>
        <time>2013-05-26T16:58:52Z</time>
      </trkpt>
      <trkpt lat="43.35155" lon="2.2772">
        <ele>473.59</ele>
        <time>2013-05-26T16:58:57Z</time>
      </trkpt>
      <trkpt lat="43.35235" lon="2.27643">
        <ele>479.35</ele>
        <time>2013-05-26T16:59:02Z</time>
      </trkpt>
      <trkpt lat="43.3531" lon="2.27571">
        <ele>485.12</ele>
        <time>2013-05-26T16:59:07Z</time>
      </trkpt>
      <trkpt lat="43.35386" lon="2.275">
        <ele>490.89</ele>
        <time>2013-05-26T16:59:14Z</time>
      </trkpt>
      <trkpt lat="43.35399" lon="2.27397">
        <ele>491.37</ele>
        <time>2013-05-26T16:59:26Z</time>
      </trkpt>
      <trkpt lat="43.3536" lon="2.27274">
        <ele>489.45</ele>
        <time>2013-05-26T16:59:35Z</time>
      </trkpt>
      <trkpt lat="43.35428" lon="2.27162">
        <ele>491.85</ele>
        <time>2013-05-26T16:59:43Z</time>
      </trkpt>
      <trkpt lat="43.3548" lon="2.27049">
        <ele>496.18</ele>
        <time>2013-05-26T16:59:49Z</time>
      </trkpt>
      <trkpt lat="43.35539" lon="2.26945">
        <ele>498.1</ele>
        <time>2013-05-26T16:59:55Z</time>
      </trkpt>
      <trkpt lat="43.35625" lon="2.26877">
        <ele>494.74</ele>
        <time>2013-05-26T17:00:02Z</time>
      </trkpt>
      <trkpt lat="43.35693" lon="2.26796">
        <ele>493.29</ele>
        <time>2013-05-26T17:00:08Z</time>
      </trkpt>
      <trkpt lat="43.35762" lon="2.26712">
        <ele>489.93</ele>
        <time>2013-05-26T17:00:14Z</time>
      </trkpt>
      <trkpt lat="43.3585" lon="2.26648">
        <ele>483.68</ele>
        <time>2013-05-26T17:00:21Z</time>
      </trkpt>
      <trkpt lat="43.35932" lon="2.26577">
        <ele>478.87</ele>
        <time>2013-05-26T17:00:28Z</time>
      </trkpt>
      <trkpt lat="43.36021" lon="2.26552">
        <ele>474.07</ele>
        <time>2013-05-26T17:00:37Z</time>
      </trkpt>
      <trkpt lat="43.3607" lon="2.26445">
        <ele>478.87</ele>
        <time>2013-05-26T17:00:49Z</time>
      </trkpt>
      <trkpt lat="43.35986" lon="2.26385">
        <ele>485.12</ele>
        <time>2013-05-26T17:01:02Z</time>
      </trkpt>
      <trkpt lat="43.35891" lon="2.26347">
        <ele>487.05</ele>
        <time>2013-05-26T17:01:11Z</time>
      </trkpt>
      <trkpt lat="43.35762" lon="2.26372">
        <ele>493.29</ele>
        <time>2013-05-26T17:01:20Z</time>
      </trkpt>
      <trkpt lat="43.35751" lon="2.26257">
        <ele>496.18</ele>
        <time>2013-05-26T17:01:29Z</time>
      </trkpt>
      <trkpt lat="43.35706" lon="2.26141">
        <ele>500.5</ele>
        <time>2013-05-26T17:01:38Z</time>
      </trkpt>
      <trkpt lat="43.35648" lon="2.26047">
        <ele>503.87</ele>
        <time>2013-05-26T17:01:46Z</time>
      </trkpt>
      <trkpt lat="43.35617" lon="2.25918">
        <ele>507.71</ele>
        <time>2013-05-26T17:01:54Z</time>
      </trkpt>
      <trkpt lat="43.35657" lon="2.25803">
        <ele>510.12</ele>
        <time>2013-05-26T17:02:01Z</time>
      </trkpt>
      <trkpt lat="43.35732" lon="2.25715">
        <ele>514.92</ele>
        <time>2013-05-26T17:02:08Z</time>
      </trkpt>
      <trkpt lat="43.35818" lon="2.2567">
        <ele>518.77</ele>
        <time>2013-05-26T17:02:14Z</time>
      </trkpt>
      <trkpt lat="43.35905" lon="2.25639">
        <ele>525.5</ele>
        <time>2013-05-26T17:02:20Z</time>
      </trkpt>
      <trkpt lat="43.35972" lon="2.25533">
        <ele>531.75</ele>
        <time>2013-05-26T17:02:27Z</time>
      </trkpt>
      <trkpt lat="43.36044" lon="2.25442">
        <ele>537.03</ele>
        <time>2013-05-26T17:02:34Z</time>
      </trkpt>
      <trkpt lat="43.36125" lon="2.25378">
        <ele>541.36</ele>
        <time>2013-05-26T17:02:41Z</time>
      </trkpt>
      <trkpt lat="43.36205" lon="2.25314">
        <ele>545.69</ele>
        <time>2013-05-26T17:02:48Z</time>
      </trkpt>
      <trkpt lat="43.36291" lon="2.25282">
        <ele>550.01</ele>
        <time>2013-05-26T17:02:55Z</time>
      </trkpt>
      <trkpt lat="43.36384" lon="2.25257">
        <ele>555.78</ele>
        <time>2013-05-26T17:03:01Z</time>
      </trkpt>
      <trkpt lat="43.36473" lon="2.25233">
        <ele>560.11</ele>
        <time>2013-05-26T17:03:07Z</time>
      </trkpt>
      <trkpt lat="43.36572" lon="2.25193">
        <ele>565.87</ele>
        <time>2013-05-26T17:03:14Z</time>
      </trkpt>
      <trkpt lat="43.36666" lon="2.25194">
        <ele>570.68</ele>
        <time>2013-05-26T17:03:22Z</time>
      </trkpt>
      <trkpt lat="43.36748" lon="2.25271">
        <ele>575.97</ele>
        <time>2013-05-26T17:03:31Z</time>
      </trkpt>
      <trkpt lat="43.36826" lon="2.25316">
        <ele>579.81</ele>
        <time>2013-05-26T17:03:47Z</time>
      </trkpt>
      <trkpt lat="43.36787" lon="2.25295">
        <ele>577.89</ele>
        <time>2013-05-26T17:06:26Z</time>
      </trkpt>
      <trkpt lat="43.36702" lon="2.25212">
        <ele>574.04</ele>
        <time>2013-05-26T17:06:36Z</time>
      </trkpt>
      <trkpt lat="43.36595" lon="2.25194">
        <ele>568.28</ele>
        <time>2013-05-26T17:06:44Z</time>
      </trkpt>
      <trkpt lat="43.36501" lon="2.25223">
        <ele>563.47</ele>
        <time>2013-05-26T17:06:51Z</time>
      </trkpt>
      <trkpt lat="43.3641" lon="2.25247">
        <ele>558.18</ele>
        <time>2013-05-26T17:06:57Z</time>
      </trkpt>
      <trkpt lat="43.36313" lon="2.25273">
        <ele>551.93</ele>
        <time>2013-05-26T17:07:03Z</time>
      </trkpt>
      <trkpt lat="43.3622" lon="2.25302">
        <ele>548.57</ele>
        <time>2013-05-26T17:07:10Z</time>
      </trkpt>
      <trkpt lat="43.36134" lon="2.2537">
        <ele>543.28</ele>
        <time>2013-05-26T17:07:17Z</time>
      </trkpt>
      <trkpt lat="43.36053" lon="2.25434">
        <ele>540.4</ele>
        <time>2013-05-26T17:07:24Z</time>
      </trkpt>
      <trkpt lat="43.35977" lon="2.25491">
        <ele>531.27</ele>
        <time>2013-05-26T17:07:37Z</time>
      </trkpt>
      <trkpt lat="43.36013" lon="2.25346">
        <ele>532.23</ele>
        <time>2013-05-26T17:07:53Z</time>
      </trkpt>
      <trkpt lat="43.36034" lon="2.25197">
        <ele>534.15</ele>
        <time>2013-05-26T17:08:01Z</time>
      </trkpt>
      <trkpt lat="43.36011" lon="2.25064">
        <ele>538.96</ele>
        <time>2013-05-26T17:08:08Z</time>
      </trkpt>
      <trkpt lat="43.36049" lon="2.24942">
        <ele>542.8</ele>
        <time>2013-05-26T17:08:15Z</time>
      </trkpt>
      <trkpt lat="43.36076" lon="2.24811">
        <ele>542.8</ele>
        <time>2013-05-26T17:08:23Z</time>
      </trkpt>
      <trkpt lat="43.3605" lon="2.24681">
        <ele>543.28</ele>
        <time>2013-05-26T17:08:33Z</time>
      </trkpt>
      <trkpt lat="43.36011" lon="2.24554">
        <ele>542.8</ele>
        <time>2013-05-26T17:08:41Z</time>
      </trkpt>
      <trkpt lat="43.36048" lon="2.24437">
        <ele>537.99</ele>
        <time>2013-05-26T17:08:48Z</time>
      </trkpt>
      <trkpt lat="43.36096" lon="2.24327">
        <ele>537.03</ele>
        <time>2013-05-26T17:08:55Z</time>
      </trkpt>
      <trkpt lat="43.36095" lon="2.24199">
        <ele>532.71</ele>
        <time>2013-05-26T17:09:03Z</time>
      </trkpt>
      <trkpt lat="43.36089" lon="2.2406">
        <ele>535.11</ele>
        <time>2013-05-26T17:09:12Z</time>
      </trkpt>
      <trkpt lat="43.36095" lon="2.23937">
        <ele>534.15</ele>
        <time>2013-05-26T17:09:19Z</time>
      </trkpt>
      <trkpt lat="43.36087" lon="2.2381">
        <ele>533.67</ele>
        <time>2013-05-26T17:09:26Z</time>
      </trkpt>
      <trkpt lat="43.36058" lon="2.2368">
        <ele>530.3</ele>
        <time>2013-05-26T17:09:33Z</time>
      </trkpt>
      <trkpt lat="43.36005" lon="2.23561">
        <ele>530.3</ele>
        <time>2013-05-26T17:09:40Z</time>
      </trkpt>
      <trkpt lat="43.35988" lon="2.23437">
        <ele>530.3</ele>
        <time>2013-05-26T17:09:46Z</time>
      </trkpt>
      <trkpt lat="43.35967" lon="2.23309">
        <ele>529.34</ele>
        <time>2013-05-26T17:09:52Z</time>
      </trkpt>
      <trkpt lat="43.35943" lon="2.2318">
        <ele>530.3</ele>
        <time>2013-05-26T17:09:59Z</time>
      </trkpt>
      <trkpt lat="43.35909" lon="2.23049">
        <ele>526.94</ele>
        <time>2013-05-26T17:10:07Z</time>
      </trkpt>
      <trkpt lat="43.35857" lon="2.22933">
        <ele>521.17</ele>
        <time>2013-05-26T17:10:14Z</time>
      </trkpt>
      <trkpt lat="43.35859" lon="2.2281">
        <ele>516.37</ele>
        <time>2013-05-26T17:10:21Z</time>
      </trkpt>
      <trkpt lat="43.35928" lon="2.22718">
        <ele>511.56</ele>
        <time>2013-05-26T17:10:29Z</time>
      </trkpt>
      <trkpt lat="43.36008" lon="2.22649">
        <ele>506.27</ele>
        <time>2013-05-26T17:10:40Z</time>
      </trkpt>
      <trkpt lat="43.3595" lon="2.22563">
        <ele>508.67</ele>
        <time>2013-05-26T17:10:53Z</time>
      </trkpt>
      <trkpt lat="43.35885" lon="2.22459">
        <ele>513</ele>
        <time>2013-05-26T17:11:03Z</time>
      </trkpt>
      <trkpt lat="43.35917" lon="2.22336">
        <ele>517.81</ele>
        <time>2013-05-26T17:11:12Z</time>
      </trkpt>
      <trkpt lat="43.35956" lon="2.22206">
        <ele>523.09</ele>
        <time>2013-05-26T17:11:21Z</time>
      </trkpt>
      <trkpt lat="43.35984" lon="2.2208">
        <ele>525.98</ele>
        <time>2013-05-26T17:11:31Z</time>
      </trkpt>
      <trkpt lat="43.36017" lon="2.21954">
        <ele>529.34</ele>
        <time>2013-05-26T17:11:52Z</time>
      </trkpt>
      <trkpt lat="43.3605" lon="2.21818">
        <ele>527.42</ele>
        <time>2013-05-26T17:12:04Z</time>
      </trkpt>
      <trkpt lat="43.36086" lon="2.21692">
        <ele>529.34</ele>
        <time>2013-05-26T17:12:13Z</time>
      </trkpt>
      <trkpt lat="43.36083" lon="2.21561">
        <ele>529.82</ele>
        <time>2013-05-26T17:12:21Z</time>
      </trkpt>
      <trkpt lat="43.36051" lon="2.21441">
        <ele>527.9</ele>
        <time>2013-05-26T17:12:30Z</time>
      </trkpt>
      <trkpt lat="43.3603" lon="2.21313">
        <ele>523.58</ele>
        <time>2013-05-26T17:12:38Z</time>
      </trkpt>
      <trkpt lat="43.36029" lon="2.21175">
        <ele>518.77</ele>
        <time>2013-05-26T17:12:45Z</time>
      </trkpt>
      <trkpt lat="43.36022" lon="2.21052">
        <ele>515.88</ele>
        <time>2013-05-26T17:12:51Z</time>
      </trkpt>
      <trkpt lat="43.36005" lon="2.2092">
        <ele>511.08</ele>
        <time>2013-05-26T17:12:58Z</time>
      </trkpt>
      <trkpt lat="43.36065" lon="2.20823">
        <ele>505.31</ele>
        <time>2013-05-26T17:13:06Z</time>
      </trkpt>
      <trkpt lat="43.36158" lon="2.20794">
        <ele>500.98</ele>
        <time>2013-05-26T17:13:12Z</time>
      </trkpt>
      <trkpt lat="43.36255" lon="2.20771">
        <ele>497.62</ele>
        <time>2013-05-26T17:13:19Z</time>
      </trkpt>
      <trkpt lat="43.36356" lon="2.2074">
        <ele>491.85</ele>
        <time>2013-05-26T17:13:27Z</time>
      </trkpt>
      <trkpt lat="43.36447" lon="2.20698">
        <ele>489.45</ele>
        <time>2013-05-26T17:13:35Z</time>
      </trkpt>
      <trkpt lat="43.36269" lon="2.2063">
        <ele>489.45</ele>
        <time>2013-05-26T17:13:50Z</time>
      </trkpt>
      <trkpt lat="43.36187" lon="2.20552">
        <ele>491.37</ele>
        <time>2013-05-26T17:13:59Z</time>
      </trkpt>
      <trkpt lat="43.36091" lon="2.20528">
        <ele>493.77</ele>
        <time>2013-05-26T17:14:07Z</time>
      </trkpt>
      <trkpt lat="43.36016" lon="2.20444">
        <ele>495.22</ele>
        <time>2013-05-26T17:14:15Z</time>
      </trkpt>
      <trkpt lat="43.36001" lon="2.20329">
        <ele>496.66</ele>
        <time>2013-05-26T17:14:23Z</time>
      </trkpt>
      <trkpt lat="43.36081" lon="2.20217">
        <ele>497.62</ele>
        <time>2013-05-26T17:14:32Z</time>
      </trkpt>
      <trkpt lat="43.36056" lon="2.20094">
        <ele>499.06</ele>
        <time>2013-05-26T17:14:41Z</time>
      </trkpt>
      <trkpt lat="43.35977" lon="2.20037">
        <ele>502.43</ele>
        <time>2013-05-26T17:14:51Z</time>
      </trkpt>
      <trkpt lat="43.35864" lon="2.20024">
        <ele>503.87</ele>
        <time>2013-05-26T17:14:58Z</time>
      </trkpt>
      <trkpt lat="43.35752" lon="2.1999">
        <ele>506.27</ele>
        <time>2013-05-26T17:15:05Z</time>
      </trkpt>
      <trkpt lat="43.35709" lon="2.19874">
        <ele>507.23</ele>
        <time>2013-05-26T17:15:12Z</time>
      </trkpt>
      <trkpt lat="43.35715" lon="2.19736">
        <ele>507.71</ele>
        <time>2013-05-26T17:15:19Z</time>
      </trkpt>
      <trkpt lat="43.35721" lon="2.19599">
        <ele>508.67</ele>
        <time>2013-05-26T17:15:26Z</time>
      </trkpt>
      <trkpt lat="43.35726" lon="2.19454">
        <ele>509.64</ele>
        <time>2013-05-26T17:15:33Z</time>
      </trkpt>
      <trkpt lat="43.35714" lon="2.19315">
        <ele>509.16</ele>
        <time>2013-05-26T17:15:39Z</time>
      </trkpt>
      <trkpt lat="43.35711" lon="2.19176">
        <ele>508.19</ele>
        <time>2013-05-26T17:15:45Z</time>
      </trkpt>
      <trkpt lat="43.35749" lon="2.19052">
        <ele>508.19</ele>
        <time>2013-05-26T17:15:51Z</time>
      </trkpt>
      <trkpt lat="43.35799" lon="2.18935">
        <ele>506.75</ele>
        <time>2013-05-26T17:15:58Z</time>
      </trkpt>
      <trkpt lat="43.35787" lon="2.18821">
        <ele>503.39</ele>
        <time>2013-05-26T17:16:07Z</time>
      </trkpt>
      <trkpt lat="43.3571" lon="2.18718">
        <ele>501.95</ele>
        <time>2013-05-26T17:16:14Z</time>
      </trkpt>
      <trkpt lat="43.3569" lon="2.18577">
        <ele>500.02</ele>
        <time>2013-05-26T17:16:21Z</time>
      </trkpt>
      <trkpt lat="43.35675" lon="2.18434">
        <ele>495.7</ele>
        <time>2013-05-26T17:16:28Z</time>
      </trkpt>
      <trkpt lat="43.35652" lon="2.18298">
        <ele>492.33</ele>
        <time>2013-05-26T17:16:35Z</time>
      </trkpt>
      <trkpt lat="43.35593" lon="2.18203">
        <ele>488.97</ele>
        <time>2013-05-26T17:16:42Z</time>
      </trkpt>
      <trkpt lat="43.35525" lon="2.18121">
        <ele>488.01</ele>
        <time>2013-05-26T17:16:49Z</time>
      </trkpt>
      <trkpt lat="43.35531" lon="2.17993">
        <ele>486.08</ele>
        <time>2013-05-26T17:16:55Z</time>
      </trkpt>
      <trkpt lat="43.35581" lon="2.1787">
        <ele>483.68</ele>
        <time>2013-05-26T17:17:02Z</time>
      </trkpt>
      <trkpt lat="43.35645" lon="2.17775">
        <ele>480.8</ele>
        <time>2013-05-26T17:17:09Z</time>
      </trkpt>
      <trkpt lat="43.35709" lon="2.17681">
        <ele>477.43</ele>
        <time>2013-05-26T17:17:20Z</time>
      </trkpt>
      <trkpt lat="43.35802" lon="2.17645">
        <ele>477.91</ele>
        <time>2013-05-26T17:17:36Z</time>
      </trkpt>
      <trkpt lat="43.35875" lon="2.17728">
        <ele>473.11</ele>
        <time>2013-05-26T17:17:43Z</time>
      </trkpt>
      <trkpt lat="43.35965" lon="2.17777">
        <ele>470.7</ele>
        <time>2013-05-26T17:17:53Z</time>
      </trkpt>
      <trkpt lat="43.35894" lon="2.17496">
        <ele>481.28</ele>
        <time>2013-05-26T17:18:07Z</time>
      </trkpt>
      <trkpt lat="43.35893" lon="2.17366">
        <ele>488.97</ele>
        <time>2013-05-26T17:18:17Z</time>
      </trkpt>
      <trkpt lat="43.35949" lon="2.1723">
        <ele>494.74</ele>
        <time>2013-05-26T17:18:26Z</time>
      </trkpt>
      <trkpt lat="43.35971" lon="2.17104">
        <ele>492.81</ele>
        <time>2013-05-26T17:18:36Z</time>
      </trkpt>
      <trkpt lat="43.36008" lon="2.16985">
        <ele>487.05</ele>
        <time>2013-05-26T17:18:46Z</time>
      </trkpt>
      <trkpt lat="43.36065" lon="2.16897">
        <ele>481.28</ele>
        <time>2013-05-26T17:18:56Z</time>
      </trkpt>
      <trkpt lat="43.36151" lon="2.16854">
        <ele>471.66</ele>
        <time>2013-05-26T17:19:06Z</time>
      </trkpt>
      <trkpt lat="43.36045" lon="2.16777">
        <ele>469.26</ele>
        <time>2013-05-26T17:19:20Z</time>
      </trkpt>
      <trkpt lat="43.36025" lon="2.16659">
        <ele>478.39</ele>
        <time>2013-05-26T17:19:32Z</time>
      </trkpt>
      <trkpt lat="43.36045" lon="2.16535">
        <ele>484.64</ele>
        <time>2013-05-26T17:19:43Z</time>
      </trkpt>
      <trkpt lat="43.36069" lon="2.16403">
        <ele>492.33</ele>
        <time>2013-05-26T17:19:52Z</time>
      </trkpt>
      <trkpt lat="43.36127" lon="2.16305">
        <ele>495.7</ele>
        <time>2013-05-26T17:20:00Z</time>
      </trkpt>
      <trkpt lat="43.3621" lon="2.16233">
        <ele>503.87</ele>
        <time>2013-05-26T17:20:08Z</time>
      </trkpt>
      <trkpt lat="43.36292" lon="2.16166">
        <ele>510.6</ele>
        <time>2013-05-26T17:20:18Z</time>
      </trkpt>
      <trkpt lat="43.36376" lon="2.16101">
        <ele>517.81</ele>
        <time>2013-05-26T17:20:26Z</time>
      </trkpt>
      <trkpt lat="43.36464" lon="2.16031">
        <ele>523.58</ele>
        <time>2013-05-26T17:20:32Z</time>
      </trkpt>
      <trkpt lat="43.36549" lon="2.15964">
        <ele>527.42</ele>
        <time>2013-05-26T17:20:37Z</time>
      </trkpt>
      <trkpt lat="43.36632" lon="2.15896">
        <ele>534.15</ele>
        <time>2013-05-26T17:20:42Z</time>
      </trkpt>
      <trkpt lat="43.36699" lon="2.15809">
        <ele>538.96</ele>
        <time>2013-05-26T17:20:47Z</time>
      </trkpt>
      <trkpt lat="43.36751" lon="2.15697">
        <ele>547.13</ele>
        <time>2013-05-26T17:20:52Z</time>
      </trkpt>
      <trkpt lat="43.36831" lon="2.15614">
        <ele>552.9</ele>
        <time>2013-05-26T17:20:58Z</time>
      </trkpt>
      <trkpt lat="43.36925" lon="2.1558">
        <ele>557.22</ele>
        <time>2013-05-26T17:21:04Z</time>
      </trkpt>
      <trkpt lat="43.37019" lon="2.15603">
        <ele>562.99</ele>
        <time>2013-05-26T17:21:10Z</time>
      </trkpt>
      <trkpt lat="43.37117" lon="2.15607">
        <ele>566.83</ele>
        <time>2013-05-26T17:21:17Z</time>
      </trkpt>
      <trkpt lat="43.37186" lon="2.15505">
        <ele>571.16</ele>
        <time>2013-05-26T17:21:23Z</time>
      </trkpt>
      <trkpt lat="43.37267" lon="2.15396">
        <ele>576.45</ele>
        <time>2013-05-26T17:21:29Z</time>
      </trkpt>
      <trkpt lat="43.37344" lon="2.15295">
        <ele>582.22</ele>
        <time>2013-05-26T17:21:34Z</time>
      </trkpt>
      <trkpt lat="43.37417" lon="2.152">
        <ele>582.7</ele>
        <time>2013-05-26T17:21:39Z</time>
      </trkpt>
      <trkpt lat="43.37478" lon="2.15088">
        <ele>587.98</ele>
        <time>2013-05-26T17:21:44Z</time>
      </trkpt>
      <trkpt lat="43.37533" lon="2.14975">
        <ele>588.46</ele>
        <time>2013-05-26T17:21:49Z</time>
      </trkpt>
      <trkpt lat="43.37594" lon="2.14855">
        <ele>587.98</ele>
        <time>2013-05-26T17:21:54Z</time>
      </trkpt>
      <trkpt lat="43.37656" lon="2.14732">
        <ele>586.54</ele>
        <time>2013-05-26T17:21:59Z</time>
      </trkpt>
      <trkpt lat="43.37716" lon="2.14613">
        <ele>583.66</ele>
        <time>2013-05-26T17:22:04Z</time>
      </trkpt>
      <trkpt lat="43.37787" lon="2.1451">
        <ele>581.73</ele>
        <time>2013-05-26T17:22:09Z</time>
      </trkpt>
      <trkpt lat="43.37863" lon="2.14418">
        <ele>581.73</ele>
        <time>2013-05-26T17:22:14Z</time>
      </trkpt>
      <trkpt lat="43.37933" lon="2.14328">
        <ele>578.85</ele>
        <time>2013-05-26T17:22:19Z</time>
      </trkpt>
      <trkpt lat="43.38007" lon="2.14237">
        <ele>578.37</ele>
        <time>2013-05-26T17:22:24Z</time>
      </trkpt>
      <trkpt lat="43.38079" lon="2.14143">
        <ele>582.22</ele>
        <time>2013-05-26T17:22:29Z</time>
      </trkpt>
      <trkpt lat="43.38157" lon="2.14047">
        <ele>585.1</ele>
        <time>2013-05-26T17:22:34Z</time>
      </trkpt>
      <trkpt lat="43.38231" lon="2.13954">
        <ele>584.14</ele>
        <time>2013-05-26T17:22:39Z</time>
      </trkpt>
      <trkpt lat="43.38319" lon="2.13865">
        <ele>580.29</ele>
        <time>2013-05-26T17:22:45Z</time>
      </trkpt>
      <trkpt lat="43.38415" lon="2.13829">
        <ele>578.37</ele>
        <time>2013-05-26T17:22:50Z</time>
      </trkpt>
      <trkpt lat="43.3851" lon="2.13797">
        <ele>576.45</ele>
        <time>2013-05-26T17:22:55Z</time>
      </trkpt>
      <trkpt lat="43.38598" lon="2.13767">
        <ele>576.45</ele>
        <time>2013-05-26T17:23:00Z</time>
      </trkpt>
      <trkpt lat="43.38688" lon="2.13735">
        <ele>575.97</ele>
        <time>2013-05-26T17:23:05Z</time>
      </trkpt>
      <trkpt lat="43.38769" lon="2.13677">
        <ele>579.81</ele>
        <time>2013-05-26T17:23:10Z</time>
      </trkpt>
      <trkpt lat="43.38836" lon="2.13589">
        <ele>586.54</ele>
        <time>2013-05-26T17:23:15Z</time>
      </trkpt>
      <trkpt lat="43.38906" lon="2.13501">
        <ele>593.27</ele>
        <time>2013-05-26T17:23:20Z</time>
      </trkpt>
      <trkpt lat="43.38977" lon="2.13413">
        <ele>598.56</ele>
        <time>2013-05-26T17:23:25Z</time>
      </trkpt>
      <trkpt lat="43.39045" lon="2.13322">
        <ele>605.29</ele>
        <time>2013-05-26T17:23:30Z</time>
      </trkpt>
      <trkpt lat="43.39114" lon="2.13228">
        <ele>608.65</ele>
        <time>2013-05-26T17:23:35Z</time>
      </trkpt>
      <trkpt lat="43.39179" lon="2.13133">
        <ele>611.54</ele>
        <time>2013-05-26T17:23:40Z</time>
      </trkpt>
      <trkpt lat="43.39244" lon="2.13042">
        <ele>617.3</ele>
        <time>2013-05-26T17:23:45Z</time>
      </trkpt>
      <trkpt lat="43.39305" lon="2.12937">
        <ele>623.55</ele>
        <time>2013-05-26T17:23:50Z</time>
      </trkpt>
      <trkpt lat="43.39346" lon="2.12816">
        <ele>628.84</ele>
        <time>2013-05-26T17:23:55Z</time>
      </trkpt>
      <trkpt lat="43.39378" lon="2.12698">
        <ele>633.65</ele>
        <time>2013-05-26T17:24:00Z</time>
      </trkpt>
      <trkpt lat="43.39435" lon="2.12601">
        <ele>636.53</ele>
        <time>2013-05-26T17:24:06Z</time>
      </trkpt>
      <trkpt lat="43.39483" lon="2.1249">
        <ele>637.01</ele>
        <time>2013-05-26T17:24:12Z</time>
      </trkpt>
      <trkpt lat="43.39424" lon="2.12362">
        <ele>641.82</ele>
        <time>2013-05-26T17:24:19Z</time>
      </trkpt>
      <trkpt lat="43.39358" lon="2.1226">
        <ele>641.82</ele>
        <time>2013-05-26T17:24:24Z</time>
      </trkpt>
      <trkpt lat="43.39322" lon="2.12185">
        <ele>643.26</ele>
        <time>2013-05-26T17:24:30Z</time>
      </trkpt>
      <trkpt lat="43.39277" lon="2.12075">
        <ele>642.78</ele>
        <time>2013-05-26T17:24:38Z</time>
      </trkpt>
      <trkpt lat="43.3929" lon="2.11932">
        <ele>644.7</ele>
        <time>2013-05-26T17:24:45Z</time>
      </trkpt>
      <trkpt lat="43.39362" lon="2.11881">
        <ele>647.59</ele>
        <time>2013-05-26T17:24:57Z</time>
      </trkpt>
      <trkpt lat="43.39483" lon="2.11773">
        <ele>648.55</ele>
        <time>2013-05-26T17:25:11Z</time>
      </trkpt>
      <trkpt lat="43.39328" lon="2.11584">
        <ele>645.66</ele>
        <time>2013-05-26T17:25:18Z</time>
      </trkpt>
      <trkpt lat="43.39259" lon="2.11497">
        <ele>642.78</ele>
        <time>2013-05-26T17:25:24Z</time>
      </trkpt>
      <trkpt lat="43.39228" lon="2.11371">
        <ele>639.89</ele>
        <time>2013-05-26T17:25:29Z</time>
      </trkpt>
      <trkpt lat="43.39242" lon="2.11231">
        <ele>636.53</ele>
        <time>2013-05-26T17:25:35Z</time>
      </trkpt>
      <trkpt lat="43.39234" lon="2.11088">
        <ele>632.2</ele>
        <time>2013-05-26T17:25:41Z</time>
      </trkpt>
      <trkpt lat="43.39211" lon="2.1097">
        <ele>628.84</ele>
        <time>2013-05-26T17:25:47Z</time>
      </trkpt>
      <trkpt lat="43.39198" lon="2.10847">
        <ele>626.44</ele>
        <time>2013-05-26T17:25:54Z</time>
      </trkpt>
      <trkpt lat="43.39346" lon="2.10738">
        <ele>621.63</ele>
        <time>2013-05-26T17:26:01Z</time>
      </trkpt>
      <trkpt lat="43.39434" lon="2.1062">
        <ele>621.15</ele>
        <time>2013-05-26T17:26:07Z</time>
      </trkpt>
      <trkpt lat="43.39479" lon="2.10507">
        <ele>619.23</ele>
        <time>2013-05-26T17:26:12Z</time>
      </trkpt>
      <trkpt lat="43.39518" lon="2.10387">
        <ele>617.78</ele>
        <time>2013-05-26T17:26:17Z</time>
      </trkpt>
      <trkpt lat="43.39541" lon="2.10256">
        <ele>616.34</ele>
        <time>2013-05-26T17:26:22Z</time>
      </trkpt>
      <trkpt lat="43.39557" lon="2.10122">
        <ele>614.42</ele>
        <time>2013-05-26T17:26:27Z</time>
      </trkpt>
      <trkpt lat="43.39573" lon="2.09983">
        <ele>612.02</ele>
        <time>2013-05-26T17:26:32Z</time>
      </trkpt>
      <trkpt lat="43.3958" lon="2.0984">
        <ele>610.57</ele>
        <time>2013-05-26T17:26:37Z</time>
      </trkpt>
      <trkpt lat="43.39591" lon="2.09704">
        <ele>608.65</ele>
        <time>2013-05-26T17:26:42Z</time>
      </trkpt>
      <trkpt lat="43.39617" lon="2.09569">
        <ele>604.33</ele>
        <time>2013-05-26T17:26:48Z</time>
      </trkpt>
      <trkpt lat="43.39695" lon="2.09498">
        <ele>600.96</ele>
        <time>2013-05-26T17:26:55Z</time>
      </trkpt>
      <trkpt lat="43.39783" lon="2.09428">
        <ele>601.92</ele>
        <time>2013-05-26T17:27:03Z</time>
      </trkpt>
      <trkpt lat="43.39802" lon="2.09302">
        <ele>608.65</ele>
        <time>2013-05-26T17:27:10Z</time>
      </trkpt>
      <trkpt lat="43.39816" lon="2.09173">
        <ele>614.9</ele>
        <time>2013-05-26T17:27:17Z</time>
      </trkpt>
      <trkpt lat="43.39895" lon="2.09177">
        <ele>619.71</ele>
        <time>2013-05-26T17:27:24Z</time>
      </trkpt>
      <trkpt lat="43.39978" lon="2.09261">
        <ele>620.19</ele>
        <time>2013-05-26T17:27:31Z</time>
      </trkpt>
      <trkpt lat="43.40071" lon="2.09298">
        <ele>618.75</ele>
        <time>2013-05-26T17:27:37Z</time>
      </trkpt>
      <trkpt lat="43.40152" lon="2.09205">
        <ele>622.11</ele>
        <time>2013-05-26T17:27:43Z</time>
      </trkpt>
      <trkpt lat="43.40217" lon="2.09093">
        <ele>625.96</ele>
        <time>2013-05-26T17:27:49Z</time>
      </trkpt>
      <trkpt lat="43.40277" lon="2.08998">
        <ele>628.84</ele>
        <time>2013-05-26T17:27:54Z</time>
      </trkpt>
      <trkpt lat="43.40343" lon="2.08881">
        <ele>632.68</ele>
        <time>2013-05-26T17:28:00Z</time>
      </trkpt>
      <trkpt lat="43.40405" lon="2.08794">
        <ele>635.09</ele>
        <time>2013-05-26T17:28:05Z</time>
      </trkpt>
      <trkpt lat="43.40475" lon="2.08705">
        <ele>635.57</ele>
        <time>2013-05-26T17:28:10Z</time>
      </trkpt>
      <trkpt lat="43.40533" lon="2.08597">
        <ele>640.38</ele>
        <time>2013-05-26T17:28:15Z</time>
      </trkpt>
      <trkpt lat="43.40592" lon="2.08474">
        <ele>639.41</ele>
        <time>2013-05-26T17:28:21Z</time>
      </trkpt>
      <trkpt lat="43.40651" lon="2.08351">
        <ele>635.09</ele>
        <time>2013-05-26T17:28:27Z</time>
      </trkpt>
      <trkpt lat="43.40703" lon="2.08236">
        <ele>628.84</ele>
        <time>2013-05-26T17:28:34Z</time>
      </trkpt>
      <trkpt lat="43.40757" lon="2.08133">
        <ele>623.07</ele>
        <time>2013-05-26T17:28:43Z</time>
      </trkpt>
      <trkpt lat="43.4085" lon="2.08129">
        <ele>616.34</ele>
        <time>2013-05-26T17:28:53Z</time>
      </trkpt>
      <trkpt lat="43.40942" lon="2.08093">
        <ele>612.5</ele>
        <time>2013-05-26T17:29:03Z</time>
      </trkpt>
      <trkpt lat="43.41018" lon="2.08007">
        <ele>611.06</ele>
        <time>2013-05-26T17:29:13Z</time>
      </trkpt>
      <trkpt lat="43.41103" lon="2.07926">
        <ele>611.54</ele>
        <time>2013-05-26T17:29:23Z</time>
      </trkpt>
      <trkpt lat="43.4119" lon="2.07856">
        <ele>609.61</ele>
        <time>2013-05-26T17:29:33Z</time>
      </trkpt>
      <trkpt lat="43.41246" lon="2.07758">
        <ele>610.09</ele>
        <time>2013-05-26T17:29:42Z</time>
      </trkpt>
      <trkpt lat="43.41245" lon="2.07625">
        <ele>608.17</ele>
        <time>2013-05-26T17:29:51Z</time>
      </trkpt>
      <trkpt lat="43.41213" lon="2.07496">
        <ele>607.69</ele>
        <time>2013-05-26T17:30:04Z</time>
      </trkpt>
      <trkpt lat="43.41234" lon="2.07365">
        <ele>604.33</ele>
        <time>2013-05-26T17:30:11Z</time>
      </trkpt>
      <trkpt lat="43.4128" lon="2.0724">
        <ele>600.48</ele>
        <time>2013-05-26T17:30:17Z</time>
      </trkpt>
      <trkpt lat="43.41322" lon="2.07122">
        <ele>596.64</ele>
        <time>2013-05-26T17:30:22Z</time>
      </trkpt>
      <trkpt lat="43.41347" lon="2.06988">
        <ele>591.83</ele>
        <time>2013-05-26T17:30:28Z</time>
      </trkpt>
      <trkpt lat="43.41286" lon="2.06892">
        <ele>588.46</ele>
        <time>2013-05-26T17:30:35Z</time>
      </trkpt>
      <trkpt lat="43.41235" lon="2.06779">
        <ele>583.66</ele>
        <time>2013-05-26T17:30:43Z</time>
      </trkpt>
      <trkpt lat="43.41254" lon="2.06644">
        <ele>577.41</ele>
        <time>2013-05-26T17:30:51Z</time>
      </trkpt>
      <trkpt lat="43.41282" lon="2.06525">
        <ele>574.53</ele>
        <time>2013-05-26T17:30:58Z</time>
      </trkpt>
      <trkpt lat="43.41343" lon="2.06425">
        <ele>568.76</ele>
        <time>2013-05-26T17:31:05Z</time>
      </trkpt>
      <trkpt lat="43.41408" lon="2.06301">
        <ele>562.99</ele>
        <time>2013-05-26T17:31:12Z</time>
      </trkpt>
      <trkpt lat="43.41477" lon="2.06214">
        <ele>558.66</ele>
        <time>2013-05-26T17:31:18Z</time>
      </trkpt>
      <trkpt lat="43.41557" lon="2.06156">
        <ele>552.9</ele>
        <time>2013-05-26T17:31:25Z</time>
      </trkpt>
      <trkpt lat="43.41652" lon="2.06142">
        <ele>548.09</ele>
        <time>2013-05-26T17:31:31Z</time>
      </trkpt>
      <trkpt lat="43.41744" lon="2.06134">
        <ele>543.28</ele>
        <time>2013-05-26T17:31:37Z</time>
      </trkpt>
      <trkpt lat="43.41831" lon="2.06164">
        <ele>536.55</ele>
        <time>2013-05-26T17:31:43Z</time>
      </trkpt>
      <trkpt lat="43.41907" lon="2.06084">
        <ele>531.75</ele>
        <time>2013-05-26T17:31:49Z</time>
      </trkpt>
      <trkpt lat="43.41969" lon="2.05985">
        <ele>527.9</ele>
        <time>2013-05-26T17:31:56Z</time>
      </trkpt>
      <trkpt lat="43.42063" lon="2.05963">
        <ele>523.09</ele>
        <time>2013-05-26T17:32:03Z</time>
      </trkpt>
      <trkpt lat="43.42157" lon="2.05935">
        <ele>517.33</ele>
        <time>2013-05-26T17:32:10Z</time>
      </trkpt>
      <trkpt lat="43.42225" lon="2.05842">
        <ele>513</ele>
        <time>2013-05-26T17:32:16Z</time>
      </trkpt>
      <trkpt lat="43.42309" lon="2.05769">
        <ele>510.12</ele>
        <time>2013-05-26T17:32:22Z</time>
      </trkpt>
      <trkpt lat="43.42398" lon="2.05697">
        <ele>502.91</ele>
        <time>2013-05-26T17:32:28Z</time>
      </trkpt>
      <trkpt lat="43.42502" lon="2.05676">
        <ele>499.06</ele>
        <time>2013-05-26T17:32:34Z</time>
      </trkpt>
      <trkpt lat="43.42568" lon="2.05677">
        <ele>490.41</ele>
        <time>2013-05-26T17:32:43Z</time>
      </trkpt>
      <trkpt lat="43.42568" lon="2.05822">
        <ele>486.56</ele>
        <time>2013-05-26T17:32:52Z</time>
      </trkpt>
      <trkpt lat="43.42549" lon="2.05955">
        <ele>482.24</ele>
        <time>2013-05-26T17:33:00Z</time>
      </trkpt>
      <trkpt lat="43.42645" lon="2.05869">
        <ele>477.43</ele>
        <time>2013-05-26T17:33:13Z</time>
      </trkpt>
      <trkpt lat="43.42711" lon="2.05732">
        <ele>472.14</ele>
        <time>2013-05-26T17:33:20Z</time>
      </trkpt>
      <trkpt lat="43.42772" lon="2.05612">
        <ele>464.93</ele>
        <time>2013-05-26T17:33:28Z</time>
      </trkpt>
      <trkpt lat="43.42858" lon="2.05517">
        <ele>459.65</ele>
        <time>2013-05-26T17:33:35Z</time>
      </trkpt>
      <trkpt lat="43.42947" lon="2.05451">
        <ele>454.36</ele>
        <time>2013-05-26T17:33:42Z</time>
      </trkpt>
      <trkpt lat="43.4304" lon="2.05478">
        <ele>450.52</ele>
        <time>2013-05-26T17:33:50Z</time>
      </trkpt>
      <trkpt lat="43.43098" lon="2.05445">
        <ele>447.15</ele>
        <time>2013-05-26T17:33:59Z</time>
      </trkpt>
      <trkpt lat="43.43062" lon="2.05332">
        <ele>443.79</ele>
        <time>2013-05-26T17:34:08Z</time>
      </trkpt>
      <trkpt lat="43.43062" lon="2.05215">
        <ele>438.5</ele>
        <time>2013-05-26T17:34:15Z</time>
      </trkpt>
      <trkpt lat="43.43048" lon="2.0509">
        <ele>432.25</ele>
        <time>2013-05-26T17:34:20Z</time>
      </trkpt>
      <trkpt lat="43.43195" lon="2.04981">
        <ele>429.37</ele>
        <time>2013-05-26T17:34:25Z</time>
      </trkpt>
      <trkpt lat="43.43288" lon="2.04898">
        <ele>426</ele>
        <time>2013-05-26T17:34:31Z</time>
      </trkpt>
      <trkpt lat="43.43366" lon="2.04828">
        <ele>422.16</ele>
        <time>2013-05-26T17:34:37Z</time>
      </trkpt>
      <trkpt lat="43.43437" lon="2.04736">
        <ele>416.87</ele>
        <time>2013-05-26T17:34:44Z</time>
      </trkpt>
      <trkpt lat="43.4346" lon="2.04603">
        <ele>415.43</ele>
        <time>2013-05-26T17:34:50Z</time>
      </trkpt>
      <trkpt lat="43.43482" lon="2.04474">
        <ele>412.06</ele>
        <time>2013-05-26T17:34:56Z</time>
      </trkpt>
      <trkpt lat="43.43489" lon="2.04357">
        <ele>409.18</ele>
        <time>2013-05-26T17:35:01Z</time>
      </trkpt>
      <trkpt lat="43.43495" lon="2.04223">
        <ele>404.85</ele>
        <time>2013-05-26T17:35:07Z</time>
      </trkpt>
      <trkpt lat="43.43536" lon="2.04109">
        <ele>401.49</ele>
        <time>2013-05-26T17:35:13Z</time>
      </trkpt>
      <trkpt lat="43.43598" lon="2.04009">
        <ele>397.64</ele>
        <time>2013-05-26T17:35:18Z</time>
      </trkpt>
      <trkpt lat="43.43669" lon="2.03892">
        <ele>394.28</ele>
        <time>2013-05-26T17:35:24Z</time>
      </trkpt>
      <trkpt lat="43.43719" lon="2.03783">
        <ele>390.43</ele>
        <time>2013-05-26T17:35:29Z</time>
      </trkpt>
      <trkpt lat="43.43754" lon="2.03667">
        <ele>386.59</ele>
        <time>2013-05-26T17:35:34Z</time>
      </trkpt>
      <trkpt lat="43.43851" lon="2.03562">
        <ele>382.26</ele>
        <time>2013-05-26T17:35:40Z</time>
      </trkpt>
      <trkpt lat="43.43934" lon="2.03471">
        <ele>380.82</ele>
        <time>2013-05-26T17:35:45Z</time>
      </trkpt>
      <trkpt lat="43.43996" lon="2.03366">
        <ele>378.9</ele>
        <time>2013-05-26T17:35:50Z</time>
      </trkpt>
      <trkpt lat="43.44075" lon="2.03251">
        <ele>377.94</ele>
        <time>2013-05-26T17:35:56Z</time>
      </trkpt>
      <trkpt lat="43.44123" lon="2.03138">
        <ele>374.57</ele>
        <time>2013-05-26T17:36:04Z</time>
      </trkpt>
      <trkpt lat="43.44084" lon="2.03003">
        <ele>369.76</ele>
        <time>2013-05-26T17:36:13Z</time>
      </trkpt>
      <trkpt lat="43.44051" lon="2.0286">
        <ele>367.36</ele>
        <time>2013-05-26T17:36:23Z</time>
      </trkpt>
      <trkpt lat="43.44053" lon="2.0272">
        <ele>368.32</ele>
        <time>2013-05-26T17:36:33Z</time>
      </trkpt>
      <trkpt lat="43.44058" lon="2.026">
        <ele>366.4</ele>
        <time>2013-05-26T17:36:49Z</time>
      </trkpt>
      <trkpt lat="43.44081" lon="2.02459">
        <ele>358.23</ele>
        <time>2013-05-26T18:39:59Z</time>
      </trkpt>
      <trkpt lat="43.44132" lon="2.02327">
        <ele>354.38</ele>
        <time>2013-05-26T18:40:09Z</time>
      </trkpt>
      <trkpt lat="43.442" lon="2.02214">
        <ele>346.21</ele>
        <time>2013-05-26T18:40:19Z</time>
      </trkpt>
      <trkpt lat="43.44282" lon="2.02117">
        <ele>340.44</ele>
        <time>2013-05-26T18:40:26Z</time>
      </trkpt>
      <trkpt lat="43.44361" lon="2.02051">
        <ele>334.2</ele>
        <time>2013-05-26T18:40:32Z</time>
      </trkpt>
      <trkpt lat="43.44431" lon="2.01941">
        <ele>327.47</ele>
        <time>2013-05-26T18:40:38Z</time>
      </trkpt>
      <trkpt lat="43.44503" lon="2.01843">
        <ele>321.7</ele>
        <time>2013-05-26T18:40:44Z</time>
      </trkpt>
      <trkpt lat="43.44541" lon="2.01729">
        <ele>314.49</ele>
        <time>2013-05-26T18:40:49Z</time>
      </trkpt>
      <trkpt lat="43.44574" lon="2.01599">
        <ele>306.8</ele>
        <time>2013-05-26T18:40:56Z</time>
      </trkpt>
      <trkpt lat="43.44569" lon="2.01469">
        <ele>300.55</ele>
        <time>2013-05-26T18:41:04Z</time>
      </trkpt>
      <trkpt lat="43.44609" lon="2.01347">
        <ele>291.42</ele>
        <time>2013-05-26T18:41:13Z</time>
      </trkpt>
      <trkpt lat="43.44675" lon="2.0123">
        <ele>283.73</ele>
        <time>2013-05-26T18:41:20Z</time>
      </trkpt>
      <trkpt lat="43.44711" lon="2.01096">
        <ele>275.07</ele>
        <time>2013-05-26T18:41:26Z</time>
      </trkpt>
      <trkpt lat="43.44749" lon="2.00953">
        <ele>266.42</ele>
        <time>2013-05-26T18:41:32Z</time>
      </trkpt>
      <trkpt lat="43.44787" lon="2.00811">
        <ele>257.29</ele>
        <time>2013-05-26T18:41:38Z</time>
      </trkpt>
      <trkpt lat="43.44826" lon="2.0069">
        <ele>252.96</ele>
        <time>2013-05-26T18:41:44Z</time>
      </trkpt>
      <trkpt lat="43.44908" lon="2.00625">
        <ele>245.75</ele>
        <time>2013-05-26T18:41:50Z</time>
      </trkpt>
      <trkpt lat="43.45001" lon="2.00593">
        <ele>240.95</ele>
        <time>2013-05-26T18:41:58Z</time>
      </trkpt>
      <trkpt lat="43.45094" lon="2.00542">
        <ele>237.1</ele>
        <time>2013-05-26T18:42:06Z</time>
      </trkpt>
      <trkpt lat="43.45182" lon="2.00497">
        <ele>236.14</ele>
        <time>2013-05-26T18:42:17Z</time>
      </trkpt>
      <trkpt lat="43.45275" lon="2.00447">
        <ele>231.33</ele>
        <time>2013-05-26T18:42:25Z</time>
      </trkpt>
      <trkpt lat="43.45369" lon="2.00395">
        <ele>227.97</ele>
        <time>2013-05-26T18:42:33Z</time>
      </trkpt>
      <trkpt lat="43.4546" lon="2.00345">
        <ele>225.09</ele>
        <time>2013-05-26T18:42:41Z</time>
      </trkpt>
      <trkpt lat="43.45552" lon="2.00295">
        <ele>223.64</ele>
        <time>2013-05-26T18:42:49Z</time>
      </trkpt>
      <trkpt lat="43.45642" lon="2.00252">
        <ele>219.8</ele>
        <time>2013-05-26T18:42:59Z</time>
      </trkpt>
      <trkpt lat="43.45623" lon="2.00131">
        <ele>220.28</ele>
        <time>2013-05-26T18:43:12Z</time>
      </trkpt>
      <trkpt lat="43.45594" lon="2.00005">
        <ele>220.76</ele>
        <time>2013-05-26T18:43:23Z</time>
      </trkpt>
      <trkpt lat="43.45564" lon="1.99882">
        <ele>220.76</ele>
        <time>2013-05-26T18:43:31Z</time>
      </trkpt>
      <trkpt lat="43.45539" lon="1.99762">
        <ele>220.76</ele>
        <time>2013-05-26T18:43:38Z</time>
      </trkpt>
      <trkpt lat="43.45512" lon="1.99643">
        <ele>220.76</ele>
        <time>2013-05-26T18:43:45Z</time>
      </trkpt>
      <trkpt lat="43.45484" lon="1.99523">
        <ele>220.76</ele>
        <time>2013-05-26T18:43:52Z</time>
      </trkpt>
      <trkpt lat="43.45455" lon="1.99393">
        <ele>222.2</ele>
        <time>2013-05-26T18:44:00Z</time>
      </trkpt>
      <trkpt lat="43.45431" lon="1.99272">
        <ele>221.72</ele>
        <time>2013-05-26T18:44:13Z</time>
      </trkpt>
      <trkpt lat="43.45403" lon="1.99151">
        <ele>221.24</ele>
        <time>2013-05-26T18:44:20Z</time>
      </trkpt>
      <trkpt lat="43.45375" lon="1.99016">
        <ele>221.72</ele>
        <time>2013-05-26T18:44:27Z</time>
      </trkpt>
      <trkpt lat="43.45348" lon="1.98882">
        <ele>222.2</ele>
        <time>2013-05-26T18:44:33Z</time>
      </trkpt>
      <trkpt lat="43.45319" lon="1.98747">
        <ele>223.64</ele>
        <time>2013-05-26T18:44:39Z</time>
      </trkpt>
      <trkpt lat="43.45291" lon="1.98613">
        <ele>223.16</ele>
        <time>2013-05-26T18:44:45Z</time>
      </trkpt>
      <trkpt lat="43.45262" lon="1.98479">
        <ele>223.16</ele>
        <time>2013-05-26T18:44:51Z</time>
      </trkpt>
      <trkpt lat="43.45235" lon="1.98346">
        <ele>222.2</ele>
        <time>2013-05-26T18:44:57Z</time>
      </trkpt>
      <trkpt lat="43.45205" lon="1.98215">
        <ele>221.72</ele>
        <time>2013-05-26T18:45:03Z</time>
      </trkpt>
      <trkpt lat="43.45176" lon="1.98085">
        <ele>222.68</ele>
        <time>2013-05-26T18:45:09Z</time>
      </trkpt>
      <trkpt lat="43.45167" lon="1.97965">
        <ele>221.72</ele>
        <time>2013-05-26T18:45:18Z</time>
      </trkpt>
      <trkpt lat="43.45125" lon="1.97853">
        <ele>223.16</ele>
        <time>2013-05-26T18:45:28Z</time>
      </trkpt>
      <trkpt lat="43.45095" lon="1.97718">
        <ele>223.16</ele>
        <time>2013-05-26T18:45:34Z</time>
      </trkpt>
      <trkpt lat="43.45063" lon="1.97574">
        <ele>222.2</ele>
        <time>2013-05-26T18:45:39Z</time>
      </trkpt>
      <trkpt lat="43.45031" lon="1.97433">
        <ele>221.24</ele>
        <time>2013-05-26T18:45:44Z</time>
      </trkpt>
      <trkpt lat="43.45" lon="1.9729">
        <ele>220.28</ele>
        <time>2013-05-26T18:45:49Z</time>
      </trkpt>
      <trkpt lat="43.44969" lon="1.97142">
        <ele>218.84</ele>
        <time>2013-05-26T18:45:54Z</time>
      </trkpt>
      <trkpt lat="43.44938" lon="1.96998">
        <ele>218.84</ele>
        <time>2013-05-26T18:45:59Z</time>
      </trkpt>
      <trkpt lat="43.44906" lon="1.96855">
        <ele>219.32</ele>
        <time>2013-05-26T18:46:04Z</time>
      </trkpt>
      <trkpt lat="43.44874" lon="1.96708">
        <ele>218.84</ele>
        <time>2013-05-26T18:46:09Z</time>
      </trkpt>
      <trkpt lat="43.44842" lon="1.96564">
        <ele>219.32</ele>
        <time>2013-05-26T18:46:14Z</time>
      </trkpt>
      <trkpt lat="43.4481" lon="1.9642">
        <ele>218.84</ele>
        <time>2013-05-26T18:46:19Z</time>
      </trkpt>
      <trkpt lat="43.4478" lon="1.96278">
        <ele>218.84</ele>
        <time>2013-05-26T18:46:24Z</time>
      </trkpt>
      <trkpt lat="43.44749" lon="1.96134">
        <ele>216.43</ele>
        <time>2013-05-26T18:46:29Z</time>
      </trkpt>
      <trkpt lat="43.44718" lon="1.95992">
        <ele>216.91</ele>
        <time>2013-05-26T18:46:34Z</time>
      </trkpt>
      <trkpt lat="43.44687" lon="1.9585">
        <ele>216.91</ele>
        <time>2013-05-26T18:46:39Z</time>
      </trkpt>
      <trkpt lat="43.44657" lon="1.95709">
        <ele>224.12</ele>
        <time>2013-05-26T18:46:44Z</time>
      </trkpt>
      <trkpt lat="43.44627" lon="1.95565">
        <ele>218.36</ele>
        <time>2013-05-26T18:46:49Z</time>
      </trkpt>
      <trkpt lat="43.44598" lon="1.95432">
        <ele>217.4</ele>
        <time>2013-05-26T18:46:54Z</time>
      </trkpt>
      <trkpt lat="43.44567" lon="1.95294">
        <ele>218.36</ele>
        <time>2013-05-26T18:47:00Z</time>
      </trkpt>
      <trkpt lat="43.44553" lon="1.95156">
        <ele>218.84</ele>
        <time>2013-05-26T18:47:07Z</time>
      </trkpt>
      <trkpt lat="43.44565" lon="1.95028">
        <ele>217.4</ele>
        <time>2013-05-26T18:47:13Z</time>
      </trkpt>
      <trkpt lat="43.44578" lon="1.94897">
        <ele>214.51</ele>
        <time>2013-05-26T18:47:18Z</time>
      </trkpt>
      <trkpt lat="43.44591" lon="1.94754">
        <ele>213.55</ele>
        <time>2013-05-26T18:47:23Z</time>
      </trkpt>
      <trkpt lat="43.44605" lon="1.94607">
        <ele>212.59</ele>
        <time>2013-05-26T18:47:28Z</time>
      </trkpt>
      <trkpt lat="43.44619" lon="1.94466">
        <ele>213.07</ele>
        <time>2013-05-26T18:47:33Z</time>
      </trkpt>
      <trkpt lat="43.44632" lon="1.94325">
        <ele>212.59</ele>
        <time>2013-05-26T18:47:38Z</time>
      </trkpt>
      <trkpt lat="43.44646" lon="1.94181">
        <ele>213.07</ele>
        <time>2013-05-26T18:47:43Z</time>
      </trkpt>
      <trkpt lat="43.4466" lon="1.94034">
        <ele>211.63</ele>
        <time>2013-05-26T18:47:48Z</time>
      </trkpt>
      <trkpt lat="43.44674" lon="1.93888">
        <ele>214.03</ele>
        <time>2013-05-26T18:47:53Z</time>
      </trkpt>
      <trkpt lat="43.44688" lon="1.93744">
        <ele>215.47</ele>
        <time>2013-05-26T18:47:58Z</time>
      </trkpt>
      <trkpt lat="43.44702" lon="1.93595">
        <ele>214.03</ele>
        <time>2013-05-26T18:48:03Z</time>
      </trkpt>
      <trkpt lat="43.44717" lon="1.93446">
        <ele>212.59</ele>
        <time>2013-05-26T18:48:08Z</time>
      </trkpt>
      <trkpt lat="43.44731" lon="1.93299">
        <ele>211.63</ele>
        <time>2013-05-26T18:48:13Z</time>
      </trkpt>
      <trkpt lat="43.44744" lon="1.93155">
        <ele>214.03</ele>
        <time>2013-05-26T18:48:18Z</time>
      </trkpt>
      <trkpt lat="43.44758" lon="1.93013">
        <ele>213.07</ele>
        <time>2013-05-26T18:48:23Z</time>
      </trkpt>
      <trkpt lat="43.44772" lon="1.92875">
        <ele>212.59</ele>
        <time>2013-05-26T18:48:28Z</time>
      </trkpt>
      <trkpt lat="43.44785" lon="1.92729">
        <ele>211.15</ele>
        <time>2013-05-26T18:48:33Z</time>
      </trkpt>
      <trkpt lat="43.44799" lon="1.92585">
        <ele>208.74</ele>
        <time>2013-05-26T18:48:38Z</time>
      </trkpt>
      <trkpt lat="43.44813" lon="1.92436">
        <ele>210.19</ele>
        <time>2013-05-26T18:48:43Z</time>
      </trkpt>
      <trkpt lat="43.44826" lon="1.92292">
        <ele>210.19</ele>
        <time>2013-05-26T18:48:48Z</time>
      </trkpt>
      <trkpt lat="43.44841" lon="1.92145">
        <ele>210.19</ele>
        <time>2013-05-26T18:48:53Z</time>
      </trkpt>
      <trkpt lat="43.44855" lon="1.91998">
        <ele>210.19</ele>
        <time>2013-05-26T18:48:58Z</time>
      </trkpt>
      <trkpt lat="43.44869" lon="1.91857">
        <ele>211.63</ele>
        <time>2013-05-26T18:49:03Z</time>
      </trkpt>
      <trkpt lat="43.44883" lon="1.91729">
        <ele>212.11</ele>
        <time>2013-05-26T18:49:08Z</time>
      </trkpt>
      <trkpt lat="43.44897" lon="1.91602">
        <ele>213.55</ele>
        <time>2013-05-26T18:49:13Z</time>
      </trkpt>
      <trkpt lat="43.44906" lon="1.91474">
        <ele>211.15</ele>
        <time>2013-05-26T18:49:18Z</time>
      </trkpt>
      <trkpt lat="43.44918" lon="1.91343">
        <ele>215.95</ele>
        <time>2013-05-26T18:49:23Z</time>
      </trkpt>
      <trkpt lat="43.44932" lon="1.91208">
        <ele>216.43</ele>
        <time>2013-05-26T18:49:28Z</time>
      </trkpt>
      <trkpt lat="43.44946" lon="1.91068">
        <ele>220.76</ele>
        <time>2013-05-26T18:49:33Z</time>
      </trkpt>
      <trkpt lat="43.44958" lon="1.90922">
        <ele>225.09</ele>
        <time>2013-05-26T18:49:38Z</time>
      </trkpt>
      <trkpt lat="43.44971" lon="1.90776">
        <ele>227.97</ele>
        <time>2013-05-26T18:49:43Z</time>
      </trkpt>
      <trkpt lat="43.44985" lon="1.90634">
        <ele>230.85</ele>
        <time>2013-05-26T18:49:48Z</time>
      </trkpt>
      <trkpt lat="43.44998" lon="1.90492">
        <ele>235.18</ele>
        <time>2013-05-26T18:49:53Z</time>
      </trkpt>
      <trkpt lat="43.45011" lon="1.90349">
        <ele>240.47</ele>
        <time>2013-05-26T18:49:58Z</time>
      </trkpt>
      <trkpt lat="43.4501" lon="1.90202">
        <ele>247.2</ele>
        <time>2013-05-26T18:50:03Z</time>
      </trkpt>
      <trkpt lat="43.45003" lon="1.90061">
        <ele>252.96</ele>
        <time>2013-05-26T18:50:08Z</time>
      </trkpt>
      <trkpt lat="43.44995" lon="1.89917">
        <ele>259.21</ele>
        <time>2013-05-26T18:50:13Z</time>
      </trkpt>
      <trkpt lat="43.4498" lon="1.89775">
        <ele>269.31</ele>
        <time>2013-05-26T18:50:18Z</time>
      </trkpt>
      <trkpt lat="43.44943" lon="1.89644">
        <ele>278.44</ele>
        <time>2013-05-26T18:50:23Z</time>
      </trkpt>
      <trkpt lat="43.44935" lon="1.89506">
        <ele>283.25</ele>
        <time>2013-05-26T18:50:28Z</time>
      </trkpt>
      <trkpt lat="43.4495" lon="1.89368">
        <ele>289.01</ele>
        <time>2013-05-26T18:50:33Z</time>
      </trkpt>
      <trkpt lat="43.44949" lon="1.89243">
        <ele>295.74</ele>
        <time>2013-05-26T18:50:38Z</time>
      </trkpt>
      <trkpt lat="43.44881" lon="1.89153">
        <ele>301.51</ele>
        <time>2013-05-26T18:50:45Z</time>
      </trkpt>
      <trkpt lat="43.44794" lon="1.89101">
        <ele>306.8</ele>
        <time>2013-05-26T18:50:51Z</time>
      </trkpt>
      <trkpt lat="43.44717" lon="1.89017">
        <ele>310.64</ele>
        <time>2013-05-26T18:50:59Z</time>
      </trkpt>
      <trkpt lat="43.44694" lon="1.88901">
        <ele>314.97</ele>
        <time>2013-05-26T18:51:07Z</time>
      </trkpt>
      <trkpt lat="43.44753" lon="1.88799">
        <ele>317.85</ele>
        <time>2013-05-26T18:51:14Z</time>
      </trkpt>
      <trkpt lat="43.44829" lon="1.88709">
        <ele>322.18</ele>
        <time>2013-05-26T18:51:22Z</time>
      </trkpt>
      <trkpt lat="43.44871" lon="1.88591">
        <ele>327.95</ele>
        <time>2013-05-26T18:51:30Z</time>
      </trkpt>
      <trkpt lat="43.44953" lon="1.88518">
        <ele>332.75</ele>
        <time>2013-05-26T18:51:39Z</time>
      </trkpt>
      <trkpt lat="43.45005" lon="1.88403">
        <ele>331.79</ele>
        <time>2013-05-26T18:51:48Z</time>
      </trkpt>
      <trkpt lat="43.45053" lon="1.88287">
        <ele>329.87</ele>
        <time>2013-05-26T18:51:55Z</time>
      </trkpt>
      <trkpt lat="43.45101" lon="1.88171">
        <ele>329.39</ele>
        <time>2013-05-26T18:52:02Z</time>
      </trkpt>
      <trkpt lat="43.45149" lon="1.88055">
        <ele>326.5</ele>
        <time>2013-05-26T18:52:09Z</time>
      </trkpt>
      <trkpt lat="43.45206" lon="1.87946">
        <ele>324.1</ele>
        <time>2013-05-26T18:52:16Z</time>
      </trkpt>
      <trkpt lat="43.45255" lon="1.87832">
        <ele>322.18</ele>
        <time>2013-05-26T18:52:23Z</time>
      </trkpt>
      <trkpt lat="43.45293" lon="1.87711">
        <ele>319.3</ele>
        <time>2013-05-26T18:52:29Z</time>
      </trkpt>
      <trkpt lat="43.45332" lon="1.87583">
        <ele>318.81</ele>
        <time>2013-05-26T18:52:35Z</time>
      </trkpt>
      <trkpt lat="43.45372" lon="1.8745">
        <ele>317.37</ele>
        <time>2013-05-26T18:52:41Z</time>
      </trkpt>
      <trkpt lat="43.45403" lon="1.87328">
        <ele>313.53</ele>
        <time>2013-05-26T18:52:46Z</time>
      </trkpt>
      <trkpt lat="43.4544" lon="1.87199">
        <ele>311.12</ele>
        <time>2013-05-26T18:52:51Z</time>
      </trkpt>
      <trkpt lat="43.45477" lon="1.87078">
        <ele>309.2</ele>
        <time>2013-05-26T18:52:56Z</time>
      </trkpt>
      <trkpt lat="43.455" lon="1.86941">
        <ele>305.36</ele>
        <time>2013-05-26T18:53:02Z</time>
      </trkpt>
      <trkpt lat="43.45519" lon="1.86796">
        <ele>297.67</ele>
        <time>2013-05-26T18:53:08Z</time>
      </trkpt>
      <trkpt lat="43.4554" lon="1.86672">
        <ele>293.82</ele>
        <time>2013-05-26T18:53:13Z</time>
      </trkpt>
      <trkpt lat="43.45578" lon="1.86553">
        <ele>288.53</ele>
        <time>2013-05-26T18:53:18Z</time>
      </trkpt>
      <trkpt lat="43.45634" lon="1.86448">
        <ele>283.73</ele>
        <time>2013-05-26T18:53:23Z</time>
      </trkpt>
      <trkpt lat="43.45696" lon="1.8635">
        <ele>275.56</ele>
        <time>2013-05-26T18:53:28Z</time>
      </trkpt>
      <trkpt lat="43.45744" lon="1.8622">
        <ele>271.71</ele>
        <time>2013-05-26T18:53:34Z</time>
      </trkpt>
      <trkpt lat="43.45806" lon="1.86118">
        <ele>267.86</ele>
        <time>2013-05-26T18:53:39Z</time>
      </trkpt>
      <trkpt lat="43.4589" lon="1.8603">
        <ele>259.21</ele>
        <time>2013-05-26T18:53:44Z</time>
      </trkpt>
      <trkpt lat="43.45985" lon="1.85967">
        <ele>254.41</ele>
        <time>2013-05-26T18:53:49Z</time>
      </trkpt>
      <trkpt lat="43.46075" lon="1.85904">
        <ele>248.64</ele>
        <time>2013-05-26T18:53:54Z</time>
      </trkpt>
      <trkpt lat="43.46141" lon="1.85804">
        <ele>243.35</ele>
        <time>2013-05-26T18:53:59Z</time>
      </trkpt>
      <trkpt lat="43.46141" lon="1.85664">
        <ele>245.27</ele>
        <time>2013-05-26T18:54:04Z</time>
      </trkpt>
      <trkpt lat="43.46119" lon="1.85533">
        <ele>250.08</ele>
        <time>2013-05-26T18:54:09Z</time>
      </trkpt>
      <trkpt lat="43.46102" lon="1.85403">
        <ele>252.96</ele>
        <time>2013-05-26T18:54:14Z</time>
      </trkpt>
      <trkpt lat="43.4608" lon="1.85276">
        <ele>257.77</ele>
        <time>2013-05-26T18:54:19Z</time>
      </trkpt>
      <trkpt lat="43.46031" lon="1.85166">
        <ele>265.46</ele>
        <time>2013-05-26T18:54:24Z</time>
      </trkpt>
      <trkpt lat="43.45986" lon="1.85051">
        <ele>268.83</ele>
        <time>2013-05-26T18:54:29Z</time>
      </trkpt>
      <trkpt lat="43.45983" lon="1.84917">
        <ele>275.07</ele>
        <time>2013-05-26T18:54:34Z</time>
      </trkpt>
      <trkpt lat="43.46012" lon="1.84774">
        <ele>274.59</ele>
        <time>2013-05-26T18:54:39Z</time>
      </trkpt>
      <trkpt lat="43.46042" lon="1.84633">
        <ele>276.52</ele>
        <time>2013-05-26T18:54:44Z</time>
      </trkpt>
      <trkpt lat="43.46071" lon="1.84492">
        <ele>277.96</ele>
        <time>2013-05-26T18:54:49Z</time>
      </trkpt>
      <trkpt lat="43.461" lon="1.84347">
        <ele>278.92</ele>
        <time>2013-05-26T18:54:54Z</time>
      </trkpt>
      <trkpt lat="43.46131" lon="1.84199">
        <ele>278.44</ele>
        <time>2013-05-26T18:54:59Z</time>
      </trkpt>
      <trkpt lat="43.46157" lon="1.84055">
        <ele>276.04</ele>
        <time>2013-05-26T18:55:04Z</time>
      </trkpt>
      <trkpt lat="43.46144" lon="1.83907">
        <ele>282.77</ele>
        <time>2013-05-26T18:55:09Z</time>
      </trkpt>
      <trkpt lat="43.46118" lon="1.83771">
        <ele>285.65</ele>
        <time>2013-05-26T18:55:14Z</time>
      </trkpt>
      <trkpt lat="43.46123" lon="1.83629">
        <ele>285.17</ele>
        <time>2013-05-26T18:55:19Z</time>
      </trkpt>
      <trkpt lat="43.46141" lon="1.83494">
        <ele>286.61</ele>
        <time>2013-05-26T18:55:25Z</time>
      </trkpt>
      <trkpt lat="43.4616" lon="1.83353">
        <ele>287.09</ele>
        <time>2013-05-26T18:55:34Z</time>
      </trkpt>
      <trkpt lat="43.46175" lon="1.8323">
        <ele>285.17</ele>
        <time>2013-05-26T18:55:39Z</time>
      </trkpt>
      <trkpt lat="43.46188" lon="1.83099">
        <ele>284.21</ele>
        <time>2013-05-26T18:55:44Z</time>
      </trkpt>
      <trkpt lat="43.46196" lon="1.82976">
        <ele>283.73</ele>
        <time>2013-05-26T18:55:49Z</time>
      </trkpt>
      <trkpt lat="43.46193" lon="1.82836">
        <ele>280.84</ele>
        <time>2013-05-26T18:55:55Z</time>
      </trkpt>
      <trkpt lat="43.4619" lon="1.82691">
        <ele>277.96</ele>
        <time>2013-05-26T18:56:01Z</time>
      </trkpt>
      <trkpt lat="43.46188" lon="1.82557">
        <ele>277.48</ele>
        <time>2013-05-26T18:56:07Z</time>
      </trkpt>
      <trkpt lat="43.46189" lon="1.8243">
        <ele>278.44</ele>
        <time>2013-05-26T18:56:16Z</time>
      </trkpt>
      <trkpt lat="43.46185" lon="1.82307">
        <ele>280.36</ele>
        <time>2013-05-26T18:57:57Z</time>
      </trkpt>
      <trkpt lat="43.46183" lon="1.82169">
        <ele>280.36</ele>
        <time>2013-05-26T18:58:03Z</time>
      </trkpt>
      <trkpt lat="43.46182" lon="1.82028">
        <ele>275.56</ele>
        <time>2013-05-26T18:58:08Z</time>
      </trkpt>
      <trkpt lat="43.46183" lon="1.81884">
        <ele>272.67</ele>
        <time>2013-05-26T18:58:13Z</time>
      </trkpt>
      <trkpt lat="43.46212" lon="1.8174">
        <ele>274.59</ele>
        <time>2013-05-26T18:58:18Z</time>
      </trkpt>
      <trkpt lat="43.46257" lon="1.81632">
        <ele>275.56</ele>
        <time>2013-05-26T18:58:22Z</time>
      </trkpt>
      <trkpt lat="43.46305" lon="1.81524">
        <ele>272.19</ele>
        <time>2013-05-26T18:58:26Z</time>
      </trkpt>
      <trkpt lat="43.46362" lon="1.81394">
        <ele>271.23</ele>
        <time>2013-05-26T18:58:31Z</time>
      </trkpt>
      <trkpt lat="43.46415" lon="1.8126">
        <ele>269.79</ele>
        <time>2013-05-26T18:58:36Z</time>
      </trkpt>
      <trkpt lat="43.46453" lon="1.81133">
        <ele>267.38</ele>
        <time>2013-05-26T18:58:40Z</time>
      </trkpt>
      <trkpt lat="43.4649" lon="1.8101">
        <ele>264.98</ele>
        <time>2013-05-26T18:58:44Z</time>
      </trkpt>
      <trkpt lat="43.46533" lon="1.80866">
        <ele>264.02</ele>
        <time>2013-05-26T18:58:49Z</time>
      </trkpt>
      <trkpt lat="43.46568" lon="1.8075">
        <ele>262.58</ele>
        <time>2013-05-26T18:58:53Z</time>
      </trkpt>
      <trkpt lat="43.46603" lon="1.80632">
        <ele>260.17</ele>
        <time>2013-05-26T18:58:57Z</time>
      </trkpt>
      <trkpt lat="43.46638" lon="1.80517">
        <ele>258.73</ele>
        <time>2013-05-26T18:59:01Z</time>
      </trkpt>
      <trkpt lat="43.46673" lon="1.804">
        <ele>256.81</ele>
        <time>2013-05-26T18:59:05Z</time>
      </trkpt>
      <trkpt lat="43.46708" lon="1.80284">
        <ele>253.44</ele>
        <time>2013-05-26T18:59:09Z</time>
      </trkpt>
      <trkpt lat="43.4675" lon="1.80147">
        <ele>252.48</ele>
        <time>2013-05-26T18:59:14Z</time>
      </trkpt>
      <trkpt lat="43.4678" lon="1.79998">
        <ele>246.72</ele>
        <time>2013-05-26T18:59:19Z</time>
      </trkpt>
      <trkpt lat="43.46796" lon="1.79868">
        <ele>248.64</ele>
        <time>2013-05-26T18:59:23Z</time>
      </trkpt>
      <trkpt lat="43.46812" lon="1.79744">
        <ele>247.68</ele>
        <time>2013-05-26T18:59:27Z</time>
      </trkpt>
      <trkpt lat="43.4683" lon="1.79603">
        <ele>250.56</ele>
        <time>2013-05-26T18:59:32Z</time>
      </trkpt>
      <trkpt lat="43.46849" lon="1.79459">
        <ele>248.16</ele>
        <time>2013-05-26T18:59:37Z</time>
      </trkpt>
      <trkpt lat="43.46868" lon="1.79319">
        <ele>250.56</ele>
        <time>2013-05-26T18:59:41Z</time>
      </trkpt>
      <trkpt lat="43.46887" lon="1.79188">
        <ele>253.44</ele>
        <time>2013-05-26T18:59:45Z</time>
      </trkpt>
      <trkpt lat="43.46903" lon="1.79059">
        <ele>254.89</ele>
        <time>2013-05-26T18:59:49Z</time>
      </trkpt>
      <trkpt lat="43.46923" lon="1.7891">
        <ele>261.62</ele>
        <time>2013-05-26T18:59:54Z</time>
      </trkpt>
      <trkpt lat="43.46943" lon="1.78759">
        <ele>264.5</ele>
        <time>2013-05-26T18:59:59Z</time>
      </trkpt>
      <trkpt lat="43.46963" lon="1.78613">
        <ele>266.42</ele>
        <time>2013-05-26T19:00:04Z</time>
      </trkpt>
      <trkpt lat="43.4698" lon="1.78463">
        <ele>265.94</ele>
        <time>2013-05-26T19:00:09Z</time>
      </trkpt>
      <trkpt lat="43.46986" lon="1.7833">
        <ele>267.86</ele>
        <time>2013-05-26T19:00:13Z</time>
      </trkpt>
      <trkpt lat="43.46989" lon="1.78174">
        <ele>269.79</ele>
        <time>2013-05-26T19:00:18Z</time>
      </trkpt>
      <trkpt lat="43.46992" lon="1.78034">
        <ele>270.27</ele>
        <time>2013-05-26T19:00:23Z</time>
      </trkpt>
      <trkpt lat="43.46995" lon="1.77893">
        <ele>268.83</ele>
        <time>2013-05-26T19:00:28Z</time>
      </trkpt>
      <trkpt lat="43.46998" lon="1.77744">
        <ele>268.35</ele>
        <time>2013-05-26T19:00:33Z</time>
      </trkpt>
      <trkpt lat="43.46988" lon="1.77595">
        <ele>271.71</ele>
        <time>2013-05-26T19:00:38Z</time>
      </trkpt>
      <trkpt lat="43.4693" lon="1.77489">
        <ele>281.8</ele>
        <time>2013-05-26T19:00:43Z</time>
      </trkpt>
      <trkpt lat="43.46846" lon="1.77428">
        <ele>286.61</ele>
        <time>2013-05-26T19:00:48Z</time>
      </trkpt>
      <trkpt lat="43.46786" lon="1.77333">
        <ele>285.17</ele>
        <time>2013-05-26T19:00:53Z</time>
      </trkpt>
      <trkpt lat="43.46767" lon="1.77201">
        <ele>280.36</ele>
        <time>2013-05-26T19:00:58Z</time>
      </trkpt>
      <trkpt lat="43.46785" lon="1.77049">
        <ele>273.15</ele>
        <time>2013-05-26T19:01:03Z</time>
      </trkpt>
      <trkpt lat="43.46804" lon="1.76896">
        <ele>267.38</ele>
        <time>2013-05-26T19:01:08Z</time>
      </trkpt>
      <trkpt lat="43.46818" lon="1.76773">
        <ele>264.02</ele>
        <time>2013-05-26T19:01:12Z</time>
      </trkpt>
      <trkpt lat="43.46837" lon="1.76623">
        <ele>259.69</ele>
        <time>2013-05-26T19:01:17Z</time>
      </trkpt>
      <trkpt lat="43.46854" lon="1.76473">
        <ele>256.33</ele>
        <time>2013-05-26T19:01:22Z</time>
      </trkpt>
      <trkpt lat="43.4687" lon="1.7635">
        <ele>253.93</ele>
        <time>2013-05-26T19:01:26Z</time>
      </trkpt>
      <trkpt lat="43.46894" lon="1.76197">
        <ele>250.56</ele>
        <time>2013-05-26T19:01:31Z</time>
      </trkpt>
      <trkpt lat="43.46917" lon="1.76071">
        <ele>247.2</ele>
        <time>2013-05-26T19:01:35Z</time>
      </trkpt>
      <trkpt lat="43.4694" lon="1.75938">
        <ele>246.23</ele>
        <time>2013-05-26T19:01:40Z</time>
      </trkpt>
      <trkpt lat="43.46943" lon="1.75785">
        <ele>245.75</ele>
        <time>2013-05-26T19:01:45Z</time>
      </trkpt>
      <trkpt lat="43.46941" lon="1.7565">
        <ele>242.39</ele>
        <time>2013-05-26T19:01:49Z</time>
      </trkpt>
      <trkpt lat="43.46938" lon="1.75518">
        <ele>238.54</ele>
        <time>2013-05-26T19:01:53Z</time>
      </trkpt>
      <trkpt lat="43.46936" lon="1.75386">
        <ele>236.14</ele>
        <time>2013-05-26T19:01:57Z</time>
      </trkpt>
      <trkpt lat="43.46934" lon="1.75235">
        <ele>235.66</ele>
        <time>2013-05-26T19:02:02Z</time>
      </trkpt>
      <trkpt lat="43.46945" lon="1.75085">
        <ele>236.14</ele>
        <time>2013-05-26T19:02:07Z</time>
      </trkpt>
      <trkpt lat="43.46968" lon="1.74943">
        <ele>235.66</ele>
        <time>2013-05-26T19:02:12Z</time>
      </trkpt>
      <trkpt lat="43.46992" lon="1.74796">
        <ele>235.66</ele>
        <time>2013-05-26T19:02:17Z</time>
      </trkpt>
      <trkpt lat="43.47012" lon="1.74671">
        <ele>237.58</ele>
        <time>2013-05-26T19:02:21Z</time>
      </trkpt>
      <trkpt lat="43.47032" lon="1.74538">
        <ele>239.02</ele>
        <time>2013-05-26T19:02:25Z</time>
      </trkpt>
      <trkpt lat="43.47056" lon="1.7439">
        <ele>240.95</ele>
        <time>2013-05-26T19:02:30Z</time>
      </trkpt>
      <trkpt lat="43.47079" lon="1.7424">
        <ele>246.23</ele>
        <time>2013-05-26T19:02:35Z</time>
      </trkpt>
      <trkpt lat="43.47099" lon="1.74115">
        <ele>249.6</ele>
        <time>2013-05-26T19:02:39Z</time>
      </trkpt>
      <trkpt lat="43.47135" lon="1.73991">
        <ele>254.41</ele>
        <time>2013-05-26T19:02:43Z</time>
      </trkpt>
      <trkpt lat="43.47172" lon="1.73877">
        <ele>257.77</ele>
        <time>2013-05-26T19:02:47Z</time>
      </trkpt>
      <trkpt lat="43.47215" lon="1.73736">
        <ele>261.14</ele>
        <time>2013-05-26T19:02:52Z</time>
      </trkpt>
      <trkpt lat="43.47246" lon="1.73587">
        <ele>265.94</ele>
        <time>2013-05-26T19:02:57Z</time>
      </trkpt>
      <trkpt lat="43.47278" lon="1.73439">
        <ele>264.02</ele>
        <time>2013-05-26T19:03:02Z</time>
      </trkpt>
      <trkpt lat="43.47303" lon="1.73315">
        <ele>265.46</ele>
        <time>2013-05-26T19:03:06Z</time>
      </trkpt>
      <trkpt lat="43.47328" lon="1.73193">
        <ele>265.46</ele>
        <time>2013-05-26T19:03:10Z</time>
      </trkpt>
      <trkpt lat="43.47354" lon="1.73071">
        <ele>267.38</ele>
        <time>2013-05-26T19:03:14Z</time>
      </trkpt>
      <trkpt lat="43.4738" lon="1.72947">
        <ele>269.79</ele>
        <time>2013-05-26T19:03:18Z</time>
      </trkpt>
      <trkpt lat="43.47393" lon="1.72807">
        <ele>270.75</ele>
        <time>2013-05-26T19:03:22Z</time>
      </trkpt>
      <trkpt lat="43.47401" lon="1.7267">
        <ele>268.83</ele>
        <time>2013-05-26T19:03:26Z</time>
      </trkpt>
      <trkpt lat="43.47408" lon="1.72543">
        <ele>266.9</ele>
        <time>2013-05-26T19:03:30Z</time>
      </trkpt>
      <trkpt lat="43.4742" lon="1.7239">
        <ele>266.9</ele>
        <time>2013-05-26T19:03:35Z</time>
      </trkpt>
      <trkpt lat="43.4743" lon="1.72236">
        <ele>265.94</ele>
        <time>2013-05-26T19:03:40Z</time>
      </trkpt>
      <trkpt lat="43.47437" lon="1.72111">
        <ele>267.86</ele>
        <time>2013-05-26T19:03:44Z</time>
      </trkpt>
      <trkpt lat="43.47448" lon="1.7196">
        <ele>270.27</ele>
        <time>2013-05-26T19:03:49Z</time>
      </trkpt>
      <trkpt lat="43.47457" lon="1.71807">
        <ele>272.19</ele>
        <time>2013-05-26T19:03:54Z</time>
      </trkpt>
      <trkpt lat="43.47467" lon="1.71654">
        <ele>272.67</ele>
        <time>2013-05-26T19:03:59Z</time>
      </trkpt>
      <trkpt lat="43.47482" lon="1.71509">
        <ele>274.11</ele>
        <time>2013-05-26T19:04:04Z</time>
      </trkpt>
      <trkpt lat="43.4751" lon="1.7139">
        <ele>270.75</ele>
        <time>2013-05-26T19:04:08Z</time>
      </trkpt>
      <trkpt lat="43.4754" lon="1.71263">
        <ele>269.31</ele>
        <time>2013-05-26T19:04:12Z</time>
      </trkpt>
      <trkpt lat="43.47569" lon="1.71141">
        <ele>267.38</ele>
        <time>2013-05-26T19:04:16Z</time>
      </trkpt>
      <trkpt lat="43.47602" lon="1.70999">
        <ele>266.42</ele>
        <time>2013-05-26T19:04:21Z</time>
      </trkpt>
      <trkpt lat="43.47637" lon="1.70852">
        <ele>268.35</ele>
        <time>2013-05-26T19:04:26Z</time>
      </trkpt>
      <trkpt lat="43.47666" lon="1.70732">
        <ele>268.35</ele>
        <time>2013-05-26T19:04:30Z</time>
      </trkpt>
      <trkpt lat="43.47694" lon="1.70612">
        <ele>270.27</ele>
        <time>2013-05-26T19:04:34Z</time>
      </trkpt>
      <trkpt lat="43.47722" lon="1.70488">
        <ele>268.83</ele>
        <time>2013-05-26T19:04:38Z</time>
      </trkpt>
      <trkpt lat="43.47753" lon="1.70365">
        <ele>269.31</ele>
        <time>2013-05-26T19:04:42Z</time>
      </trkpt>
      <trkpt lat="43.47788" lon="1.70227">
        <ele>269.31</ele>
        <time>2013-05-26T19:04:47Z</time>
      </trkpt>
      <trkpt lat="43.47824" lon="1.70083">
        <ele>270.27</ele>
        <time>2013-05-26T19:04:52Z</time>
      </trkpt>
      <trkpt lat="43.47855" lon="1.6996">
        <ele>270.75</ele>
        <time>2013-05-26T19:04:56Z</time>
      </trkpt>
      <trkpt lat="43.47888" lon="1.69834">
        <ele>271.71</ele>
        <time>2013-05-26T19:05:00Z</time>
      </trkpt>
      <trkpt lat="43.4792" lon="1.69704">
        <ele>271.71</ele>
        <time>2013-05-26T19:05:04Z</time>
      </trkpt>
      <trkpt lat="43.47951" lon="1.69555">
        <ele>268.35</ele>
        <time>2013-05-26T19:05:09Z</time>
      </trkpt>
      <trkpt lat="43.4797" lon="1.69432">
        <ele>266.9</ele>
        <time>2013-05-26T19:05:13Z</time>
      </trkpt>
      <trkpt lat="43.47992" lon="1.69287">
        <ele>264.5</ele>
        <time>2013-05-26T19:05:18Z</time>
      </trkpt>
      <trkpt lat="43.48013" lon="1.69143">
        <ele>267.38</ele>
        <time>2013-05-26T19:05:24Z</time>
      </trkpt>
      <trkpt lat="43.48035" lon="1.6901">
        <ele>266.9</ele>
        <time>2013-05-26T19:05:30Z</time>
      </trkpt>
      <trkpt lat="43.48056" lon="1.68889">
        <ele>264.5</ele>
        <time>2013-05-26T19:05:35Z</time>
      </trkpt>
      <trkpt lat="43.48078" lon="1.68758">
        <ele>260.17</ele>
        <time>2013-05-26T19:05:40Z</time>
      </trkpt>
      <trkpt lat="43.48105" lon="1.68614">
        <ele>254.41</ele>
        <time>2013-05-26T19:05:45Z</time>
      </trkpt>
      <trkpt lat="43.48129" lon="1.68485">
        <ele>252</ele>
        <time>2013-05-26T19:05:49Z</time>
      </trkpt>
      <trkpt lat="43.48155" lon="1.68336">
        <ele>250.08</ele>
        <time>2013-05-26T19:05:54Z</time>
      </trkpt>
      <trkpt lat="43.48176" lon="1.68216">
        <ele>253.93</ele>
        <time>2013-05-26T19:05:58Z</time>
      </trkpt>
      <trkpt lat="43.48186" lon="1.68092">
        <ele>257.77</ele>
        <time>2013-05-26T19:06:02Z</time>
      </trkpt>
      <trkpt lat="43.48186" lon="1.67967">
        <ele>260.65</ele>
        <time>2013-05-26T19:06:06Z</time>
      </trkpt>
      <trkpt lat="43.48186" lon="1.67828">
        <ele>261.62</ele>
        <time>2013-05-26T19:06:11Z</time>
      </trkpt>
      <trkpt lat="43.48186" lon="1.67686">
        <ele>259.21</ele>
        <time>2013-05-26T19:06:16Z</time>
      </trkpt>
      <trkpt lat="43.48186" lon="1.67545">
        <ele>253.44</ele>
        <time>2013-05-26T19:06:21Z</time>
      </trkpt>
      <trkpt lat="43.48185" lon="1.67423">
        <ele>250.08</ele>
        <time>2013-05-26T19:06:25Z</time>
      </trkpt>
      <trkpt lat="43.48183" lon="1.67271">
        <ele>248.64</ele>
        <time>2013-05-26T19:06:30Z</time>
      </trkpt>
      <trkpt lat="43.48183" lon="1.67124">
        <ele>253.44</ele>
        <time>2013-05-26T19:06:35Z</time>
      </trkpt>
      <trkpt lat="43.48184" lon="1.66997">
        <ele>259.21</ele>
        <time>2013-05-26T19:06:40Z</time>
      </trkpt>
      <trkpt lat="43.48185" lon="1.66861">
        <ele>263.54</ele>
        <time>2013-05-26T19:06:46Z</time>
      </trkpt>
      <trkpt lat="43.48184" lon="1.66729">
        <ele>268.83</ele>
        <time>2013-05-26T19:06:53Z</time>
      </trkpt>
      <trkpt lat="43.48209" lon="1.66597">
        <ele>268.83</ele>
        <time>2013-05-26T19:07:02Z</time>
      </trkpt>
      <trkpt lat="43.48251" lon="1.66479">
        <ele>265.94</ele>
        <time>2013-05-26T19:07:10Z</time>
      </trkpt>
      <trkpt lat="43.48294" lon="1.66367">
        <ele>263.54</ele>
        <time>2013-05-26T19:07:17Z</time>
      </trkpt>
      <trkpt lat="43.48337" lon="1.66254">
        <ele>260.65</ele>
        <time>2013-05-26T19:07:25Z</time>
      </trkpt>
      <trkpt lat="43.48383" lon="1.66139">
        <ele>258.73</ele>
        <time>2013-05-26T19:07:32Z</time>
      </trkpt>
      <trkpt lat="43.48428" lon="1.6602">
        <ele>257.29</ele>
        <time>2013-05-26T19:07:39Z</time>
      </trkpt>
      <trkpt lat="43.48472" lon="1.65902">
        <ele>258.25</ele>
        <time>2013-05-26T19:07:45Z</time>
      </trkpt>
      <trkpt lat="43.48518" lon="1.65781">
        <ele>255.85</ele>
        <time>2013-05-26T19:07:50Z</time>
      </trkpt>
      <trkpt lat="43.48566" lon="1.65654">
        <ele>254.41</ele>
        <time>2013-05-26T19:07:55Z</time>
      </trkpt>
      <trkpt lat="43.48616" lon="1.65523">
        <ele>253.93</ele>
        <time>2013-05-26T19:08:00Z</time>
      </trkpt>
      <trkpt lat="43.4866" lon="1.65406">
        <ele>253.93</ele>
        <time>2013-05-26T19:08:04Z</time>
      </trkpt>
      <trkpt lat="43.48704" lon="1.6529">
        <ele>248.16</ele>
        <time>2013-05-26T19:08:08Z</time>
      </trkpt>
      <trkpt lat="43.48748" lon="1.65174">
        <ele>246.23</ele>
        <time>2013-05-26T19:08:12Z</time>
      </trkpt>
      <trkpt lat="43.48791" lon="1.65057">
        <ele>245.27</ele>
        <time>2013-05-26T19:08:16Z</time>
      </trkpt>
      <trkpt lat="43.48835" lon="1.6494">
        <ele>245.75</ele>
        <time>2013-05-26T19:08:20Z</time>
      </trkpt>
      <trkpt lat="43.48878" lon="1.64824">
        <ele>243.83</ele>
        <time>2013-05-26T19:08:24Z</time>
      </trkpt>
      <trkpt lat="43.48921" lon="1.64709">
        <ele>244.79</ele>
        <time>2013-05-26T19:08:28Z</time>
      </trkpt>
      <trkpt lat="43.48966" lon="1.64591">
        <ele>245.75</ele>
        <time>2013-05-26T19:08:32Z</time>
      </trkpt>
      <trkpt lat="43.49009" lon="1.64475">
        <ele>248.64</ele>
        <time>2013-05-26T19:08:36Z</time>
      </trkpt>
      <trkpt lat="43.49055" lon="1.64355">
        <ele>249.6</ele>
        <time>2013-05-26T19:08:40Z</time>
      </trkpt>
      <trkpt lat="43.49098" lon="1.6424">
        <ele>249.6</ele>
        <time>2013-05-26T19:08:44Z</time>
      </trkpt>
      <trkpt lat="43.49142" lon="1.64123">
        <ele>247.68</ele>
        <time>2013-05-26T19:08:48Z</time>
      </trkpt>
      <trkpt lat="43.49187" lon="1.64003">
        <ele>246.72</ele>
        <time>2013-05-26T19:08:52Z</time>
      </trkpt>
      <trkpt lat="43.49231" lon="1.63884">
        <ele>245.27</ele>
        <time>2013-05-26T19:08:56Z</time>
      </trkpt>
      <trkpt lat="43.49276" lon="1.63766">
        <ele>244.79</ele>
        <time>2013-05-26T19:09:00Z</time>
      </trkpt>
      <trkpt lat="43.4932" lon="1.6365">
        <ele>246.72</ele>
        <time>2013-05-26T19:09:04Z</time>
      </trkpt>
      <trkpt lat="43.49362" lon="1.63537">
        <ele>248.16</ele>
        <time>2013-05-26T19:09:08Z</time>
      </trkpt>
      <trkpt lat="43.49409" lon="1.63422">
        <ele>250.56</ele>
        <time>2013-05-26T19:09:12Z</time>
      </trkpt>
      <trkpt lat="43.49462" lon="1.63306">
        <ele>250.56</ele>
        <time>2013-05-26T19:09:16Z</time>
      </trkpt>
      <trkpt lat="43.49516" lon="1.63181">
        <ele>252</ele>
        <time>2013-05-26T19:09:21Z</time>
      </trkpt>
      <trkpt lat="43.4957" lon="1.63061">
        <ele>251.04</ele>
        <time>2013-05-26T19:09:26Z</time>
      </trkpt>
      <trkpt lat="43.49629" lon="1.6293">
        <ele>249.6</ele>
        <time>2013-05-26T19:09:31Z</time>
      </trkpt>
      <trkpt lat="43.49687" lon="1.628">
        <ele>250.08</ele>
        <time>2013-05-26T19:09:36Z</time>
      </trkpt>
      <trkpt lat="43.49742" lon="1.62665">
        <ele>249.6</ele>
        <time>2013-05-26T19:09:41Z</time>
      </trkpt>
      <trkpt lat="43.49778" lon="1.62549">
        <ele>250.56</ele>
        <time>2013-05-26T19:09:45Z</time>
      </trkpt>
      <trkpt lat="43.4982" lon="1.6241">
        <ele>251.04</ele>
        <time>2013-05-26T19:09:50Z</time>
      </trkpt>
      <trkpt lat="43.49875" lon="1.62278">
        <ele>250.56</ele>
        <time>2013-05-26T19:09:55Z</time>
      </trkpt>
      <trkpt lat="43.49933" lon="1.62178">
        <ele>249.12</ele>
        <time>2013-05-26T19:10:00Z</time>
      </trkpt>
      <trkpt lat="43.50001" lon="1.62066">
        <ele>247.2</ele>
        <time>2013-05-26T19:10:06Z</time>
      </trkpt>
      <trkpt lat="43.50058" lon="1.61968">
        <ele>244.79</ele>
        <time>2013-05-26T19:10:11Z</time>
      </trkpt>
      <trkpt lat="43.50114" lon="1.61866">
        <ele>245.75</ele>
        <time>2013-05-26T19:10:16Z</time>
      </trkpt>
      <trkpt lat="43.50175" lon="1.61753">
        <ele>246.23</ele>
        <time>2013-05-26T19:10:22Z</time>
      </trkpt>
      <trkpt lat="43.50228" lon="1.6165">
        <ele>246.23</ele>
        <time>2013-05-26T19:10:29Z</time>
      </trkpt>
      <trkpt lat="43.50288" lon="1.61538">
        <ele>245.75</ele>
        <time>2013-05-26T19:10:37Z</time>
      </trkpt>
      <trkpt lat="43.50346" lon="1.61423">
        <ele>243.83</ele>
        <time>2013-05-26T19:10:45Z</time>
      </trkpt>
      <trkpt lat="43.50398" lon="1.61321">
        <ele>244.31</ele>
        <time>2013-05-26T19:10:52Z</time>
      </trkpt>
      <trkpt lat="43.50454" lon="1.6121">
        <ele>242.39</ele>
        <time>2013-05-26T19:10:59Z</time>
      </trkpt>
      <trkpt lat="43.50511" lon="1.61099">
        <ele>242.87</ele>
        <time>2013-05-26T19:11:06Z</time>
      </trkpt>
      <trkpt lat="43.50569" lon="1.60985">
        <ele>243.83</ele>
        <time>2013-05-26T19:11:13Z</time>
      </trkpt>
      <trkpt lat="43.50628" lon="1.60871">
        <ele>245.75</ele>
        <time>2013-05-26T19:11:20Z</time>
      </trkpt>
      <trkpt lat="43.50687" lon="1.60755">
        <ele>248.64</ele>
        <time>2013-05-26T19:11:26Z</time>
      </trkpt>
      <trkpt lat="43.50749" lon="1.60637">
        <ele>246.72</ele>
        <time>2013-05-26T19:11:31Z</time>
      </trkpt>
      <trkpt lat="43.50807" lon="1.60524">
        <ele>246.23</ele>
        <time>2013-05-26T19:11:36Z</time>
      </trkpt>
      <trkpt lat="43.50878" lon="1.60411">
        <ele>245.27</ele>
        <time>2013-05-26T19:11:41Z</time>
      </trkpt>
      <trkpt lat="43.50957" lon="1.60324">
        <ele>240.47</ele>
        <time>2013-05-26T19:11:45Z</time>
      </trkpt>
      <trkpt lat="43.51039" lon="1.60232">
        <ele>235.66</ele>
        <time>2013-05-26T19:11:49Z</time>
      </trkpt>
      <trkpt lat="43.51112" lon="1.60148">
        <ele>231.33</ele>
        <time>2013-05-26T19:11:53Z</time>
      </trkpt>
      <trkpt lat="43.51187" lon="1.60062">
        <ele>229.41</ele>
        <time>2013-05-26T19:11:57Z</time>
      </trkpt>
      <trkpt lat="43.51264" lon="1.59974">
        <ele>227.01</ele>
        <time>2013-05-26T19:12:01Z</time>
      </trkpt>
      <trkpt lat="43.51339" lon="1.59887">
        <ele>223.64</ele>
        <time>2013-05-26T19:12:05Z</time>
      </trkpt>
      <trkpt lat="43.51412" lon="1.59802">
        <ele>220.28</ele>
        <time>2013-05-26T19:12:09Z</time>
      </trkpt>
      <trkpt lat="43.51485" lon="1.59718">
        <ele>215.47</ele>
        <time>2013-05-26T19:12:13Z</time>
      </trkpt>
      <trkpt lat="43.51556" lon="1.59635">
        <ele>214.03</ele>
        <time>2013-05-26T19:12:17Z</time>
      </trkpt>
      <trkpt lat="43.51631" lon="1.5955">
        <ele>214.99</ele>
        <time>2013-05-26T19:12:21Z</time>
      </trkpt>
      <trkpt lat="43.51705" lon="1.59464">
        <ele>220.28</ele>
        <time>2013-05-26T19:12:25Z</time>
      </trkpt>
      <trkpt lat="43.51779" lon="1.59378">
        <ele>217.4</ele>
        <time>2013-05-26T19:12:29Z</time>
      </trkpt>
      <trkpt lat="43.5186" lon="1.59285">
        <ele>220.28</ele>
        <time>2013-05-26T19:12:33Z</time>
      </trkpt>
      <trkpt lat="43.51937" lon="1.59195">
        <ele>222.2</ele>
        <time>2013-05-26T19:12:37Z</time>
      </trkpt>
      <trkpt lat="43.52015" lon="1.59104">
        <ele>229.89</ele>
        <time>2013-05-26T19:12:42Z</time>
      </trkpt>
      <trkpt lat="43.52086" lon="1.59022">
        <ele>230.85</ele>
        <time>2013-05-26T19:12:48Z</time>
      </trkpt>
      <trkpt lat="43.52159" lon="1.58938">
        <ele>232.3</ele>
        <time>2013-05-26T19:12:55Z</time>
      </trkpt>
      <trkpt lat="43.52229" lon="1.58859">
        <ele>233.26</ele>
        <time>2013-05-26T19:13:02Z</time>
      </trkpt>
      <trkpt lat="43.52302" lon="1.58774">
        <ele>233.74</ele>
        <time>2013-05-26T19:13:10Z</time>
      </trkpt>
      <trkpt lat="43.52371" lon="1.58693">
        <ele>234.22</ele>
        <time>2013-05-26T19:13:17Z</time>
      </trkpt>
      <trkpt lat="43.52442" lon="1.58613">
        <ele>235.18</ele>
        <time>2013-05-26T19:13:24Z</time>
      </trkpt>
      <trkpt lat="43.52527" lon="1.58517">
        <ele>234.22</ele>
        <time>2013-05-26T19:13:31Z</time>
      </trkpt>
      <trkpt lat="43.52609" lon="1.58422">
        <ele>233.74</ele>
        <time>2013-05-26T19:13:36Z</time>
      </trkpt>
      <trkpt lat="43.5269" lon="1.5833">
        <ele>234.7</ele>
        <time>2013-05-26T19:13:41Z</time>
      </trkpt>
      <trkpt lat="43.52773" lon="1.58236">
        <ele>236.14</ele>
        <time>2013-05-26T19:13:46Z</time>
      </trkpt>
      <trkpt lat="43.52858" lon="1.58139">
        <ele>236.14</ele>
        <time>2013-05-26T19:13:51Z</time>
      </trkpt>
      <trkpt lat="43.52944" lon="1.5804">
        <ele>235.18</ele>
        <time>2013-05-26T19:13:56Z</time>
      </trkpt>
      <trkpt lat="43.53008" lon="1.57947">
        <ele>232.78</ele>
        <time>2013-05-26T19:14:00Z</time>
      </trkpt>
      <trkpt lat="43.53057" lon="1.5784">
        <ele>229.41</ele>
        <time>2013-05-26T19:14:04Z</time>
      </trkpt>
      <trkpt lat="43.53105" lon="1.57731">
        <ele>227.49</ele>
        <time>2013-05-26T19:14:08Z</time>
      </trkpt>
      <trkpt lat="43.53143" lon="1.57612">
        <ele>226.05</ele>
        <time>2013-05-26T19:14:12Z</time>
      </trkpt>
      <trkpt lat="43.53177" lon="1.57489">
        <ele>223.64</ele>
        <time>2013-05-26T19:14:16Z</time>
      </trkpt>
      <trkpt lat="43.53209" lon="1.57371">
        <ele>222.2</ele>
        <time>2013-05-26T19:14:20Z</time>
      </trkpt>
      <trkpt lat="43.53247" lon="1.57233">
        <ele>221.72</ele>
        <time>2013-05-26T19:14:25Z</time>
      </trkpt>
      <trkpt lat="43.53284" lon="1.57099">
        <ele>220.28</ele>
        <time>2013-05-26T19:14:30Z</time>
      </trkpt>
      <trkpt lat="43.53318" lon="1.56974">
        <ele>220.28</ele>
        <time>2013-05-26T19:14:35Z</time>
      </trkpt>
      <trkpt lat="43.53355" lon="1.5685">
        <ele>219.8</ele>
        <time>2013-05-26T19:14:40Z</time>
      </trkpt>
      <trkpt lat="43.53387" lon="1.56725">
        <ele>219.8</ele>
        <time>2013-05-26T19:14:45Z</time>
      </trkpt>
      <trkpt lat="43.53419" lon="1.56592">
        <ele>215.47</ele>
        <time>2013-05-26T19:14:50Z</time>
      </trkpt>
      <trkpt lat="43.5345" lon="1.56465">
        <ele>213.55</ele>
        <time>2013-05-26T19:14:54Z</time>
      </trkpt>
      <trkpt lat="43.53492" lon="1.56322">
        <ele>212.59</ele>
        <time>2013-05-26T19:14:58Z</time>
      </trkpt>
      <trkpt lat="43.5353" lon="1.56189">
        <ele>210.19</ele>
        <time>2013-05-26T19:15:02Z</time>
      </trkpt>
      <trkpt lat="43.53565" lon="1.56062">
        <ele>207.78</ele>
        <time>2013-05-26T19:15:06Z</time>
      </trkpt>
      <trkpt lat="43.53608" lon="1.55921">
        <ele>206.34</ele>
        <time>2013-05-26T19:15:11Z</time>
      </trkpt>
      <trkpt lat="43.53648" lon="1.55787">
        <ele>203.94</ele>
        <time>2013-05-26T19:15:16Z</time>
      </trkpt>
      <trkpt lat="43.53684" lon="1.55642">
        <ele>199.61</ele>
        <time>2013-05-26T19:15:21Z</time>
      </trkpt>
      <trkpt lat="43.53725" lon="1.55499">
        <ele>198.17</ele>
        <time>2013-05-26T19:15:26Z</time>
      </trkpt>
      <trkpt lat="43.53768" lon="1.55366">
        <ele>194.32</ele>
        <time>2013-05-26T19:15:31Z</time>
      </trkpt>
      <trkpt lat="43.53799" lon="1.55245">
        <ele>193.84</ele>
        <time>2013-05-26T19:15:36Z</time>
      </trkpt>
      <trkpt lat="43.53827" lon="1.55114">
        <ele>194.8</ele>
        <time>2013-05-26T19:15:43Z</time>
      </trkpt>
      <trkpt lat="43.53874" lon="1.55001">
        <ele>196.25</ele>
        <time>2013-05-26T19:15:51Z</time>
      </trkpt>
      <trkpt lat="43.53932" lon="1.54895">
        <ele>195.77</ele>
        <time>2013-05-26T19:15:59Z</time>
      </trkpt>
      <trkpt lat="43.53998" lon="1.54799">
        <ele>195.28</ele>
        <time>2013-05-26T19:16:09Z</time>
      </trkpt>
      <trkpt lat="43.54041" lon="1.54694">
        <ele>195.28</ele>
        <time>2013-05-26T19:16:19Z</time>
      </trkpt>
      <trkpt lat="43.54102" lon="1.54583">
        <ele>196.25</ele>
        <time>2013-05-26T19:16:28Z</time>
      </trkpt>
      <trkpt lat="43.54158" lon="1.5448">
        <ele>195.77</ele>
        <time>2013-05-26T19:16:36Z</time>
      </trkpt>
      <trkpt lat="43.54216" lon="1.54377">
        <ele>193.84</ele>
        <time>2013-05-26T19:17:12Z</time>
      </trkpt>
      <trkpt lat="43.54277" lon="1.54267">
        <ele>194.8</ele>
        <time>2013-05-26T19:17:22Z</time>
      </trkpt>
      <trkpt lat="43.54336" lon="1.54168">
        <ele>194.8</ele>
        <time>2013-05-26T19:17:30Z</time>
      </trkpt>
      <trkpt lat="43.54403" lon="1.54083">
        <ele>195.28</ele>
        <time>2013-05-26T19:17:37Z</time>
      </trkpt>
      <trkpt lat="43.54471" lon="1.53998">
        <ele>197.69</ele>
        <time>2013-05-26T19:17:44Z</time>
      </trkpt>
      <trkpt lat="43.54538" lon="1.53913">
        <ele>201.05</ele>
        <time>2013-05-26T19:17:51Z</time>
      </trkpt>
      <trkpt lat="43.54613" lon="1.5382">
        <ele>205.86</ele>
        <time>2013-05-26T19:17:59Z</time>
      </trkpt>
      <trkpt lat="43.54693" lon="1.53753">
        <ele>206.82</ele>
        <time>2013-05-26T19:18:06Z</time>
      </trkpt>
      <trkpt lat="43.54782" lon="1.53699">
        <ele>204.42</ele>
        <time>2013-05-26T19:18:14Z</time>
      </trkpt>
      <trkpt lat="43.5487" lon="1.53654">
        <ele>203.46</ele>
        <time>2013-05-26T19:18:23Z</time>
      </trkpt>
      <trkpt lat="43.54945" lon="1.53588">
        <ele>203.94</ele>
        <time>2013-05-26T19:18:32Z</time>
      </trkpt>
      <trkpt lat="43.55026" lon="1.53527">
        <ele>203.46</ele>
        <time>2013-05-26T19:18:40Z</time>
      </trkpt>
      <trkpt lat="43.55114" lon="1.53465">
        <ele>202.98</ele>
        <time>2013-05-26T19:18:49Z</time>
      </trkpt>
      <trkpt lat="43.55195" lon="1.53411">
        <ele>203.94</ele>
        <time>2013-05-26T19:18:57Z</time>
      </trkpt>
      <trkpt lat="43.55283" lon="1.5335">
        <ele>203.94</ele>
        <time>2013-05-26T19:19:06Z</time>
      </trkpt>
      <trkpt lat="43.55367" lon="1.53292">
        <ele>205.38</ele>
        <time>2013-05-26T19:19:14Z</time>
      </trkpt>
      <trkpt lat="43.55446" lon="1.5322">
        <ele>205.38</ele>
        <time>2013-05-26T19:19:22Z</time>
      </trkpt>
      <trkpt lat="43.55521" lon="1.53135">
        <ele>204.9</ele>
        <time>2013-05-26T19:19:30Z</time>
      </trkpt>
      <trkpt lat="43.55595" lon="1.53047">
        <ele>202.49</ele>
        <time>2013-05-26T19:19:38Z</time>
      </trkpt>
      <trkpt lat="43.55669" lon="1.52956">
        <ele>199.13</ele>
        <time>2013-05-26T19:19:46Z</time>
      </trkpt>
      <trkpt lat="43.55744" lon="1.52863">
        <ele>191.44</ele>
        <time>2013-05-26T19:19:54Z</time>
      </trkpt>
      <trkpt lat="43.55804" lon="1.52758">
        <ele>186.15</ele>
        <time>2013-05-26T19:20:02Z</time>
      </trkpt>
      <trkpt lat="43.55859" lon="1.52657">
        <ele>181.35</ele>
        <time>2013-05-26T19:20:09Z</time>
      </trkpt>
      <trkpt lat="43.55916" lon="1.52555">
        <ele>177.5</ele>
        <time>2013-05-26T19:20:16Z</time>
      </trkpt>
      <trkpt lat="43.55971" lon="1.52453">
        <ele>172.69</ele>
        <time>2013-05-26T19:20:23Z</time>
      </trkpt>
      <trkpt lat="43.56031" lon="1.52341">
        <ele>169.33</ele>
        <time>2013-05-26T19:20:31Z</time>
      </trkpt>
      <trkpt lat="43.56087" lon="1.52239">
        <ele>166.45</ele>
        <time>2013-05-26T19:20:38Z</time>
      </trkpt>
      <trkpt lat="43.56143" lon="1.52136">
        <ele>162.6</ele>
        <time>2013-05-26T19:20:45Z</time>
      </trkpt>
      <trkpt lat="43.56202" lon="1.5204">
        <ele>159.72</ele>
        <time>2013-05-26T19:20:55Z</time>
      </trkpt>
      <trkpt lat="43.56246" lon="1.5194">
        <ele>159.24</ele>
        <time>2013-05-26T19:21:06Z</time>
      </trkpt>
      <trkpt lat="43.56299" lon="1.51832">
        <ele>157.79</ele>
        <time>2013-05-26T19:21:15Z</time>
      </trkpt>
      <trkpt lat="43.56349" lon="1.51717">
        <ele>157.31</ele>
        <time>2013-05-26T19:21:25Z</time>
      </trkpt>
      <trkpt lat="43.56393" lon="1.51607">
        <ele>156.35</ele>
        <time>2013-05-26T19:21:32Z</time>
      </trkpt>
      <trkpt lat="43.56443" lon="1.51485">
        <ele>156.35</ele>
        <time>2013-05-26T19:21:40Z</time>
      </trkpt>
      <trkpt lat="43.56497" lon="1.51385">
        <ele>155.39</ele>
        <time>2013-05-26T19:21:48Z</time>
      </trkpt>
      <trkpt lat="43.56532" lon="1.51292">
        <ele>154.91</ele>
        <time>2013-05-26T19:21:58Z</time>
      </trkpt>
      <trkpt lat="43.56574" lon="1.51171">
        <ele>155.87</ele>
        <time>2013-05-26T19:22:06Z</time>
      </trkpt>
      <trkpt lat="43.56615" lon="1.51056">
        <ele>153.47</ele>
        <time>2013-05-26T19:22:13Z</time>
      </trkpt>
      <trkpt lat="43.56654" lon="1.50932">
        <ele>153.47</ele>
        <time>2013-05-26T19:22:22Z</time>
      </trkpt>
      <trkpt lat="43.5669" lon="1.50818">
        <ele>153.95</ele>
        <time>2013-05-26T19:22:34Z</time>
      </trkpt>
      <trkpt lat="43.56741" lon="1.50704">
        <ele>153.95</ele>
        <time>2013-05-26T19:22:45Z</time>
      </trkpt>
      <trkpt lat="43.56779" lon="1.50586">
        <ele>155.39</ele>
        <time>2013-05-26T19:22:55Z</time>
      </trkpt>
      <trkpt lat="43.56833" lon="1.50475">
        <ele>156.35</ele>
        <time>2013-05-26T19:23:04Z</time>
      </trkpt>
      <trkpt lat="43.5689" lon="1.50363">
        <ele>154.91</ele>
        <time>2013-05-26T19:23:12Z</time>
      </trkpt>
      <trkpt lat="43.56944" lon="1.50244">
        <ele>153.47</ele>
        <time>2013-05-26T19:23:20Z</time>
      </trkpt>
      <trkpt lat="43.56996" lon="1.50125">
        <ele>152.99</ele>
        <time>2013-05-26T19:23:28Z</time>
      </trkpt>
      <trkpt lat="43.57043" lon="1.50017">
        <ele>151.06</ele>
        <time>2013-05-26T19:23:35Z</time>
      </trkpt>
      <trkpt lat="43.57098" lon="1.49913">
        <ele>150.58</ele>
        <time>2013-05-26T19:23:45Z</time>
      </trkpt>
      <trkpt lat="43.57148" lon="1.49802">
        <ele>151.06</ele>
        <time>2013-05-26T19:23:57Z</time>
      </trkpt>
    </trkseg>
  </trk>
</gpx>